<?xml version="1.0" encoding="UTF-8" standalone="no" ?>
<gpx xmlns="http://www.topografix.com/GPX/1/1" xmlns:xsi="http://www.w3.org/2001/XMLSchema-instance" xsi:schemaLocation="http://www.topografix.com/GPX/1/1 http://www.topografix.com/GPX/1/1/gpx.xsd" version="1.1" creator="VisuGPX - https://www.visugpx.com">
  <metadata>
    <name>Pointe du Château (Aravis 74)</name>
    <desc><![CDATA[Départ de Romme s/Cluses
Photos et commentaires sur : [url]http://www.photosrandos.fr[/url]]]></desc>
  </metadata>
  <trk>
    <name><![CDATA[Move]]></name>
    <trkseg>
      <trkpt lat="46.02783" lon="6.57317">
        <ele>1314.1999511719</ele>
        <time>2019-02-20T07:45:40.000Z</time>
      </trkpt>
      <trkpt lat="46.02781" lon="6.57318">
        <ele>1309</ele>
        <time>2019-02-20T07:45:48.000Z</time>
      </trkpt>
      <trkpt lat="46.02779" lon="6.5732">
        <ele>1309</ele>
        <time>2019-02-20T07:45:51.000Z</time>
      </trkpt>
      <trkpt lat="46.02777" lon="6.57318">
        <ele>1309.4000244141</ele>
        <time>2019-02-20T07:46:02.000Z</time>
      </trkpt>
      <trkpt lat="46.02776" lon="6.5732">
        <ele>1308.5999755859</ele>
        <time>2019-02-20T07:46:31.000Z</time>
      </trkpt>
      <trkpt lat="46.02774" lon="6.57322">
        <ele>1308.4000244141</ele>
        <time>2019-02-20T07:46:36.000Z</time>
      </trkpt>
      <trkpt lat="46.02776" lon="6.57321">
        <ele>1308.5999755859</ele>
        <time>2019-02-20T07:46:50.000Z</time>
      </trkpt>
      <trkpt lat="46.02778" lon="6.57322">
        <ele>1308</ele>
        <time>2019-02-20T07:46:59.000Z</time>
      </trkpt>
      <trkpt lat="46.02781" lon="6.5732">
        <ele>1308.1999511719</ele>
        <time>2019-02-20T07:47:02.000Z</time>
      </trkpt>
      <trkpt lat="46.02783" lon="6.57319">
        <ele>1308.5999755859</ele>
        <time>2019-02-20T07:47:06.000Z</time>
      </trkpt>
      <trkpt lat="46.02785" lon="6.5732">
        <ele>1308.4000244141</ele>
        <time>2019-02-20T07:47:37.000Z</time>
      </trkpt>
      <trkpt lat="46.02787" lon="6.5732">
        <ele>1309</ele>
        <time>2019-02-20T07:47:43.000Z</time>
      </trkpt>
      <trkpt lat="46.02785" lon="6.5732">
        <ele>1308.5999755859</ele>
        <time>2019-02-20T07:48:15.000Z</time>
      </trkpt>
      <trkpt lat="46.02782" lon="6.5732">
        <ele>1308.4000244141</ele>
        <time>2019-02-20T07:48:24.000Z</time>
      </trkpt>
      <trkpt lat="46.02783" lon="6.57323">
        <ele>1308.5999755859</ele>
        <time>2019-02-20T07:48:33.000Z</time>
      </trkpt>
      <trkpt lat="46.02785" lon="6.57324">
        <ele>1308.4000244141</ele>
        <time>2019-02-20T07:48:35.000Z</time>
      </trkpt>
      <trkpt lat="46.02787" lon="6.57326">
        <ele>1308.4000244141</ele>
        <time>2019-02-20T07:48:37.000Z</time>
      </trkpt>
      <trkpt lat="46.02789" lon="6.57326">
        <ele>1308.1999511719</ele>
        <time>2019-02-20T07:48:39.000Z</time>
      </trkpt>
      <trkpt lat="46.02791" lon="6.57327">
        <ele>1308</ele>
        <time>2019-02-20T07:48:41.000Z</time>
      </trkpt>
      <trkpt lat="46.02793" lon="6.57329">
        <ele>1308</ele>
        <time>2019-02-20T07:48:43.000Z</time>
      </trkpt>
      <trkpt lat="46.02793" lon="6.57332">
        <ele>1307.8000488281</ele>
        <time>2019-02-20T07:48:46.000Z</time>
      </trkpt>
      <trkpt lat="46.02791" lon="6.57333">
        <ele>1308.4000244141</ele>
        <time>2019-02-20T07:48:50.000Z</time>
      </trkpt>
      <trkpt lat="46.02789" lon="6.57332">
        <ele>1308.5999755859</ele>
        <time>2019-02-20T07:48:54.000Z</time>
      </trkpt>
      <trkpt lat="46.02786" lon="6.57334">
        <ele>1309</ele>
        <time>2019-02-20T07:48:57.000Z</time>
      </trkpt>
      <trkpt lat="46.02784" lon="6.57335">
        <ele>1309.1999511719</ele>
        <time>2019-02-20T07:49:00.000Z</time>
      </trkpt>
      <trkpt lat="46.02782" lon="6.57336">
        <ele>1309.8000488281</ele>
        <time>2019-02-20T07:49:12.000Z</time>
      </trkpt>
      <trkpt lat="46.0278" lon="6.57337">
        <ele>1309.5999755859</ele>
        <time>2019-02-20T07:49:15.000Z</time>
      </trkpt>
      <trkpt lat="46.02778" lon="6.57338">
        <ele>1310.1997517397</ele>
        <time>2019-02-20T07:49:19.000Z</time>
      </trkpt>
      <trkpt lat="46.02777" lon="6.57341">
        <ele>1310.5999755859</ele>
        <time>2019-02-20T07:49:22.000Z</time>
      </trkpt>
      <trkpt lat="46.02778" lon="6.57344">
        <ele>1311</ele>
        <time>2019-02-20T07:49:27.000Z</time>
      </trkpt>
      <trkpt lat="46.02779" lon="6.57346">
        <ele>1311.4000244141</ele>
        <time>2019-02-20T07:49:30.000Z</time>
      </trkpt>
      <trkpt lat="46.02782" lon="6.57346">
        <ele>1311.4000244141</ele>
        <time>2019-02-20T07:49:33.000Z</time>
      </trkpt>
      <trkpt lat="46.02784" lon="6.57346">
        <ele>1311.4000244141</ele>
        <time>2019-02-20T07:49:35.000Z</time>
      </trkpt>
      <trkpt lat="46.02786" lon="6.57347">
        <ele>1311.4000244141</ele>
        <time>2019-02-20T07:49:37.000Z</time>
      </trkpt>
      <trkpt lat="46.02787" lon="6.57348">
        <ele>1311.5999755859</ele>
        <time>2019-02-20T07:49:39.000Z</time>
      </trkpt>
      <trkpt lat="46.02789" lon="6.57349">
        <ele>1311.5999755859</ele>
        <time>2019-02-20T07:49:41.000Z</time>
      </trkpt>
      <trkpt lat="46.02791" lon="6.5735">
        <ele>1311.8000488281</ele>
        <time>2019-02-20T07:49:44.000Z</time>
      </trkpt>
      <trkpt lat="46.02793" lon="6.57352">
        <ele>1311.8000488281</ele>
        <time>2019-02-20T07:49:46.000Z</time>
      </trkpt>
      <trkpt lat="46.02795" lon="6.57355">
        <ele>1312.4000244141</ele>
        <time>2019-02-20T07:49:49.000Z</time>
      </trkpt>
      <trkpt lat="46.02796" lon="6.57357">
        <ele>1312.5999755859</ele>
        <time>2019-02-20T07:49:51.000Z</time>
      </trkpt>
      <trkpt lat="46.02797" lon="6.5736">
        <ele>1313</ele>
        <time>2019-02-20T07:49:54.000Z</time>
      </trkpt>
      <trkpt lat="46.02798" lon="6.57362">
        <ele>1313.4000244141</ele>
        <time>2019-02-20T07:49:57.000Z</time>
      </trkpt>
      <trkpt lat="46.02799" lon="6.57365">
        <ele>1313.8000488281</ele>
        <time>2019-02-20T07:50:01.000Z</time>
      </trkpt>
      <trkpt lat="46.028" lon="6.57368">
        <ele>1314</ele>
        <time>2019-02-20T07:50:04.000Z</time>
      </trkpt>
      <trkpt lat="46.02798" lon="6.57369">
        <ele>1315.1995523076</ele>
        <time>2019-02-20T07:50:10.000Z</time>
      </trkpt>
      <trkpt lat="46.02796" lon="6.5737">
        <ele>1316.1999511719</ele>
        <time>2019-02-20T07:50:15.000Z</time>
      </trkpt>
      <trkpt lat="46.02795" lon="6.57372">
        <ele>1315.8000488281</ele>
        <time>2019-02-20T07:50:55.000Z</time>
      </trkpt>
      <trkpt lat="46.02795" lon="6.57375">
        <ele>1317</ele>
        <time>2019-02-20T07:53:01.000Z</time>
      </trkpt>
      <trkpt lat="46.02793" lon="6.57376">
        <ele>1316.5999755859</ele>
        <time>2019-02-20T07:53:25.000Z</time>
      </trkpt>
      <trkpt lat="46.02791" lon="6.57375">
        <ele>1317.8000488281</ele>
        <time>2019-02-20T07:54:39.000Z</time>
      </trkpt>
      <trkpt lat="46.0279" lon="6.57372">
        <ele>1317.5999755859</ele>
        <time>2019-02-20T07:54:41.000Z</time>
      </trkpt>
      <trkpt lat="46.02788" lon="6.5737">
        <ele>1317.4000244141</ele>
        <time>2019-02-20T07:54:43.000Z</time>
      </trkpt>
      <trkpt lat="46.02786" lon="6.57366">
        <ele>1317.8000488281</ele>
        <time>2019-02-20T07:54:45.000Z</time>
      </trkpt>
      <trkpt lat="46.02784" lon="6.57364">
        <ele>1317.5999755859</ele>
        <time>2019-02-20T07:54:47.000Z</time>
      </trkpt>
      <trkpt lat="46.02783" lon="6.57362">
        <ele>1317.4000244141</ele>
        <time>2019-02-20T07:54:49.000Z</time>
      </trkpt>
      <trkpt lat="46.02786" lon="6.57361">
        <ele>1316.5999755859</ele>
        <time>2019-02-20T07:55:09.000Z</time>
      </trkpt>
      <trkpt lat="46.02788" lon="6.57361">
        <ele>1316.4000244141</ele>
        <time>2019-02-20T07:55:11.000Z</time>
      </trkpt>
      <trkpt lat="46.0279" lon="6.57362">
        <ele>1316</ele>
        <time>2019-02-20T07:55:15.000Z</time>
      </trkpt>
      <trkpt lat="46.02792" lon="6.57363">
        <ele>1315.8000488281</ele>
        <time>2019-02-20T07:55:18.000Z</time>
      </trkpt>
      <trkpt lat="46.02794" lon="6.57364">
        <ele>1315.5999755859</ele>
        <time>2019-02-20T07:55:20.000Z</time>
      </trkpt>
      <trkpt lat="46.02796" lon="6.57366">
        <ele>1315.5999755859</ele>
        <time>2019-02-20T07:55:22.000Z</time>
      </trkpt>
      <trkpt lat="46.02797" lon="6.57367">
        <ele>1315.4000244141</ele>
        <time>2019-02-20T07:55:24.000Z</time>
      </trkpt>
      <trkpt lat="46.02799" lon="6.57368">
        <ele>1315.5999755859</ele>
        <time>2019-02-20T07:55:26.000Z</time>
      </trkpt>
      <trkpt lat="46.02797" lon="6.57368">
        <ele>1315.1999511719</ele>
        <time>2019-02-20T07:55:38.000Z</time>
      </trkpt>
      <trkpt lat="46.02795" lon="6.57368">
        <ele>1315.8000488281</ele>
        <time>2019-02-20T07:55:42.000Z</time>
      </trkpt>
      <trkpt lat="46.02794" lon="6.57371">
        <ele>1315.4000244141</ele>
        <time>2019-02-20T07:55:45.000Z</time>
      </trkpt>
      <trkpt lat="46.02792" lon="6.57373">
        <ele>1316</ele>
        <time>2019-02-20T07:55:48.000Z</time>
      </trkpt>
      <trkpt lat="46.0279" lon="6.57375">
        <ele>1316.5999755859</ele>
        <time>2019-02-20T07:55:51.000Z</time>
      </trkpt>
      <trkpt lat="46.02788" lon="6.57377">
        <ele>1316.8000488281</ele>
        <time>2019-02-20T07:55:54.000Z</time>
      </trkpt>
      <trkpt lat="46.02786" lon="6.57379">
        <ele>1317.1999511719</ele>
        <time>2019-02-20T07:55:57.000Z</time>
      </trkpt>
      <trkpt lat="46.02784" lon="6.57381">
        <ele>1317.8000488281</ele>
        <time>2019-02-20T07:56:00.000Z</time>
      </trkpt>
      <trkpt lat="46.02783" lon="6.57383">
        <ele>1318.4000244141</ele>
        <time>2019-02-20T07:56:03.000Z</time>
      </trkpt>
      <trkpt lat="46.02781" lon="6.57386">
        <ele>1319</ele>
        <time>2019-02-20T07:56:06.000Z</time>
      </trkpt>
      <trkpt lat="46.02779" lon="6.57388">
        <ele>1319.4000244141</ele>
        <time>2019-02-20T07:56:09.000Z</time>
      </trkpt>
      <trkpt lat="46.02777" lon="6.5739">
        <ele>1319.8000488281</ele>
        <time>2019-02-20T07:56:12.000Z</time>
      </trkpt>
      <trkpt lat="46.02775" lon="6.57392">
        <ele>1320.4000244141</ele>
        <time>2019-02-20T07:56:16.000Z</time>
      </trkpt>
      <trkpt lat="46.02774" lon="6.57393">
        <ele>1320.8000488281</ele>
        <time>2019-02-20T07:56:19.000Z</time>
      </trkpt>
      <trkpt lat="46.02772" lon="6.57395">
        <ele>1321.1999511719</ele>
        <time>2019-02-20T07:56:22.000Z</time>
      </trkpt>
      <trkpt lat="46.0277" lon="6.57397">
        <ele>1321.5999755859</ele>
        <time>2019-02-20T07:56:25.000Z</time>
      </trkpt>
      <trkpt lat="46.02768" lon="6.57399">
        <ele>1322.1999511719</ele>
        <time>2019-02-20T07:56:28.000Z</time>
      </trkpt>
      <trkpt lat="46.02766" lon="6.57401">
        <ele>1322.5995765999</ele>
        <time>2019-02-20T07:56:31.000Z</time>
      </trkpt>
      <trkpt lat="46.02764" lon="6.57403">
        <ele>1322.8000488281</ele>
        <time>2019-02-20T07:56:34.000Z</time>
      </trkpt>
      <trkpt lat="46.02763" lon="6.57404">
        <ele>1323.4000244141</ele>
        <time>2019-02-20T07:56:37.000Z</time>
      </trkpt>
      <trkpt lat="46.02761" lon="6.57406">
        <ele>1323.8000488281</ele>
        <time>2019-02-20T07:56:40.000Z</time>
      </trkpt>
      <trkpt lat="46.02759" lon="6.57407">
        <ele>1324</ele>
        <time>2019-02-20T07:56:43.000Z</time>
      </trkpt>
      <trkpt lat="46.02757" lon="6.57409">
        <ele>1324.5999755859</ele>
        <time>2019-02-20T07:56:46.000Z</time>
      </trkpt>
      <trkpt lat="46.02755" lon="6.5741">
        <ele>1325</ele>
        <time>2019-02-20T07:56:49.000Z</time>
      </trkpt>
      <trkpt lat="46.02754" lon="6.57411">
        <ele>1325.5999755859</ele>
        <time>2019-02-20T07:56:52.000Z</time>
      </trkpt>
      <trkpt lat="46.02752" lon="6.57413">
        <ele>1325.8000488281</ele>
        <time>2019-02-20T07:56:55.000Z</time>
      </trkpt>
      <trkpt lat="46.02749" lon="6.57414">
        <ele>1326</ele>
        <time>2019-02-20T07:56:58.000Z</time>
      </trkpt>
      <trkpt lat="46.02747" lon="6.57415">
        <ele>1326.4000244141</ele>
        <time>2019-02-20T07:57:01.000Z</time>
      </trkpt>
      <trkpt lat="46.02745" lon="6.57417">
        <ele>1326.8000488281</ele>
        <time>2019-02-20T07:57:04.000Z</time>
      </trkpt>
      <trkpt lat="46.02745" lon="6.57419">
        <ele>1328</ele>
        <time>2019-02-20T07:57:25.000Z</time>
      </trkpt>
      <trkpt lat="46.02744" lon="6.57422">
        <ele>1328.1999511719</ele>
        <time>2019-02-20T07:57:29.000Z</time>
      </trkpt>
      <trkpt lat="46.02744" lon="6.57425">
        <ele>1328</ele>
        <time>2019-02-20T07:57:32.000Z</time>
      </trkpt>
      <trkpt lat="46.02743" lon="6.57428">
        <ele>1328.1999511719</ele>
        <time>2019-02-20T07:57:35.000Z</time>
      </trkpt>
      <trkpt lat="46.02742" lon="6.5743">
        <ele>1328.1999511719</ele>
        <time>2019-02-20T07:57:38.000Z</time>
      </trkpt>
      <trkpt lat="46.02741" lon="6.57433">
        <ele>1329</ele>
        <time>2019-02-20T07:57:42.000Z</time>
      </trkpt>
      <trkpt lat="46.0274" lon="6.57435">
        <ele>1329.1999511719</ele>
        <time>2019-02-20T07:57:45.000Z</time>
      </trkpt>
      <trkpt lat="46.02739" lon="6.57438">
        <ele>1329.4000244141</ele>
        <time>2019-02-20T07:57:48.000Z</time>
      </trkpt>
      <trkpt lat="46.02737" lon="6.57439">
        <ele>1329.8000488281</ele>
        <time>2019-02-20T07:57:51.000Z</time>
      </trkpt>
      <trkpt lat="46.02736" lon="6.57442">
        <ele>1330.1999511719</ele>
        <time>2019-02-20T07:57:54.000Z</time>
      </trkpt>
      <trkpt lat="46.02735" lon="6.57444">
        <ele>1330.5999755859</ele>
        <time>2019-02-20T07:57:57.000Z</time>
      </trkpt>
      <trkpt lat="46.02734" lon="6.57446">
        <ele>1331</ele>
        <time>2019-02-20T07:58:00.000Z</time>
      </trkpt>
      <trkpt lat="46.02733" lon="6.57448">
        <ele>1331.4000244141</ele>
        <time>2019-02-20T07:58:03.000Z</time>
      </trkpt>
      <trkpt lat="46.02732" lon="6.57451">
        <ele>1331.8000488281</ele>
        <time>2019-02-20T07:58:07.000Z</time>
      </trkpt>
      <trkpt lat="46.02731" lon="6.57454">
        <ele>1332.4000244141</ele>
        <time>2019-02-20T07:58:11.000Z</time>
      </trkpt>
      <trkpt lat="46.0273" lon="6.57456">
        <ele>1332.4000244141</ele>
        <time>2019-02-20T07:58:14.000Z</time>
      </trkpt>
      <trkpt lat="46.02728" lon="6.57459">
        <ele>1332.5999755859</ele>
        <time>2019-02-20T07:58:18.000Z</time>
      </trkpt>
      <trkpt lat="46.02727" lon="6.57461">
        <ele>1333</ele>
        <time>2019-02-20T07:58:21.000Z</time>
      </trkpt>
      <trkpt lat="46.02726" lon="6.57464">
        <ele>1333.4000244141</ele>
        <time>2019-02-20T07:58:25.000Z</time>
      </trkpt>
      <trkpt lat="46.02725" lon="6.57466">
        <ele>1334</ele>
        <time>2019-02-20T07:58:28.000Z</time>
      </trkpt>
      <trkpt lat="46.02724" lon="6.57469">
        <ele>1333.8000488281</ele>
        <time>2019-02-20T07:58:31.000Z</time>
      </trkpt>
      <trkpt lat="46.02723" lon="6.57471">
        <ele>1334.4000244141</ele>
        <time>2019-02-20T07:58:34.000Z</time>
      </trkpt>
      <trkpt lat="46.02722" lon="6.57473">
        <ele>1334.4000244141</ele>
        <time>2019-02-20T07:58:37.000Z</time>
      </trkpt>
      <trkpt lat="46.02721" lon="6.57475">
        <ele>1335.1999511719</ele>
        <time>2019-02-20T07:58:41.000Z</time>
      </trkpt>
      <trkpt lat="46.02719" lon="6.57478">
        <ele>1335.1999511719</ele>
        <time>2019-02-20T07:58:44.000Z</time>
      </trkpt>
      <trkpt lat="46.02718" lon="6.5748">
        <ele>1335.8000488281</ele>
        <time>2019-02-20T07:58:47.000Z</time>
      </trkpt>
      <trkpt lat="46.02717" lon="6.57482">
        <ele>1336</ele>
        <time>2019-02-20T07:58:51.000Z</time>
      </trkpt>
      <trkpt lat="46.02716" lon="6.57485">
        <ele>1336.5999755859</ele>
        <time>2019-02-20T07:58:55.000Z</time>
      </trkpt>
      <trkpt lat="46.02714" lon="6.57487">
        <ele>1337</ele>
        <time>2019-02-20T07:58:59.000Z</time>
      </trkpt>
      <trkpt lat="46.02713" lon="6.5749">
        <ele>1337.4000244141</ele>
        <time>2019-02-20T07:59:03.000Z</time>
      </trkpt>
      <trkpt lat="46.02712" lon="6.57493">
        <ele>1338.4000244141</ele>
        <time>2019-02-20T07:59:07.000Z</time>
      </trkpt>
      <trkpt lat="46.02711" lon="6.57495">
        <ele>1338.5999755859</ele>
        <time>2019-02-20T07:59:11.000Z</time>
      </trkpt>
      <trkpt lat="46.02709" lon="6.57498">
        <ele>1339.4000244141</ele>
        <time>2019-02-20T07:59:15.000Z</time>
      </trkpt>
      <trkpt lat="46.02708" lon="6.575">
        <ele>1339.5999755859</ele>
        <time>2019-02-20T07:59:18.000Z</time>
      </trkpt>
      <trkpt lat="46.02707" lon="6.57502">
        <ele>1339.8000488281</ele>
        <time>2019-02-20T07:59:21.000Z</time>
      </trkpt>
      <trkpt lat="46.02706" lon="6.57505">
        <ele>1340</ele>
        <time>2019-02-20T07:59:25.000Z</time>
      </trkpt>
      <trkpt lat="46.02705" lon="6.57507">
        <ele>1340.4000244141</ele>
        <time>2019-02-20T07:59:28.000Z</time>
      </trkpt>
      <trkpt lat="46.02703" lon="6.57509">
        <ele>1341</ele>
        <time>2019-02-20T07:59:32.000Z</time>
      </trkpt>
      <trkpt lat="46.02702" lon="6.57511">
        <ele>1341.1999511719</ele>
        <time>2019-02-20T07:59:36.000Z</time>
      </trkpt>
      <trkpt lat="46.027" lon="6.57513">
        <ele>1341.5999755859</ele>
        <time>2019-02-20T07:59:39.000Z</time>
      </trkpt>
      <trkpt lat="46.02699" lon="6.57514">
        <ele>1342.1999511719</ele>
        <time>2019-02-20T07:59:43.000Z</time>
      </trkpt>
      <trkpt lat="46.02697" lon="6.57516">
        <ele>1342.8000488281</ele>
        <time>2019-02-20T07:59:48.000Z</time>
      </trkpt>
      <trkpt lat="46.02695" lon="6.57518">
        <ele>1343.1999511719</ele>
        <time>2019-02-20T07:59:52.000Z</time>
      </trkpt>
      <trkpt lat="46.02693" lon="6.5752">
        <ele>1343.5999755859</ele>
        <time>2019-02-20T07:59:56.000Z</time>
      </trkpt>
      <trkpt lat="46.02692" lon="6.57522">
        <ele>1344.1999511719</ele>
        <time>2019-02-20T08:00:00.000Z</time>
      </trkpt>
      <trkpt lat="46.0269" lon="6.57524">
        <ele>1344.5999755859</ele>
        <time>2019-02-20T08:00:04.000Z</time>
      </trkpt>
      <trkpt lat="46.02688" lon="6.57526">
        <ele>1345.1999511719</ele>
        <time>2019-02-20T08:00:08.000Z</time>
      </trkpt>
      <trkpt lat="46.02686" lon="6.57528">
        <ele>1345.8000488281</ele>
        <time>2019-02-20T08:00:12.000Z</time>
      </trkpt>
      <trkpt lat="46.02685" lon="6.57529">
        <ele>1346.4000244141</ele>
        <time>2019-02-20T08:00:16.000Z</time>
      </trkpt>
      <trkpt lat="46.02683" lon="6.57531">
        <ele>1347.1987569613</ele>
        <time>2019-02-20T08:00:20.000Z</time>
      </trkpt>
      <trkpt lat="46.02682" lon="6.57533">
        <ele>1347.4000244141</ele>
        <time>2019-02-20T08:00:24.000Z</time>
      </trkpt>
      <trkpt lat="46.0268" lon="6.57535">
        <ele>1347.5999755859</ele>
        <time>2019-02-20T08:00:28.000Z</time>
      </trkpt>
      <trkpt lat="46.02678" lon="6.57537">
        <ele>1348</ele>
        <time>2019-02-20T08:00:33.000Z</time>
      </trkpt>
      <trkpt lat="46.02677" lon="6.57538">
        <ele>1348.4000244141</ele>
        <time>2019-02-20T08:00:37.000Z</time>
      </trkpt>
      <trkpt lat="46.02675" lon="6.5754">
        <ele>1348.8000488281</ele>
        <time>2019-02-20T08:00:41.000Z</time>
      </trkpt>
      <trkpt lat="46.02673" lon="6.57542">
        <ele>1349.5999755859</ele>
        <time>2019-02-20T08:00:45.000Z</time>
      </trkpt>
      <trkpt lat="46.02672" lon="6.57544">
        <ele>1350</ele>
        <time>2019-02-20T08:00:49.000Z</time>
      </trkpt>
      <trkpt lat="46.0267" lon="6.57546">
        <ele>1350.4000244141</ele>
        <time>2019-02-20T08:00:53.000Z</time>
      </trkpt>
      <trkpt lat="46.02668" lon="6.57548">
        <ele>1350.4000244141</ele>
        <time>2019-02-20T08:00:57.000Z</time>
      </trkpt>
      <trkpt lat="46.02667" lon="6.5755">
        <ele>1351</ele>
        <time>2019-02-20T08:01:01.000Z</time>
      </trkpt>
      <trkpt lat="46.02665" lon="6.57552">
        <ele>1351.4000244141</ele>
        <time>2019-02-20T08:01:05.000Z</time>
      </trkpt>
      <trkpt lat="46.02663" lon="6.57553">
        <ele>1351.8000488281</ele>
        <time>2019-02-20T08:01:08.000Z</time>
      </trkpt>
      <trkpt lat="46.02662" lon="6.57555">
        <ele>1352.1999511719</ele>
        <time>2019-02-20T08:01:12.000Z</time>
      </trkpt>
      <trkpt lat="46.0266" lon="6.57557">
        <ele>1352.4000244141</ele>
        <time>2019-02-20T08:01:15.000Z</time>
      </trkpt>
      <trkpt lat="46.02658" lon="6.57559">
        <ele>1352.1999511719</ele>
        <time>2019-02-20T08:01:19.000Z</time>
      </trkpt>
      <trkpt lat="46.02657" lon="6.57561">
        <ele>1352.5999755859</ele>
        <time>2019-02-20T08:01:23.000Z</time>
      </trkpt>
      <trkpt lat="46.02655" lon="6.57562">
        <ele>1353.1999511719</ele>
        <time>2019-02-20T08:01:27.000Z</time>
      </trkpt>
      <trkpt lat="46.02653" lon="6.57565">
        <ele>1353.4000244141</ele>
        <time>2019-02-20T08:01:31.000Z</time>
      </trkpt>
      <trkpt lat="46.02652" lon="6.57566">
        <ele>1353.8000488281</ele>
        <time>2019-02-20T08:01:35.000Z</time>
      </trkpt>
      <trkpt lat="46.0265" lon="6.57568">
        <ele>1354.1999511719</ele>
        <time>2019-02-20T08:01:39.000Z</time>
      </trkpt>
      <trkpt lat="46.02648" lon="6.5757">
        <ele>1354.5999755859</ele>
        <time>2019-02-20T08:01:44.000Z</time>
      </trkpt>
      <trkpt lat="46.02646" lon="6.57572">
        <ele>1355.4000244141</ele>
        <time>2019-02-20T08:01:48.000Z</time>
      </trkpt>
      <trkpt lat="46.02645" lon="6.57573">
        <ele>1355.8000488281</ele>
        <time>2019-02-20T08:01:52.000Z</time>
      </trkpt>
      <trkpt lat="46.02643" lon="6.57576">
        <ele>1356.4000244141</ele>
        <time>2019-02-20T08:01:56.000Z</time>
      </trkpt>
      <trkpt lat="46.02641" lon="6.57577">
        <ele>1357</ele>
        <time>2019-02-20T08:01:59.000Z</time>
      </trkpt>
      <trkpt lat="46.0264" lon="6.57579">
        <ele>1357.1999511719</ele>
        <time>2019-02-20T08:02:02.000Z</time>
      </trkpt>
      <trkpt lat="46.02638" lon="6.57581">
        <ele>1357.5999755859</ele>
        <time>2019-02-20T08:02:05.000Z</time>
      </trkpt>
      <trkpt lat="46.02637" lon="6.57582">
        <ele>1357.5999755859</ele>
        <time>2019-02-20T08:02:08.000Z</time>
      </trkpt>
      <trkpt lat="46.02635" lon="6.57584">
        <ele>1358.1999511719</ele>
        <time>2019-02-20T08:02:11.000Z</time>
      </trkpt>
      <trkpt lat="46.02634" lon="6.57586">
        <ele>1358.5999755859</ele>
        <time>2019-02-20T08:02:15.000Z</time>
      </trkpt>
      <trkpt lat="46.02632" lon="6.57588">
        <ele>1358.8000488281</ele>
        <time>2019-02-20T08:02:19.000Z</time>
      </trkpt>
      <trkpt lat="46.0263" lon="6.5759">
        <ele>1359</ele>
        <time>2019-02-20T08:02:23.000Z</time>
      </trkpt>
      <trkpt lat="46.02628" lon="6.57591">
        <ele>1359.1999511719</ele>
        <time>2019-02-20T08:02:27.000Z</time>
      </trkpt>
      <trkpt lat="46.02626" lon="6.57593">
        <ele>1359.8000488281</ele>
        <time>2019-02-20T08:02:32.000Z</time>
      </trkpt>
      <trkpt lat="46.02625" lon="6.57594">
        <ele>1360.4000244141</ele>
        <time>2019-02-20T08:02:36.000Z</time>
      </trkpt>
      <trkpt lat="46.02623" lon="6.57596">
        <ele>1360.8000488281</ele>
        <time>2019-02-20T08:02:40.000Z</time>
      </trkpt>
      <trkpt lat="46.02621" lon="6.57598">
        <ele>1361.1999511719</ele>
        <time>2019-02-20T08:02:44.000Z</time>
      </trkpt>
      <trkpt lat="46.02619" lon="6.576">
        <ele>1361.8000488281</ele>
        <time>2019-02-20T08:02:48.000Z</time>
      </trkpt>
      <trkpt lat="46.02618" lon="6.57601">
        <ele>1362.1999511719</ele>
        <time>2019-02-20T08:02:52.000Z</time>
      </trkpt>
      <trkpt lat="46.02616" lon="6.57603">
        <ele>1362.4000244141</ele>
        <time>2019-02-20T08:02:55.000Z</time>
      </trkpt>
      <trkpt lat="46.02614" lon="6.57604">
        <ele>1363</ele>
        <time>2019-02-20T08:02:58.000Z</time>
      </trkpt>
      <trkpt lat="46.02612" lon="6.57605">
        <ele>1363.1999511719</ele>
        <time>2019-02-20T08:03:02.000Z</time>
      </trkpt>
      <trkpt lat="46.02611" lon="6.57607">
        <ele>1363.5999755859</ele>
        <time>2019-02-20T08:03:08.000Z</time>
      </trkpt>
      <trkpt lat="46.02609" lon="6.57609">
        <ele>1364.1999511719</ele>
        <time>2019-02-20T08:03:11.000Z</time>
      </trkpt>
      <trkpt lat="46.02607" lon="6.5761">
        <ele>1364.5999755859</ele>
        <time>2019-02-20T08:03:15.000Z</time>
      </trkpt>
      <trkpt lat="46.02606" lon="6.57612">
        <ele>1365.1999511719</ele>
        <time>2019-02-20T08:03:20.000Z</time>
      </trkpt>
      <trkpt lat="46.02604" lon="6.57614">
        <ele>1366</ele>
        <time>2019-02-20T08:03:25.000Z</time>
      </trkpt>
      <trkpt lat="46.02602" lon="6.57616">
        <ele>1366.1999511719</ele>
        <time>2019-02-20T08:03:29.000Z</time>
      </trkpt>
      <trkpt lat="46.02601" lon="6.57618">
        <ele>1367</ele>
        <time>2019-02-20T08:03:33.000Z</time>
      </trkpt>
      <trkpt lat="46.02599" lon="6.5762">
        <ele>1367.1999511719</ele>
        <time>2019-02-20T08:03:37.000Z</time>
      </trkpt>
      <trkpt lat="46.02597" lon="6.57621">
        <ele>1367.8000488281</ele>
        <time>2019-02-20T08:03:41.000Z</time>
      </trkpt>
      <trkpt lat="46.02596" lon="6.57623">
        <ele>1368.5999755859</ele>
        <time>2019-02-20T08:03:47.000Z</time>
      </trkpt>
      <trkpt lat="46.02595" lon="6.57626">
        <ele>1369.1999511719</ele>
        <time>2019-02-20T08:03:51.000Z</time>
      </trkpt>
      <trkpt lat="46.02594" lon="6.57628">
        <ele>1369.8000488281</ele>
        <time>2019-02-20T08:03:56.000Z</time>
      </trkpt>
      <trkpt lat="46.02593" lon="6.57631">
        <ele>1370.5999755859</ele>
        <time>2019-02-20T08:04:00.000Z</time>
      </trkpt>
      <trkpt lat="46.02592" lon="6.57633">
        <ele>1370.5999755859</ele>
        <time>2019-02-20T08:04:05.000Z</time>
      </trkpt>
      <trkpt lat="46.02592" lon="6.57636">
        <ele>1371.5999755859</ele>
        <time>2019-02-20T08:04:12.000Z</time>
      </trkpt>
      <trkpt lat="46.02591" lon="6.57639">
        <ele>1371.8000488281</ele>
        <time>2019-02-20T08:04:16.000Z</time>
      </trkpt>
      <trkpt lat="46.0259" lon="6.57642">
        <ele>1372</ele>
        <time>2019-02-20T08:04:20.000Z</time>
      </trkpt>
      <trkpt lat="46.02589" lon="6.57645">
        <ele>1372.4000244141</ele>
        <time>2019-02-20T08:04:24.000Z</time>
      </trkpt>
      <trkpt lat="46.02588" lon="6.57647">
        <ele>1373.4000244141</ele>
        <time>2019-02-20T08:04:28.000Z</time>
      </trkpt>
      <trkpt lat="46.02587" lon="6.57649">
        <ele>1374</ele>
        <time>2019-02-20T08:04:32.000Z</time>
      </trkpt>
      <trkpt lat="46.02586" lon="6.57652">
        <ele>1374.1999511719</ele>
        <time>2019-02-20T08:04:35.000Z</time>
      </trkpt>
      <trkpt lat="46.02585" lon="6.57654">
        <ele>1374.5999755859</ele>
        <time>2019-02-20T08:04:39.000Z</time>
      </trkpt>
      <trkpt lat="46.02584" lon="6.57657">
        <ele>1375.1999511719</ele>
        <time>2019-02-20T08:04:45.000Z</time>
      </trkpt>
      <trkpt lat="46.02582" lon="6.57659">
        <ele>1375.5999755859</ele>
        <time>2019-02-20T08:04:49.000Z</time>
      </trkpt>
      <trkpt lat="46.0258" lon="6.57661">
        <ele>1376.1999511719</ele>
        <time>2019-02-20T08:04:53.000Z</time>
      </trkpt>
      <trkpt lat="46.02578" lon="6.57661">
        <ele>1376.8000488281</ele>
        <time>2019-02-20T08:04:57.000Z</time>
      </trkpt>
      <trkpt lat="46.02576" lon="6.57661">
        <ele>1377.1995523076</ele>
        <time>2019-02-20T08:05:01.000Z</time>
      </trkpt>
      <trkpt lat="46.02574" lon="6.57661">
        <ele>1377.8000488281</ele>
        <time>2019-02-20T08:05:05.000Z</time>
      </trkpt>
      <trkpt lat="46.02572" lon="6.57659">
        <ele>1378</ele>
        <time>2019-02-20T08:05:09.000Z</time>
      </trkpt>
      <trkpt lat="46.02571" lon="6.57658">
        <ele>1378.8000488281</ele>
        <time>2019-02-20T08:05:14.000Z</time>
      </trkpt>
      <trkpt lat="46.02569" lon="6.57657">
        <ele>1379.8000488281</ele>
        <time>2019-02-20T08:05:18.000Z</time>
      </trkpt>
      <trkpt lat="46.02567" lon="6.57655">
        <ele>1380.1999511719</ele>
        <time>2019-02-20T08:05:22.000Z</time>
      </trkpt>
      <trkpt lat="46.02565" lon="6.57654">
        <ele>1381</ele>
        <time>2019-02-20T08:05:27.000Z</time>
      </trkpt>
      <trkpt lat="46.02563" lon="6.57653">
        <ele>1381.4000244141</ele>
        <time>2019-02-20T08:05:32.000Z</time>
      </trkpt>
      <trkpt lat="46.02561" lon="6.57652">
        <ele>1382</ele>
        <time>2019-02-20T08:05:37.000Z</time>
      </trkpt>
      <trkpt lat="46.0256" lon="6.57651">
        <ele>1382.8000488281</ele>
        <time>2019-02-20T08:05:42.000Z</time>
      </trkpt>
      <trkpt lat="46.02558" lon="6.57651">
        <ele>1383.1999511719</ele>
        <time>2019-02-20T08:05:47.000Z</time>
      </trkpt>
      <trkpt lat="46.02556" lon="6.57653">
        <ele>1383.8000488281</ele>
        <time>2019-02-20T08:05:53.000Z</time>
      </trkpt>
      <trkpt lat="46.02555" lon="6.57656">
        <ele>1384.1999511719</ele>
        <time>2019-02-20T08:05:57.000Z</time>
      </trkpt>
      <trkpt lat="46.02554" lon="6.57658">
        <ele>1384.1999511719</ele>
        <time>2019-02-20T08:06:01.000Z</time>
      </trkpt>
      <trkpt lat="46.02554" lon="6.57661">
        <ele>1384.8000488281</ele>
        <time>2019-02-20T08:06:06.000Z</time>
      </trkpt>
      <trkpt lat="46.02553" lon="6.57664">
        <ele>1385.4000244141</ele>
        <time>2019-02-20T08:06:11.000Z</time>
      </trkpt>
      <trkpt lat="46.02552" lon="6.57667">
        <ele>1386.1999511719</ele>
        <time>2019-02-20T08:06:16.000Z</time>
      </trkpt>
      <trkpt lat="46.02552" lon="6.5767">
        <ele>1386.5999755859</ele>
        <time>2019-02-20T08:06:21.000Z</time>
      </trkpt>
      <trkpt lat="46.02552" lon="6.57673">
        <ele>1387</ele>
        <time>2019-02-20T08:06:26.000Z</time>
      </trkpt>
      <trkpt lat="46.02551" lon="6.57676">
        <ele>1387.4000244141</ele>
        <time>2019-02-20T08:06:31.000Z</time>
      </trkpt>
      <trkpt lat="46.02551" lon="6.57678">
        <ele>1387.8000488281</ele>
        <time>2019-02-20T08:06:36.000Z</time>
      </trkpt>
      <trkpt lat="46.02549" lon="6.5768">
        <ele>1388.5999755859</ele>
        <time>2019-02-20T08:06:41.000Z</time>
      </trkpt>
      <trkpt lat="46.02547" lon="6.57681">
        <ele>1389.4000244141</ele>
        <time>2019-02-20T08:06:48.000Z</time>
      </trkpt>
      <trkpt lat="46.02545" lon="6.57683">
        <ele>1389.5999755859</ele>
        <time>2019-02-20T08:06:52.000Z</time>
      </trkpt>
      <trkpt lat="46.02543" lon="6.57684">
        <ele>1390.5999755859</ele>
        <time>2019-02-20T08:06:57.000Z</time>
      </trkpt>
      <trkpt lat="46.02542" lon="6.57685">
        <ele>1390.5999755859</ele>
        <time>2019-02-20T08:07:01.000Z</time>
      </trkpt>
      <trkpt lat="46.0254" lon="6.57686">
        <ele>1391.5999755859</ele>
        <time>2019-02-20T08:07:06.000Z</time>
      </trkpt>
      <trkpt lat="46.02538" lon="6.57686">
        <ele>1392</ele>
        <time>2019-02-20T08:07:11.000Z</time>
      </trkpt>
      <trkpt lat="46.02536" lon="6.57686">
        <ele>1392.5999755859</ele>
        <time>2019-02-20T08:07:16.000Z</time>
      </trkpt>
      <trkpt lat="46.02534" lon="6.57687">
        <ele>1393.1999511719</ele>
        <time>2019-02-20T08:07:20.000Z</time>
      </trkpt>
      <trkpt lat="46.02532" lon="6.57687">
        <ele>1393.5999755859</ele>
        <time>2019-02-20T08:07:25.000Z</time>
      </trkpt>
      <trkpt lat="46.0253" lon="6.57688">
        <ele>1394.1999511719</ele>
        <time>2019-02-20T08:07:31.000Z</time>
      </trkpt>
      <trkpt lat="46.02528" lon="6.57689">
        <ele>1394.5999755859</ele>
        <time>2019-02-20T08:07:35.000Z</time>
      </trkpt>
      <trkpt lat="46.02526" lon="6.5769">
        <ele>1395.1999511719</ele>
        <time>2019-02-20T08:07:39.000Z</time>
      </trkpt>
      <trkpt lat="46.02524" lon="6.57692">
        <ele>1395.5999755859</ele>
        <time>2019-02-20T08:07:44.000Z</time>
      </trkpt>
      <trkpt lat="46.02522" lon="6.57694">
        <ele>1395.8000488281</ele>
        <time>2019-02-20T08:07:49.000Z</time>
      </trkpt>
      <trkpt lat="46.02521" lon="6.57695">
        <ele>1396.4000244141</ele>
        <time>2019-02-20T08:07:54.000Z</time>
      </trkpt>
      <trkpt lat="46.02519" lon="6.57697">
        <ele>1396.9996015332</ele>
        <time>2019-02-20T08:07:59.000Z</time>
      </trkpt>
      <trkpt lat="46.02517" lon="6.57699">
        <ele>1397.5999755859</ele>
        <time>2019-02-20T08:08:04.000Z</time>
      </trkpt>
      <trkpt lat="46.02516" lon="6.577">
        <ele>1397.8000488281</ele>
        <time>2019-02-20T08:08:09.000Z</time>
      </trkpt>
      <trkpt lat="46.02516" lon="6.57703">
        <ele>1398.4000244141</ele>
        <time>2019-02-20T08:08:14.000Z</time>
      </trkpt>
      <trkpt lat="46.02515" lon="6.57706">
        <ele>1399.1999511719</ele>
        <time>2019-02-20T08:08:20.000Z</time>
      </trkpt>
      <trkpt lat="46.02515" lon="6.57708">
        <ele>1400</ele>
        <time>2019-02-20T08:08:25.000Z</time>
      </trkpt>
      <trkpt lat="46.02514" lon="6.57711">
        <ele>1400.5999755859</ele>
        <time>2019-02-20T08:08:30.000Z</time>
      </trkpt>
      <trkpt lat="46.02514" lon="6.57714">
        <ele>1401.4000244141</ele>
        <time>2019-02-20T08:08:35.000Z</time>
      </trkpt>
      <trkpt lat="46.02513" lon="6.57717">
        <ele>1402</ele>
        <time>2019-02-20T08:08:40.000Z</time>
      </trkpt>
      <trkpt lat="46.02513" lon="6.5772">
        <ele>1402.5999755859</ele>
        <time>2019-02-20T08:08:45.000Z</time>
      </trkpt>
      <trkpt lat="46.02513" lon="6.57723">
        <ele>1403.4000244141</ele>
        <time>2019-02-20T08:08:50.000Z</time>
      </trkpt>
      <trkpt lat="46.02513" lon="6.57726">
        <ele>1403.8000488281</ele>
        <time>2019-02-20T08:08:55.000Z</time>
      </trkpt>
      <trkpt lat="46.02513" lon="6.57728">
        <ele>1404.5999755859</ele>
        <time>2019-02-20T08:09:00.000Z</time>
      </trkpt>
      <trkpt lat="46.02513" lon="6.57731">
        <ele>1405</ele>
        <time>2019-02-20T08:09:05.000Z</time>
      </trkpt>
      <trkpt lat="46.02513" lon="6.57734">
        <ele>1406</ele>
        <time>2019-02-20T08:09:10.000Z</time>
      </trkpt>
      <trkpt lat="46.02513" lon="6.57737">
        <ele>1406.5999755859</ele>
        <time>2019-02-20T08:09:15.000Z</time>
      </trkpt>
      <trkpt lat="46.02513" lon="6.5774">
        <ele>1407.1999511719</ele>
        <time>2019-02-20T08:09:20.000Z</time>
      </trkpt>
      <trkpt lat="46.02513" lon="6.57742">
        <ele>1407.8000488281</ele>
        <time>2019-02-20T08:09:25.000Z</time>
      </trkpt>
      <trkpt lat="46.02513" lon="6.57745">
        <ele>1408.5999755859</ele>
        <time>2019-02-20T08:09:31.000Z</time>
      </trkpt>
      <trkpt lat="46.02513" lon="6.57748">
        <ele>1409</ele>
        <time>2019-02-20T08:09:35.000Z</time>
      </trkpt>
      <trkpt lat="46.02513" lon="6.57751">
        <ele>1410</ele>
        <time>2019-02-20T08:09:40.000Z</time>
      </trkpt>
      <trkpt lat="46.02512" lon="6.57754">
        <ele>1410.5999755859</ele>
        <time>2019-02-20T08:09:47.000Z</time>
      </trkpt>
      <trkpt lat="46.02511" lon="6.57757">
        <ele>1411.1999511719</ele>
        <time>2019-02-20T08:09:52.000Z</time>
      </trkpt>
      <trkpt lat="46.02511" lon="6.5776">
        <ele>1411.5999755859</ele>
        <time>2019-02-20T08:09:57.000Z</time>
      </trkpt>
      <trkpt lat="46.02511" lon="6.57762">
        <ele>1412.4000244141</ele>
        <time>2019-02-20T08:10:02.000Z</time>
      </trkpt>
      <trkpt lat="46.0251" lon="6.57765">
        <ele>1412.8000488281</ele>
        <time>2019-02-20T08:10:07.000Z</time>
      </trkpt>
      <trkpt lat="46.0251" lon="6.57768">
        <ele>1413.4000244141</ele>
        <time>2019-02-20T08:10:12.000Z</time>
      </trkpt>
      <trkpt lat="46.02509" lon="6.57771">
        <ele>1414.1999511719</ele>
        <time>2019-02-20T08:10:17.000Z</time>
      </trkpt>
      <trkpt lat="46.02508" lon="6.57773">
        <ele>1414.8000488281</ele>
        <time>2019-02-20T08:10:21.000Z</time>
      </trkpt>
      <trkpt lat="46.02508" lon="6.57776">
        <ele>1415.4000244141</ele>
        <time>2019-02-20T08:10:26.000Z</time>
      </trkpt>
      <trkpt lat="46.02507" lon="6.57779">
        <ele>1416</ele>
        <time>2019-02-20T08:10:31.000Z</time>
      </trkpt>
      <trkpt lat="46.02506" lon="6.57782">
        <ele>1416.4000244141</ele>
        <time>2019-02-20T08:10:35.000Z</time>
      </trkpt>
      <trkpt lat="46.02506" lon="6.57784">
        <ele>1416.8000488281</ele>
        <time>2019-02-20T08:10:40.000Z</time>
      </trkpt>
      <trkpt lat="46.02505" lon="6.57787">
        <ele>1417.1999511719</ele>
        <time>2019-02-20T08:10:45.000Z</time>
      </trkpt>
      <trkpt lat="46.02505" lon="6.5779">
        <ele>1417.5999755859</ele>
        <time>2019-02-20T08:10:50.000Z</time>
      </trkpt>
      <trkpt lat="46.02505" lon="6.57793">
        <ele>1417.5999755859</ele>
        <time>2019-02-20T08:10:55.000Z</time>
      </trkpt>
      <trkpt lat="46.02505" lon="6.57795">
        <ele>1418.1999511719</ele>
        <time>2019-02-20T08:11:00.000Z</time>
      </trkpt>
      <trkpt lat="46.02505" lon="6.57798">
        <ele>1419</ele>
        <time>2019-02-20T08:11:18.000Z</time>
      </trkpt>
      <trkpt lat="46.02504" lon="6.57801">
        <ele>1420</ele>
        <time>2019-02-20T08:11:23.000Z</time>
      </trkpt>
      <trkpt lat="46.02504" lon="6.57804">
        <ele>1420.5999755859</ele>
        <time>2019-02-20T08:11:27.000Z</time>
      </trkpt>
      <trkpt lat="46.02503" lon="6.57807">
        <ele>1421.4000244141</ele>
        <time>2019-02-20T08:11:34.000Z</time>
      </trkpt>
      <trkpt lat="46.02503" lon="6.57809">
        <ele>1422.4000244141</ele>
        <time>2019-02-20T08:11:38.000Z</time>
      </trkpt>
      <trkpt lat="46.02503" lon="6.57812">
        <ele>1423.5999755859</ele>
        <time>2019-02-20T08:11:50.000Z</time>
      </trkpt>
      <trkpt lat="46.02504" lon="6.57815">
        <ele>1424</ele>
        <time>2019-02-20T08:11:54.000Z</time>
      </trkpt>
      <trkpt lat="46.02504" lon="6.57818">
        <ele>1423.8000488281</ele>
        <time>2019-02-20T08:11:57.000Z</time>
      </trkpt>
      <trkpt lat="46.02504" lon="6.57822">
        <ele>1424</ele>
        <time>2019-02-20T08:12:02.000Z</time>
      </trkpt>
      <trkpt lat="46.02503" lon="6.57825">
        <ele>1425</ele>
        <time>2019-02-20T08:12:07.000Z</time>
      </trkpt>
      <trkpt lat="46.02503" lon="6.57828">
        <ele>1426</ele>
        <time>2019-02-20T08:12:14.000Z</time>
      </trkpt>
      <trkpt lat="46.02501" lon="6.57828">
        <ele>1426.1999511719</ele>
        <time>2019-02-20T08:12:18.000Z</time>
      </trkpt>
      <trkpt lat="46.02499" lon="6.57828">
        <ele>1426.8000488281</ele>
        <time>2019-02-20T08:12:22.000Z</time>
      </trkpt>
      <trkpt lat="46.02498" lon="6.57829">
        <ele>1428</ele>
        <time>2019-02-20T08:13:11.000Z</time>
      </trkpt>
      <trkpt lat="46.02499" lon="6.57828">
        <ele>1427.7998492742</ele>
        <time>2019-02-20T08:15:13.000Z</time>
      </trkpt>
      <trkpt lat="46.02498" lon="6.57829">
        <ele>1426.8000488281</ele>
        <time>2019-02-20T08:15:26.000Z</time>
      </trkpt>
      <trkpt lat="46.02499" lon="6.57828">
        <ele>1425.8000488281</ele>
        <time>2019-02-20T08:16:31.000Z</time>
      </trkpt>
      <trkpt lat="46.02498" lon="6.57826">
        <ele>1427.1999511719</ele>
        <time>2019-02-20T08:18:43.000Z</time>
      </trkpt>
      <trkpt lat="46.02499" lon="6.57827">
        <ele>1426.1999511719</ele>
        <time>2019-02-20T08:19:54.000Z</time>
      </trkpt>
      <trkpt lat="46.02497" lon="6.57826">
        <ele>1427.4000244141</ele>
        <time>2019-02-20T08:20:08.000Z</time>
      </trkpt>
      <trkpt lat="46.02495" lon="6.57825">
        <ele>1428.1999511719</ele>
        <time>2019-02-20T08:20:12.000Z</time>
      </trkpt>
      <trkpt lat="46.02494" lon="6.57827">
        <ele>1428.5999755859</ele>
        <time>2019-02-20T08:20:16.000Z</time>
      </trkpt>
      <trkpt lat="46.02491" lon="6.57828">
        <ele>1429.1999511719</ele>
        <time>2019-02-20T08:20:21.000Z</time>
      </trkpt>
      <trkpt lat="46.02489" lon="6.57828">
        <ele>1429.8000488281</ele>
        <time>2019-02-20T08:20:26.000Z</time>
      </trkpt>
      <trkpt lat="46.02487" lon="6.57829">
        <ele>1430.5999755859</ele>
        <time>2019-02-20T08:20:30.000Z</time>
      </trkpt>
      <trkpt lat="46.02486" lon="6.57828">
        <ele>1431.4000244141</ele>
        <time>2019-02-20T08:20:35.000Z</time>
      </trkpt>
      <trkpt lat="46.02484" lon="6.57827">
        <ele>1432.8000488281</ele>
        <time>2019-02-20T08:20:43.000Z</time>
      </trkpt>
      <trkpt lat="46.02482" lon="6.57827">
        <ele>1433.5999755859</ele>
        <time>2019-02-20T08:20:48.000Z</time>
      </trkpt>
      <trkpt lat="46.0248" lon="6.57826">
        <ele>1434.4000244141</ele>
        <time>2019-02-20T08:20:53.000Z</time>
      </trkpt>
      <trkpt lat="46.02478" lon="6.57825">
        <ele>1435</ele>
        <time>2019-02-20T08:20:57.000Z</time>
      </trkpt>
      <trkpt lat="46.02476" lon="6.57824">
        <ele>1435.4000244141</ele>
        <time>2019-02-20T08:21:02.000Z</time>
      </trkpt>
      <trkpt lat="46.02474" lon="6.57823">
        <ele>1436</ele>
        <time>2019-02-20T08:21:07.000Z</time>
      </trkpt>
      <trkpt lat="46.02472" lon="6.57822">
        <ele>1436.5999755859</ele>
        <time>2019-02-20T08:21:12.000Z</time>
      </trkpt>
      <trkpt lat="46.0247" lon="6.57821">
        <ele>1437.5999755859</ele>
        <time>2019-02-20T08:21:17.000Z</time>
      </trkpt>
      <trkpt lat="46.02468" lon="6.5782">
        <ele>1438</ele>
        <time>2019-02-20T08:21:22.000Z</time>
      </trkpt>
      <trkpt lat="46.02467" lon="6.57819">
        <ele>1438.4000244141</ele>
        <time>2019-02-20T08:21:28.000Z</time>
      </trkpt>
      <trkpt lat="46.02465" lon="6.57818">
        <ele>1439.1999511719</ele>
        <time>2019-02-20T08:21:34.000Z</time>
      </trkpt>
      <trkpt lat="46.02463" lon="6.57817">
        <ele>1440</ele>
        <time>2019-02-20T08:21:39.000Z</time>
      </trkpt>
      <trkpt lat="46.02461" lon="6.57816">
        <ele>1440.4000244141</ele>
        <time>2019-02-20T08:21:44.000Z</time>
      </trkpt>
      <trkpt lat="46.02459" lon="6.57816">
        <ele>1440.8000488281</ele>
        <time>2019-02-20T08:21:49.000Z</time>
      </trkpt>
      <trkpt lat="46.02457" lon="6.57815">
        <ele>1441.4000244141</ele>
        <time>2019-02-20T08:21:54.000Z</time>
      </trkpt>
      <trkpt lat="46.02455" lon="6.57814">
        <ele>1441.8000488281</ele>
        <time>2019-02-20T08:21:59.000Z</time>
      </trkpt>
      <trkpt lat="46.02453" lon="6.57814">
        <ele>1442.4000244141</ele>
        <time>2019-02-20T08:22:04.000Z</time>
      </trkpt>
      <trkpt lat="46.02451" lon="6.57813">
        <ele>1443</ele>
        <time>2019-02-20T08:22:09.000Z</time>
      </trkpt>
      <trkpt lat="46.02449" lon="6.57812">
        <ele>1443.5999755859</ele>
        <time>2019-02-20T08:22:13.000Z</time>
      </trkpt>
      <trkpt lat="46.02447" lon="6.57811">
        <ele>1444.4000244141</ele>
        <time>2019-02-20T08:22:19.000Z</time>
      </trkpt>
      <trkpt lat="46.02445" lon="6.5781">
        <ele>1445.1999511719</ele>
        <time>2019-02-20T08:22:24.000Z</time>
      </trkpt>
      <trkpt lat="46.02443" lon="6.5781">
        <ele>1445.8000488281</ele>
        <time>2019-02-20T08:22:29.000Z</time>
      </trkpt>
      <trkpt lat="46.02441" lon="6.57809">
        <ele>1446.1999511719</ele>
        <time>2019-02-20T08:22:34.000Z</time>
      </trkpt>
      <trkpt lat="46.02439" lon="6.57807">
        <ele>1447.4000244141</ele>
        <time>2019-02-20T08:22:54.000Z</time>
      </trkpt>
      <trkpt lat="46.02437" lon="6.57806">
        <ele>1447.4000244141</ele>
        <time>2019-02-20T08:22:57.000Z</time>
      </trkpt>
      <trkpt lat="46.02436" lon="6.57806">
        <ele>1447.1999511719</ele>
        <time>2019-02-20T08:22:59.000Z</time>
      </trkpt>
      <trkpt lat="46.02433" lon="6.57806">
        <ele>1448</ele>
        <time>2019-02-20T08:23:02.000Z</time>
      </trkpt>
      <trkpt lat="46.02431" lon="6.57806">
        <ele>1449</ele>
        <time>2019-02-20T08:23:05.000Z</time>
      </trkpt>
      <trkpt lat="46.0243" lon="6.57807">
        <ele>1449.1999511719</ele>
        <time>2019-02-20T08:23:09.000Z</time>
      </trkpt>
      <trkpt lat="46.02428" lon="6.57807">
        <ele>1450.1999511719</ele>
        <time>2019-02-20T08:23:12.000Z</time>
      </trkpt>
      <trkpt lat="46.02426" lon="6.57807">
        <ele>1450.5999755859</ele>
        <time>2019-02-20T08:23:14.000Z</time>
      </trkpt>
      <trkpt lat="46.02424" lon="6.57807">
        <ele>1451.1997517397</ele>
        <time>2019-02-20T08:23:17.000Z</time>
      </trkpt>
      <trkpt lat="46.02422" lon="6.57807">
        <ele>1451.4000244141</ele>
        <time>2019-02-20T08:23:19.000Z</time>
      </trkpt>
      <trkpt lat="46.0242" lon="6.57808">
        <ele>1452.4000244141</ele>
        <time>2019-02-20T08:23:23.000Z</time>
      </trkpt>
      <trkpt lat="46.02417" lon="6.57809">
        <ele>1453.1999511719</ele>
        <time>2019-02-20T08:23:27.000Z</time>
      </trkpt>
      <trkpt lat="46.02415" lon="6.57809">
        <ele>1454.1999511719</ele>
        <time>2019-02-20T08:23:30.000Z</time>
      </trkpt>
      <trkpt lat="46.02413" lon="6.57809">
        <ele>1454.5999755859</ele>
        <time>2019-02-20T08:23:33.000Z</time>
      </trkpt>
      <trkpt lat="46.02411" lon="6.5781">
        <ele>1455.1999511719</ele>
        <time>2019-02-20T08:23:35.000Z</time>
      </trkpt>
      <trkpt lat="46.02409" lon="6.57811">
        <ele>1455.5999755859</ele>
        <time>2019-02-20T08:23:38.000Z</time>
      </trkpt>
      <trkpt lat="46.02409" lon="6.57814">
        <ele>1456.4000244141</ele>
        <time>2019-02-20T08:23:41.000Z</time>
      </trkpt>
      <trkpt lat="46.02408" lon="6.57816">
        <ele>1457.1999511719</ele>
        <time>2019-02-20T08:23:44.000Z</time>
      </trkpt>
      <trkpt lat="46.02406" lon="6.57819">
        <ele>1458.1999511719</ele>
        <time>2019-02-20T08:23:47.000Z</time>
      </trkpt>
      <trkpt lat="46.02404" lon="6.57819">
        <ele>1459.4000244141</ele>
        <time>2019-02-20T08:23:51.000Z</time>
      </trkpt>
      <trkpt lat="46.02402" lon="6.5782">
        <ele>1460.1999511719</ele>
        <time>2019-02-20T08:23:55.000Z</time>
      </trkpt>
      <trkpt lat="46.024" lon="6.5782">
        <ele>1461.1999511719</ele>
        <time>2019-02-20T08:24:00.000Z</time>
      </trkpt>
      <trkpt lat="46.02397" lon="6.5782">
        <ele>1462.5999755859</ele>
        <time>2019-02-20T08:24:03.000Z</time>
      </trkpt>
      <trkpt lat="46.02395" lon="6.5782">
        <ele>1463</ele>
        <time>2019-02-20T08:24:07.000Z</time>
      </trkpt>
      <trkpt lat="46.02395" lon="6.57823">
        <ele>1464.4000244141</ele>
        <time>2019-02-20T08:24:11.000Z</time>
      </trkpt>
      <trkpt lat="46.02397" lon="6.57826">
        <ele>1464.5999755859</ele>
        <time>2019-02-20T08:24:14.000Z</time>
      </trkpt>
      <trkpt lat="46.02399" lon="6.57827">
        <ele>1465.1999511719</ele>
        <time>2019-02-20T08:24:17.000Z</time>
      </trkpt>
      <trkpt lat="46.024" lon="6.57828">
        <ele>1466.4000244141</ele>
        <time>2019-02-20T08:26:56.000Z</time>
      </trkpt>
      <trkpt lat="46.02402" lon="6.5783">
        <ele>1466.5999755859</ele>
        <time>2019-02-20T08:27:00.000Z</time>
      </trkpt>
      <trkpt lat="46.02403" lon="6.57833">
        <ele>1467</ele>
        <time>2019-02-20T08:27:04.000Z</time>
      </trkpt>
      <trkpt lat="46.02405" lon="6.57835">
        <ele>1466.8000488281</ele>
        <time>2019-02-20T08:27:08.000Z</time>
      </trkpt>
      <trkpt lat="46.02406" lon="6.57837">
        <ele>1467.1999511719</ele>
        <time>2019-02-20T08:27:12.000Z</time>
      </trkpt>
      <trkpt lat="46.02408" lon="6.57839">
        <ele>1467.5999755859</ele>
        <time>2019-02-20T08:27:16.000Z</time>
      </trkpt>
      <trkpt lat="46.02409" lon="6.57842">
        <ele>1468</ele>
        <time>2019-02-20T08:27:20.000Z</time>
      </trkpt>
      <trkpt lat="46.0241" lon="6.57844">
        <ele>1468</ele>
        <time>2019-02-20T08:27:24.000Z</time>
      </trkpt>
      <trkpt lat="46.02411" lon="6.57847">
        <ele>1468.4000244141</ele>
        <time>2019-02-20T08:27:27.000Z</time>
      </trkpt>
      <trkpt lat="46.02412" lon="6.5785">
        <ele>1469.1999511719</ele>
        <time>2019-02-20T08:27:33.000Z</time>
      </trkpt>
      <trkpt lat="46.02412" lon="6.57853">
        <ele>1469.5999755859</ele>
        <time>2019-02-20T08:27:37.000Z</time>
      </trkpt>
      <trkpt lat="46.02412" lon="6.57855">
        <ele>1469.8000488281</ele>
        <time>2019-02-20T08:27:40.000Z</time>
      </trkpt>
      <trkpt lat="46.02413" lon="6.57858">
        <ele>1470.1999511719</ele>
        <time>2019-02-20T08:27:44.000Z</time>
      </trkpt>
      <trkpt lat="46.02413" lon="6.57861">
        <ele>1470.4000244141</ele>
        <time>2019-02-20T08:27:48.000Z</time>
      </trkpt>
      <trkpt lat="46.02415" lon="6.57864">
        <ele>1470.5999755859</ele>
        <time>2019-02-20T08:27:52.000Z</time>
      </trkpt>
      <trkpt lat="46.02415" lon="6.57866">
        <ele>1471.1999511719</ele>
        <time>2019-02-20T08:27:55.000Z</time>
      </trkpt>
      <trkpt lat="46.02416" lon="6.57868">
        <ele>1471.1999511719</ele>
        <time>2019-02-20T08:27:58.000Z</time>
      </trkpt>
      <trkpt lat="46.02417" lon="6.57871">
        <ele>1471.1999511719</ele>
        <time>2019-02-20T08:28:01.000Z</time>
      </trkpt>
      <trkpt lat="46.02418" lon="6.57874">
        <ele>1471.5999755859</ele>
        <time>2019-02-20T08:28:05.000Z</time>
      </trkpt>
      <trkpt lat="46.02419" lon="6.57877">
        <ele>1472</ele>
        <time>2019-02-20T08:28:09.000Z</time>
      </trkpt>
      <trkpt lat="46.02419" lon="6.5788">
        <ele>1472</ele>
        <time>2019-02-20T08:28:13.000Z</time>
      </trkpt>
      <trkpt lat="46.0242" lon="6.57882">
        <ele>1472.1999511719</ele>
        <time>2019-02-20T08:28:17.000Z</time>
      </trkpt>
      <trkpt lat="46.02418" lon="6.57883">
        <ele>1472.6005730558</ele>
        <time>2019-02-20T08:28:23.000Z</time>
      </trkpt>
      <trkpt lat="46.02416" lon="6.57881">
        <ele>1474.1999511719</ele>
        <time>2019-02-20T08:28:30.000Z</time>
      </trkpt>
      <trkpt lat="46.02414" lon="6.5788">
        <ele>1475.1999511719</ele>
        <time>2019-02-20T08:28:37.000Z</time>
      </trkpt>
      <trkpt lat="46.02412" lon="6.57878">
        <ele>1475.5999755859</ele>
        <time>2019-02-20T08:28:44.000Z</time>
      </trkpt>
      <trkpt lat="46.02411" lon="6.57877">
        <ele>1476.4000244141</ele>
        <time>2019-02-20T08:28:49.000Z</time>
      </trkpt>
      <trkpt lat="46.02409" lon="6.57875">
        <ele>1477.5999755859</ele>
        <time>2019-02-20T08:28:58.000Z</time>
      </trkpt>
      <trkpt lat="46.02408" lon="6.57874">
        <ele>1477.8000488281</ele>
        <time>2019-02-20T08:29:03.000Z</time>
      </trkpt>
      <trkpt lat="46.02406" lon="6.57872">
        <ele>1478</ele>
        <time>2019-02-20T08:29:08.000Z</time>
      </trkpt>
      <trkpt lat="46.02405" lon="6.57871">
        <ele>1478.5999755859</ele>
        <time>2019-02-20T08:29:13.000Z</time>
      </trkpt>
      <trkpt lat="46.02403" lon="6.57869">
        <ele>1479.1999511719</ele>
        <time>2019-02-20T08:29:18.000Z</time>
      </trkpt>
      <trkpt lat="46.02401" lon="6.57868">
        <ele>1479.1999511719</ele>
        <time>2019-02-20T08:29:22.000Z</time>
      </trkpt>
      <trkpt lat="46.024" lon="6.57867">
        <ele>1479.5999755859</ele>
        <time>2019-02-20T08:29:27.000Z</time>
      </trkpt>
      <trkpt lat="46.02398" lon="6.57866">
        <ele>1480.1999511719</ele>
        <time>2019-02-20T08:29:32.000Z</time>
      </trkpt>
      <trkpt lat="46.02396" lon="6.57865">
        <ele>1480.8000488281</ele>
        <time>2019-02-20T08:29:37.000Z</time>
      </trkpt>
      <trkpt lat="46.02394" lon="6.57864">
        <ele>1481.4000244141</ele>
        <time>2019-02-20T08:29:42.000Z</time>
      </trkpt>
      <trkpt lat="46.02393" lon="6.57863">
        <ele>1482.1999511719</ele>
        <time>2019-02-20T08:29:47.000Z</time>
      </trkpt>
      <trkpt lat="46.02391" lon="6.57862">
        <ele>1482.5999755859</ele>
        <time>2019-02-20T08:29:52.000Z</time>
      </trkpt>
      <trkpt lat="46.02389" lon="6.57862">
        <ele>1483.1999511719</ele>
        <time>2019-02-20T08:29:57.000Z</time>
      </trkpt>
      <trkpt lat="46.02388" lon="6.57865">
        <ele>1484.1999511719</ele>
        <time>2019-02-20T08:30:17.000Z</time>
      </trkpt>
      <trkpt lat="46.02388" lon="6.57868">
        <ele>1485</ele>
        <time>2019-02-20T08:30:23.000Z</time>
      </trkpt>
      <trkpt lat="46.02389" lon="6.5787">
        <ele>1485.4000244141</ele>
        <time>2019-02-20T08:30:29.000Z</time>
      </trkpt>
      <trkpt lat="46.02389" lon="6.57873">
        <ele>1485.8000488281</ele>
        <time>2019-02-20T08:30:34.000Z</time>
      </trkpt>
      <trkpt lat="46.02388" lon="6.57875">
        <ele>1488</ele>
        <time>2019-02-20T08:30:55.000Z</time>
      </trkpt>
      <trkpt lat="46.02386" lon="6.57874">
        <ele>1489</ele>
        <time>2019-02-20T08:31:11.000Z</time>
      </trkpt>
      <trkpt lat="46.02384" lon="6.57873">
        <ele>1489</ele>
        <time>2019-02-20T08:31:16.000Z</time>
      </trkpt>
      <trkpt lat="46.02383" lon="6.57871">
        <ele>1489.8000488281</ele>
        <time>2019-02-20T08:31:22.000Z</time>
      </trkpt>
      <trkpt lat="46.02381" lon="6.57869">
        <ele>1490.5999755859</ele>
        <time>2019-02-20T08:31:27.000Z</time>
      </trkpt>
      <trkpt lat="46.02379" lon="6.57868">
        <ele>1490.8000488281</ele>
        <time>2019-02-20T08:31:32.000Z</time>
      </trkpt>
      <trkpt lat="46.02377" lon="6.57867">
        <ele>1491</ele>
        <time>2019-02-20T08:31:37.000Z</time>
      </trkpt>
      <trkpt lat="46.02375" lon="6.57866">
        <ele>1491.4000244141</ele>
        <time>2019-02-20T08:31:48.000Z</time>
      </trkpt>
      <trkpt lat="46.02373" lon="6.57865">
        <ele>1491.8000488281</ele>
        <time>2019-02-20T08:31:53.000Z</time>
      </trkpt>
      <trkpt lat="46.02371" lon="6.57864">
        <ele>1492.5999755859</ele>
        <time>2019-02-20T08:31:59.000Z</time>
      </trkpt>
      <trkpt lat="46.02369" lon="6.57863">
        <ele>1492.4000244141</ele>
        <time>2019-02-20T08:32:04.000Z</time>
      </trkpt>
      <trkpt lat="46.02367" lon="6.57862">
        <ele>1492.5999755859</ele>
        <time>2019-02-20T08:32:17.000Z</time>
      </trkpt>
      <trkpt lat="46.02365" lon="6.57861">
        <ele>1492.8000488281</ele>
        <time>2019-02-20T08:32:21.000Z</time>
      </trkpt>
      <trkpt lat="46.02363" lon="6.57859">
        <ele>1493.4000244141</ele>
        <time>2019-02-20T08:32:25.000Z</time>
      </trkpt>
      <trkpt lat="46.02361" lon="6.57858">
        <ele>1493.5999755859</ele>
        <time>2019-02-20T08:32:30.000Z</time>
      </trkpt>
      <trkpt lat="46.02359" lon="6.57858">
        <ele>1493.8000488281</ele>
        <time>2019-02-20T08:32:35.000Z</time>
      </trkpt>
      <trkpt lat="46.02357" lon="6.57857">
        <ele>1494.4000244141</ele>
        <time>2019-02-20T08:32:40.000Z</time>
      </trkpt>
      <trkpt lat="46.02355" lon="6.57857">
        <ele>1494.8000488281</ele>
        <time>2019-02-20T08:32:45.000Z</time>
      </trkpt>
      <trkpt lat="46.02353" lon="6.57857">
        <ele>1494.8000488281</ele>
        <time>2019-02-20T08:32:49.000Z</time>
      </trkpt>
      <trkpt lat="46.02352" lon="6.57857">
        <ele>1495.5999755859</ele>
        <time>2019-02-20T08:32:53.000Z</time>
      </trkpt>
      <trkpt lat="46.0235" lon="6.57857">
        <ele>1496.4000244141</ele>
        <time>2019-02-20T08:32:58.000Z</time>
      </trkpt>
      <trkpt lat="46.02348" lon="6.57857">
        <ele>1496.8000488281</ele>
        <time>2019-02-20T08:33:02.000Z</time>
      </trkpt>
      <trkpt lat="46.02346" lon="6.57857">
        <ele>1497.5999755859</ele>
        <time>2019-02-20T08:33:10.000Z</time>
      </trkpt>
      <trkpt lat="46.02344" lon="6.57857">
        <ele>1498.4000244141</ele>
        <time>2019-02-20T08:33:15.000Z</time>
      </trkpt>
      <trkpt lat="46.02342" lon="6.57857">
        <ele>1499</ele>
        <time>2019-02-20T08:33:20.000Z</time>
      </trkpt>
      <trkpt lat="46.0234" lon="6.57858">
        <ele>1499.1999511719</ele>
        <time>2019-02-20T08:33:25.000Z</time>
      </trkpt>
      <trkpt lat="46.02342" lon="6.57859">
        <ele>1500</ele>
        <time>2019-02-20T08:33:33.000Z</time>
      </trkpt>
      <trkpt lat="46.02343" lon="6.5786">
        <ele>1500</ele>
        <time>2019-02-20T08:33:37.000Z</time>
      </trkpt>
      <trkpt lat="46.02344" lon="6.57863">
        <ele>1500.4000244141</ele>
        <time>2019-02-20T08:33:43.000Z</time>
      </trkpt>
      <trkpt lat="46.02343" lon="6.57864">
        <ele>1501.1999511719</ele>
        <time>2019-02-20T08:33:52.000Z</time>
      </trkpt>
      <trkpt lat="46.02341" lon="6.57865">
        <ele>1502.5999755859</ele>
        <time>2019-02-20T08:34:00.000Z</time>
      </trkpt>
      <trkpt lat="46.02339" lon="6.57865">
        <ele>1503.1999511719</ele>
        <time>2019-02-20T08:34:09.000Z</time>
      </trkpt>
      <trkpt lat="46.02337" lon="6.57866">
        <ele>1503.5999755859</ele>
        <time>2019-02-20T08:34:42.000Z</time>
      </trkpt>
      <trkpt lat="46.02335" lon="6.57867">
        <ele>1503.9998005679</ele>
        <time>2019-02-20T08:34:46.000Z</time>
      </trkpt>
      <trkpt lat="46.02333" lon="6.57866">
        <ele>1505</ele>
        <time>2019-02-20T08:34:54.000Z</time>
      </trkpt>
      <trkpt lat="46.02331" lon="6.57865">
        <ele>1505.5999755859</ele>
        <time>2019-02-20T08:34:58.000Z</time>
      </trkpt>
      <trkpt lat="46.02329" lon="6.57864">
        <ele>1506.1999511719</ele>
        <time>2019-02-20T08:35:06.000Z</time>
      </trkpt>
      <trkpt lat="46.02331" lon="6.57866">
        <ele>1506.5999755859</ele>
        <time>2019-02-20T08:35:14.000Z</time>
      </trkpt>
      <trkpt lat="46.02332" lon="6.57867">
        <ele>1506.1999511719</ele>
        <time>2019-02-20T08:35:25.000Z</time>
      </trkpt>
      <trkpt lat="46.02334" lon="6.57869">
        <ele>1506.4000244141</ele>
        <time>2019-02-20T08:35:35.000Z</time>
      </trkpt>
      <trkpt lat="46.02335" lon="6.57871">
        <ele>1506.8000488281</ele>
        <time>2019-02-20T08:35:42.000Z</time>
      </trkpt>
      <trkpt lat="46.02337" lon="6.57869">
        <ele>1507.4000244141</ele>
        <time>2019-02-20T08:36:11.000Z</time>
      </trkpt>
      <trkpt lat="46.02336" lon="6.57871">
        <ele>1507.5999755859</ele>
        <time>2019-02-20T08:36:19.000Z</time>
      </trkpt>
      <trkpt lat="46.02333" lon="6.57871">
        <ele>1508.4000244141</ele>
        <time>2019-02-20T08:36:22.000Z</time>
      </trkpt>
      <trkpt lat="46.02332" lon="6.57871">
        <ele>1508.5999755859</ele>
        <time>2019-02-20T08:36:24.000Z</time>
      </trkpt>
      <trkpt lat="46.0233" lon="6.57871">
        <ele>1509.8000488281</ele>
        <time>2019-02-20T08:36:30.000Z</time>
      </trkpt>
      <trkpt lat="46.02328" lon="6.57871">
        <ele>1510.5999755859</ele>
        <time>2019-02-20T08:36:41.000Z</time>
      </trkpt>
      <trkpt lat="46.0233" lon="6.57875">
        <ele>1510.8000488281</ele>
        <time>2019-02-20T08:36:57.000Z</time>
      </trkpt>
      <trkpt lat="46.02332" lon="6.57877">
        <ele>1511.1999511719</ele>
        <time>2019-02-20T08:37:05.000Z</time>
      </trkpt>
      <trkpt lat="46.02334" lon="6.5788">
        <ele>1511.4000244141</ele>
        <time>2019-02-20T08:37:11.000Z</time>
      </trkpt>
      <trkpt lat="46.02331" lon="6.57881">
        <ele>1513.8000488281</ele>
        <time>2019-02-20T08:37:26.000Z</time>
      </trkpt>
      <trkpt lat="46.02329" lon="6.57881">
        <ele>1514.4000244141</ele>
        <time>2019-02-20T08:37:31.000Z</time>
      </trkpt>
      <trkpt lat="46.02327" lon="6.5788">
        <ele>1515.5999755859</ele>
        <time>2019-02-20T08:37:44.000Z</time>
      </trkpt>
      <trkpt lat="46.02325" lon="6.5788">
        <ele>1516.1999511719</ele>
        <time>2019-02-20T08:37:49.000Z</time>
      </trkpt>
      <trkpt lat="46.02323" lon="6.5788">
        <ele>1516.8000488281</ele>
        <time>2019-02-20T08:37:55.000Z</time>
      </trkpt>
      <trkpt lat="46.02321" lon="6.5788">
        <ele>1517</ele>
        <time>2019-02-20T08:38:01.000Z</time>
      </trkpt>
      <trkpt lat="46.02319" lon="6.57881">
        <ele>1517</ele>
        <time>2019-02-20T08:38:06.000Z</time>
      </trkpt>
      <trkpt lat="46.02317" lon="6.57882">
        <ele>1517.1999511719</ele>
        <time>2019-02-20T08:38:12.000Z</time>
      </trkpt>
      <trkpt lat="46.02315" lon="6.57883">
        <ele>1517.4000244141</ele>
        <time>2019-02-20T08:38:19.000Z</time>
      </trkpt>
      <trkpt lat="46.02313" lon="6.57883">
        <ele>1518.5999755859</ele>
        <time>2019-02-20T08:38:25.000Z</time>
      </trkpt>
      <trkpt lat="46.02311" lon="6.57882">
        <ele>1519.4000244141</ele>
        <time>2019-02-20T08:38:30.000Z</time>
      </trkpt>
      <trkpt lat="46.0231" lon="6.5788">
        <ele>1520.1999511719</ele>
        <time>2019-02-20T08:39:07.000Z</time>
      </trkpt>
      <trkpt lat="46.02308" lon="6.57882">
        <ele>1520.4000244141</ele>
        <time>2019-02-20T08:46:21.000Z</time>
      </trkpt>
      <trkpt lat="46.02306" lon="6.57881">
        <ele>1520.8000488281</ele>
        <time>2019-02-20T08:46:25.000Z</time>
      </trkpt>
      <trkpt lat="46.02304" lon="6.5788">
        <ele>1521.8000488281</ele>
        <time>2019-02-20T08:46:35.000Z</time>
      </trkpt>
      <trkpt lat="46.02303" lon="6.57879">
        <ele>1522.8000488281</ele>
        <time>2019-02-20T08:46:45.000Z</time>
      </trkpt>
      <trkpt lat="46.023" lon="6.57878">
        <ele>1524</ele>
        <time>2019-02-20T08:46:53.000Z</time>
      </trkpt>
      <trkpt lat="46.02295" lon="6.57878">
        <ele>1525</ele>
        <time>2019-02-20T08:47:01.000Z</time>
      </trkpt>
      <trkpt lat="46.02286" lon="6.57877">
        <ele>1528.1999511719</ele>
        <time>2019-02-20T08:47:26.000Z</time>
      </trkpt>
      <trkpt lat="46.02276" lon="6.57874">
        <ele>1530.8000488281</ele>
        <time>2019-02-20T08:47:50.000Z</time>
      </trkpt>
      <trkpt lat="46.02267" lon="6.5787">
        <ele>1534.5999755859</ele>
        <time>2019-02-20T08:48:22.000Z</time>
      </trkpt>
      <trkpt lat="46.02275" lon="6.57876">
        <ele>1536.4000244141</ele>
        <time>2019-02-20T08:48:53.000Z</time>
      </trkpt>
      <trkpt lat="46.02283" lon="6.57885">
        <ele>1540.4000244141</ele>
        <time>2019-02-20T08:50:17.000Z</time>
      </trkpt>
      <trkpt lat="46.0228" lon="6.57897">
        <ele>1542.5999755859</ele>
        <time>2019-02-20T08:50:38.000Z</time>
      </trkpt>
      <trkpt lat="46.02284" lon="6.57909">
        <ele>1545</ele>
        <time>2019-02-20T08:51:01.000Z</time>
      </trkpt>
      <trkpt lat="46.02287" lon="6.57922">
        <ele>1547.8000488281</ele>
        <time>2019-02-20T08:51:34.000Z</time>
      </trkpt>
      <trkpt lat="46.02287" lon="6.57926">
        <ele>1548.5999755859</ele>
        <time>2019-02-20T08:51:42.000Z</time>
      </trkpt>
      <trkpt lat="46.02292" lon="6.57937">
        <ele>1550.4000244141</ele>
        <time>2019-02-20T08:52:04.000Z</time>
      </trkpt>
      <trkpt lat="46.02295" lon="6.57943">
        <ele>1551.1999511719</ele>
        <time>2019-02-20T08:52:18.000Z</time>
      </trkpt>
      <trkpt lat="46.02298" lon="6.57948">
        <ele>1552.4000244141</ele>
        <time>2019-02-20T08:52:28.000Z</time>
      </trkpt>
      <trkpt lat="46.02303" lon="6.57959">
        <ele>1554.5999755859</ele>
        <time>2019-02-20T08:52:53.000Z</time>
      </trkpt>
      <trkpt lat="46.02302" lon="6.57961">
        <ele>1555.199552705</ele>
        <time>2019-02-20T08:53:02.000Z</time>
      </trkpt>
      <trkpt lat="46.02303" lon="6.57965">
        <ele>1555.8000488281</ele>
        <time>2019-02-20T08:53:10.000Z</time>
      </trkpt>
      <trkpt lat="46.02303" lon="6.57978">
        <ele>1556.4000244141</ele>
        <time>2019-02-20T08:53:55.000Z</time>
      </trkpt>
      <trkpt lat="46.02299" lon="6.57977">
        <ele>1556.8000488281</ele>
        <time>2019-02-20T08:54:05.000Z</time>
      </trkpt>
      <trkpt lat="46.02299" lon="6.57974">
        <ele>1557.8000488281</ele>
        <time>2019-02-20T08:54:51.000Z</time>
      </trkpt>
      <trkpt lat="46.02298" lon="6.57976">
        <ele>1557.5999755859</ele>
        <time>2019-02-20T08:54:56.000Z</time>
      </trkpt>
      <trkpt lat="46.02296" lon="6.57974">
        <ele>1556.5999755859</ele>
        <time>2019-02-20T08:55:34.000Z</time>
      </trkpt>
      <trkpt lat="46.02295" lon="6.57979">
        <ele>1556.5999755859</ele>
        <time>2019-02-20T08:55:54.000Z</time>
      </trkpt>
      <trkpt lat="46.02297" lon="6.57979">
        <ele>1557.5999755859</ele>
        <time>2019-02-20T08:56:11.000Z</time>
      </trkpt>
      <trkpt lat="46.02298" lon="6.57976">
        <ele>1558.1999511719</ele>
        <time>2019-02-20T08:56:46.000Z</time>
      </trkpt>
      <trkpt lat="46.02294" lon="6.5798">
        <ele>1557</ele>
        <time>2019-02-20T08:57:22.000Z</time>
      </trkpt>
      <trkpt lat="46.02296" lon="6.57975">
        <ele>1558.4000244141</ele>
        <time>2019-02-20T08:58:31.000Z</time>
      </trkpt>
      <trkpt lat="46.02293" lon="6.57974">
        <ele>1558</ele>
        <time>2019-02-20T08:58:49.000Z</time>
      </trkpt>
      <trkpt lat="46.02292" lon="6.57972">
        <ele>1558.5999755859</ele>
        <time>2019-02-20T08:58:54.000Z</time>
      </trkpt>
      <trkpt lat="46.0229" lon="6.57971">
        <ele>1558.8000488281</ele>
        <time>2019-02-20T08:59:01.000Z</time>
      </trkpt>
      <trkpt lat="46.0229" lon="6.57974">
        <ele>1559.4000244141</ele>
        <time>2019-02-20T08:59:13.000Z</time>
      </trkpt>
      <trkpt lat="46.02284" lon="6.57963">
        <ele>1560.4000244141</ele>
        <time>2019-02-20T09:00:52.000Z</time>
      </trkpt>
      <trkpt lat="46.02277" lon="6.57955">
        <ele>1561.4000244141</ele>
        <time>2019-02-20T09:01:06.000Z</time>
      </trkpt>
      <trkpt lat="46.02271" lon="6.57949">
        <ele>1562.8000488281</ele>
        <time>2019-02-20T09:01:21.000Z</time>
      </trkpt>
      <trkpt lat="46.02262" lon="6.57947">
        <ele>1564.4000244141</ele>
        <time>2019-02-20T09:01:36.000Z</time>
      </trkpt>
      <trkpt lat="46.02253" lon="6.57941">
        <ele>1565.4000244141</ele>
        <time>2019-02-20T09:01:47.000Z</time>
      </trkpt>
      <trkpt lat="46.02249" lon="6.5793">
        <ele>1567.8000488281</ele>
        <time>2019-02-20T09:02:06.000Z</time>
      </trkpt>
      <trkpt lat="46.0224" lon="6.57929">
        <ele>1569.4000244141</ele>
        <time>2019-02-20T09:02:23.000Z</time>
      </trkpt>
      <trkpt lat="46.02231" lon="6.57928">
        <ele>1571.5999755859</ele>
        <time>2019-02-20T09:02:38.000Z</time>
      </trkpt>
      <trkpt lat="46.0224" lon="6.57928">
        <ele>1573.4000244141</ele>
        <time>2019-02-20T09:02:58.000Z</time>
      </trkpt>
      <trkpt lat="46.02248" lon="6.57935">
        <ele>1573.8000488281</ele>
        <time>2019-02-20T09:03:08.000Z</time>
      </trkpt>
      <trkpt lat="46.02256" lon="6.57942">
        <ele>1575.5999755859</ele>
        <time>2019-02-20T09:03:22.000Z</time>
      </trkpt>
      <trkpt lat="46.02257" lon="6.57955">
        <ele>1576.4000244141</ele>
        <time>2019-02-20T09:03:34.000Z</time>
      </trkpt>
      <trkpt lat="46.02257" lon="6.57964">
        <ele>1578.1999511719</ele>
        <time>2019-02-20T09:03:46.000Z</time>
      </trkpt>
      <trkpt lat="46.02257" lon="6.57966">
        <ele>1578.8000488281</ele>
        <time>2019-02-20T09:03:50.000Z</time>
      </trkpt>
      <trkpt lat="46.02258" lon="6.57972">
        <ele>1579.5999755859</ele>
        <time>2019-02-20T09:03:58.000Z</time>
      </trkpt>
      <trkpt lat="46.02258" lon="6.57977">
        <ele>1580.4000244141</ele>
        <time>2019-02-20T09:04:06.000Z</time>
      </trkpt>
      <trkpt lat="46.02258" lon="6.5798">
        <ele>1581</ele>
        <time>2019-02-20T09:04:10.000Z</time>
      </trkpt>
      <trkpt lat="46.02258" lon="6.57983">
        <ele>1581.1999511719</ele>
        <time>2019-02-20T09:04:14.000Z</time>
      </trkpt>
      <trkpt lat="46.02259" lon="6.57986">
        <ele>1581.5999755859</ele>
        <time>2019-02-20T09:04:18.000Z</time>
      </trkpt>
      <trkpt lat="46.0226" lon="6.57988">
        <ele>1581.8000488281</ele>
        <time>2019-02-20T09:04:22.000Z</time>
      </trkpt>
      <trkpt lat="46.02264" lon="6.58">
        <ele>1583.5999755859</ele>
        <time>2019-02-20T09:04:40.000Z</time>
      </trkpt>
      <trkpt lat="46.02264" lon="6.58013">
        <ele>1584.5999755859</ele>
        <time>2019-02-20T09:04:52.000Z</time>
      </trkpt>
      <trkpt lat="46.02263" lon="6.58027">
        <ele>1586.8000488281</ele>
        <time>2019-02-20T09:05:11.000Z</time>
      </trkpt>
      <trkpt lat="46.0226" lon="6.5804">
        <ele>1589.5999755859</ele>
        <time>2019-02-20T09:05:34.000Z</time>
      </trkpt>
      <trkpt lat="46.02264" lon="6.58053">
        <ele>1590.799650118</ele>
        <time>2019-02-20T09:05:47.000Z</time>
      </trkpt>
      <trkpt lat="46.02264" lon="6.58059">
        <ele>1591.5999755859</ele>
        <time>2019-02-20T09:05:55.000Z</time>
      </trkpt>
      <trkpt lat="46.02263" lon="6.58062">
        <ele>1591.8000488281</ele>
        <time>2019-02-20T09:05:59.000Z</time>
      </trkpt>
      <trkpt lat="46.02263" lon="6.58065">
        <ele>1592</ele>
        <time>2019-02-20T09:06:03.000Z</time>
      </trkpt>
      <trkpt lat="46.02262" lon="6.58067">
        <ele>1592.8000488281</ele>
        <time>2019-02-20T09:06:07.000Z</time>
      </trkpt>
      <trkpt lat="46.02262" lon="6.5807">
        <ele>1593.1999511719</ele>
        <time>2019-02-20T09:06:11.000Z</time>
      </trkpt>
      <trkpt lat="46.02261" lon="6.58073">
        <ele>1593.8000488281</ele>
        <time>2019-02-20T09:06:15.000Z</time>
      </trkpt>
      <trkpt lat="46.0226" lon="6.58077">
        <ele>1594.4000244141</ele>
        <time>2019-02-20T09:06:20.000Z</time>
      </trkpt>
      <trkpt lat="46.02259" lon="6.5808">
        <ele>1594.5999755859</ele>
        <time>2019-02-20T09:06:23.000Z</time>
      </trkpt>
      <trkpt lat="46.02257" lon="6.58081">
        <ele>1594.8000488281</ele>
        <time>2019-02-20T09:06:26.000Z</time>
      </trkpt>
      <trkpt lat="46.02256" lon="6.58084">
        <ele>1594.8000488281</ele>
        <time>2019-02-20T09:06:29.000Z</time>
      </trkpt>
      <trkpt lat="46.02255" lon="6.58086">
        <ele>1595</ele>
        <time>2019-02-20T09:06:33.000Z</time>
      </trkpt>
      <trkpt lat="46.02253" lon="6.58088">
        <ele>1595.4000244141</ele>
        <time>2019-02-20T09:06:36.000Z</time>
      </trkpt>
      <trkpt lat="46.02252" lon="6.5809">
        <ele>1595.5999755859</ele>
        <time>2019-02-20T09:06:39.000Z</time>
      </trkpt>
      <trkpt lat="46.0225" lon="6.58092">
        <ele>1596</ele>
        <time>2019-02-20T09:06:43.000Z</time>
      </trkpt>
      <trkpt lat="46.02248" lon="6.58094">
        <ele>1596.1999511719</ele>
        <time>2019-02-20T09:06:45.000Z</time>
      </trkpt>
      <trkpt lat="46.02245" lon="6.58098">
        <ele>1596.5999755859</ele>
        <time>2019-02-20T09:06:50.000Z</time>
      </trkpt>
      <trkpt lat="46.02243" lon="6.581">
        <ele>1596.8000488281</ele>
        <time>2019-02-20T09:06:53.000Z</time>
      </trkpt>
      <trkpt lat="46.02241" lon="6.58102">
        <ele>1597.1999511719</ele>
        <time>2019-02-20T09:06:56.000Z</time>
      </trkpt>
      <trkpt lat="46.0224" lon="6.58103">
        <ele>1597.8000488281</ele>
        <time>2019-02-20T09:06:59.000Z</time>
      </trkpt>
      <trkpt lat="46.02233" lon="6.58107">
        <ele>1598</ele>
        <time>2019-02-20T09:07:10.000Z</time>
      </trkpt>
      <trkpt lat="46.02231" lon="6.5811">
        <ele>1598.4000244141</ele>
        <time>2019-02-20T09:07:14.000Z</time>
      </trkpt>
      <trkpt lat="46.0223" lon="6.58111">
        <ele>1598.8000488281</ele>
        <time>2019-02-20T09:07:17.000Z</time>
      </trkpt>
      <trkpt lat="46.02227" lon="6.58112">
        <ele>1599.1999511719</ele>
        <time>2019-02-20T09:07:22.000Z</time>
      </trkpt>
      <trkpt lat="46.0222" lon="6.58121">
        <ele>1600.8000488281</ele>
        <time>2019-02-20T09:07:41.000Z</time>
      </trkpt>
      <trkpt lat="46.02214" lon="6.58131">
        <ele>1601.8000488281</ele>
        <time>2019-02-20T09:07:50.000Z</time>
      </trkpt>
      <trkpt lat="46.02206" lon="6.58136">
        <ele>1602.8000488281</ele>
        <time>2019-02-20T09:08:06.000Z</time>
      </trkpt>
      <trkpt lat="46.02202" lon="6.58149">
        <ele>1603.8000488281</ele>
        <time>2019-02-20T09:08:18.000Z</time>
      </trkpt>
      <trkpt lat="46.02197" lon="6.5816">
        <ele>1605</ele>
        <time>2019-02-20T09:08:32.000Z</time>
      </trkpt>
      <trkpt lat="46.0219" lon="6.58169">
        <ele>1607</ele>
        <time>2019-02-20T09:08:50.000Z</time>
      </trkpt>
      <trkpt lat="46.02193" lon="6.58181">
        <ele>1611.1999511719</ele>
        <time>2019-02-20T09:09:28.000Z</time>
      </trkpt>
      <trkpt lat="46.02196" lon="6.58194">
        <ele>1613.1999511719</ele>
        <time>2019-02-20T09:09:46.000Z</time>
      </trkpt>
      <trkpt lat="46.02202" lon="6.58204">
        <ele>1614.4000244141</ele>
        <time>2019-02-20T09:10:02.000Z</time>
      </trkpt>
      <trkpt lat="46.0221" lon="6.5821">
        <ele>1616.1999511719</ele>
        <time>2019-02-20T09:10:17.000Z</time>
      </trkpt>
      <trkpt lat="46.02215" lon="6.58221">
        <ele>1617.1999511719</ele>
        <time>2019-02-20T09:10:35.000Z</time>
      </trkpt>
      <trkpt lat="46.02219" lon="6.58234">
        <ele>1618.4000244141</ele>
        <time>2019-02-20T09:10:50.000Z</time>
      </trkpt>
      <trkpt lat="46.02217" lon="6.58247">
        <ele>1620.4000244141</ele>
        <time>2019-02-20T09:11:06.000Z</time>
      </trkpt>
      <trkpt lat="46.02211" lon="6.58257">
        <ele>1622</ele>
        <time>2019-02-20T09:11:19.000Z</time>
      </trkpt>
      <trkpt lat="46.02204" lon="6.58265">
        <ele>1622.8000488281</ele>
        <time>2019-02-20T09:11:31.000Z</time>
      </trkpt>
      <trkpt lat="46.02205" lon="6.58279">
        <ele>1625.1999511719</ele>
        <time>2019-02-20T09:11:49.000Z</time>
      </trkpt>
      <trkpt lat="46.02201" lon="6.58291">
        <ele>1626.4000244141</ele>
        <time>2019-02-20T09:12:04.000Z</time>
      </trkpt>
      <trkpt lat="46.02204" lon="6.58305">
        <ele>1627.5999755859</ele>
        <time>2019-02-20T09:12:18.000Z</time>
      </trkpt>
      <trkpt lat="46.02205" lon="6.58318">
        <ele>1629.4000244141</ele>
        <time>2019-02-20T09:12:38.000Z</time>
      </trkpt>
      <trkpt lat="46.02209" lon="6.5833">
        <ele>1631</ele>
        <time>2019-02-20T09:12:50.000Z</time>
      </trkpt>
      <trkpt lat="46.02216" lon="6.58339">
        <ele>1633.5999755859</ele>
        <time>2019-02-20T09:13:09.000Z</time>
      </trkpt>
      <trkpt lat="46.02224" lon="6.58347">
        <ele>1635.4000244141</ele>
        <time>2019-02-20T09:13:27.000Z</time>
      </trkpt>
      <trkpt lat="46.02228" lon="6.58358">
        <ele>1637.1999511719</ele>
        <time>2019-02-20T09:13:42.000Z</time>
      </trkpt>
      <trkpt lat="46.02224" lon="6.58371">
        <ele>1638.1999511719</ele>
        <time>2019-02-20T09:13:55.000Z</time>
      </trkpt>
      <trkpt lat="46.02223" lon="6.58377">
        <ele>1638.8000488281</ele>
        <time>2019-02-20T09:14:01.000Z</time>
      </trkpt>
      <trkpt lat="46.02222" lon="6.5838">
        <ele>1639.4000244141</ele>
        <time>2019-02-20T09:14:05.000Z</time>
      </trkpt>
      <trkpt lat="46.02221" lon="6.58382">
        <ele>1639.8000488281</ele>
        <time>2019-02-20T09:14:09.000Z</time>
      </trkpt>
      <trkpt lat="46.0222" lon="6.58383">
        <ele>1639.8000488281</ele>
        <time>2019-02-20T09:14:12.000Z</time>
      </trkpt>
      <trkpt lat="46.02227" lon="6.58392">
        <ele>1641</ele>
        <time>2019-02-20T09:14:25.000Z</time>
      </trkpt>
      <trkpt lat="46.0223" lon="6.58393">
        <ele>1641.5999755859</ele>
        <time>2019-02-20T09:14:28.000Z</time>
      </trkpt>
      <trkpt lat="46.02234" lon="6.58402">
        <ele>1642.8000488281</ele>
        <time>2019-02-20T09:14:40.000Z</time>
      </trkpt>
      <trkpt lat="46.02236" lon="6.58405">
        <ele>1643.1999511719</ele>
        <time>2019-02-20T09:14:45.000Z</time>
      </trkpt>
      <trkpt lat="46.02236" lon="6.58407">
        <ele>1643.5999755859</ele>
        <time>2019-02-20T09:14:48.000Z</time>
      </trkpt>
      <trkpt lat="46.02236" lon="6.5841">
        <ele>1644</ele>
        <time>2019-02-20T09:14:51.000Z</time>
      </trkpt>
      <trkpt lat="46.02236" lon="6.58413">
        <ele>1644.4000244141</ele>
        <time>2019-02-20T09:14:54.000Z</time>
      </trkpt>
      <trkpt lat="46.02237" lon="6.58415">
        <ele>1645.1999511719</ele>
        <time>2019-02-20T09:14:58.000Z</time>
      </trkpt>
      <trkpt lat="46.02237" lon="6.58418">
        <ele>1646</ele>
        <time>2019-02-20T09:15:04.000Z</time>
      </trkpt>
      <trkpt lat="46.02237" lon="6.58421">
        <ele>1645.8000488281</ele>
        <time>2019-02-20T09:15:06.000Z</time>
      </trkpt>
      <trkpt lat="46.02237" lon="6.58424">
        <ele>1646.1999511719</ele>
        <time>2019-02-20T09:15:09.000Z</time>
      </trkpt>
      <trkpt lat="46.02238" lon="6.58427">
        <ele>1646.8000488281</ele>
        <time>2019-02-20T09:15:12.000Z</time>
      </trkpt>
      <trkpt lat="46.02238" lon="6.58431">
        <ele>1646.8000488281</ele>
        <time>2019-02-20T09:15:15.000Z</time>
      </trkpt>
      <trkpt lat="46.02237" lon="6.58434">
        <ele>1646.8000488281</ele>
        <time>2019-02-20T09:15:18.000Z</time>
      </trkpt>
      <trkpt lat="46.02237" lon="6.58437">
        <ele>1647.1999511719</ele>
        <time>2019-02-20T09:15:21.000Z</time>
      </trkpt>
      <trkpt lat="46.02237" lon="6.5844">
        <ele>1647.8000488281</ele>
        <time>2019-02-20T09:15:24.000Z</time>
      </trkpt>
      <trkpt lat="46.02237" lon="6.58443">
        <ele>1648</ele>
        <time>2019-02-20T09:15:27.000Z</time>
      </trkpt>
      <trkpt lat="46.02237" lon="6.58445">
        <ele>1648.1999511719</ele>
        <time>2019-02-20T09:15:30.000Z</time>
      </trkpt>
      <trkpt lat="46.02236" lon="6.58448">
        <ele>1648.1999511719</ele>
        <time>2019-02-20T09:15:33.000Z</time>
      </trkpt>
      <trkpt lat="46.02237" lon="6.58452">
        <ele>1648.8000488281</ele>
        <time>2019-02-20T09:15:37.000Z</time>
      </trkpt>
      <trkpt lat="46.02237" lon="6.58455">
        <ele>1648.5999755859</ele>
        <time>2019-02-20T09:15:40.000Z</time>
      </trkpt>
      <trkpt lat="46.02237" lon="6.58458">
        <ele>1649</ele>
        <time>2019-02-20T09:15:43.000Z</time>
      </trkpt>
      <trkpt lat="46.02237" lon="6.58461">
        <ele>1648.8000488281</ele>
        <time>2019-02-20T09:15:46.000Z</time>
      </trkpt>
      <trkpt lat="46.02238" lon="6.58464">
        <ele>1649.1999511719</ele>
        <time>2019-02-20T09:15:49.000Z</time>
      </trkpt>
      <trkpt lat="46.02239" lon="6.58466">
        <ele>1649.5999755859</ele>
        <time>2019-02-20T09:15:52.000Z</time>
      </trkpt>
      <trkpt lat="46.0224" lon="6.58469">
        <ele>1649.8000488281</ele>
        <time>2019-02-20T09:15:55.000Z</time>
      </trkpt>
      <trkpt lat="46.02241" lon="6.58472">
        <ele>1649.6005730558</ele>
        <time>2019-02-20T09:15:59.000Z</time>
      </trkpt>
      <trkpt lat="46.02242" lon="6.58475">
        <ele>1650.1999511719</ele>
        <time>2019-02-20T09:16:04.000Z</time>
      </trkpt>
      <trkpt lat="46.02242" lon="6.58477">
        <ele>1650.8000488281</ele>
        <time>2019-02-20T09:16:07.000Z</time>
      </trkpt>
      <trkpt lat="46.02243" lon="6.5848">
        <ele>1650.8000488281</ele>
        <time>2019-02-20T09:16:10.000Z</time>
      </trkpt>
      <trkpt lat="46.02243" lon="6.58482">
        <ele>1651</ele>
        <time>2019-02-20T09:16:13.000Z</time>
      </trkpt>
      <trkpt lat="46.02244" lon="6.58485">
        <ele>1651.1999511719</ele>
        <time>2019-02-20T09:16:16.000Z</time>
      </trkpt>
      <trkpt lat="46.02245" lon="6.58488">
        <ele>1651.4000244141</ele>
        <time>2019-02-20T09:16:19.000Z</time>
      </trkpt>
      <trkpt lat="46.02246" lon="6.58491">
        <ele>1651.5999755859</ele>
        <time>2019-02-20T09:16:22.000Z</time>
      </trkpt>
      <trkpt lat="46.02247" lon="6.58494">
        <ele>1651.8000488281</ele>
        <time>2019-02-20T09:16:25.000Z</time>
      </trkpt>
      <trkpt lat="46.02246" lon="6.58499">
        <ele>1651.8000488281</ele>
        <time>2019-02-20T09:16:29.000Z</time>
      </trkpt>
      <trkpt lat="46.02246" lon="6.58501">
        <ele>1652</ele>
        <time>2019-02-20T09:16:32.000Z</time>
      </trkpt>
      <trkpt lat="46.02247" lon="6.58505">
        <ele>1652.5999755859</ele>
        <time>2019-02-20T09:16:36.000Z</time>
      </trkpt>
      <trkpt lat="46.02246" lon="6.58507">
        <ele>1652.4000244141</ele>
        <time>2019-02-20T09:16:39.000Z</time>
      </trkpt>
      <trkpt lat="46.02246" lon="6.5851">
        <ele>1652.1999511719</ele>
        <time>2019-02-20T09:16:42.000Z</time>
      </trkpt>
      <trkpt lat="46.02245" lon="6.58514">
        <ele>1652.5999755859</ele>
        <time>2019-02-20T09:16:45.000Z</time>
      </trkpt>
      <trkpt lat="46.02245" lon="6.58517">
        <ele>1653</ele>
        <time>2019-02-20T09:16:48.000Z</time>
      </trkpt>
      <trkpt lat="46.02241" lon="6.58525">
        <ele>1653.1999511719</ele>
        <time>2019-02-20T09:16:56.000Z</time>
      </trkpt>
      <trkpt lat="46.0224" lon="6.58527">
        <ele>1653.4000244141</ele>
        <time>2019-02-20T09:17:00.000Z</time>
      </trkpt>
      <trkpt lat="46.02238" lon="6.5853">
        <ele>1653.8000488281</ele>
        <time>2019-02-20T09:17:03.000Z</time>
      </trkpt>
      <trkpt lat="46.02239" lon="6.58534">
        <ele>1653.8000488281</ele>
        <time>2019-02-20T09:17:07.000Z</time>
      </trkpt>
      <trkpt lat="46.02238" lon="6.58538">
        <ele>1654</ele>
        <time>2019-02-20T09:17:10.000Z</time>
      </trkpt>
      <trkpt lat="46.02236" lon="6.58542">
        <ele>1654.8000488281</ele>
        <time>2019-02-20T09:17:14.000Z</time>
      </trkpt>
      <trkpt lat="46.02235" lon="6.58544">
        <ele>1655</ele>
        <time>2019-02-20T09:17:17.000Z</time>
      </trkpt>
      <trkpt lat="46.02234" lon="6.58547">
        <ele>1655.1999511719</ele>
        <time>2019-02-20T09:17:20.000Z</time>
      </trkpt>
      <trkpt lat="46.02232" lon="6.5855">
        <ele>1655.5999755859</ele>
        <time>2019-02-20T09:17:23.000Z</time>
      </trkpt>
      <trkpt lat="46.02232" lon="6.58553">
        <ele>1655.8000488281</ele>
        <time>2019-02-20T09:17:27.000Z</time>
      </trkpt>
      <trkpt lat="46.02231" lon="6.58556">
        <ele>1655.8000488281</ele>
        <time>2019-02-20T09:17:30.000Z</time>
      </trkpt>
      <trkpt lat="46.02232" lon="6.58559">
        <ele>1656.1999511719</ele>
        <time>2019-02-20T09:17:34.000Z</time>
      </trkpt>
      <trkpt lat="46.02232" lon="6.58562">
        <ele>1657.1999511719</ele>
        <time>2019-02-20T09:17:38.000Z</time>
      </trkpt>
      <trkpt lat="46.02231" lon="6.58565">
        <ele>1656.8000488281</ele>
        <time>2019-02-20T09:17:41.000Z</time>
      </trkpt>
      <trkpt lat="46.0223" lon="6.58568">
        <ele>1657</ele>
        <time>2019-02-20T09:17:44.000Z</time>
      </trkpt>
      <trkpt lat="46.02229" lon="6.58571">
        <ele>1657.5999755859</ele>
        <time>2019-02-20T09:17:47.000Z</time>
      </trkpt>
      <trkpt lat="46.02228" lon="6.58573">
        <ele>1657.8000488281</ele>
        <time>2019-02-20T09:17:50.000Z</time>
      </trkpt>
      <trkpt lat="46.02227" lon="6.58575">
        <ele>1658</ele>
        <time>2019-02-20T09:17:53.000Z</time>
      </trkpt>
      <trkpt lat="46.02225" lon="6.58577">
        <ele>1658.1999511719</ele>
        <time>2019-02-20T09:17:56.000Z</time>
      </trkpt>
      <trkpt lat="46.02224" lon="6.5858">
        <ele>1658.4000244141</ele>
        <time>2019-02-20T09:17:58.000Z</time>
      </trkpt>
      <trkpt lat="46.02222" lon="6.58583">
        <ele>1659</ele>
        <time>2019-02-20T09:18:00.000Z</time>
      </trkpt>
      <trkpt lat="46.02221" lon="6.58585">
        <ele>1659.1999511719</ele>
        <time>2019-02-20T09:18:02.000Z</time>
      </trkpt>
      <trkpt lat="46.02219" lon="6.58587">
        <ele>1659.1999511719</ele>
        <time>2019-02-20T09:18:05.000Z</time>
      </trkpt>
      <trkpt lat="46.02217" lon="6.5859">
        <ele>1659</ele>
        <time>2019-02-20T09:18:08.000Z</time>
      </trkpt>
      <trkpt lat="46.02215" lon="6.58591">
        <ele>1660</ele>
        <time>2019-02-20T09:18:11.000Z</time>
      </trkpt>
      <trkpt lat="46.02213" lon="6.58591">
        <ele>1660.1999511719</ele>
        <time>2019-02-20T09:18:14.000Z</time>
      </trkpt>
      <trkpt lat="46.02211" lon="6.58593">
        <ele>1660.4000244141</ele>
        <time>2019-02-20T09:18:17.000Z</time>
      </trkpt>
      <trkpt lat="46.02209" lon="6.58594">
        <ele>1660.5999755859</ele>
        <time>2019-02-20T09:18:20.000Z</time>
      </trkpt>
      <trkpt lat="46.02207" lon="6.58597">
        <ele>1660.5999755859</ele>
        <time>2019-02-20T09:18:23.000Z</time>
      </trkpt>
      <trkpt lat="46.02205" lon="6.58598">
        <ele>1660.5999755859</ele>
        <time>2019-02-20T09:18:26.000Z</time>
      </trkpt>
      <trkpt lat="46.02203" lon="6.58599">
        <ele>1661</ele>
        <time>2019-02-20T09:18:29.000Z</time>
      </trkpt>
      <trkpt lat="46.02201" lon="6.58601">
        <ele>1661.1999511719</ele>
        <time>2019-02-20T09:18:32.000Z</time>
      </trkpt>
      <trkpt lat="46.022" lon="6.58601">
        <ele>1661.4000244141</ele>
        <time>2019-02-20T09:18:35.000Z</time>
      </trkpt>
      <trkpt lat="46.02198" lon="6.58603">
        <ele>1661.4000244141</ele>
        <time>2019-02-20T09:18:37.000Z</time>
      </trkpt>
      <trkpt lat="46.02196" lon="6.58605">
        <ele>1661.4000244141</ele>
        <time>2019-02-20T09:18:39.000Z</time>
      </trkpt>
      <trkpt lat="46.02195" lon="6.58607">
        <ele>1661.5999755859</ele>
        <time>2019-02-20T09:18:41.000Z</time>
      </trkpt>
      <trkpt lat="46.02193" lon="6.5861">
        <ele>1661.5999755859</ele>
        <time>2019-02-20T09:18:43.000Z</time>
      </trkpt>
      <trkpt lat="46.02191" lon="6.58612">
        <ele>1662</ele>
        <time>2019-02-20T09:18:46.000Z</time>
      </trkpt>
      <trkpt lat="46.02189" lon="6.58614">
        <ele>1662.4000244141</ele>
        <time>2019-02-20T09:18:49.000Z</time>
      </trkpt>
      <trkpt lat="46.02187" lon="6.58615">
        <ele>1662.5999755859</ele>
        <time>2019-02-20T09:18:53.000Z</time>
      </trkpt>
      <trkpt lat="46.02185" lon="6.58616">
        <ele>1663</ele>
        <time>2019-02-20T09:18:56.000Z</time>
      </trkpt>
      <trkpt lat="46.02183" lon="6.58616">
        <ele>1663.1995523076</ele>
        <time>2019-02-20T09:18:58.000Z</time>
      </trkpt>
      <trkpt lat="46.02181" lon="6.58614">
        <ele>1663.4000244141</ele>
        <time>2019-02-20T09:19:00.000Z</time>
      </trkpt>
      <trkpt lat="46.02179" lon="6.58612">
        <ele>1663.4000244141</ele>
        <time>2019-02-20T09:19:02.000Z</time>
      </trkpt>
      <trkpt lat="46.02176" lon="6.58612">
        <ele>1663.5999755859</ele>
        <time>2019-02-20T09:19:05.000Z</time>
      </trkpt>
      <trkpt lat="46.02174" lon="6.58613">
        <ele>1664</ele>
        <time>2019-02-20T09:19:08.000Z</time>
      </trkpt>
      <trkpt lat="46.02172" lon="6.58614">
        <ele>1664</ele>
        <time>2019-02-20T09:19:11.000Z</time>
      </trkpt>
      <trkpt lat="46.0217" lon="6.58618">
        <ele>1664.4000244141</ele>
        <time>2019-02-20T09:19:14.000Z</time>
      </trkpt>
      <trkpt lat="46.02168" lon="6.5862">
        <ele>1664.5999755859</ele>
        <time>2019-02-20T09:19:16.000Z</time>
      </trkpt>
      <trkpt lat="46.02166" lon="6.58621">
        <ele>1665</ele>
        <time>2019-02-20T09:19:19.000Z</time>
      </trkpt>
      <trkpt lat="46.02164" lon="6.58622">
        <ele>1665.4000244141</ele>
        <time>2019-02-20T09:19:22.000Z</time>
      </trkpt>
      <trkpt lat="46.02162" lon="6.58624">
        <ele>1665.4000244141</ele>
        <time>2019-02-20T09:19:25.000Z</time>
      </trkpt>
      <trkpt lat="46.0216" lon="6.58625">
        <ele>1665.4000244141</ele>
        <time>2019-02-20T09:19:27.000Z</time>
      </trkpt>
      <trkpt lat="46.02157" lon="6.58628">
        <ele>1665.1999511719</ele>
        <time>2019-02-20T09:19:32.000Z</time>
      </trkpt>
      <trkpt lat="46.02155" lon="6.58629">
        <ele>1666</ele>
        <time>2019-02-20T09:19:35.000Z</time>
      </trkpt>
      <trkpt lat="46.02151" lon="6.58631">
        <ele>1666.5999755859</ele>
        <time>2019-02-20T09:19:40.000Z</time>
      </trkpt>
      <trkpt lat="46.02149" lon="6.58633">
        <ele>1666.8000488281</ele>
        <time>2019-02-20T09:19:43.000Z</time>
      </trkpt>
      <trkpt lat="46.02146" lon="6.58633">
        <ele>1667</ele>
        <time>2019-02-20T09:19:48.000Z</time>
      </trkpt>
      <trkpt lat="46.02144" lon="6.58633">
        <ele>1667.5999755859</ele>
        <time>2019-02-20T09:19:51.000Z</time>
      </trkpt>
      <trkpt lat="46.02141" lon="6.58633">
        <ele>1667.8000488281</ele>
        <time>2019-02-20T09:19:54.000Z</time>
      </trkpt>
      <trkpt lat="46.02139" lon="6.58634">
        <ele>1667.8000488281</ele>
        <time>2019-02-20T09:19:56.000Z</time>
      </trkpt>
      <trkpt lat="46.02137" lon="6.58636">
        <ele>1668</ele>
        <time>2019-02-20T09:19:59.000Z</time>
      </trkpt>
      <trkpt lat="46.02132" lon="6.58641">
        <ele>1668</ele>
        <time>2019-02-20T09:20:04.000Z</time>
      </trkpt>
      <trkpt lat="46.02129" lon="6.58643">
        <ele>1668</ele>
        <time>2019-02-20T09:20:08.000Z</time>
      </trkpt>
      <trkpt lat="46.02125" lon="6.58649">
        <ele>1668.8000488281</ele>
        <time>2019-02-20T09:20:18.000Z</time>
      </trkpt>
      <trkpt lat="46.02124" lon="6.58652">
        <ele>1669.1999511719</ele>
        <time>2019-02-20T09:20:24.000Z</time>
      </trkpt>
      <trkpt lat="46.02123" lon="6.58654">
        <ele>1669.4000244141</ele>
        <time>2019-02-20T09:20:28.000Z</time>
      </trkpt>
      <trkpt lat="46.02121" lon="6.58656">
        <ele>1669.8000488281</ele>
        <time>2019-02-20T09:20:33.000Z</time>
      </trkpt>
      <trkpt lat="46.0212" lon="6.58659">
        <ele>1670.1999511719</ele>
        <time>2019-02-20T09:20:36.000Z</time>
      </trkpt>
      <trkpt lat="46.02118" lon="6.5866">
        <ele>1670.8000488281</ele>
        <time>2019-02-20T09:20:39.000Z</time>
      </trkpt>
      <trkpt lat="46.02117" lon="6.58663">
        <ele>1670.799650118</ele>
        <time>2019-02-20T09:20:42.000Z</time>
      </trkpt>
      <trkpt lat="46.02111" lon="6.58665">
        <ele>1671.4000244141</ele>
        <time>2019-02-20T09:20:51.000Z</time>
      </trkpt>
      <trkpt lat="46.02112" lon="6.58663">
        <ele>1671.8000488281</ele>
        <time>2019-02-20T09:21:01.000Z</time>
      </trkpt>
      <trkpt lat="46.02107" lon="6.58662">
        <ele>1671.5999755859</ele>
        <time>2019-02-20T09:21:10.000Z</time>
      </trkpt>
      <trkpt lat="46.02109" lon="6.58667">
        <ele>1672.1999511719</ele>
        <time>2019-02-20T09:22:25.000Z</time>
      </trkpt>
      <trkpt lat="46.02109" lon="6.58664">
        <ele>1672.1999511719</ele>
        <time>2019-02-20T09:22:35.000Z</time>
      </trkpt>
      <trkpt lat="46.02108" lon="6.58661">
        <ele>1672.1999511719</ele>
        <time>2019-02-20T09:22:52.000Z</time>
      </trkpt>
      <trkpt lat="46.02109" lon="6.58673">
        <ele>1672.4000244141</ele>
        <time>2019-02-20T09:23:22.000Z</time>
      </trkpt>
      <trkpt lat="46.0211" lon="6.5867">
        <ele>1671.8000488281</ele>
        <time>2019-02-20T09:23:30.000Z</time>
      </trkpt>
      <trkpt lat="46.02107" lon="6.58667">
        <ele>1672</ele>
        <time>2019-02-20T09:23:47.000Z</time>
      </trkpt>
      <trkpt lat="46.02107" lon="6.58664">
        <ele>1671.8000488281</ele>
        <time>2019-02-20T09:23:57.000Z</time>
      </trkpt>
      <trkpt lat="46.02108" lon="6.58662">
        <ele>1671.1999511719</ele>
        <time>2019-02-20T09:24:14.000Z</time>
      </trkpt>
      <trkpt lat="46.02109" lon="6.5866">
        <ele>1671.8000488281</ele>
        <time>2019-02-20T09:24:22.000Z</time>
      </trkpt>
      <trkpt lat="46.0211" lon="6.58662">
        <ele>1671.8000488281</ele>
        <time>2019-02-20T09:24:35.000Z</time>
      </trkpt>
      <trkpt lat="46.02109" lon="6.5866">
        <ele>1671.8000488281</ele>
        <time>2019-02-20T09:25:07.000Z</time>
      </trkpt>
      <trkpt lat="46.02107" lon="6.58656">
        <ele>1671.8000488281</ele>
        <time>2019-02-20T09:25:09.000Z</time>
      </trkpt>
      <trkpt lat="46.02105" lon="6.58654">
        <ele>1671.4000244141</ele>
        <time>2019-02-20T09:25:10.000Z</time>
      </trkpt>
      <trkpt lat="46.02104" lon="6.58653">
        <ele>1671.4000244141</ele>
        <time>2019-02-20T09:25:12.000Z</time>
      </trkpt>
      <trkpt lat="46.02102" lon="6.58653">
        <ele>1672.4000244141</ele>
        <time>2019-02-20T09:25:20.000Z</time>
      </trkpt>
      <trkpt lat="46.021" lon="6.58655">
        <ele>1672.4000244141</ele>
        <time>2019-02-20T09:25:39.000Z</time>
      </trkpt>
      <trkpt lat="46.021" lon="6.58658">
        <ele>1673.1999511719</ele>
        <time>2019-02-20T09:25:43.000Z</time>
      </trkpt>
      <trkpt lat="46.02098" lon="6.58662">
        <ele>1673.8000488281</ele>
        <time>2019-02-20T09:25:50.000Z</time>
      </trkpt>
      <trkpt lat="46.02097" lon="6.58664">
        <ele>1674.5999755859</ele>
        <time>2019-02-20T09:25:56.000Z</time>
      </trkpt>
      <trkpt lat="46.02096" lon="6.58667">
        <ele>1675.1999511719</ele>
        <time>2019-02-20T09:26:02.000Z</time>
      </trkpt>
      <trkpt lat="46.02095" lon="6.5867">
        <ele>1675.4000244141</ele>
        <time>2019-02-20T09:26:05.000Z</time>
      </trkpt>
      <trkpt lat="46.02094" lon="6.58672">
        <ele>1675.5999755859</ele>
        <time>2019-02-20T09:26:10.000Z</time>
      </trkpt>
      <trkpt lat="46.02094" lon="6.58675">
        <ele>1676</ele>
        <time>2019-02-20T09:26:15.000Z</time>
      </trkpt>
      <trkpt lat="46.02094" lon="6.58679">
        <ele>1676.4000244141</ele>
        <time>2019-02-20T09:26:19.000Z</time>
      </trkpt>
      <trkpt lat="46.02093" lon="6.58682">
        <ele>1677.1999511719</ele>
        <time>2019-02-20T09:26:23.000Z</time>
      </trkpt>
      <trkpt lat="46.02093" lon="6.58685">
        <ele>1677.8000488281</ele>
        <time>2019-02-20T09:26:30.000Z</time>
      </trkpt>
      <trkpt lat="46.02092" lon="6.58687">
        <ele>1678.1999511719</ele>
        <time>2019-02-20T09:26:33.000Z</time>
      </trkpt>
      <trkpt lat="46.02091" lon="6.58689">
        <ele>1678.4000244141</ele>
        <time>2019-02-20T09:26:36.000Z</time>
      </trkpt>
      <trkpt lat="46.0209" lon="6.58692">
        <ele>1678.9996015332</ele>
        <time>2019-02-20T09:26:39.000Z</time>
      </trkpt>
      <trkpt lat="46.0209" lon="6.58695">
        <ele>1679.4000244141</ele>
        <time>2019-02-20T09:26:44.000Z</time>
      </trkpt>
      <trkpt lat="46.02089" lon="6.58698">
        <ele>1680.4000244141</ele>
        <time>2019-02-20T09:26:49.000Z</time>
      </trkpt>
      <trkpt lat="46.02089" lon="6.58701">
        <ele>1681</ele>
        <time>2019-02-20T09:26:53.000Z</time>
      </trkpt>
      <trkpt lat="46.02089" lon="6.58704">
        <ele>1681.5999755859</ele>
        <time>2019-02-20T09:26:58.000Z</time>
      </trkpt>
      <trkpt lat="46.02088" lon="6.58706">
        <ele>1682.399625704</ele>
        <time>2019-02-20T09:27:02.000Z</time>
      </trkpt>
      <trkpt lat="46.02086" lon="6.58707">
        <ele>1683</ele>
        <time>2019-02-20T09:27:06.000Z</time>
      </trkpt>
      <trkpt lat="46.02083" lon="6.58708">
        <ele>1683.1999511719</ele>
        <time>2019-02-20T09:27:10.000Z</time>
      </trkpt>
      <trkpt lat="46.02081" lon="6.58708">
        <ele>1683.5999755859</ele>
        <time>2019-02-20T09:27:13.000Z</time>
      </trkpt>
      <trkpt lat="46.02079" lon="6.58708">
        <ele>1684.1999511719</ele>
        <time>2019-02-20T09:27:16.000Z</time>
      </trkpt>
      <trkpt lat="46.02077" lon="6.58708">
        <ele>1684</ele>
        <time>2019-02-20T09:27:19.000Z</time>
      </trkpt>
      <trkpt lat="46.02075" lon="6.58707">
        <ele>1684.4000244141</ele>
        <time>2019-02-20T09:27:22.000Z</time>
      </trkpt>
      <trkpt lat="46.02073" lon="6.58706">
        <ele>1684.4000244141</ele>
        <time>2019-02-20T09:27:25.000Z</time>
      </trkpt>
      <trkpt lat="46.02071" lon="6.58704">
        <ele>1684.7992516512</ele>
        <time>2019-02-20T09:27:28.000Z</time>
      </trkpt>
      <trkpt lat="46.0207" lon="6.58702">
        <ele>1684.5999755859</ele>
        <time>2019-02-20T09:27:31.000Z</time>
      </trkpt>
      <trkpt lat="46.02069" lon="6.58699">
        <ele>1685.1999511719</ele>
        <time>2019-02-20T09:27:35.000Z</time>
      </trkpt>
      <trkpt lat="46.02067" lon="6.58693">
        <ele>1685.4000244141</ele>
        <time>2019-02-20T09:27:41.000Z</time>
      </trkpt>
      <trkpt lat="46.02066" lon="6.58689">
        <ele>1685.4000244141</ele>
        <time>2019-02-20T09:27:44.000Z</time>
      </trkpt>
      <trkpt lat="46.02065" lon="6.58682">
        <ele>1686</ele>
        <time>2019-02-20T09:27:53.000Z</time>
      </trkpt>
      <trkpt lat="46.02064" lon="6.58679">
        <ele>1686.4000244141</ele>
        <time>2019-02-20T09:27:58.000Z</time>
      </trkpt>
      <trkpt lat="46.02062" lon="6.58677">
        <ele>1686.8000488281</ele>
        <time>2019-02-20T09:28:02.000Z</time>
      </trkpt>
      <trkpt lat="46.0206" lon="6.58675">
        <ele>1687.1999511719</ele>
        <time>2019-02-20T09:28:09.000Z</time>
      </trkpt>
      <trkpt lat="46.02058" lon="6.58674">
        <ele>1687</ele>
        <time>2019-02-20T09:28:12.000Z</time>
      </trkpt>
      <trkpt lat="46.02056" lon="6.58673">
        <ele>1687.5999755859</ele>
        <time>2019-02-20T09:28:14.000Z</time>
      </trkpt>
      <trkpt lat="46.02054" lon="6.58672">
        <ele>1688</ele>
        <time>2019-02-20T09:28:16.000Z</time>
      </trkpt>
      <trkpt lat="46.02052" lon="6.5867">
        <ele>1687.8000488281</ele>
        <time>2019-02-20T09:28:18.000Z</time>
      </trkpt>
      <trkpt lat="46.02046" lon="6.58661">
        <ele>1688.4000244141</ele>
        <time>2019-02-20T09:28:27.000Z</time>
      </trkpt>
      <trkpt lat="46.02043" lon="6.58652">
        <ele>1688.8000488281</ele>
        <time>2019-02-20T09:28:36.000Z</time>
      </trkpt>
      <trkpt lat="46.02042" lon="6.58649">
        <ele>1689.4000244141</ele>
        <time>2019-02-20T09:28:39.000Z</time>
      </trkpt>
      <trkpt lat="46.02042" lon="6.58645">
        <ele>1689.8000488281</ele>
        <time>2019-02-20T09:28:42.000Z</time>
      </trkpt>
      <trkpt lat="46.02042" lon="6.58642">
        <ele>1689.5999755859</ele>
        <time>2019-02-20T09:28:46.000Z</time>
      </trkpt>
      <trkpt lat="46.02043" lon="6.58638">
        <ele>1690</ele>
        <time>2019-02-20T09:28:50.000Z</time>
      </trkpt>
      <trkpt lat="46.02042" lon="6.58635">
        <ele>1690.4000244141</ele>
        <time>2019-02-20T09:28:52.000Z</time>
      </trkpt>
      <trkpt lat="46.02043" lon="6.58632">
        <ele>1690.8000488281</ele>
        <time>2019-02-20T09:28:55.000Z</time>
      </trkpt>
      <trkpt lat="46.02044" lon="6.58629">
        <ele>1690.8000488281</ele>
        <time>2019-02-20T09:28:58.000Z</time>
      </trkpt>
      <trkpt lat="46.02045" lon="6.58623">
        <ele>1691.4000244141</ele>
        <time>2019-02-20T09:29:05.000Z</time>
      </trkpt>
      <trkpt lat="46.02045" lon="6.5862">
        <ele>1691.5999755859</ele>
        <time>2019-02-20T09:29:09.000Z</time>
      </trkpt>
      <trkpt lat="46.02047" lon="6.58617">
        <ele>1691.8000488281</ele>
        <time>2019-02-20T09:29:12.000Z</time>
      </trkpt>
      <trkpt lat="46.02047" lon="6.58614">
        <ele>1692.4000244141</ele>
        <time>2019-02-20T09:29:15.000Z</time>
      </trkpt>
      <trkpt lat="46.0205" lon="6.58602">
        <ele>1693.5999755859</ele>
        <time>2019-02-20T09:29:27.000Z</time>
      </trkpt>
      <trkpt lat="46.02056" lon="6.58599">
        <ele>1694.4000244141</ele>
        <time>2019-02-20T09:29:34.000Z</time>
      </trkpt>
      <trkpt lat="46.02058" lon="6.58597">
        <ele>1694.4000244141</ele>
        <time>2019-02-20T09:29:37.000Z</time>
      </trkpt>
      <trkpt lat="46.0206" lon="6.58595">
        <ele>1694.5999755859</ele>
        <time>2019-02-20T09:29:40.000Z</time>
      </trkpt>
      <trkpt lat="46.02062" lon="6.58594">
        <ele>1695</ele>
        <time>2019-02-20T09:29:42.000Z</time>
      </trkpt>
      <trkpt lat="46.02063" lon="6.58592">
        <ele>1695.1999511719</ele>
        <time>2019-02-20T09:29:45.000Z</time>
      </trkpt>
      <trkpt lat="46.02064" lon="6.58589">
        <ele>1695.8000488281</ele>
        <time>2019-02-20T09:29:49.000Z</time>
      </trkpt>
      <trkpt lat="46.02064" lon="6.58586">
        <ele>1695.8000488281</ele>
        <time>2019-02-20T09:29:52.000Z</time>
      </trkpt>
      <trkpt lat="46.02063" lon="6.58583">
        <ele>1696.1999511719</ele>
        <time>2019-02-20T09:29:55.000Z</time>
      </trkpt>
      <trkpt lat="46.02062" lon="6.5858">
        <ele>1696.5999755859</ele>
        <time>2019-02-20T09:29:58.000Z</time>
      </trkpt>
      <trkpt lat="46.02062" lon="6.58577">
        <ele>1697</ele>
        <time>2019-02-20T09:30:04.000Z</time>
      </trkpt>
      <trkpt lat="46.02061" lon="6.58574">
        <ele>1697.799650118</ele>
        <time>2019-02-20T09:30:07.000Z</time>
      </trkpt>
      <trkpt lat="46.0206" lon="6.58571">
        <ele>1697.8000488281</ele>
        <time>2019-02-20T09:30:10.000Z</time>
      </trkpt>
      <trkpt lat="46.0206" lon="6.58568">
        <ele>1698</ele>
        <time>2019-02-20T09:30:13.000Z</time>
      </trkpt>
      <trkpt lat="46.02059" lon="6.58566">
        <ele>1698.1999511719</ele>
        <time>2019-02-20T09:30:16.000Z</time>
      </trkpt>
      <trkpt lat="46.02059" lon="6.58563">
        <ele>1698</ele>
        <time>2019-02-20T09:30:20.000Z</time>
      </trkpt>
      <trkpt lat="46.02059" lon="6.5856">
        <ele>1698.1999511719</ele>
        <time>2019-02-20T09:30:23.000Z</time>
      </trkpt>
      <trkpt lat="46.02059" lon="6.58557">
        <ele>1698.799650118</ele>
        <time>2019-02-20T09:30:26.000Z</time>
      </trkpt>
      <trkpt lat="46.02059" lon="6.58554">
        <ele>1699.4000244141</ele>
        <time>2019-02-20T09:30:29.000Z</time>
      </trkpt>
      <trkpt lat="46.02058" lon="6.58551">
        <ele>1699.8000488281</ele>
        <time>2019-02-20T09:30:32.000Z</time>
      </trkpt>
      <trkpt lat="46.02057" lon="6.58548">
        <ele>1700.1999511719</ele>
        <time>2019-02-20T09:30:35.000Z</time>
      </trkpt>
      <trkpt lat="46.02057" lon="6.58545">
        <ele>1700</ele>
        <time>2019-02-20T09:30:39.000Z</time>
      </trkpt>
      <trkpt lat="46.02058" lon="6.58542">
        <ele>1700.1999511719</ele>
        <time>2019-02-20T09:30:43.000Z</time>
      </trkpt>
      <trkpt lat="46.02059" lon="6.58539">
        <ele>1700.1999511719</ele>
        <time>2019-02-20T09:30:46.000Z</time>
      </trkpt>
      <trkpt lat="46.02058" lon="6.58537">
        <ele>1700.4000244141</ele>
        <time>2019-02-20T09:30:50.000Z</time>
      </trkpt>
      <trkpt lat="46.02057" lon="6.58534">
        <ele>1700.8000488281</ele>
        <time>2019-02-20T09:30:53.000Z</time>
      </trkpt>
      <trkpt lat="46.02058" lon="6.5853">
        <ele>1701</ele>
        <time>2019-02-20T09:30:57.000Z</time>
      </trkpt>
      <trkpt lat="46.02059" lon="6.58527">
        <ele>1701.4000244141</ele>
        <time>2019-02-20T09:31:00.000Z</time>
      </trkpt>
      <trkpt lat="46.02059" lon="6.58525">
        <ele>1701.5999755859</ele>
        <time>2019-02-20T09:31:02.000Z</time>
      </trkpt>
      <trkpt lat="46.0206" lon="6.5852">
        <ele>1701.5999755859</ele>
        <time>2019-02-20T09:31:06.000Z</time>
      </trkpt>
      <trkpt lat="46.0206" lon="6.58517">
        <ele>1702</ele>
        <time>2019-02-20T09:31:09.000Z</time>
      </trkpt>
      <trkpt lat="46.0206" lon="6.58514">
        <ele>1702.5999755859</ele>
        <time>2019-02-20T09:31:12.000Z</time>
      </trkpt>
      <trkpt lat="46.02061" lon="6.58511">
        <ele>1702.5999755859</ele>
        <time>2019-02-20T09:31:15.000Z</time>
      </trkpt>
      <trkpt lat="46.02061" lon="6.58508">
        <ele>1703</ele>
        <time>2019-02-20T09:31:18.000Z</time>
      </trkpt>
      <trkpt lat="46.02062" lon="6.58504">
        <ele>1703.8000488281</ele>
        <time>2019-02-20T09:31:22.000Z</time>
      </trkpt>
      <trkpt lat="46.02062" lon="6.58491">
        <ele>1704.1999511719</ele>
        <time>2019-02-20T09:31:34.000Z</time>
      </trkpt>
      <trkpt lat="46.02061" lon="6.58485">
        <ele>1704.1999511719</ele>
        <time>2019-02-20T09:31:39.000Z</time>
      </trkpt>
      <trkpt lat="46.02061" lon="6.58481">
        <ele>1704.8000488281</ele>
        <time>2019-02-20T09:31:42.000Z</time>
      </trkpt>
      <trkpt lat="46.02062" lon="6.58476">
        <ele>1705.0001994321</ele>
        <time>2019-02-20T09:31:47.000Z</time>
      </trkpt>
      <trkpt lat="46.02063" lon="6.58467">
        <ele>1705</ele>
        <time>2019-02-20T09:31:54.000Z</time>
      </trkpt>
      <trkpt lat="46.02068" lon="6.58456">
        <ele>1705.8000488281</ele>
        <time>2019-02-20T09:32:06.000Z</time>
      </trkpt>
      <trkpt lat="46.02069" lon="6.58451">
        <ele>1706.5999755859</ele>
        <time>2019-02-20T09:32:11.000Z</time>
      </trkpt>
      <trkpt lat="46.02067" lon="6.58449">
        <ele>1706.4000244141</ele>
        <time>2019-02-20T09:32:14.000Z</time>
      </trkpt>
      <trkpt lat="46.02068" lon="6.58446">
        <ele>1707</ele>
        <time>2019-02-20T09:32:18.000Z</time>
      </trkpt>
      <trkpt lat="46.02068" lon="6.58443">
        <ele>1707.1999511719</ele>
        <time>2019-02-20T09:32:22.000Z</time>
      </trkpt>
      <trkpt lat="46.02066" lon="6.5844">
        <ele>1707.5999755859</ele>
        <time>2019-02-20T09:32:25.000Z</time>
      </trkpt>
      <trkpt lat="46.02065" lon="6.58437">
        <ele>1707.4000244141</ele>
        <time>2019-02-20T09:32:28.000Z</time>
      </trkpt>
      <trkpt lat="46.02064" lon="6.58435">
        <ele>1707.4000244141</ele>
        <time>2019-02-20T09:32:31.000Z</time>
      </trkpt>
      <trkpt lat="46.02063" lon="6.58432">
        <ele>1707.8000488281</ele>
        <time>2019-02-20T09:32:34.000Z</time>
      </trkpt>
      <trkpt lat="46.02063" lon="6.58429">
        <ele>1708.1999511719</ele>
        <time>2019-02-20T09:32:37.000Z</time>
      </trkpt>
      <trkpt lat="46.02062" lon="6.58426">
        <ele>1708.1999511719</ele>
        <time>2019-02-20T09:32:39.000Z</time>
      </trkpt>
      <trkpt lat="46.02062" lon="6.58424">
        <ele>1708.4000244141</ele>
        <time>2019-02-20T09:32:41.000Z</time>
      </trkpt>
      <trkpt lat="46.02061" lon="6.5842">
        <ele>1708.5999755859</ele>
        <time>2019-02-20T09:32:44.000Z</time>
      </trkpt>
      <trkpt lat="46.02061" lon="6.58417">
        <ele>1708.4000244141</ele>
        <time>2019-02-20T09:32:46.000Z</time>
      </trkpt>
      <trkpt lat="46.02065" lon="6.58406">
        <ele>1708.5999755859</ele>
        <time>2019-02-20T09:32:57.000Z</time>
      </trkpt>
      <trkpt lat="46.02065" lon="6.58393">
        <ele>1709.5999755859</ele>
        <time>2019-02-20T09:33:07.000Z</time>
      </trkpt>
      <trkpt lat="46.02064" lon="6.58378">
        <ele>1709.8000488281</ele>
        <time>2019-02-20T09:33:18.000Z</time>
      </trkpt>
      <trkpt lat="46.02064" lon="6.58375">
        <ele>1710</ele>
        <time>2019-02-20T09:33:21.000Z</time>
      </trkpt>
      <trkpt lat="46.02064" lon="6.58371">
        <ele>1710.399625704</ele>
        <time>2019-02-20T09:33:25.000Z</time>
      </trkpt>
      <trkpt lat="46.02062" lon="6.58365">
        <ele>1710.8000488281</ele>
        <time>2019-02-20T09:33:31.000Z</time>
      </trkpt>
      <trkpt lat="46.02063" lon="6.58361">
        <ele>1711.5999755859</ele>
        <time>2019-02-20T09:33:35.000Z</time>
      </trkpt>
      <trkpt lat="46.02062" lon="6.58358">
        <ele>1711.5999755859</ele>
        <time>2019-02-20T09:33:39.000Z</time>
      </trkpt>
      <trkpt lat="46.02062" lon="6.58355">
        <ele>1711.8000488281</ele>
        <time>2019-02-20T09:33:44.000Z</time>
      </trkpt>
      <trkpt lat="46.02061" lon="6.58353">
        <ele>1712.1999511719</ele>
        <time>2019-02-20T09:33:48.000Z</time>
      </trkpt>
      <trkpt lat="46.02062" lon="6.58344">
        <ele>1713.1999511719</ele>
        <time>2019-02-20T09:33:59.000Z</time>
      </trkpt>
      <trkpt lat="46.02062" lon="6.58341">
        <ele>1713.4000244141</ele>
        <time>2019-02-20T09:34:03.000Z</time>
      </trkpt>
      <trkpt lat="46.02061" lon="6.58339">
        <ele>1713.8000488281</ele>
        <time>2019-02-20T09:34:07.000Z</time>
      </trkpt>
      <trkpt lat="46.02057" lon="6.58337">
        <ele>1714.4000244141</ele>
        <time>2019-02-20T09:34:12.000Z</time>
      </trkpt>
      <trkpt lat="46.02056" lon="6.58336">
        <ele>1715.1999511719</ele>
        <time>2019-02-20T09:34:16.000Z</time>
      </trkpt>
      <trkpt lat="46.02054" lon="6.58334">
        <ele>1715.8000488281</ele>
        <time>2019-02-20T09:34:21.000Z</time>
      </trkpt>
      <trkpt lat="46.02047" lon="6.58329">
        <ele>1717.1999511719</ele>
        <time>2019-02-20T09:34:37.000Z</time>
      </trkpt>
      <trkpt lat="46.02045" lon="6.58327">
        <ele>1717</ele>
        <time>2019-02-20T09:34:40.000Z</time>
      </trkpt>
      <trkpt lat="46.02043" lon="6.58326">
        <ele>1717.4000244141</ele>
        <time>2019-02-20T09:34:44.000Z</time>
      </trkpt>
      <trkpt lat="46.02041" lon="6.58325">
        <ele>1717.8000488281</ele>
        <time>2019-02-20T09:34:46.000Z</time>
      </trkpt>
      <trkpt lat="46.02039" lon="6.58324">
        <ele>1718.1999511719</ele>
        <time>2019-02-20T09:34:48.000Z</time>
      </trkpt>
      <trkpt lat="46.02037" lon="6.58322">
        <ele>1718.5999755859</ele>
        <time>2019-02-20T09:34:51.000Z</time>
      </trkpt>
      <trkpt lat="46.02035" lon="6.5832">
        <ele>1718.5999755859</ele>
        <time>2019-02-20T09:34:54.000Z</time>
      </trkpt>
      <trkpt lat="46.02028" lon="6.58311">
        <ele>1720.4000244141</ele>
        <time>2019-02-20T09:35:10.000Z</time>
      </trkpt>
      <trkpt lat="46.02022" lon="6.58301">
        <ele>1721.1999511719</ele>
        <time>2019-02-20T09:35:24.000Z</time>
      </trkpt>
      <trkpt lat="46.02021" lon="6.58298">
        <ele>1721.5999755859</ele>
        <time>2019-02-20T09:35:27.000Z</time>
      </trkpt>
      <trkpt lat="46.0202" lon="6.58295">
        <ele>1722</ele>
        <time>2019-02-20T09:35:30.000Z</time>
      </trkpt>
      <trkpt lat="46.02018" lon="6.58293">
        <ele>1722.4000244141</ele>
        <time>2019-02-20T09:35:33.000Z</time>
      </trkpt>
      <trkpt lat="46.02016" lon="6.58291">
        <ele>1722.4000244141</ele>
        <time>2019-02-20T09:35:36.000Z</time>
      </trkpt>
      <trkpt lat="46.02015" lon="6.58289">
        <ele>1723</ele>
        <time>2019-02-20T09:35:38.000Z</time>
      </trkpt>
      <trkpt lat="46.02013" lon="6.58288">
        <ele>1723</ele>
        <time>2019-02-20T09:35:40.000Z</time>
      </trkpt>
      <trkpt lat="46.02012" lon="6.58285">
        <ele>1723</ele>
        <time>2019-02-20T09:35:46.000Z</time>
      </trkpt>
      <trkpt lat="46.0201" lon="6.58284">
        <ele>1723.1999511719</ele>
        <time>2019-02-20T09:35:48.000Z</time>
      </trkpt>
      <trkpt lat="46.02007" lon="6.58283">
        <ele>1723.4000244141</ele>
        <time>2019-02-20T09:35:50.000Z</time>
      </trkpt>
      <trkpt lat="46.02005" lon="6.58282">
        <ele>1723.5999755859</ele>
        <time>2019-02-20T09:35:52.000Z</time>
      </trkpt>
      <trkpt lat="46.02003" lon="6.5828">
        <ele>1723.4000244141</ele>
        <time>2019-02-20T09:35:55.000Z</time>
      </trkpt>
      <trkpt lat="46.02002" lon="6.58278">
        <ele>1723.7992516512</ele>
        <time>2019-02-20T09:35:58.000Z</time>
      </trkpt>
      <trkpt lat="46.02" lon="6.58276">
        <ele>1724.1999511719</ele>
        <time>2019-02-20T09:36:01.000Z</time>
      </trkpt>
      <trkpt lat="46.01998" lon="6.58275">
        <ele>1724.1999511719</ele>
        <time>2019-02-20T09:36:05.000Z</time>
      </trkpt>
      <trkpt lat="46.01997" lon="6.58274">
        <ele>1725</ele>
        <time>2019-02-20T09:36:08.000Z</time>
      </trkpt>
      <trkpt lat="46.01995" lon="6.58272">
        <ele>1725.1999511719</ele>
        <time>2019-02-20T09:36:12.000Z</time>
      </trkpt>
      <trkpt lat="46.01994" lon="6.58269">
        <ele>1725.5999755859</ele>
        <time>2019-02-20T09:36:16.000Z</time>
      </trkpt>
      <trkpt lat="46.01992" lon="6.58267">
        <ele>1726.1999511719</ele>
        <time>2019-02-20T09:36:19.000Z</time>
      </trkpt>
      <trkpt lat="46.01991" lon="6.58266">
        <ele>1726.5999755859</ele>
        <time>2019-02-20T09:36:22.000Z</time>
      </trkpt>
      <trkpt lat="46.01989" lon="6.58264">
        <ele>1726.5999755859</ele>
        <time>2019-02-20T09:36:26.000Z</time>
      </trkpt>
      <trkpt lat="46.01987" lon="6.58262">
        <ele>1727</ele>
        <time>2019-02-20T09:36:29.000Z</time>
      </trkpt>
      <trkpt lat="46.01986" lon="6.58259">
        <ele>1727.5999755859</ele>
        <time>2019-02-20T09:36:33.000Z</time>
      </trkpt>
      <trkpt lat="46.01986" lon="6.58256">
        <ele>1727.5999755859</ele>
        <time>2019-02-20T09:36:38.000Z</time>
      </trkpt>
      <trkpt lat="46.01986" lon="6.58253">
        <ele>1728.1999511719</ele>
        <time>2019-02-20T09:36:41.000Z</time>
      </trkpt>
      <trkpt lat="46.01985" lon="6.5825">
        <ele>1728.8000488281</ele>
        <time>2019-02-20T09:36:44.000Z</time>
      </trkpt>
      <trkpt lat="46.01984" lon="6.58248">
        <ele>1729</ele>
        <time>2019-02-20T09:36:48.000Z</time>
      </trkpt>
      <trkpt lat="46.01982" lon="6.58247">
        <ele>1729.399625704</ele>
        <time>2019-02-20T09:36:53.000Z</time>
      </trkpt>
      <trkpt lat="46.0198" lon="6.58248">
        <ele>1730.5999755859</ele>
        <time>2019-02-20T09:36:58.000Z</time>
      </trkpt>
      <trkpt lat="46.01978" lon="6.5825">
        <ele>1731.1999511719</ele>
        <time>2019-02-20T09:37:02.000Z</time>
      </trkpt>
      <trkpt lat="46.01979" lon="6.58252">
        <ele>1732</ele>
        <time>2019-02-20T09:37:08.000Z</time>
      </trkpt>
      <trkpt lat="46.01979" lon="6.58255">
        <ele>1732.4000244141</ele>
        <time>2019-02-20T09:37:11.000Z</time>
      </trkpt>
      <trkpt lat="46.01979" lon="6.58259">
        <ele>1732.5999755859</ele>
        <time>2019-02-20T09:37:14.000Z</time>
      </trkpt>
      <trkpt lat="46.01979" lon="6.58262">
        <ele>1732</ele>
        <time>2019-02-20T09:37:17.000Z</time>
      </trkpt>
      <trkpt lat="46.01979" lon="6.58265">
        <ele>1732.1999511719</ele>
        <time>2019-02-20T09:37:20.000Z</time>
      </trkpt>
      <trkpt lat="46.01979" lon="6.58267">
        <ele>1732.4000244141</ele>
        <time>2019-02-20T09:37:23.000Z</time>
      </trkpt>
      <trkpt lat="46.01979" lon="6.5827">
        <ele>1732.5999755859</ele>
        <time>2019-02-20T09:37:26.000Z</time>
      </trkpt>
      <trkpt lat="46.0198" lon="6.58273">
        <ele>1733</ele>
        <time>2019-02-20T09:37:29.000Z</time>
      </trkpt>
      <trkpt lat="46.01981" lon="6.58276">
        <ele>1733.1999511719</ele>
        <time>2019-02-20T09:37:31.000Z</time>
      </trkpt>
      <trkpt lat="46.01982" lon="6.58279">
        <ele>1733.1999511719</ele>
        <time>2019-02-20T09:37:34.000Z</time>
      </trkpt>
      <trkpt lat="46.01983" lon="6.58282">
        <ele>1733.5999755859</ele>
        <time>2019-02-20T09:37:37.000Z</time>
      </trkpt>
      <trkpt lat="46.01984" lon="6.58285">
        <ele>1733.8000488281</ele>
        <time>2019-02-20T09:37:40.000Z</time>
      </trkpt>
      <trkpt lat="46.01985" lon="6.58287">
        <ele>1734</ele>
        <time>2019-02-20T09:37:43.000Z</time>
      </trkpt>
      <trkpt lat="46.01986" lon="6.5829">
        <ele>1734.1999511719</ele>
        <time>2019-02-20T09:37:46.000Z</time>
      </trkpt>
      <trkpt lat="46.01986" lon="6.58293">
        <ele>1734.5999755859</ele>
        <time>2019-02-20T09:37:50.000Z</time>
      </trkpt>
      <trkpt lat="46.01987" lon="6.58295">
        <ele>1734.5999755859</ele>
        <time>2019-02-20T09:37:53.000Z</time>
      </trkpt>
      <trkpt lat="46.01989" lon="6.58297">
        <ele>1734.8000488281</ele>
        <time>2019-02-20T09:37:56.000Z</time>
      </trkpt>
      <trkpt lat="46.01991" lon="6.58298">
        <ele>1735.4000244141</ele>
        <time>2019-02-20T09:38:00.000Z</time>
      </trkpt>
      <trkpt lat="46.01992" lon="6.583">
        <ele>1735.5999755859</ele>
        <time>2019-02-20T09:38:03.000Z</time>
      </trkpt>
      <trkpt lat="46.01994" lon="6.58301">
        <ele>1735.8000488281</ele>
        <time>2019-02-20T09:38:07.000Z</time>
      </trkpt>
      <trkpt lat="46.01996" lon="6.58302">
        <ele>1736.1999511719</ele>
        <time>2019-02-20T09:38:10.000Z</time>
      </trkpt>
      <trkpt lat="46.01998" lon="6.58303">
        <ele>1736.8000488281</ele>
        <time>2019-02-20T09:38:14.000Z</time>
      </trkpt>
      <trkpt lat="46.02" lon="6.58304">
        <ele>1736.5999755859</ele>
        <time>2019-02-20T09:38:17.000Z</time>
      </trkpt>
      <trkpt lat="46.02002" lon="6.58305">
        <ele>1737</ele>
        <time>2019-02-20T09:38:21.000Z</time>
      </trkpt>
      <trkpt lat="46.02004" lon="6.58306">
        <ele>1737</ele>
        <time>2019-02-20T09:38:24.000Z</time>
      </trkpt>
      <trkpt lat="46.02007" lon="6.58308">
        <ele>1737.4000244141</ele>
        <time>2019-02-20T09:38:27.000Z</time>
      </trkpt>
      <trkpt lat="46.02008" lon="6.5831">
        <ele>1737.4000244141</ele>
        <time>2019-02-20T09:38:29.000Z</time>
      </trkpt>
      <trkpt lat="46.0201" lon="6.58311">
        <ele>1737.399625704</ele>
        <time>2019-02-20T09:38:31.000Z</time>
      </trkpt>
      <trkpt lat="46.02012" lon="6.58313">
        <ele>1737.5999755859</ele>
        <time>2019-02-20T09:38:34.000Z</time>
      </trkpt>
      <trkpt lat="46.02013" lon="6.58316">
        <ele>1737.9998005679</ele>
        <time>2019-02-20T09:38:37.000Z</time>
      </trkpt>
      <trkpt lat="46.02015" lon="6.58318">
        <ele>1738.4000244141</ele>
        <time>2019-02-20T09:38:40.000Z</time>
      </trkpt>
      <trkpt lat="46.02015" lon="6.5832">
        <ele>1738.8000488281</ele>
        <time>2019-02-20T09:38:43.000Z</time>
      </trkpt>
      <trkpt lat="46.02017" lon="6.58322">
        <ele>1739</ele>
        <time>2019-02-20T09:38:46.000Z</time>
      </trkpt>
      <trkpt lat="46.02019" lon="6.58325">
        <ele>1739.5999755859</ele>
        <time>2019-02-20T09:38:50.000Z</time>
      </trkpt>
      <trkpt lat="46.0202" lon="6.58328">
        <ele>1739.5999755859</ele>
        <time>2019-02-20T09:38:53.000Z</time>
      </trkpt>
      <trkpt lat="46.0202" lon="6.5833">
        <ele>1740.3992272371</ele>
        <time>2019-02-20T09:38:56.000Z</time>
      </trkpt>
      <trkpt lat="46.02021" lon="6.58333">
        <ele>1740.8000488281</ele>
        <time>2019-02-20T09:38:58.000Z</time>
      </trkpt>
      <trkpt lat="46.0202" lon="6.58336">
        <ele>1740.4000244141</ele>
        <time>2019-02-20T09:39:01.000Z</time>
      </trkpt>
      <trkpt lat="46.02019" lon="6.58338">
        <ele>1741</ele>
        <time>2019-02-20T09:39:04.000Z</time>
      </trkpt>
      <trkpt lat="46.02017" lon="6.58339">
        <ele>1741.1999511719</ele>
        <time>2019-02-20T09:39:06.000Z</time>
      </trkpt>
      <trkpt lat="46.02014" lon="6.5834">
        <ele>1741.4000244141</ele>
        <time>2019-02-20T09:39:08.000Z</time>
      </trkpt>
      <trkpt lat="46.02012" lon="6.5834">
        <ele>1741.5999755859</ele>
        <time>2019-02-20T09:39:11.000Z</time>
      </trkpt>
      <trkpt lat="46.02011" lon="6.58338">
        <ele>1742.4000244141</ele>
        <time>2019-02-20T09:39:14.000Z</time>
      </trkpt>
      <trkpt lat="46.02009" lon="6.58336">
        <ele>1742.4000244141</ele>
        <time>2019-02-20T09:39:17.000Z</time>
      </trkpt>
      <trkpt lat="46.02007" lon="6.58335">
        <ele>1742.4000244141</ele>
        <time>2019-02-20T09:39:19.000Z</time>
      </trkpt>
      <trkpt lat="46.02006" lon="6.58333">
        <ele>1743.1999511719</ele>
        <time>2019-02-20T09:39:23.000Z</time>
      </trkpt>
      <trkpt lat="46.02004" lon="6.58331">
        <ele>1743.1999511719</ele>
        <time>2019-02-20T09:39:26.000Z</time>
      </trkpt>
      <trkpt lat="46.02002" lon="6.58331">
        <ele>1743.8000488281</ele>
        <time>2019-02-20T09:39:31.000Z</time>
      </trkpt>
      <trkpt lat="46.02" lon="6.5833">
        <ele>1744.1999511719</ele>
        <time>2019-02-20T09:39:35.000Z</time>
      </trkpt>
      <trkpt lat="46.01997" lon="6.5833">
        <ele>1744.5999755859</ele>
        <time>2019-02-20T09:39:37.000Z</time>
      </trkpt>
      <trkpt lat="46.01995" lon="6.58331">
        <ele>1744.5999755859</ele>
        <time>2019-02-20T09:39:39.000Z</time>
      </trkpt>
      <trkpt lat="46.01993" lon="6.58332">
        <ele>1745</ele>
        <time>2019-02-20T09:39:42.000Z</time>
      </trkpt>
      <trkpt lat="46.01991" lon="6.58333">
        <ele>1745.4000244141</ele>
        <time>2019-02-20T09:39:45.000Z</time>
      </trkpt>
      <trkpt lat="46.01988" lon="6.58334">
        <ele>1745.4000244141</ele>
        <time>2019-02-20T09:39:49.000Z</time>
      </trkpt>
      <trkpt lat="46.01987" lon="6.58332">
        <ele>1746</ele>
        <time>2019-02-20T09:39:53.000Z</time>
      </trkpt>
      <trkpt lat="46.01984" lon="6.58331">
        <ele>1746.1999511719</ele>
        <time>2019-02-20T09:39:57.000Z</time>
      </trkpt>
      <trkpt lat="46.01982" lon="6.5833">
        <ele>1747</ele>
        <time>2019-02-20T09:40:00.000Z</time>
      </trkpt>
      <trkpt lat="46.0198" lon="6.5833">
        <ele>1747</ele>
        <time>2019-02-20T09:40:03.000Z</time>
      </trkpt>
      <trkpt lat="46.01978" lon="6.58329">
        <ele>1747.1999511719</ele>
        <time>2019-02-20T09:40:07.000Z</time>
      </trkpt>
      <trkpt lat="46.01977" lon="6.58327">
        <ele>1747.4000244141</ele>
        <time>2019-02-20T09:40:10.000Z</time>
      </trkpt>
      <trkpt lat="46.01975" lon="6.58325">
        <ele>1747.799650118</ele>
        <time>2019-02-20T09:40:13.000Z</time>
      </trkpt>
      <trkpt lat="46.01973" lon="6.58325">
        <ele>1748.1999511719</ele>
        <time>2019-02-20T09:40:16.000Z</time>
      </trkpt>
      <trkpt lat="46.01971" lon="6.58325">
        <ele>1748.1999511719</ele>
        <time>2019-02-20T09:40:19.000Z</time>
      </trkpt>
      <trkpt lat="46.01969" lon="6.58325">
        <ele>1748.4000244141</ele>
        <time>2019-02-20T09:40:22.000Z</time>
      </trkpt>
      <trkpt lat="46.01967" lon="6.58325">
        <ele>1748.8000488281</ele>
        <time>2019-02-20T09:40:25.000Z</time>
      </trkpt>
      <trkpt lat="46.01965" lon="6.58324">
        <ele>1749.5999755859</ele>
        <time>2019-02-20T09:40:28.000Z</time>
      </trkpt>
      <trkpt lat="46.01963" lon="6.58323">
        <ele>1749.1999511719</ele>
        <time>2019-02-20T09:40:31.000Z</time>
      </trkpt>
      <trkpt lat="46.01961" lon="6.58321">
        <ele>1749.1999511719</ele>
        <time>2019-02-20T09:40:34.000Z</time>
      </trkpt>
      <trkpt lat="46.01959" lon="6.5832">
        <ele>1749.4000244141</ele>
        <time>2019-02-20T09:40:36.000Z</time>
      </trkpt>
      <trkpt lat="46.01957" lon="6.58317">
        <ele>1749.4000244141</ele>
        <time>2019-02-20T09:40:39.000Z</time>
      </trkpt>
      <trkpt lat="46.01956" lon="6.58315">
        <ele>1749.5999755859</ele>
        <time>2019-02-20T09:40:42.000Z</time>
      </trkpt>
      <trkpt lat="46.01954" lon="6.58313">
        <ele>1749.5999755859</ele>
        <time>2019-02-20T09:40:45.000Z</time>
      </trkpt>
      <trkpt lat="46.01953" lon="6.5831">
        <ele>1749.5999755859</ele>
        <time>2019-02-20T09:40:48.000Z</time>
      </trkpt>
      <trkpt lat="46.01952" lon="6.58307">
        <ele>1750</ele>
        <time>2019-02-20T09:40:51.000Z</time>
      </trkpt>
      <trkpt lat="46.0195" lon="6.58304">
        <ele>1750.4000244141</ele>
        <time>2019-02-20T09:40:55.000Z</time>
      </trkpt>
      <trkpt lat="46.01948" lon="6.58302">
        <ele>1750.8000488281</ele>
        <time>2019-02-20T09:40:58.000Z</time>
      </trkpt>
      <trkpt lat="46.01947" lon="6.583">
        <ele>1750.5999755859</ele>
        <time>2019-02-20T09:41:01.000Z</time>
      </trkpt>
      <trkpt lat="46.01945" lon="6.58298">
        <ele>1750.799650118</ele>
        <time>2019-02-20T09:41:04.000Z</time>
      </trkpt>
      <trkpt lat="46.01943" lon="6.58295">
        <ele>1751.199552705</ele>
        <time>2019-02-20T09:41:08.000Z</time>
      </trkpt>
      <trkpt lat="46.01941" lon="6.58293">
        <ele>1751.1999511719</ele>
        <time>2019-02-20T09:41:11.000Z</time>
      </trkpt>
      <trkpt lat="46.01939" lon="6.5829">
        <ele>1751.5999755859</ele>
        <time>2019-02-20T09:41:14.000Z</time>
      </trkpt>
      <trkpt lat="46.01938" lon="6.58288">
        <ele>1751.8000488281</ele>
        <time>2019-02-20T09:41:17.000Z</time>
      </trkpt>
      <trkpt lat="46.01936" lon="6.58286">
        <ele>1752</ele>
        <time>2019-02-20T09:41:20.000Z</time>
      </trkpt>
      <trkpt lat="46.01935" lon="6.58283">
        <ele>1751.8000488281</ele>
        <time>2019-02-20T09:41:23.000Z</time>
      </trkpt>
      <trkpt lat="46.01934" lon="6.5828">
        <ele>1752.4000244141</ele>
        <time>2019-02-20T09:41:26.000Z</time>
      </trkpt>
      <trkpt lat="46.01933" lon="6.58277">
        <ele>1752.4000244141</ele>
        <time>2019-02-20T09:41:28.000Z</time>
      </trkpt>
      <trkpt lat="46.01932" lon="6.58274">
        <ele>1752.5999755859</ele>
        <time>2019-02-20T09:41:31.000Z</time>
      </trkpt>
      <trkpt lat="46.0193" lon="6.58272">
        <ele>1752.8000488281</ele>
        <time>2019-02-20T09:41:34.000Z</time>
      </trkpt>
      <trkpt lat="46.01929" lon="6.58269">
        <ele>1753</ele>
        <time>2019-02-20T09:41:37.000Z</time>
      </trkpt>
      <trkpt lat="46.01929" lon="6.58267">
        <ele>1753.4000244141</ele>
        <time>2019-02-20T09:41:40.000Z</time>
      </trkpt>
      <trkpt lat="46.01929" lon="6.58264">
        <ele>1753.8000488281</ele>
        <time>2019-02-20T09:41:45.000Z</time>
      </trkpt>
      <trkpt lat="46.01929" lon="6.5826">
        <ele>1754.4000244141</ele>
        <time>2019-02-20T09:41:48.000Z</time>
      </trkpt>
      <trkpt lat="46.01929" lon="6.58258">
        <ele>1754.4000244141</ele>
        <time>2019-02-20T09:41:50.000Z</time>
      </trkpt>
      <trkpt lat="46.01929" lon="6.58254">
        <ele>1754.4000244141</ele>
        <time>2019-02-20T09:41:52.000Z</time>
      </trkpt>
      <trkpt lat="46.01928" lon="6.5825">
        <ele>1755.199552705</ele>
        <time>2019-02-20T09:41:55.000Z</time>
      </trkpt>
      <trkpt lat="46.01929" lon="6.58247">
        <ele>1755.4000244141</ele>
        <time>2019-02-20T09:41:58.000Z</time>
      </trkpt>
      <trkpt lat="46.01928" lon="6.58243">
        <ele>1755.4000244141</ele>
        <time>2019-02-20T09:42:00.000Z</time>
      </trkpt>
      <trkpt lat="46.01928" lon="6.5824">
        <ele>1755.5999755859</ele>
        <time>2019-02-20T09:42:02.000Z</time>
      </trkpt>
      <trkpt lat="46.01929" lon="6.58237">
        <ele>1756</ele>
        <time>2019-02-20T09:42:05.000Z</time>
      </trkpt>
      <trkpt lat="46.01928" lon="6.58233">
        <ele>1756.1999511719</ele>
        <time>2019-02-20T09:42:08.000Z</time>
      </trkpt>
      <trkpt lat="46.01929" lon="6.5823">
        <ele>1757</ele>
        <time>2019-02-20T09:42:11.000Z</time>
      </trkpt>
      <trkpt lat="46.01929" lon="6.58226">
        <ele>1756.8000488281</ele>
        <time>2019-02-20T09:42:14.000Z</time>
      </trkpt>
      <trkpt lat="46.01928" lon="6.58223">
        <ele>1757</ele>
        <time>2019-02-20T09:42:16.000Z</time>
      </trkpt>
      <trkpt lat="46.01928" lon="6.5822">
        <ele>1757.1999511719</ele>
        <time>2019-02-20T09:42:19.000Z</time>
      </trkpt>
      <trkpt lat="46.0193" lon="6.58217">
        <ele>1757.4000244141</ele>
        <time>2019-02-20T09:42:22.000Z</time>
      </trkpt>
      <trkpt lat="46.01931" lon="6.58215">
        <ele>1757.8000488281</ele>
        <time>2019-02-20T09:42:25.000Z</time>
      </trkpt>
      <trkpt lat="46.01933" lon="6.58213">
        <ele>1758</ele>
        <time>2019-02-20T09:42:28.000Z</time>
      </trkpt>
      <trkpt lat="46.01935" lon="6.58211">
        <ele>1758</ele>
        <time>2019-02-20T09:42:31.000Z</time>
      </trkpt>
      <trkpt lat="46.01936" lon="6.58208">
        <ele>1758.4000244141</ele>
        <time>2019-02-20T09:42:34.000Z</time>
      </trkpt>
      <trkpt lat="46.01938" lon="6.58205">
        <ele>1758</ele>
        <time>2019-02-20T09:42:37.000Z</time>
      </trkpt>
      <trkpt lat="46.0194" lon="6.58204">
        <ele>1758.1999511719</ele>
        <time>2019-02-20T09:42:40.000Z</time>
      </trkpt>
      <trkpt lat="46.01942" lon="6.58202">
        <ele>1758.4000244141</ele>
        <time>2019-02-20T09:42:42.000Z</time>
      </trkpt>
      <trkpt lat="46.01943" lon="6.582">
        <ele>1758.4000244141</ele>
        <time>2019-02-20T09:42:44.000Z</time>
      </trkpt>
      <trkpt lat="46.01945" lon="6.58198">
        <ele>1758.4000244141</ele>
        <time>2019-02-20T09:42:47.000Z</time>
      </trkpt>
      <trkpt lat="46.01947" lon="6.58196">
        <ele>1759</ele>
        <time>2019-02-20T09:42:50.000Z</time>
      </trkpt>
      <trkpt lat="46.01948" lon="6.58194">
        <ele>1759.1999511719</ele>
        <time>2019-02-20T09:42:53.000Z</time>
      </trkpt>
      <trkpt lat="46.01949" lon="6.58192">
        <ele>1759.8000488281</ele>
        <time>2019-02-20T09:42:56.000Z</time>
      </trkpt>
      <trkpt lat="46.01951" lon="6.58192">
        <ele>1759.8000488281</ele>
        <time>2019-02-20T09:42:58.000Z</time>
      </trkpt>
      <trkpt lat="46.01953" lon="6.58191">
        <ele>1759.4000244141</ele>
        <time>2019-02-20T09:43:01.000Z</time>
      </trkpt>
      <trkpt lat="46.01955" lon="6.58189">
        <ele>1759.4000244141</ele>
        <time>2019-02-20T09:43:04.000Z</time>
      </trkpt>
      <trkpt lat="46.01955" lon="6.58186">
        <ele>1760</ele>
        <time>2019-02-20T09:43:07.000Z</time>
      </trkpt>
      <trkpt lat="46.01954" lon="6.58183">
        <ele>1760</ele>
        <time>2019-02-20T09:43:09.000Z</time>
      </trkpt>
      <trkpt lat="46.01953" lon="6.58181">
        <ele>1760.8000488281</ele>
        <time>2019-02-20T09:43:14.000Z</time>
      </trkpt>
      <trkpt lat="46.01951" lon="6.58181">
        <ele>1761.4000244141</ele>
        <time>2019-02-20T09:43:25.000Z</time>
      </trkpt>
      <trkpt lat="46.0195" lon="6.58184">
        <ele>1761.5999755859</ele>
        <time>2019-02-20T09:43:30.000Z</time>
      </trkpt>
      <trkpt lat="46.01949" lon="6.58186">
        <ele>1762.399625704</ele>
        <time>2019-02-20T09:43:37.000Z</time>
      </trkpt>
      <trkpt lat="46.01948" lon="6.58188">
        <ele>1762.800447295</ele>
        <time>2019-02-20T09:43:41.000Z</time>
      </trkpt>
      <trkpt lat="46.01946" lon="6.5819">
        <ele>1763</ele>
        <time>2019-02-20T09:43:45.000Z</time>
      </trkpt>
      <trkpt lat="46.01944" lon="6.58192">
        <ele>1763</ele>
        <time>2019-02-20T09:43:48.000Z</time>
      </trkpt>
      <trkpt lat="46.01942" lon="6.58194">
        <ele>1763.4000244141</ele>
        <time>2019-02-20T09:43:52.000Z</time>
      </trkpt>
      <trkpt lat="46.01941" lon="6.58196">
        <ele>1763</ele>
        <time>2019-02-20T09:43:55.000Z</time>
      </trkpt>
      <trkpt lat="46.01939" lon="6.58198">
        <ele>1763.1999511719</ele>
        <time>2019-02-20T09:43:58.000Z</time>
      </trkpt>
      <trkpt lat="46.01937" lon="6.582">
        <ele>1763.1999511719</ele>
        <time>2019-02-20T09:44:01.000Z</time>
      </trkpt>
      <trkpt lat="46.01936" lon="6.58202">
        <ele>1763.1999511719</ele>
        <time>2019-02-20T09:44:05.000Z</time>
      </trkpt>
      <trkpt lat="46.01934" lon="6.58202">
        <ele>1763.5999755859</ele>
        <time>2019-02-20T09:44:09.000Z</time>
      </trkpt>
      <trkpt lat="46.01932" lon="6.58204">
        <ele>1764.1999511719</ele>
        <time>2019-02-20T09:44:15.000Z</time>
      </trkpt>
      <trkpt lat="46.01931" lon="6.58206">
        <ele>1764.5999755859</ele>
        <time>2019-02-20T09:44:19.000Z</time>
      </trkpt>
      <trkpt lat="46.01929" lon="6.58208">
        <ele>1764.5999755859</ele>
        <time>2019-02-20T09:44:23.000Z</time>
      </trkpt>
      <trkpt lat="46.01927" lon="6.58209">
        <ele>1765.1999511719</ele>
        <time>2019-02-20T09:44:27.000Z</time>
      </trkpt>
      <trkpt lat="46.01925" lon="6.58211">
        <ele>1765.399625704</ele>
        <time>2019-02-20T09:44:30.000Z</time>
      </trkpt>
      <trkpt lat="46.01923" lon="6.58212">
        <ele>1765.8000488281</ele>
        <time>2019-02-20T09:44:35.000Z</time>
      </trkpt>
      <trkpt lat="46.01922" lon="6.58215">
        <ele>1766.4000244141</ele>
        <time>2019-02-20T09:44:39.000Z</time>
      </trkpt>
      <trkpt lat="46.01922" lon="6.58217">
        <ele>1766.5999755859</ele>
        <time>2019-02-20T09:44:43.000Z</time>
      </trkpt>
      <trkpt lat="46.01921" lon="6.5822">
        <ele>1766.8000488281</ele>
        <time>2019-02-20T09:44:47.000Z</time>
      </trkpt>
      <trkpt lat="46.0192" lon="6.58222">
        <ele>1767.1999511719</ele>
        <time>2019-02-20T09:44:50.000Z</time>
      </trkpt>
      <trkpt lat="46.01919" lon="6.58224">
        <ele>1767.8000488281</ele>
        <time>2019-02-20T09:44:54.000Z</time>
      </trkpt>
      <trkpt lat="46.01917" lon="6.58226">
        <ele>1768.4000244141</ele>
        <time>2019-02-20T09:44:58.000Z</time>
      </trkpt>
      <trkpt lat="46.01915" lon="6.58226">
        <ele>1768.4000244141</ele>
        <time>2019-02-20T09:45:01.000Z</time>
      </trkpt>
      <trkpt lat="46.01913" lon="6.58225">
        <ele>1768.5999755859</ele>
        <time>2019-02-20T09:45:04.000Z</time>
      </trkpt>
      <trkpt lat="46.01911" lon="6.58222">
        <ele>1768.8000488281</ele>
        <time>2019-02-20T09:45:08.000Z</time>
      </trkpt>
      <trkpt lat="46.0191" lon="6.58219">
        <ele>1769.1999511719</ele>
        <time>2019-02-20T09:45:11.000Z</time>
      </trkpt>
      <trkpt lat="46.01909" lon="6.58216">
        <ele>1769.8000488281</ele>
        <time>2019-02-20T09:45:14.000Z</time>
      </trkpt>
      <trkpt lat="46.01908" lon="6.58212">
        <ele>1769.5999755859</ele>
        <time>2019-02-20T09:45:17.000Z</time>
      </trkpt>
      <trkpt lat="46.01909" lon="6.5821">
        <ele>1770</ele>
        <time>2019-02-20T09:45:20.000Z</time>
      </trkpt>
      <trkpt lat="46.0191" lon="6.58207">
        <ele>1770.4000244141</ele>
        <time>2019-02-20T09:45:23.000Z</time>
      </trkpt>
      <trkpt lat="46.0191" lon="6.58204">
        <ele>1770.4000244141</ele>
        <time>2019-02-20T09:45:26.000Z</time>
      </trkpt>
      <trkpt lat="46.01911" lon="6.58201">
        <ele>1771</ele>
        <time>2019-02-20T09:45:29.000Z</time>
      </trkpt>
      <trkpt lat="46.01912" lon="6.58198">
        <ele>1771.1999511719</ele>
        <time>2019-02-20T09:45:31.000Z</time>
      </trkpt>
      <trkpt lat="46.01914" lon="6.58196">
        <ele>1771</ele>
        <time>2019-02-20T09:45:34.000Z</time>
      </trkpt>
      <trkpt lat="46.01915" lon="6.58193">
        <ele>1771.1999511719</ele>
        <time>2019-02-20T09:45:37.000Z</time>
      </trkpt>
      <trkpt lat="46.01917" lon="6.58191">
        <ele>1771.1999511719</ele>
        <time>2019-02-20T09:45:40.000Z</time>
      </trkpt>
      <trkpt lat="46.01918" lon="6.58189">
        <ele>1771.1999511719</ele>
        <time>2019-02-20T09:45:43.000Z</time>
      </trkpt>
      <trkpt lat="46.01919" lon="6.58187">
        <ele>1771.8000488281</ele>
        <time>2019-02-20T09:45:46.000Z</time>
      </trkpt>
      <trkpt lat="46.01921" lon="6.58185">
        <ele>1772</ele>
        <time>2019-02-20T09:45:49.000Z</time>
      </trkpt>
      <trkpt lat="46.01922" lon="6.58183">
        <ele>1771.8000488281</ele>
        <time>2019-02-20T09:45:52.000Z</time>
      </trkpt>
      <trkpt lat="46.01923" lon="6.5818">
        <ele>1772.1999511719</ele>
        <time>2019-02-20T09:45:55.000Z</time>
      </trkpt>
      <trkpt lat="46.01925" lon="6.58178">
        <ele>1772.4000244141</ele>
        <time>2019-02-20T09:45:58.000Z</time>
      </trkpt>
      <trkpt lat="46.01926" lon="6.58175">
        <ele>1772.5999755859</ele>
        <time>2019-02-20T09:46:01.000Z</time>
      </trkpt>
      <trkpt lat="46.01927" lon="6.58172">
        <ele>1772.8000488281</ele>
        <time>2019-02-20T09:46:04.000Z</time>
      </trkpt>
      <trkpt lat="46.01928" lon="6.5817">
        <ele>1773</ele>
        <time>2019-02-20T09:46:07.000Z</time>
      </trkpt>
      <trkpt lat="46.0193" lon="6.58168">
        <ele>1773</ele>
        <time>2019-02-20T09:46:10.000Z</time>
      </trkpt>
      <trkpt lat="46.01932" lon="6.58167">
        <ele>1773.200349882</ele>
        <time>2019-02-20T09:46:12.000Z</time>
      </trkpt>
      <trkpt lat="46.01933" lon="6.58165">
        <ele>1773.5999755859</ele>
        <time>2019-02-20T09:46:15.000Z</time>
      </trkpt>
      <trkpt lat="46.01935" lon="6.58163">
        <ele>1773.9996015332</ele>
        <time>2019-02-20T09:46:18.000Z</time>
      </trkpt>
      <trkpt lat="46.01937" lon="6.5816">
        <ele>1773.8000488281</ele>
        <time>2019-02-20T09:46:22.000Z</time>
      </trkpt>
      <trkpt lat="46.01938" lon="6.58159">
        <ele>1773.8000488281</ele>
        <time>2019-02-20T09:46:27.000Z</time>
      </trkpt>
      <trkpt lat="46.0194" lon="6.58158">
        <ele>1774.1999511719</ele>
        <time>2019-02-20T09:46:30.000Z</time>
      </trkpt>
      <trkpt lat="46.01942" lon="6.58157">
        <ele>1774.4000244141</ele>
        <time>2019-02-20T09:46:33.000Z</time>
      </trkpt>
      <trkpt lat="46.01945" lon="6.58156">
        <ele>1774.5999755859</ele>
        <time>2019-02-20T09:46:36.000Z</time>
      </trkpt>
      <trkpt lat="46.01946" lon="6.58154">
        <ele>1775.1999511719</ele>
        <time>2019-02-20T09:46:39.000Z</time>
      </trkpt>
      <trkpt lat="46.01949" lon="6.58153">
        <ele>1775.4000244141</ele>
        <time>2019-02-20T09:46:42.000Z</time>
      </trkpt>
      <trkpt lat="46.01951" lon="6.58151">
        <ele>1775.1999511719</ele>
        <time>2019-02-20T09:46:45.000Z</time>
      </trkpt>
      <trkpt lat="46.01952" lon="6.58148">
        <ele>1775.4000244141</ele>
        <time>2019-02-20T09:46:49.000Z</time>
      </trkpt>
      <trkpt lat="46.01954" lon="6.58147">
        <ele>1775.5999755859</ele>
        <time>2019-02-20T09:46:52.000Z</time>
      </trkpt>
      <trkpt lat="46.01955" lon="6.58145">
        <ele>1776</ele>
        <time>2019-02-20T09:46:55.000Z</time>
      </trkpt>
      <trkpt lat="46.01956" lon="6.58142">
        <ele>1776.8000488281</ele>
        <time>2019-02-20T09:46:58.000Z</time>
      </trkpt>
      <trkpt lat="46.01958" lon="6.58141">
        <ele>1776.5999755859</ele>
        <time>2019-02-20T09:47:01.000Z</time>
      </trkpt>
      <trkpt lat="46.01958" lon="6.58137">
        <ele>1778</ele>
        <time>2019-02-20T09:47:08.000Z</time>
      </trkpt>
      <trkpt lat="46.01957" lon="6.58134">
        <ele>1778.4000244141</ele>
        <time>2019-02-20T09:47:11.000Z</time>
      </trkpt>
      <trkpt lat="46.01955" lon="6.58131">
        <ele>1778.4000244141</ele>
        <time>2019-02-20T09:47:13.000Z</time>
      </trkpt>
      <trkpt lat="46.01954" lon="6.58129">
        <ele>1778.1999511719</ele>
        <time>2019-02-20T09:47:15.000Z</time>
      </trkpt>
      <trkpt lat="46.01952" lon="6.58127">
        <ele>1778</ele>
        <time>2019-02-20T09:47:17.000Z</time>
      </trkpt>
      <trkpt lat="46.0195" lon="6.58126">
        <ele>1777.8000488281</ele>
        <time>2019-02-20T09:47:19.000Z</time>
      </trkpt>
      <trkpt lat="46.01948" lon="6.58124">
        <ele>1778</ele>
        <time>2019-02-20T09:47:21.000Z</time>
      </trkpt>
      <trkpt lat="46.01947" lon="6.58123">
        <ele>1778</ele>
        <time>2019-02-20T09:47:23.000Z</time>
      </trkpt>
      <trkpt lat="46.01945" lon="6.58121">
        <ele>1778.4000244141</ele>
        <time>2019-02-20T09:47:27.000Z</time>
      </trkpt>
      <trkpt lat="46.01944" lon="6.58119">
        <ele>1781.1999511719</ele>
        <time>2019-02-20T09:47:36.000Z</time>
      </trkpt>
      <trkpt lat="46.01943" lon="6.58115">
        <ele>1781.5999755859</ele>
        <time>2019-02-20T09:47:39.000Z</time>
      </trkpt>
      <trkpt lat="46.01941" lon="6.58113">
        <ele>1781.1999511719</ele>
        <time>2019-02-20T09:47:42.000Z</time>
      </trkpt>
      <trkpt lat="46.0194" lon="6.58111">
        <ele>1780.8000488281</ele>
        <time>2019-02-20T09:47:44.000Z</time>
      </trkpt>
      <trkpt lat="46.01939" lon="6.58108">
        <ele>1781.1999511719</ele>
        <time>2019-02-20T09:47:48.000Z</time>
      </trkpt>
      <trkpt lat="46.01937" lon="6.58107">
        <ele>1781.8000488281</ele>
        <time>2019-02-20T09:47:52.000Z</time>
      </trkpt>
      <trkpt lat="46.01935" lon="6.58106">
        <ele>1782.1999511719</ele>
        <time>2019-02-20T09:47:55.000Z</time>
      </trkpt>
      <trkpt lat="46.01934" lon="6.58104">
        <ele>1782.5999755859</ele>
        <time>2019-02-20T09:47:59.000Z</time>
      </trkpt>
      <trkpt lat="46.01932" lon="6.58105">
        <ele>1782.4000244141</ele>
        <time>2019-02-20T09:48:02.000Z</time>
      </trkpt>
      <trkpt lat="46.0193" lon="6.58105">
        <ele>1782.5999755859</ele>
        <time>2019-02-20T09:48:05.000Z</time>
      </trkpt>
      <trkpt lat="46.01928" lon="6.58105">
        <ele>1783.4000244141</ele>
        <time>2019-02-20T09:48:08.000Z</time>
      </trkpt>
      <trkpt lat="46.01926" lon="6.58105">
        <ele>1783.8000488281</ele>
        <time>2019-02-20T09:48:10.000Z</time>
      </trkpt>
      <trkpt lat="46.01924" lon="6.58104">
        <ele>1783.5999755859</ele>
        <time>2019-02-20T09:48:13.000Z</time>
      </trkpt>
      <trkpt lat="46.01922" lon="6.58103">
        <ele>1783.9992021123</ele>
        <time>2019-02-20T09:48:17.000Z</time>
      </trkpt>
      <trkpt lat="46.0192" lon="6.58103">
        <ele>1784.1999511719</ele>
        <time>2019-02-20T09:48:20.000Z</time>
      </trkpt>
      <trkpt lat="46.01917" lon="6.58102">
        <ele>1784</ele>
        <time>2019-02-20T09:48:23.000Z</time>
      </trkpt>
      <trkpt lat="46.01915" lon="6.58101">
        <ele>1784.5999755859</ele>
        <time>2019-02-20T09:48:27.000Z</time>
      </trkpt>
      <trkpt lat="46.01913" lon="6.581">
        <ele>1784.4000244141</ele>
        <time>2019-02-20T09:48:31.000Z</time>
      </trkpt>
      <trkpt lat="46.01911" lon="6.581">
        <ele>1784.8000488281</ele>
        <time>2019-02-20T09:48:35.000Z</time>
      </trkpt>
      <trkpt lat="46.01909" lon="6.581">
        <ele>1785</ele>
        <time>2019-02-20T09:48:38.000Z</time>
      </trkpt>
      <trkpt lat="46.01907" lon="6.58099">
        <ele>1785.4000244141</ele>
        <time>2019-02-20T09:48:41.000Z</time>
      </trkpt>
      <trkpt lat="46.01905" lon="6.58099">
        <ele>1786.1999511719</ele>
        <time>2019-02-20T09:48:44.000Z</time>
      </trkpt>
      <trkpt lat="46.01903" lon="6.58098">
        <ele>1786.4000244141</ele>
        <time>2019-02-20T09:48:47.000Z</time>
      </trkpt>
      <trkpt lat="46.01901" lon="6.58098">
        <ele>1786.1999511719</ele>
        <time>2019-02-20T09:48:50.000Z</time>
      </trkpt>
      <trkpt lat="46.01899" lon="6.58098">
        <ele>1786.8000488281</ele>
        <time>2019-02-20T09:48:53.000Z</time>
      </trkpt>
      <trkpt lat="46.01897" lon="6.58099">
        <ele>1787</ele>
        <time>2019-02-20T09:48:59.000Z</time>
      </trkpt>
      <trkpt lat="46.01895" lon="6.58099">
        <ele>1787.4000244141</ele>
        <time>2019-02-20T09:49:02.000Z</time>
      </trkpt>
      <trkpt lat="46.01893" lon="6.58099">
        <ele>1787.8000488281</ele>
        <time>2019-02-20T09:49:05.000Z</time>
      </trkpt>
      <trkpt lat="46.01891" lon="6.58099">
        <ele>1788.1991558232</ele>
        <time>2019-02-20T09:49:08.000Z</time>
      </trkpt>
      <trkpt lat="46.01889" lon="6.58101">
        <ele>1788.5999755859</ele>
        <time>2019-02-20T09:49:11.000Z</time>
      </trkpt>
      <trkpt lat="46.01887" lon="6.58101">
        <ele>1788.5999755859</ele>
        <time>2019-02-20T09:49:14.000Z</time>
      </trkpt>
      <trkpt lat="46.01884" lon="6.58102">
        <ele>1789</ele>
        <time>2019-02-20T09:49:18.000Z</time>
      </trkpt>
      <trkpt lat="46.01882" lon="6.58102">
        <ele>1789.1999511719</ele>
        <time>2019-02-20T09:49:21.000Z</time>
      </trkpt>
      <trkpt lat="46.0188" lon="6.58102">
        <ele>1789.8000488281</ele>
        <time>2019-02-20T09:49:25.000Z</time>
      </trkpt>
      <trkpt lat="46.01878" lon="6.58102">
        <ele>1790</ele>
        <time>2019-02-20T09:49:29.000Z</time>
      </trkpt>
      <trkpt lat="46.01876" lon="6.58103">
        <ele>1790.8000488281</ele>
        <time>2019-02-20T09:49:34.000Z</time>
      </trkpt>
      <trkpt lat="46.01874" lon="6.58104">
        <ele>1791</ele>
        <time>2019-02-20T09:49:38.000Z</time>
      </trkpt>
      <trkpt lat="46.01872" lon="6.58104">
        <ele>1791.1999511719</ele>
        <time>2019-02-20T09:49:40.000Z</time>
      </trkpt>
      <trkpt lat="46.0187" lon="6.58104">
        <ele>1792</ele>
        <time>2019-02-20T09:49:44.000Z</time>
      </trkpt>
      <trkpt lat="46.01868" lon="6.58104">
        <ele>1791.8000488281</ele>
        <time>2019-02-20T09:49:46.000Z</time>
      </trkpt>
      <trkpt lat="46.01866" lon="6.58104">
        <ele>1792.1999511719</ele>
        <time>2019-02-20T09:49:48.000Z</time>
      </trkpt>
      <trkpt lat="46.01864" lon="6.58104">
        <ele>1792.4000244141</ele>
        <time>2019-02-20T09:49:50.000Z</time>
      </trkpt>
      <trkpt lat="46.01861" lon="6.58104">
        <ele>1793</ele>
        <time>2019-02-20T09:49:54.000Z</time>
      </trkpt>
      <trkpt lat="46.01859" lon="6.58104">
        <ele>1793</ele>
        <time>2019-02-20T09:49:57.000Z</time>
      </trkpt>
      <trkpt lat="46.01857" lon="6.58104">
        <ele>1792.800447295</ele>
        <time>2019-02-20T09:50:01.000Z</time>
      </trkpt>
      <trkpt lat="46.01854" lon="6.58104">
        <ele>1793.4000244141</ele>
        <time>2019-02-20T09:50:05.000Z</time>
      </trkpt>
      <trkpt lat="46.01852" lon="6.58103">
        <ele>1794.1999511719</ele>
        <time>2019-02-20T09:50:10.000Z</time>
      </trkpt>
      <trkpt lat="46.0185" lon="6.58102">
        <ele>1794.4000244141</ele>
        <time>2019-02-20T09:50:13.000Z</time>
      </trkpt>
      <trkpt lat="46.01849" lon="6.58099">
        <ele>1795</ele>
        <time>2019-02-20T09:50:17.000Z</time>
      </trkpt>
      <trkpt lat="46.01848" lon="6.58097">
        <ele>1795.4000244141</ele>
        <time>2019-02-20T09:50:20.000Z</time>
      </trkpt>
      <trkpt lat="46.01846" lon="6.58094">
        <ele>1795.8000488281</ele>
        <time>2019-02-20T09:50:23.000Z</time>
      </trkpt>
      <trkpt lat="46.01845" lon="6.58092">
        <ele>1796.1999511719</ele>
        <time>2019-02-20T09:50:27.000Z</time>
      </trkpt>
      <trkpt lat="46.01844" lon="6.58089">
        <ele>1796.4000244141</ele>
        <time>2019-02-20T09:50:31.000Z</time>
      </trkpt>
      <trkpt lat="46.01843" lon="6.58086">
        <ele>1796.8000488281</ele>
        <time>2019-02-20T09:50:35.000Z</time>
      </trkpt>
      <trkpt lat="46.01841" lon="6.58084">
        <ele>1797.5999755859</ele>
        <time>2019-02-20T09:50:39.000Z</time>
      </trkpt>
      <trkpt lat="46.0184" lon="6.58082">
        <ele>1797.4000244141</ele>
        <time>2019-02-20T09:50:42.000Z</time>
      </trkpt>
      <trkpt lat="46.01838" lon="6.58079">
        <ele>1797.5999755859</ele>
        <time>2019-02-20T09:50:46.000Z</time>
      </trkpt>
      <trkpt lat="46.01837" lon="6.58078">
        <ele>1798.1983604745</ele>
        <time>2019-02-20T09:50:50.000Z</time>
      </trkpt>
      <trkpt lat="46.01835" lon="6.58076">
        <ele>1798.4000244141</ele>
        <time>2019-02-20T09:50:53.000Z</time>
      </trkpt>
      <trkpt lat="46.01834" lon="6.58074">
        <ele>1798.5993784806</ele>
        <time>2019-02-20T09:50:56.000Z</time>
      </trkpt>
      <trkpt lat="46.01832" lon="6.58073">
        <ele>1799</ele>
        <time>2019-02-20T09:51:00.000Z</time>
      </trkpt>
      <trkpt lat="46.0183" lon="6.58071">
        <ele>1799.4000244141</ele>
        <time>2019-02-20T09:51:04.000Z</time>
      </trkpt>
      <trkpt lat="46.01828" lon="6.58069">
        <ele>1799.4000244141</ele>
        <time>2019-02-20T09:51:08.000Z</time>
      </trkpt>
      <trkpt lat="46.01826" lon="6.58068">
        <ele>1800.1999511719</ele>
        <time>2019-02-20T09:51:12.000Z</time>
      </trkpt>
      <trkpt lat="46.01824" lon="6.58068">
        <ele>1800.5999755859</ele>
        <time>2019-02-20T09:51:16.000Z</time>
      </trkpt>
      <trkpt lat="46.01822" lon="6.58067">
        <ele>1800.5999755859</ele>
        <time>2019-02-20T09:51:19.000Z</time>
      </trkpt>
      <trkpt lat="46.0182" lon="6.58065">
        <ele>1801.1999511719</ele>
        <time>2019-02-20T09:51:23.000Z</time>
      </trkpt>
      <trkpt lat="46.01818" lon="6.58064">
        <ele>1801.5999755859</ele>
        <time>2019-02-20T09:51:27.000Z</time>
      </trkpt>
      <trkpt lat="46.01816" lon="6.58064">
        <ele>1802</ele>
        <time>2019-02-20T09:51:31.000Z</time>
      </trkpt>
      <trkpt lat="46.01815" lon="6.58063">
        <ele>1802.4000244141</ele>
        <time>2019-02-20T09:51:35.000Z</time>
      </trkpt>
      <trkpt lat="46.01813" lon="6.58062">
        <ele>1802.5999755859</ele>
        <time>2019-02-20T09:51:38.000Z</time>
      </trkpt>
      <trkpt lat="46.01811" lon="6.58061">
        <ele>1803.5999755859</ele>
        <time>2019-02-20T09:51:42.000Z</time>
      </trkpt>
      <trkpt lat="46.01809" lon="6.58061">
        <ele>1803.8000488281</ele>
        <time>2019-02-20T09:51:45.000Z</time>
      </trkpt>
      <trkpt lat="46.01807" lon="6.5806">
        <ele>1804.1999511719</ele>
        <time>2019-02-20T09:51:48.000Z</time>
      </trkpt>
      <trkpt lat="46.01805" lon="6.5806">
        <ele>1804.5999755859</ele>
        <time>2019-02-20T09:51:51.000Z</time>
      </trkpt>
      <trkpt lat="46.01803" lon="6.58059">
        <ele>1805</ele>
        <time>2019-02-20T09:51:55.000Z</time>
      </trkpt>
      <trkpt lat="46.01801" lon="6.58059">
        <ele>1805.1999511719</ele>
        <time>2019-02-20T09:51:59.000Z</time>
      </trkpt>
      <trkpt lat="46.01799" lon="6.58058">
        <ele>1805.4000244141</ele>
        <time>2019-02-20T09:52:02.000Z</time>
      </trkpt>
      <trkpt lat="46.01797" lon="6.58057">
        <ele>1805.8000488281</ele>
        <time>2019-02-20T09:52:06.000Z</time>
      </trkpt>
      <trkpt lat="46.01795" lon="6.58056">
        <ele>1806</ele>
        <time>2019-02-20T09:52:10.000Z</time>
      </trkpt>
      <trkpt lat="46.01793" lon="6.58056">
        <ele>1806.4000244141</ele>
        <time>2019-02-20T09:52:14.000Z</time>
      </trkpt>
      <trkpt lat="46.0179" lon="6.58055">
        <ele>1807</ele>
        <time>2019-02-20T09:52:18.000Z</time>
      </trkpt>
      <trkpt lat="46.01788" lon="6.58054">
        <ele>1807.4000244141</ele>
        <time>2019-02-20T09:52:22.000Z</time>
      </trkpt>
      <trkpt lat="46.01787" lon="6.58053">
        <ele>1807.8000488281</ele>
        <time>2019-02-20T09:52:25.000Z</time>
      </trkpt>
      <trkpt lat="46.01785" lon="6.58053">
        <ele>1807.8000488281</ele>
        <time>2019-02-20T09:52:28.000Z</time>
      </trkpt>
      <trkpt lat="46.01783" lon="6.58052">
        <ele>1808.1999511719</ele>
        <time>2019-02-20T09:52:31.000Z</time>
      </trkpt>
      <trkpt lat="46.01781" lon="6.58051">
        <ele>1808.4000244141</ele>
        <time>2019-02-20T09:52:34.000Z</time>
      </trkpt>
      <trkpt lat="46.01779" lon="6.5805">
        <ele>1808.8000488281</ele>
        <time>2019-02-20T09:52:38.000Z</time>
      </trkpt>
      <trkpt lat="46.01777" lon="6.58049">
        <ele>1809.4000244141</ele>
        <time>2019-02-20T09:52:42.000Z</time>
      </trkpt>
      <trkpt lat="46.01776" lon="6.58047">
        <ele>1809.5999755859</ele>
        <time>2019-02-20T09:52:46.000Z</time>
      </trkpt>
      <trkpt lat="46.01774" lon="6.58045">
        <ele>1809.8000488281</ele>
        <time>2019-02-20T09:52:50.000Z</time>
      </trkpt>
      <trkpt lat="46.01772" lon="6.58044">
        <ele>1810.1999511719</ele>
        <time>2019-02-20T09:52:54.000Z</time>
      </trkpt>
      <trkpt lat="46.0177" lon="6.58043">
        <ele>1810.8000488281</ele>
        <time>2019-02-20T09:52:58.000Z</time>
      </trkpt>
      <trkpt lat="46.01768" lon="6.58041">
        <ele>1811</ele>
        <time>2019-02-20T09:53:02.000Z</time>
      </trkpt>
      <trkpt lat="46.01767" lon="6.5804">
        <ele>1811.5999755859</ele>
        <time>2019-02-20T09:53:06.000Z</time>
      </trkpt>
      <trkpt lat="46.01765" lon="6.58038">
        <ele>1812.1999511719</ele>
        <time>2019-02-20T09:53:10.000Z</time>
      </trkpt>
      <trkpt lat="46.01763" lon="6.58038">
        <ele>1812.1999511719</ele>
        <time>2019-02-20T09:53:14.000Z</time>
      </trkpt>
      <trkpt lat="46.01761" lon="6.58037">
        <ele>1812.5999755859</ele>
        <time>2019-02-20T09:53:18.000Z</time>
      </trkpt>
      <trkpt lat="46.01759" lon="6.58035">
        <ele>1813</ele>
        <time>2019-02-20T09:53:22.000Z</time>
      </trkpt>
      <trkpt lat="46.01757" lon="6.58034">
        <ele>1813.4000244141</ele>
        <time>2019-02-20T09:53:26.000Z</time>
      </trkpt>
      <trkpt lat="46.01755" lon="6.58032">
        <ele>1813.8000488281</ele>
        <time>2019-02-20T09:53:30.000Z</time>
      </trkpt>
      <trkpt lat="46.01754" lon="6.58031">
        <ele>1814</ele>
        <time>2019-02-20T09:53:33.000Z</time>
      </trkpt>
      <trkpt lat="46.01752" lon="6.58029">
        <ele>1814.5999755859</ele>
        <time>2019-02-20T09:53:37.000Z</time>
      </trkpt>
      <trkpt lat="46.0175" lon="6.58028">
        <ele>1815</ele>
        <time>2019-02-20T09:53:41.000Z</time>
      </trkpt>
      <trkpt lat="46.01748" lon="6.58027">
        <ele>1815</ele>
        <time>2019-02-20T09:53:45.000Z</time>
      </trkpt>
      <trkpt lat="46.01746" lon="6.58025">
        <ele>1815.8000488281</ele>
        <time>2019-02-20T09:53:48.000Z</time>
      </trkpt>
      <trkpt lat="46.01745" lon="6.58024">
        <ele>1816.5999755859</ele>
        <time>2019-02-20T09:53:54.000Z</time>
      </trkpt>
      <trkpt lat="46.01743" lon="6.58023">
        <ele>1818.1999511719</ele>
        <time>2019-02-20T09:54:00.000Z</time>
      </trkpt>
      <trkpt lat="46.01741" lon="6.58024">
        <ele>1819</ele>
        <time>2019-02-20T09:54:07.000Z</time>
      </trkpt>
      <trkpt lat="46.0174" lon="6.58027">
        <ele>1819.1999511719</ele>
        <time>2019-02-20T09:54:12.000Z</time>
      </trkpt>
      <trkpt lat="46.01738" lon="6.58029">
        <ele>1819.4000244141</ele>
        <time>2019-02-20T09:54:17.000Z</time>
      </trkpt>
      <trkpt lat="46.01736" lon="6.58029">
        <ele>1820.8000488281</ele>
        <time>2019-02-20T09:54:23.000Z</time>
      </trkpt>
      <trkpt lat="46.01734" lon="6.58031">
        <ele>1821.8000488281</ele>
        <time>2019-02-20T09:54:28.000Z</time>
      </trkpt>
      <trkpt lat="46.01733" lon="6.58033">
        <ele>1822.1999511719</ele>
        <time>2019-02-20T09:54:33.000Z</time>
      </trkpt>
      <trkpt lat="46.01732" lon="6.58035">
        <ele>1822.5999755859</ele>
        <time>2019-02-20T09:54:37.000Z</time>
      </trkpt>
      <trkpt lat="46.0173" lon="6.58037">
        <ele>1823.4000244141</ele>
        <time>2019-02-20T09:54:43.000Z</time>
      </trkpt>
      <trkpt lat="46.01729" lon="6.58039">
        <ele>1824</ele>
        <time>2019-02-20T09:54:48.000Z</time>
      </trkpt>
      <trkpt lat="46.01728" lon="6.58041">
        <ele>1824.8000488281</ele>
        <time>2019-02-20T09:54:54.000Z</time>
      </trkpt>
      <trkpt lat="46.01727" lon="6.58044">
        <ele>1824.8000488281</ele>
        <time>2019-02-20T09:54:59.000Z</time>
      </trkpt>
      <trkpt lat="46.01727" lon="6.58047">
        <ele>1825.5999755859</ele>
        <time>2019-02-20T09:55:04.000Z</time>
      </trkpt>
      <trkpt lat="46.01727" lon="6.5805">
        <ele>1826.1999511719</ele>
        <time>2019-02-20T09:55:09.000Z</time>
      </trkpt>
      <trkpt lat="46.01727" lon="6.58053">
        <ele>1826.4000244141</ele>
        <time>2019-02-20T09:55:14.000Z</time>
      </trkpt>
      <trkpt lat="46.01728" lon="6.58055">
        <ele>1827.1999511719</ele>
        <time>2019-02-20T09:55:20.000Z</time>
      </trkpt>
      <trkpt lat="46.01729" lon="6.58057">
        <ele>1827.8000488281</ele>
        <time>2019-02-20T09:55:25.000Z</time>
      </trkpt>
      <trkpt lat="46.01729" lon="6.5806">
        <ele>1828.4000244141</ele>
        <time>2019-02-20T09:55:30.000Z</time>
      </trkpt>
      <trkpt lat="46.01728" lon="6.58062">
        <ele>1829.3998248602</ele>
        <time>2019-02-20T09:55:35.000Z</time>
      </trkpt>
      <trkpt lat="46.01726" lon="6.58062">
        <ele>1830</ele>
        <time>2019-02-20T09:55:42.000Z</time>
      </trkpt>
      <trkpt lat="46.01724" lon="6.58062">
        <ele>1831.4000244141</ele>
        <time>2019-02-20T09:55:59.000Z</time>
      </trkpt>
      <trkpt lat="46.01722" lon="6.58062">
        <ele>1831.5999755859</ele>
        <time>2019-02-20T09:56:03.000Z</time>
      </trkpt>
      <trkpt lat="46.0172" lon="6.58063">
        <ele>1831.8000488281</ele>
        <time>2019-02-20T09:56:07.000Z</time>
      </trkpt>
      <trkpt lat="46.01718" lon="6.58063">
        <ele>1832.1999511719</ele>
        <time>2019-02-20T09:56:11.000Z</time>
      </trkpt>
      <trkpt lat="46.01716" lon="6.58062">
        <ele>1833.4000244141</ele>
        <time>2019-02-20T09:56:16.000Z</time>
      </trkpt>
      <trkpt lat="46.01714" lon="6.58063">
        <ele>1833.8000488281</ele>
        <time>2019-02-20T09:56:21.000Z</time>
      </trkpt>
      <trkpt lat="46.01712" lon="6.58062">
        <ele>1834.4000244141</ele>
        <time>2019-02-20T09:56:26.000Z</time>
      </trkpt>
      <trkpt lat="46.0171" lon="6.58062">
        <ele>1835.4000244141</ele>
        <time>2019-02-20T09:56:30.000Z</time>
      </trkpt>
      <trkpt lat="46.01708" lon="6.58062">
        <ele>1836</ele>
        <time>2019-02-20T09:56:34.000Z</time>
      </trkpt>
      <trkpt lat="46.01707" lon="6.58063">
        <ele>1836.1999511719</ele>
        <time>2019-02-20T09:56:39.000Z</time>
      </trkpt>
      <trkpt lat="46.01705" lon="6.58063">
        <ele>1837</ele>
        <time>2019-02-20T09:56:44.000Z</time>
      </trkpt>
      <trkpt lat="46.01703" lon="6.58064">
        <ele>1837.4000244141</ele>
        <time>2019-02-20T09:56:49.000Z</time>
      </trkpt>
      <trkpt lat="46.01701" lon="6.58064">
        <ele>1838</ele>
        <time>2019-02-20T09:56:54.000Z</time>
      </trkpt>
      <trkpt lat="46.01699" lon="6.58063">
        <ele>1838.5999755859</ele>
        <time>2019-02-20T09:56:58.000Z</time>
      </trkpt>
      <trkpt lat="46.01697" lon="6.58061">
        <ele>1839.1999511719</ele>
        <time>2019-02-20T09:57:03.000Z</time>
      </trkpt>
      <trkpt lat="46.01695" lon="6.58059">
        <ele>1839.8000488281</ele>
        <time>2019-02-20T09:57:08.000Z</time>
      </trkpt>
      <trkpt lat="46.01694" lon="6.58058">
        <ele>1840.399625704</ele>
        <time>2019-02-20T09:57:13.000Z</time>
      </trkpt>
      <trkpt lat="46.01692" lon="6.58058">
        <ele>1841</ele>
        <time>2019-02-20T09:57:18.000Z</time>
      </trkpt>
      <trkpt lat="46.01689" lon="6.58058">
        <ele>1841.5999755859</ele>
        <time>2019-02-20T09:57:23.000Z</time>
      </trkpt>
      <trkpt lat="46.01688" lon="6.58058">
        <ele>1841.5999755859</ele>
        <time>2019-02-20T09:57:28.000Z</time>
      </trkpt>
      <trkpt lat="46.01686" lon="6.58058">
        <ele>1842.5999755859</ele>
        <time>2019-02-20T09:57:32.000Z</time>
      </trkpt>
      <trkpt lat="46.01683" lon="6.58058">
        <ele>1842.8000488281</ele>
        <time>2019-02-20T09:57:37.000Z</time>
      </trkpt>
      <trkpt lat="46.01682" lon="6.58058">
        <ele>1843.5999755859</ele>
        <time>2019-02-20T09:57:42.000Z</time>
      </trkpt>
      <trkpt lat="46.01679" lon="6.58059">
        <ele>1844.4000244141</ele>
        <time>2019-02-20T09:57:47.000Z</time>
      </trkpt>
      <trkpt lat="46.01677" lon="6.5806">
        <ele>1844.5999755859</ele>
        <time>2019-02-20T09:57:52.000Z</time>
      </trkpt>
      <trkpt lat="46.01675" lon="6.5806">
        <ele>1844.8000488281</ele>
        <time>2019-02-20T09:57:57.000Z</time>
      </trkpt>
      <trkpt lat="46.01673" lon="6.58061">
        <ele>1845.5999755859</ele>
        <time>2019-02-20T09:58:02.000Z</time>
      </trkpt>
      <trkpt lat="46.01671" lon="6.58061">
        <ele>1845.8000488281</ele>
        <time>2019-02-20T09:58:07.000Z</time>
      </trkpt>
      <trkpt lat="46.01669" lon="6.58062">
        <ele>1846.5999755859</ele>
        <time>2019-02-20T09:58:13.000Z</time>
      </trkpt>
      <trkpt lat="46.01667" lon="6.58063">
        <ele>1847.4000244141</ele>
        <time>2019-02-20T09:58:18.000Z</time>
      </trkpt>
      <trkpt lat="46.01665" lon="6.58064">
        <ele>1848.1999511719</ele>
        <time>2019-02-20T09:58:23.000Z</time>
      </trkpt>
      <trkpt lat="46.01663" lon="6.58064">
        <ele>1848.4000244141</ele>
        <time>2019-02-20T09:58:28.000Z</time>
      </trkpt>
      <trkpt lat="46.01661" lon="6.58065">
        <ele>1849.1999511719</ele>
        <time>2019-02-20T09:58:33.000Z</time>
      </trkpt>
      <trkpt lat="46.01659" lon="6.58065">
        <ele>1849.4000244141</ele>
        <time>2019-02-20T09:58:38.000Z</time>
      </trkpt>
      <trkpt lat="46.01657" lon="6.58066">
        <ele>1849.8000488281</ele>
        <time>2019-02-20T09:58:42.000Z</time>
      </trkpt>
      <trkpt lat="46.01655" lon="6.58066">
        <ele>1850</ele>
        <time>2019-02-20T09:58:46.000Z</time>
      </trkpt>
      <trkpt lat="46.01653" lon="6.58067">
        <ele>1850.8000488281</ele>
        <time>2019-02-20T09:58:50.000Z</time>
      </trkpt>
      <trkpt lat="46.01651" lon="6.58067">
        <ele>1850.8000488281</ele>
        <time>2019-02-20T09:58:55.000Z</time>
      </trkpt>
      <trkpt lat="46.01649" lon="6.58067">
        <ele>1851.4000244141</ele>
        <time>2019-02-20T09:59:00.000Z</time>
      </trkpt>
      <trkpt lat="46.01647" lon="6.58068">
        <ele>1852.4000244141</ele>
        <time>2019-02-20T09:59:04.000Z</time>
      </trkpt>
      <trkpt lat="46.01645" lon="6.58068">
        <ele>1852.8000488281</ele>
        <time>2019-02-20T09:59:08.000Z</time>
      </trkpt>
      <trkpt lat="46.01643" lon="6.58068">
        <ele>1852.8000488281</ele>
        <time>2019-02-20T09:59:13.000Z</time>
      </trkpt>
      <trkpt lat="46.01641" lon="6.58068">
        <ele>1853.4000244141</ele>
        <time>2019-02-20T09:59:18.000Z</time>
      </trkpt>
      <trkpt lat="46.01639" lon="6.58069">
        <ele>1854.1999511719</ele>
        <time>2019-02-20T09:59:23.000Z</time>
      </trkpt>
      <trkpt lat="46.01637" lon="6.58068">
        <ele>1854.8000488281</ele>
        <time>2019-02-20T09:59:28.000Z</time>
      </trkpt>
      <trkpt lat="46.01635" lon="6.58068">
        <ele>1855.1999511719</ele>
        <time>2019-02-20T09:59:33.000Z</time>
      </trkpt>
      <trkpt lat="46.01633" lon="6.58069">
        <ele>1855.5999755859</ele>
        <time>2019-02-20T09:59:37.000Z</time>
      </trkpt>
      <trkpt lat="46.01631" lon="6.58069">
        <ele>1856</ele>
        <time>2019-02-20T09:59:41.000Z</time>
      </trkpt>
      <trkpt lat="46.0163" lon="6.58069">
        <ele>1856.4000244141</ele>
        <time>2019-02-20T09:59:45.000Z</time>
      </trkpt>
      <trkpt lat="46.01628" lon="6.5807">
        <ele>1857.1999511719</ele>
        <time>2019-02-20T09:59:49.000Z</time>
      </trkpt>
      <trkpt lat="46.01625" lon="6.5807">
        <ele>1857.5999755859</ele>
        <time>2019-02-20T09:59:54.000Z</time>
      </trkpt>
      <trkpt lat="46.01623" lon="6.5807">
        <ele>1858.4000244141</ele>
        <time>2019-02-20T09:59:59.000Z</time>
      </trkpt>
      <trkpt lat="46.01622" lon="6.58071">
        <ele>1858.8000488281</ele>
        <time>2019-02-20T10:00:03.000Z</time>
      </trkpt>
      <trkpt lat="46.0162" lon="6.58072">
        <ele>1859.1999511719</ele>
        <time>2019-02-20T10:00:07.000Z</time>
      </trkpt>
      <trkpt lat="46.01617" lon="6.58072">
        <ele>1859.5999755859</ele>
        <time>2019-02-20T10:00:12.000Z</time>
      </trkpt>
      <trkpt lat="46.01616" lon="6.58072">
        <ele>1860</ele>
        <time>2019-02-20T10:00:16.000Z</time>
      </trkpt>
      <trkpt lat="46.01613" lon="6.58072">
        <ele>1860.5999755859</ele>
        <time>2019-02-20T10:00:21.000Z</time>
      </trkpt>
      <trkpt lat="46.01612" lon="6.58073">
        <ele>1861.1999511719</ele>
        <time>2019-02-20T10:00:25.000Z</time>
      </trkpt>
      <trkpt lat="46.0161" lon="6.58073">
        <ele>1861.1999511719</ele>
        <time>2019-02-20T10:00:29.000Z</time>
      </trkpt>
      <trkpt lat="46.01608" lon="6.58074">
        <ele>1861.8000488281</ele>
        <time>2019-02-20T10:00:34.000Z</time>
      </trkpt>
      <trkpt lat="46.01606" lon="6.58074">
        <ele>1862.1736965085</ele>
        <time>2019-02-20T10:00:38.000Z</time>
      </trkpt>
      <trkpt lat="46.01604" lon="6.58074">
        <ele>1862.5999755859</ele>
        <time>2019-02-20T10:00:43.000Z</time>
      </trkpt>
      <trkpt lat="46.01602" lon="6.58075">
        <ele>1863.4000244141</ele>
        <time>2019-02-20T10:00:47.000Z</time>
      </trkpt>
      <trkpt lat="46.016" lon="6.58076">
        <ele>1864</ele>
        <time>2019-02-20T10:00:51.000Z</time>
      </trkpt>
      <trkpt lat="46.01598" lon="6.58077">
        <ele>1864.4000244141</ele>
        <time>2019-02-20T10:00:56.000Z</time>
      </trkpt>
      <trkpt lat="46.01596" lon="6.58078">
        <ele>1865</ele>
        <time>2019-02-20T10:01:01.000Z</time>
      </trkpt>
      <trkpt lat="46.01594" lon="6.58078">
        <ele>1865.5999755859</ele>
        <time>2019-02-20T10:01:07.000Z</time>
      </trkpt>
      <trkpt lat="46.01592" lon="6.58079">
        <ele>1866.1999511719</ele>
        <time>2019-02-20T10:01:12.000Z</time>
      </trkpt>
      <trkpt lat="46.0159" lon="6.5808">
        <ele>1867</ele>
        <time>2019-02-20T10:01:17.000Z</time>
      </trkpt>
      <trkpt lat="46.01588" lon="6.5808">
        <ele>1867.4000244141</ele>
        <time>2019-02-20T10:01:21.000Z</time>
      </trkpt>
      <trkpt lat="46.01586" lon="6.58081">
        <ele>1868</ele>
        <time>2019-02-20T10:01:26.000Z</time>
      </trkpt>
      <trkpt lat="46.01584" lon="6.58081">
        <ele>1868.5999755859</ele>
        <time>2019-02-20T10:01:30.000Z</time>
      </trkpt>
      <trkpt lat="46.01582" lon="6.58081">
        <ele>1868.8000488281</ele>
        <time>2019-02-20T10:01:34.000Z</time>
      </trkpt>
      <trkpt lat="46.0158" lon="6.58081">
        <ele>1869</ele>
        <time>2019-02-20T10:01:39.000Z</time>
      </trkpt>
      <trkpt lat="46.01578" lon="6.58081">
        <ele>1870</ele>
        <time>2019-02-20T10:01:43.000Z</time>
      </trkpt>
      <trkpt lat="46.01576" lon="6.58081">
        <ele>1870.1999511719</ele>
        <time>2019-02-20T10:01:47.000Z</time>
      </trkpt>
      <trkpt lat="46.01573" lon="6.58081">
        <ele>1870.5999755859</ele>
        <time>2019-02-20T10:01:52.000Z</time>
      </trkpt>
      <trkpt lat="46.01571" lon="6.5808">
        <ele>1871.1999511719</ele>
        <time>2019-02-20T10:01:56.000Z</time>
      </trkpt>
      <trkpt lat="46.0157" lon="6.5808">
        <ele>1871.5999755859</ele>
        <time>2019-02-20T10:02:00.000Z</time>
      </trkpt>
      <trkpt lat="46.01568" lon="6.58079">
        <ele>1872.1999511719</ele>
        <time>2019-02-20T10:02:04.000Z</time>
      </trkpt>
      <trkpt lat="46.01566" lon="6.58079">
        <ele>1872.1999511719</ele>
        <time>2019-02-20T10:02:08.000Z</time>
      </trkpt>
      <trkpt lat="46.01564" lon="6.58078">
        <ele>1872.1999511719</ele>
        <time>2019-02-20T10:02:12.000Z</time>
      </trkpt>
      <trkpt lat="46.01562" lon="6.58077">
        <ele>1873</ele>
        <time>2019-02-20T10:02:17.000Z</time>
      </trkpt>
      <trkpt lat="46.0156" lon="6.58076">
        <ele>1873.4000244141</ele>
        <time>2019-02-20T10:02:21.000Z</time>
      </trkpt>
      <trkpt lat="46.01558" lon="6.58075">
        <ele>1874</ele>
        <time>2019-02-20T10:02:26.000Z</time>
      </trkpt>
      <trkpt lat="46.01556" lon="6.58074">
        <ele>1874.4000244141</ele>
        <time>2019-02-20T10:02:31.000Z</time>
      </trkpt>
      <trkpt lat="46.01554" lon="6.58074">
        <ele>1874.8000488281</ele>
        <time>2019-02-20T10:02:35.000Z</time>
      </trkpt>
      <trkpt lat="46.01552" lon="6.58073">
        <ele>1875</ele>
        <time>2019-02-20T10:02:39.000Z</time>
      </trkpt>
      <trkpt lat="46.01551" lon="6.58072">
        <ele>1875.5999755859</ele>
        <time>2019-02-20T10:02:43.000Z</time>
      </trkpt>
      <trkpt lat="46.01549" lon="6.58072">
        <ele>1876.4000244141</ele>
        <time>2019-02-20T10:02:47.000Z</time>
      </trkpt>
      <trkpt lat="46.01547" lon="6.58071">
        <ele>1876.8000488281</ele>
        <time>2019-02-20T10:02:51.000Z</time>
      </trkpt>
      <trkpt lat="46.01545" lon="6.5807">
        <ele>1877.1999511719</ele>
        <time>2019-02-20T10:02:55.000Z</time>
      </trkpt>
      <trkpt lat="46.01543" lon="6.58069">
        <ele>1877.4000244141</ele>
        <time>2019-02-20T10:02:59.000Z</time>
      </trkpt>
      <trkpt lat="46.01541" lon="6.58068">
        <ele>1877.5999755859</ele>
        <time>2019-02-20T10:03:03.000Z</time>
      </trkpt>
      <trkpt lat="46.01539" lon="6.58068">
        <ele>1878.1999511719</ele>
        <time>2019-02-20T10:03:07.000Z</time>
      </trkpt>
      <trkpt lat="46.01537" lon="6.58067">
        <ele>1878.5999755859</ele>
        <time>2019-02-20T10:03:11.000Z</time>
      </trkpt>
      <trkpt lat="46.01535" lon="6.58066">
        <ele>1879</ele>
        <time>2019-02-20T10:03:15.000Z</time>
      </trkpt>
      <trkpt lat="46.01533" lon="6.58065">
        <ele>1879.4000244141</ele>
        <time>2019-02-20T10:03:19.000Z</time>
      </trkpt>
      <trkpt lat="46.01531" lon="6.58064">
        <ele>1879.4000244141</ele>
        <time>2019-02-20T10:03:23.000Z</time>
      </trkpt>
      <trkpt lat="46.01529" lon="6.58063">
        <ele>1879.8000488281</ele>
        <time>2019-02-20T10:03:27.000Z</time>
      </trkpt>
      <trkpt lat="46.01527" lon="6.58062">
        <ele>1880.1999511719</ele>
        <time>2019-02-20T10:03:31.000Z</time>
      </trkpt>
      <trkpt lat="46.01524" lon="6.5806">
        <ele>1880.199552705</ele>
        <time>2019-02-20T10:03:35.000Z</time>
      </trkpt>
      <trkpt lat="46.01522" lon="6.58059">
        <ele>1880.5999755859</ele>
        <time>2019-02-20T10:03:39.000Z</time>
      </trkpt>
      <trkpt lat="46.0152" lon="6.58059">
        <ele>1881</ele>
        <time>2019-02-20T10:03:43.000Z</time>
      </trkpt>
      <trkpt lat="46.01518" lon="6.58058">
        <ele>1881.5999755859</ele>
        <time>2019-02-20T10:03:47.000Z</time>
      </trkpt>
      <trkpt lat="46.01516" lon="6.58057">
        <ele>1881.8000488281</ele>
        <time>2019-02-20T10:03:51.000Z</time>
      </trkpt>
      <trkpt lat="46.01514" lon="6.58056">
        <ele>1882</ele>
        <time>2019-02-20T10:03:55.000Z</time>
      </trkpt>
      <trkpt lat="46.01512" lon="6.58055">
        <ele>1882.5999755859</ele>
        <time>2019-02-20T10:03:59.000Z</time>
      </trkpt>
      <trkpt lat="46.0151" lon="6.58054">
        <ele>1883</ele>
        <time>2019-02-20T10:04:03.000Z</time>
      </trkpt>
      <trkpt lat="46.01508" lon="6.58053">
        <ele>1883.4000244141</ele>
        <time>2019-02-20T10:04:07.000Z</time>
      </trkpt>
      <trkpt lat="46.01506" lon="6.58052">
        <ele>1883.5999755859</ele>
        <time>2019-02-20T10:04:11.000Z</time>
      </trkpt>
      <trkpt lat="46.01504" lon="6.58051">
        <ele>1883.8000488281</ele>
        <time>2019-02-20T10:04:16.000Z</time>
      </trkpt>
      <trkpt lat="46.01502" lon="6.58051">
        <ele>1884</ele>
        <time>2019-02-20T10:04:19.000Z</time>
      </trkpt>
      <trkpt lat="46.015" lon="6.5805">
        <ele>1884.4000244141</ele>
        <time>2019-02-20T10:04:23.000Z</time>
      </trkpt>
      <trkpt lat="46.01498" lon="6.58049">
        <ele>1884.4000244141</ele>
        <time>2019-02-20T10:04:27.000Z</time>
      </trkpt>
      <trkpt lat="46.01496" lon="6.58049">
        <ele>1884.5999755859</ele>
        <time>2019-02-20T10:04:30.000Z</time>
      </trkpt>
      <trkpt lat="46.01494" lon="6.58048">
        <ele>1885.4000244141</ele>
        <time>2019-02-20T10:04:34.000Z</time>
      </trkpt>
      <trkpt lat="46.01492" lon="6.58047">
        <ele>1885.4000244141</ele>
        <time>2019-02-20T10:04:38.000Z</time>
      </trkpt>
      <trkpt lat="46.01489" lon="6.58047">
        <ele>1885.4000244141</ele>
        <time>2019-02-20T10:04:42.000Z</time>
      </trkpt>
      <trkpt lat="46.01487" lon="6.58046">
        <ele>1886</ele>
        <time>2019-02-20T10:04:46.000Z</time>
      </trkpt>
      <trkpt lat="46.01485" lon="6.58046">
        <ele>1886.1999511719</ele>
        <time>2019-02-20T10:04:50.000Z</time>
      </trkpt>
      <trkpt lat="46.01483" lon="6.58046">
        <ele>1886.1999511719</ele>
        <time>2019-02-20T10:04:54.000Z</time>
      </trkpt>
      <trkpt lat="46.01481" lon="6.58046">
        <ele>1886.5999755859</ele>
        <time>2019-02-20T10:04:58.000Z</time>
      </trkpt>
      <trkpt lat="46.01479" lon="6.58045">
        <ele>1887</ele>
        <time>2019-02-20T10:05:01.000Z</time>
      </trkpt>
      <trkpt lat="46.01477" lon="6.58046">
        <ele>1887.5999755859</ele>
        <time>2019-02-20T10:05:05.000Z</time>
      </trkpt>
      <trkpt lat="46.01475" lon="6.58045">
        <ele>1888.1999511719</ele>
        <time>2019-02-20T10:05:09.000Z</time>
      </trkpt>
      <trkpt lat="46.01472" lon="6.58045">
        <ele>1888.5999755859</ele>
        <time>2019-02-20T10:05:13.000Z</time>
      </trkpt>
      <trkpt lat="46.01471" lon="6.58045">
        <ele>1888.9996015332</ele>
        <time>2019-02-20T10:05:17.000Z</time>
      </trkpt>
      <trkpt lat="46.01469" lon="6.58045">
        <ele>1889.4000244141</ele>
        <time>2019-02-20T10:05:21.000Z</time>
      </trkpt>
      <trkpt lat="46.01466" lon="6.58045">
        <ele>1889.4000244141</ele>
        <time>2019-02-20T10:05:25.000Z</time>
      </trkpt>
      <trkpt lat="46.01464" lon="6.58045">
        <ele>1889.8000488281</ele>
        <time>2019-02-20T10:05:29.000Z</time>
      </trkpt>
      <trkpt lat="46.01462" lon="6.58045">
        <ele>1890.1999511719</ele>
        <time>2019-02-20T10:05:33.000Z</time>
      </trkpt>
      <trkpt lat="46.0146" lon="6.58045">
        <ele>1890.5999755859</ele>
        <time>2019-02-20T10:05:37.000Z</time>
      </trkpt>
      <trkpt lat="46.01458" lon="6.58044">
        <ele>1890.5999755859</ele>
        <time>2019-02-20T10:05:40.000Z</time>
      </trkpt>
      <trkpt lat="46.01456" lon="6.58045">
        <ele>1890.5999755859</ele>
        <time>2019-02-20T10:05:43.000Z</time>
      </trkpt>
      <trkpt lat="46.01454" lon="6.58045">
        <ele>1890.8000488281</ele>
        <time>2019-02-20T10:05:47.000Z</time>
      </trkpt>
      <trkpt lat="46.01452" lon="6.58045">
        <ele>1891.4000244141</ele>
        <time>2019-02-20T10:05:51.000Z</time>
      </trkpt>
      <trkpt lat="46.0145" lon="6.58045">
        <ele>1892</ele>
        <time>2019-02-20T10:05:55.000Z</time>
      </trkpt>
      <trkpt lat="46.01448" lon="6.58045">
        <ele>1892.4000244141</ele>
        <time>2019-02-20T10:05:59.000Z</time>
      </trkpt>
      <trkpt lat="46.01446" lon="6.58046">
        <ele>1892.8000488281</ele>
        <time>2019-02-20T10:06:03.000Z</time>
      </trkpt>
      <trkpt lat="46.01444" lon="6.58046">
        <ele>1893</ele>
        <time>2019-02-20T10:06:07.000Z</time>
      </trkpt>
      <trkpt lat="46.01441" lon="6.58047">
        <ele>1893.4000244141</ele>
        <time>2019-02-20T10:06:11.000Z</time>
      </trkpt>
      <trkpt lat="46.01439" lon="6.58047">
        <ele>1893.4000244141</ele>
        <time>2019-02-20T10:06:15.000Z</time>
      </trkpt>
      <trkpt lat="46.01437" lon="6.58048">
        <ele>1893.8000488281</ele>
        <time>2019-02-20T10:06:19.000Z</time>
      </trkpt>
      <trkpt lat="46.01435" lon="6.58049">
        <ele>1894.1999511719</ele>
        <time>2019-02-20T10:06:23.000Z</time>
      </trkpt>
      <trkpt lat="46.01433" lon="6.5805">
        <ele>1894.4000244141</ele>
        <time>2019-02-20T10:06:27.000Z</time>
      </trkpt>
      <trkpt lat="46.01431" lon="6.5805">
        <ele>1895</ele>
        <time>2019-02-20T10:06:32.000Z</time>
      </trkpt>
      <trkpt lat="46.01429" lon="6.58051">
        <ele>1895.1999511719</ele>
        <time>2019-02-20T10:06:36.000Z</time>
      </trkpt>
      <trkpt lat="46.01427" lon="6.58052">
        <ele>1895.8000488281</ele>
        <time>2019-02-20T10:06:40.000Z</time>
      </trkpt>
      <trkpt lat="46.01425" lon="6.58053">
        <ele>1896.4000244141</ele>
        <time>2019-02-20T10:06:44.000Z</time>
      </trkpt>
      <trkpt lat="46.01423" lon="6.58054">
        <ele>1897</ele>
        <time>2019-02-20T10:06:48.000Z</time>
      </trkpt>
      <trkpt lat="46.01422" lon="6.58054">
        <ele>1897.4000244141</ele>
        <time>2019-02-20T10:06:52.000Z</time>
      </trkpt>
      <trkpt lat="46.0142" lon="6.58055">
        <ele>1898</ele>
        <time>2019-02-20T10:06:56.000Z</time>
      </trkpt>
      <trkpt lat="46.01418" lon="6.58056">
        <ele>1898.1999511719</ele>
        <time>2019-02-20T10:07:00.000Z</time>
      </trkpt>
      <trkpt lat="46.01416" lon="6.58057">
        <ele>1898.8000488281</ele>
        <time>2019-02-20T10:07:04.000Z</time>
      </trkpt>
      <trkpt lat="46.01414" lon="6.58059">
        <ele>1899.1999511719</ele>
        <time>2019-02-20T10:07:08.000Z</time>
      </trkpt>
      <trkpt lat="46.01412" lon="6.5806">
        <ele>1899.4000244141</ele>
        <time>2019-02-20T10:07:12.000Z</time>
      </trkpt>
      <trkpt lat="46.0141" lon="6.58061">
        <ele>1900</ele>
        <time>2019-02-20T10:07:17.000Z</time>
      </trkpt>
      <trkpt lat="46.01408" lon="6.58062">
        <ele>1900.4000244141</ele>
        <time>2019-02-20T10:07:21.000Z</time>
      </trkpt>
      <trkpt lat="46.01406" lon="6.58064">
        <ele>1900.9998005679</ele>
        <time>2019-02-20T10:07:25.000Z</time>
      </trkpt>
      <trkpt lat="46.01405" lon="6.58065">
        <ele>1901.4000244141</ele>
        <time>2019-02-20T10:07:28.000Z</time>
      </trkpt>
      <trkpt lat="46.01403" lon="6.58066">
        <ele>1901.8000488281</ele>
        <time>2019-02-20T10:07:32.000Z</time>
      </trkpt>
      <trkpt lat="46.01401" lon="6.58067">
        <ele>1902</ele>
        <time>2019-02-20T10:07:36.000Z</time>
      </trkpt>
      <trkpt lat="46.01399" lon="6.58068">
        <ele>1902.1999511719</ele>
        <time>2019-02-20T10:07:39.000Z</time>
      </trkpt>
      <trkpt lat="46.01397" lon="6.58068">
        <ele>1902.8000488281</ele>
        <time>2019-02-20T10:07:42.000Z</time>
      </trkpt>
      <trkpt lat="46.01396" lon="6.58068">
        <ele>1903</ele>
        <time>2019-02-20T10:07:45.000Z</time>
      </trkpt>
      <trkpt lat="46.01393" lon="6.58069">
        <ele>1903.4000244141</ele>
        <time>2019-02-20T10:07:49.000Z</time>
      </trkpt>
      <trkpt lat="46.01391" lon="6.5807">
        <ele>1903.5999755859</ele>
        <time>2019-02-20T10:07:53.000Z</time>
      </trkpt>
      <trkpt lat="46.01389" lon="6.58072">
        <ele>1903.5999755859</ele>
        <time>2019-02-20T10:07:57.000Z</time>
      </trkpt>
      <trkpt lat="46.01387" lon="6.58073">
        <ele>1904</ele>
        <time>2019-02-20T10:08:01.000Z</time>
      </trkpt>
      <trkpt lat="46.01385" lon="6.58074">
        <ele>1904.5999755859</ele>
        <time>2019-02-20T10:08:05.000Z</time>
      </trkpt>
      <trkpt lat="46.01382" lon="6.58075">
        <ele>1905</ele>
        <time>2019-02-20T10:08:09.000Z</time>
      </trkpt>
      <trkpt lat="46.0138" lon="6.58075">
        <ele>1905.5999755859</ele>
        <time>2019-02-20T10:08:13.000Z</time>
      </trkpt>
      <trkpt lat="46.01379" lon="6.58076">
        <ele>1905.8000488281</ele>
        <time>2019-02-20T10:08:16.000Z</time>
      </trkpt>
      <trkpt lat="46.01377" lon="6.58077">
        <ele>1906.5999755859</ele>
        <time>2019-02-20T10:08:20.000Z</time>
      </trkpt>
      <trkpt lat="46.01374" lon="6.58078">
        <ele>1906.8000488281</ele>
        <time>2019-02-20T10:08:24.000Z</time>
      </trkpt>
      <trkpt lat="46.01373" lon="6.58079">
        <ele>1907.1999511719</ele>
        <time>2019-02-20T10:08:28.000Z</time>
      </trkpt>
      <trkpt lat="46.01371" lon="6.58081">
        <ele>1907.5999755859</ele>
        <time>2019-02-20T10:08:32.000Z</time>
      </trkpt>
      <trkpt lat="46.01369" lon="6.58083">
        <ele>1907.8000488281</ele>
        <time>2019-02-20T10:08:35.000Z</time>
      </trkpt>
      <trkpt lat="46.01368" lon="6.58085">
        <ele>1908.1999511719</ele>
        <time>2019-02-20T10:08:39.000Z</time>
      </trkpt>
      <trkpt lat="46.01366" lon="6.58087">
        <ele>1908.4000244141</ele>
        <time>2019-02-20T10:08:43.000Z</time>
      </trkpt>
      <trkpt lat="46.01365" lon="6.58089">
        <ele>1909</ele>
        <time>2019-02-20T10:08:47.000Z</time>
      </trkpt>
      <trkpt lat="46.01364" lon="6.58091">
        <ele>1909</ele>
        <time>2019-02-20T10:08:51.000Z</time>
      </trkpt>
      <trkpt lat="46.01363" lon="6.58093">
        <ele>1909.1999511719</ele>
        <time>2019-02-20T10:08:55.000Z</time>
      </trkpt>
      <trkpt lat="46.01362" lon="6.58096">
        <ele>1910</ele>
        <time>2019-02-20T10:09:00.000Z</time>
      </trkpt>
      <trkpt lat="46.0136" lon="6.58098">
        <ele>1910.4000244141</ele>
        <time>2019-02-20T10:09:06.000Z</time>
      </trkpt>
      <trkpt lat="46.0136" lon="6.581">
        <ele>1910.8000488281</ele>
        <time>2019-02-20T10:10:55.000Z</time>
      </trkpt>
      <trkpt lat="46.01358" lon="6.58103">
        <ele>1910.8000488281</ele>
        <time>2019-02-20T10:11:21.000Z</time>
      </trkpt>
      <trkpt lat="46.01357" lon="6.58106">
        <ele>1911</ele>
        <time>2019-02-20T10:11:24.000Z</time>
      </trkpt>
      <trkpt lat="46.01356" lon="6.58109">
        <ele>1910.4000244141</ele>
        <time>2019-02-20T10:11:27.000Z</time>
      </trkpt>
      <trkpt lat="46.01355" lon="6.58107">
        <ele>1911.1999511719</ele>
        <time>2019-02-20T10:12:07.000Z</time>
      </trkpt>
      <trkpt lat="46.01356" lon="6.58104">
        <ele>1911.1999511719</ele>
        <time>2019-02-20T10:12:15.000Z</time>
      </trkpt>
      <trkpt lat="46.01358" lon="6.58103">
        <ele>1910.8000488281</ele>
        <time>2019-02-20T10:12:17.000Z</time>
      </trkpt>
      <trkpt lat="46.0136" lon="6.58101">
        <ele>1910.8000488281</ele>
        <time>2019-02-20T10:12:19.000Z</time>
      </trkpt>
      <trkpt lat="46.01362" lon="6.58102">
        <ele>1911</ele>
        <time>2019-02-20T10:12:22.000Z</time>
      </trkpt>
      <trkpt lat="46.01363" lon="6.58104">
        <ele>1910.4000244141</ele>
        <time>2019-02-20T10:13:41.000Z</time>
      </trkpt>
      <trkpt lat="46.01361" lon="6.58103">
        <ele>1910.4000244141</ele>
        <time>2019-02-20T10:14:07.000Z</time>
      </trkpt>
      <trkpt lat="46.0136" lon="6.58102">
        <ele>1911.1999511719</ele>
        <time>2019-02-20T10:14:58.000Z</time>
      </trkpt>
      <trkpt lat="46.01358" lon="6.58103">
        <ele>1910.8000488281</ele>
        <time>2019-02-20T10:15:02.000Z</time>
      </trkpt>
      <trkpt lat="46.01356" lon="6.58102">
        <ele>1911.1999511719</ele>
        <time>2019-02-20T10:15:59.000Z</time>
      </trkpt>
      <trkpt lat="46.01354" lon="6.58101">
        <ele>1911.1999511719</ele>
        <time>2019-02-20T10:16:49.000Z</time>
      </trkpt>
      <trkpt lat="46.01352" lon="6.581">
        <ele>1911</ele>
        <time>2019-02-20T10:16:54.000Z</time>
      </trkpt>
      <trkpt lat="46.0135" lon="6.581">
        <ele>1911.4000244141</ele>
        <time>2019-02-20T10:16:59.000Z</time>
      </trkpt>
      <trkpt lat="46.01348" lon="6.58099">
        <ele>1911.1999511719</ele>
        <time>2019-02-20T10:17:02.000Z</time>
      </trkpt>
      <trkpt lat="46.01346" lon="6.58098">
        <ele>1911.5999755859</ele>
        <time>2019-02-20T10:17:06.000Z</time>
      </trkpt>
      <trkpt lat="46.01344" lon="6.58097">
        <ele>1911.5999755859</ele>
        <time>2019-02-20T10:17:09.000Z</time>
      </trkpt>
      <trkpt lat="46.01342" lon="6.58097">
        <ele>1911.8000488281</ele>
        <time>2019-02-20T10:17:12.000Z</time>
      </trkpt>
      <trkpt lat="46.0134" lon="6.58097">
        <ele>1912</ele>
        <time>2019-02-20T10:17:15.000Z</time>
      </trkpt>
      <trkpt lat="46.01338" lon="6.58096">
        <ele>1912.1999511719</ele>
        <time>2019-02-20T10:17:18.000Z</time>
      </trkpt>
      <trkpt lat="46.01336" lon="6.58095">
        <ele>1912.5999755859</ele>
        <time>2019-02-20T10:17:21.000Z</time>
      </trkpt>
      <trkpt lat="46.01334" lon="6.58094">
        <ele>1912.5999755859</ele>
        <time>2019-02-20T10:17:24.000Z</time>
      </trkpt>
      <trkpt lat="46.01332" lon="6.58093">
        <ele>1912.8000488281</ele>
        <time>2019-02-20T10:17:27.000Z</time>
      </trkpt>
      <trkpt lat="46.0133" lon="6.58093">
        <ele>1912.8000488281</ele>
        <time>2019-02-20T10:17:30.000Z</time>
      </trkpt>
      <trkpt lat="46.01328" lon="6.58092">
        <ele>1913.4000244141</ele>
        <time>2019-02-20T10:17:33.000Z</time>
      </trkpt>
      <trkpt lat="46.01326" lon="6.58091">
        <ele>1913.4000244141</ele>
        <time>2019-02-20T10:17:36.000Z</time>
      </trkpt>
      <trkpt lat="46.01324" lon="6.58091">
        <ele>1913.5999755859</ele>
        <time>2019-02-20T10:17:39.000Z</time>
      </trkpt>
      <trkpt lat="46.01322" lon="6.5809">
        <ele>1914.1999511719</ele>
        <time>2019-02-20T10:17:42.000Z</time>
      </trkpt>
      <trkpt lat="46.0132" lon="6.5809">
        <ele>1914.8000488281</ele>
        <time>2019-02-20T10:17:46.000Z</time>
      </trkpt>
      <trkpt lat="46.01318" lon="6.5809">
        <ele>1915.4000244141</ele>
        <time>2019-02-20T10:17:50.000Z</time>
      </trkpt>
      <trkpt lat="46.01316" lon="6.5809">
        <ele>1915.5999755859</ele>
        <time>2019-02-20T10:17:53.000Z</time>
      </trkpt>
      <trkpt lat="46.01314" lon="6.5809">
        <ele>1915.5999755859</ele>
        <time>2019-02-20T10:17:56.000Z</time>
      </trkpt>
      <trkpt lat="46.01312" lon="6.58091">
        <ele>1916</ele>
        <time>2019-02-20T10:17:59.000Z</time>
      </trkpt>
      <trkpt lat="46.0131" lon="6.58091">
        <ele>1916.5999755859</ele>
        <time>2019-02-20T10:18:03.000Z</time>
      </trkpt>
      <trkpt lat="46.01308" lon="6.58091">
        <ele>1917.1999511719</ele>
        <time>2019-02-20T10:18:06.000Z</time>
      </trkpt>
      <trkpt lat="46.01306" lon="6.58091">
        <ele>1917.8000488281</ele>
        <time>2019-02-20T10:18:09.000Z</time>
      </trkpt>
      <trkpt lat="46.01304" lon="6.58092">
        <ele>1918</ele>
        <time>2019-02-20T10:18:12.000Z</time>
      </trkpt>
      <trkpt lat="46.01302" lon="6.58092">
        <ele>1918</ele>
        <time>2019-02-20T10:18:15.000Z</time>
      </trkpt>
      <trkpt lat="46.01301" lon="6.58091">
        <ele>1918.4000244141</ele>
        <time>2019-02-20T10:18:19.000Z</time>
      </trkpt>
      <trkpt lat="46.01299" lon="6.58091">
        <ele>1919</ele>
        <time>2019-02-20T10:18:23.000Z</time>
      </trkpt>
      <trkpt lat="46.01296" lon="6.58092">
        <ele>1919.4000244141</ele>
        <time>2019-02-20T10:18:27.000Z</time>
      </trkpt>
      <trkpt lat="46.01294" lon="6.58092">
        <ele>1919.8000488281</ele>
        <time>2019-02-20T10:18:31.000Z</time>
      </trkpt>
      <trkpt lat="46.01292" lon="6.58091">
        <ele>1920</ele>
        <time>2019-02-20T10:18:35.000Z</time>
      </trkpt>
      <trkpt lat="46.0129" lon="6.58091">
        <ele>1920.5999755859</ele>
        <time>2019-02-20T10:18:38.000Z</time>
      </trkpt>
      <trkpt lat="46.01288" lon="6.58092">
        <ele>1920.5999755859</ele>
        <time>2019-02-20T10:18:41.000Z</time>
      </trkpt>
      <trkpt lat="46.01286" lon="6.58092">
        <ele>1921</ele>
        <time>2019-02-20T10:18:44.000Z</time>
      </trkpt>
      <trkpt lat="46.01285" lon="6.58092">
        <ele>1921</ele>
        <time>2019-02-20T10:18:47.000Z</time>
      </trkpt>
      <trkpt lat="46.01283" lon="6.58092">
        <ele>1921.1999511719</ele>
        <time>2019-02-20T10:18:50.000Z</time>
      </trkpt>
      <trkpt lat="46.01281" lon="6.58093">
        <ele>1921.4000244141</ele>
        <time>2019-02-20T10:18:53.000Z</time>
      </trkpt>
      <trkpt lat="46.01279" lon="6.58094">
        <ele>1921.5999755859</ele>
        <time>2019-02-20T10:18:56.000Z</time>
      </trkpt>
      <trkpt lat="46.01277" lon="6.58095">
        <ele>1921.8000488281</ele>
        <time>2019-02-20T10:18:59.000Z</time>
      </trkpt>
      <trkpt lat="46.01275" lon="6.58096">
        <ele>1922</ele>
        <time>2019-02-20T10:19:02.000Z</time>
      </trkpt>
      <trkpt lat="46.01273" lon="6.58097">
        <ele>1922.1999511719</ele>
        <time>2019-02-20T10:19:05.000Z</time>
      </trkpt>
      <trkpt lat="46.01271" lon="6.58098">
        <ele>1922.5999755859</ele>
        <time>2019-02-20T10:19:08.000Z</time>
      </trkpt>
      <trkpt lat="46.01269" lon="6.58098">
        <ele>1922.4000244141</ele>
        <time>2019-02-20T10:19:11.000Z</time>
      </trkpt>
      <trkpt lat="46.01267" lon="6.58099">
        <ele>1922.4000244141</ele>
        <time>2019-02-20T10:19:14.000Z</time>
      </trkpt>
      <trkpt lat="46.01265" lon="6.581">
        <ele>1922.5999755859</ele>
        <time>2019-02-20T10:19:17.000Z</time>
      </trkpt>
      <trkpt lat="46.01263" lon="6.581">
        <ele>1922.8000488281</ele>
        <time>2019-02-20T10:19:20.000Z</time>
      </trkpt>
      <trkpt lat="46.0126" lon="6.58101">
        <ele>1922.8000488281</ele>
        <time>2019-02-20T10:19:23.000Z</time>
      </trkpt>
      <trkpt lat="46.01258" lon="6.58102">
        <ele>1923</ele>
        <time>2019-02-20T10:19:26.000Z</time>
      </trkpt>
      <trkpt lat="46.01257" lon="6.58103">
        <ele>1922.8000488281</ele>
        <time>2019-02-20T10:19:29.000Z</time>
      </trkpt>
      <trkpt lat="46.01255" lon="6.58103">
        <ele>1922.8000488281</ele>
        <time>2019-02-20T10:19:32.000Z</time>
      </trkpt>
      <trkpt lat="46.01253" lon="6.58103">
        <ele>1923</ele>
        <time>2019-02-20T10:19:35.000Z</time>
      </trkpt>
      <trkpt lat="46.0125" lon="6.58104">
        <ele>1923.1999511719</ele>
        <time>2019-02-20T10:19:38.000Z</time>
      </trkpt>
      <trkpt lat="46.01248" lon="6.58104">
        <ele>1923.1999511719</ele>
        <time>2019-02-20T10:19:41.000Z</time>
      </trkpt>
      <trkpt lat="46.01246" lon="6.58105">
        <ele>1923.4000244141</ele>
        <time>2019-02-20T10:19:44.000Z</time>
      </trkpt>
      <trkpt lat="46.01244" lon="6.58105">
        <ele>1923.1999511719</ele>
        <time>2019-02-20T10:19:48.000Z</time>
      </trkpt>
      <trkpt lat="46.01242" lon="6.58106">
        <ele>1923.5999755859</ele>
        <time>2019-02-20T10:19:52.000Z</time>
      </trkpt>
      <trkpt lat="46.0124" lon="6.58106">
        <ele>1924.1999511719</ele>
        <time>2019-02-20T10:19:56.000Z</time>
      </trkpt>
      <trkpt lat="46.01237" lon="6.58106">
        <ele>1924.8000488281</ele>
        <time>2019-02-20T10:20:00.000Z</time>
      </trkpt>
      <trkpt lat="46.01235" lon="6.58107">
        <ele>1925.4000244141</ele>
        <time>2019-02-20T10:20:04.000Z</time>
      </trkpt>
      <trkpt lat="46.01233" lon="6.58108">
        <ele>1925.8000488281</ele>
        <time>2019-02-20T10:20:08.000Z</time>
      </trkpt>
      <trkpt lat="46.0123" lon="6.58108">
        <ele>1926.1999511719</ele>
        <time>2019-02-20T10:20:12.000Z</time>
      </trkpt>
      <trkpt lat="46.01228" lon="6.58108">
        <ele>1926.1999511719</ele>
        <time>2019-02-20T10:20:16.000Z</time>
      </trkpt>
      <trkpt lat="46.01226" lon="6.58107">
        <ele>1926.4000244141</ele>
        <time>2019-02-20T10:20:19.000Z</time>
      </trkpt>
      <trkpt lat="46.01224" lon="6.58107">
        <ele>1926.5999755859</ele>
        <time>2019-02-20T10:20:22.000Z</time>
      </trkpt>
      <trkpt lat="46.01222" lon="6.58107">
        <ele>1927</ele>
        <time>2019-02-20T10:20:25.000Z</time>
      </trkpt>
      <trkpt lat="46.0122" lon="6.58106">
        <ele>1927.1999511719</ele>
        <time>2019-02-20T10:20:28.000Z</time>
      </trkpt>
      <trkpt lat="46.01218" lon="6.58105">
        <ele>1927.8000488281</ele>
        <time>2019-02-20T10:20:31.000Z</time>
      </trkpt>
      <trkpt lat="46.01216" lon="6.58104">
        <ele>1927.4000244141</ele>
        <time>2019-02-20T10:20:34.000Z</time>
      </trkpt>
      <trkpt lat="46.01214" lon="6.58103">
        <ele>1927.5999755859</ele>
        <time>2019-02-20T10:20:38.000Z</time>
      </trkpt>
      <trkpt lat="46.01211" lon="6.58103">
        <ele>1927.8000488281</ele>
        <time>2019-02-20T10:20:42.000Z</time>
      </trkpt>
      <trkpt lat="46.01209" lon="6.58102">
        <ele>1928.4000244141</ele>
        <time>2019-02-20T10:20:46.000Z</time>
      </trkpt>
      <trkpt lat="46.01208" lon="6.581">
        <ele>1928.5999755859</ele>
        <time>2019-02-20T10:20:50.000Z</time>
      </trkpt>
      <trkpt lat="46.01206" lon="6.58098">
        <ele>1929</ele>
        <time>2019-02-20T10:20:54.000Z</time>
      </trkpt>
      <trkpt lat="46.01204" lon="6.58097">
        <ele>1929.8000488281</ele>
        <time>2019-02-20T10:20:58.000Z</time>
      </trkpt>
      <trkpt lat="46.01202" lon="6.58096">
        <ele>1930.1999511719</ele>
        <time>2019-02-20T10:21:02.000Z</time>
      </trkpt>
      <trkpt lat="46.012" lon="6.58096">
        <ele>1930.5999755859</ele>
        <time>2019-02-20T10:21:06.000Z</time>
      </trkpt>
      <trkpt lat="46.01198" lon="6.58096">
        <ele>1931.4000244141</ele>
        <time>2019-02-20T10:21:10.000Z</time>
      </trkpt>
      <trkpt lat="46.01197" lon="6.58095">
        <ele>1931.8000488281</ele>
        <time>2019-02-20T10:21:14.000Z</time>
      </trkpt>
      <trkpt lat="46.01195" lon="6.58094">
        <ele>1932.1999511719</ele>
        <time>2019-02-20T10:21:18.000Z</time>
      </trkpt>
      <trkpt lat="46.01193" lon="6.58093">
        <ele>1932.5999755859</ele>
        <time>2019-02-20T10:21:23.000Z</time>
      </trkpt>
      <trkpt lat="46.01191" lon="6.58093">
        <ele>1933.4000244141</ele>
        <time>2019-02-20T10:21:28.000Z</time>
      </trkpt>
      <trkpt lat="46.01188" lon="6.58092">
        <ele>1934</ele>
        <time>2019-02-20T10:21:41.000Z</time>
      </trkpt>
      <trkpt lat="46.01187" lon="6.58091">
        <ele>1934.4000244141</ele>
        <time>2019-02-20T10:21:45.000Z</time>
      </trkpt>
      <trkpt lat="46.01185" lon="6.58091">
        <ele>1934.5999755859</ele>
        <time>2019-02-20T10:21:48.000Z</time>
      </trkpt>
      <trkpt lat="46.01183" lon="6.58091">
        <ele>1935.1999511719</ele>
        <time>2019-02-20T10:21:51.000Z</time>
      </trkpt>
      <trkpt lat="46.01181" lon="6.58091">
        <ele>1935.4000244141</ele>
        <time>2019-02-20T10:21:55.000Z</time>
      </trkpt>
      <trkpt lat="46.01179" lon="6.58092">
        <ele>1935.8000488281</ele>
        <time>2019-02-20T10:21:59.000Z</time>
      </trkpt>
      <trkpt lat="46.01177" lon="6.58093">
        <ele>1936.4000244141</ele>
        <time>2019-02-20T10:22:03.000Z</time>
      </trkpt>
      <trkpt lat="46.01175" lon="6.58094">
        <ele>1937</ele>
        <time>2019-02-20T10:22:07.000Z</time>
      </trkpt>
      <trkpt lat="46.01173" lon="6.58095">
        <ele>1937.4000244141</ele>
        <time>2019-02-20T10:22:11.000Z</time>
      </trkpt>
      <trkpt lat="46.01171" lon="6.58096">
        <ele>1938</ele>
        <time>2019-02-20T10:22:15.000Z</time>
      </trkpt>
      <trkpt lat="46.01169" lon="6.58097">
        <ele>1938.5999755859</ele>
        <time>2019-02-20T10:22:18.000Z</time>
      </trkpt>
      <trkpt lat="46.01167" lon="6.58098">
        <ele>1938.8000488281</ele>
        <time>2019-02-20T10:22:21.000Z</time>
      </trkpt>
      <trkpt lat="46.01165" lon="6.58099">
        <ele>1938.8000488281</ele>
        <time>2019-02-20T10:22:24.000Z</time>
      </trkpt>
      <trkpt lat="46.01163" lon="6.58099">
        <ele>1939</ele>
        <time>2019-02-20T10:22:27.000Z</time>
      </trkpt>
      <trkpt lat="46.01161" lon="6.58099">
        <ele>1939</ele>
        <time>2019-02-20T10:22:30.000Z</time>
      </trkpt>
      <trkpt lat="46.01159" lon="6.58099">
        <ele>1939.1999511719</ele>
        <time>2019-02-20T10:22:34.000Z</time>
      </trkpt>
      <trkpt lat="46.01157" lon="6.58099">
        <ele>1939.5999755859</ele>
        <time>2019-02-20T10:22:38.000Z</time>
      </trkpt>
      <trkpt lat="46.01154" lon="6.58099">
        <ele>1940</ele>
        <time>2019-02-20T10:22:42.000Z</time>
      </trkpt>
      <trkpt lat="46.01152" lon="6.58099">
        <ele>1940.4000244141</ele>
        <time>2019-02-20T10:22:46.000Z</time>
      </trkpt>
      <trkpt lat="46.0115" lon="6.58099">
        <ele>1940.8000488281</ele>
        <time>2019-02-20T10:22:49.000Z</time>
      </trkpt>
      <trkpt lat="46.01148" lon="6.58098">
        <ele>1941.4000244141</ele>
        <time>2019-02-20T10:22:52.000Z</time>
      </trkpt>
      <trkpt lat="46.01146" lon="6.58097">
        <ele>1941.5999755859</ele>
        <time>2019-02-20T10:22:56.000Z</time>
      </trkpt>
      <trkpt lat="46.01144" lon="6.58096">
        <ele>1941.8000488281</ele>
        <time>2019-02-20T10:22:59.000Z</time>
      </trkpt>
      <trkpt lat="46.01142" lon="6.58095">
        <ele>1942</ele>
        <time>2019-02-20T10:23:02.000Z</time>
      </trkpt>
      <trkpt lat="46.0114" lon="6.58094">
        <ele>1942.1999511719</ele>
        <time>2019-02-20T10:23:05.000Z</time>
      </trkpt>
      <trkpt lat="46.01138" lon="6.58093">
        <ele>1942.1999511719</ele>
        <time>2019-02-20T10:23:07.000Z</time>
      </trkpt>
      <trkpt lat="46.01136" lon="6.58092">
        <ele>1942.1999511719</ele>
        <time>2019-02-20T10:23:09.000Z</time>
      </trkpt>
      <trkpt lat="46.01134" lon="6.58092">
        <ele>1942</ele>
        <time>2019-02-20T10:23:11.000Z</time>
      </trkpt>
      <trkpt lat="46.01131" lon="6.58092">
        <ele>1941.4000244141</ele>
        <time>2019-02-20T10:23:14.000Z</time>
      </trkpt>
      <trkpt lat="46.01129" lon="6.58091">
        <ele>1941.4000244141</ele>
        <time>2019-02-20T10:23:17.000Z</time>
      </trkpt>
      <trkpt lat="46.01127" lon="6.58092">
        <ele>1941.4000244141</ele>
        <time>2019-02-20T10:23:20.000Z</time>
      </trkpt>
      <trkpt lat="46.01126" lon="6.58093">
        <ele>1941.4000244141</ele>
        <time>2019-02-20T10:23:23.000Z</time>
      </trkpt>
      <trkpt lat="46.01124" lon="6.58094">
        <ele>1941.8000488281</ele>
        <time>2019-02-20T10:23:27.000Z</time>
      </trkpt>
      <trkpt lat="46.01122" lon="6.58096">
        <ele>1942.5999755859</ele>
        <time>2019-02-20T10:23:31.000Z</time>
      </trkpt>
      <trkpt lat="46.01121" lon="6.58098">
        <ele>1943.1999511719</ele>
        <time>2019-02-20T10:23:35.000Z</time>
      </trkpt>
      <trkpt lat="46.01119" lon="6.581">
        <ele>1943.5999755859</ele>
        <time>2019-02-20T10:23:39.000Z</time>
      </trkpt>
      <trkpt lat="46.01118" lon="6.58102">
        <ele>1944</ele>
        <time>2019-02-20T10:23:43.000Z</time>
      </trkpt>
      <trkpt lat="46.01117" lon="6.58104">
        <ele>1944.4000244141</ele>
        <time>2019-02-20T10:23:47.000Z</time>
      </trkpt>
      <trkpt lat="46.01116" lon="6.58106">
        <ele>1944.8000488281</ele>
        <time>2019-02-20T10:23:51.000Z</time>
      </trkpt>
      <trkpt lat="46.01115" lon="6.58108">
        <ele>1945</ele>
        <time>2019-02-20T10:23:55.000Z</time>
      </trkpt>
      <trkpt lat="46.01113" lon="6.5811">
        <ele>1945.5995771191</ele>
        <time>2019-02-20T10:23:59.000Z</time>
      </trkpt>
      <trkpt lat="46.01112" lon="6.58112">
        <ele>1946.4000244141</ele>
        <time>2019-02-20T10:24:03.000Z</time>
      </trkpt>
      <trkpt lat="46.01111" lon="6.58115">
        <ele>1946.5999755859</ele>
        <time>2019-02-20T10:24:07.000Z</time>
      </trkpt>
      <trkpt lat="46.0111" lon="6.58116">
        <ele>1947.5999755859</ele>
        <time>2019-02-20T10:24:13.000Z</time>
      </trkpt>
      <trkpt lat="46.01109" lon="6.58119">
        <ele>1947.8000488281</ele>
        <time>2019-02-20T10:24:17.000Z</time>
      </trkpt>
      <trkpt lat="46.01107" lon="6.58121">
        <ele>1948.4000244141</ele>
        <time>2019-02-20T10:24:21.000Z</time>
      </trkpt>
      <trkpt lat="46.01106" lon="6.58123">
        <ele>1948.5999755859</ele>
        <time>2019-02-20T10:24:25.000Z</time>
      </trkpt>
      <trkpt lat="46.01105" lon="6.58126">
        <ele>1949.1999511719</ele>
        <time>2019-02-20T10:24:29.000Z</time>
      </trkpt>
      <trkpt lat="46.01103" lon="6.58128">
        <ele>1949.8000488281</ele>
        <time>2019-02-20T10:24:34.000Z</time>
      </trkpt>
      <trkpt lat="46.01101" lon="6.58129">
        <ele>1950</ele>
        <time>2019-02-20T10:24:38.000Z</time>
      </trkpt>
      <trkpt lat="46.01099" lon="6.58127">
        <ele>1950.1999511719</ele>
        <time>2019-02-20T10:24:42.000Z</time>
      </trkpt>
      <trkpt lat="46.01098" lon="6.58125">
        <ele>1951</ele>
        <time>2019-02-20T10:24:47.000Z</time>
      </trkpt>
      <trkpt lat="46.01096" lon="6.58127">
        <ele>1952.1999511719</ele>
        <time>2019-02-20T10:24:52.000Z</time>
      </trkpt>
      <trkpt lat="46.01095" lon="6.58129">
        <ele>1952.4000244141</ele>
        <time>2019-02-20T10:24:56.000Z</time>
      </trkpt>
      <trkpt lat="46.01094" lon="6.58132">
        <ele>1952.8000488281</ele>
        <time>2019-02-20T10:25:01.000Z</time>
      </trkpt>
      <trkpt lat="46.01093" lon="6.58134">
        <ele>1953.4000244141</ele>
        <time>2019-02-20T10:25:05.000Z</time>
      </trkpt>
      <trkpt lat="46.01092" lon="6.58136">
        <ele>1954.1999511719</ele>
        <time>2019-02-20T10:25:10.000Z</time>
      </trkpt>
      <trkpt lat="46.0109" lon="6.58139">
        <ele>1955</ele>
        <time>2019-02-20T10:25:15.000Z</time>
      </trkpt>
      <trkpt lat="46.01089" lon="6.58141">
        <ele>1955.1999511719</ele>
        <time>2019-02-20T10:25:19.000Z</time>
      </trkpt>
      <trkpt lat="46.01088" lon="6.58143">
        <ele>1955.8000488281</ele>
        <time>2019-02-20T10:25:23.000Z</time>
      </trkpt>
      <trkpt lat="46.01087" lon="6.58145">
        <ele>1956.8000488281</ele>
        <time>2019-02-20T10:25:29.000Z</time>
      </trkpt>
      <trkpt lat="46.01085" lon="6.58148">
        <ele>1957.5999755859</ele>
        <time>2019-02-20T10:25:34.000Z</time>
      </trkpt>
      <trkpt lat="46.01084" lon="6.58151">
        <ele>1957.8000488281</ele>
        <time>2019-02-20T10:25:39.000Z</time>
      </trkpt>
      <trkpt lat="46.01084" lon="6.58153">
        <ele>1958.4000244141</ele>
        <time>2019-02-20T10:25:44.000Z</time>
      </trkpt>
      <trkpt lat="46.01083" lon="6.58156">
        <ele>1958.8000488281</ele>
        <time>2019-02-20T10:25:49.000Z</time>
      </trkpt>
      <trkpt lat="46.01082" lon="6.58159">
        <ele>1959.4000244141</ele>
        <time>2019-02-20T10:25:54.000Z</time>
      </trkpt>
      <trkpt lat="46.0108" lon="6.58158">
        <ele>1960.4000244141</ele>
        <time>2019-02-20T10:26:01.000Z</time>
      </trkpt>
      <trkpt lat="46.01079" lon="6.58156">
        <ele>1961</ele>
        <time>2019-02-20T10:26:06.000Z</time>
      </trkpt>
      <trkpt lat="46.01078" lon="6.58153">
        <ele>1961.8000488281</ele>
        <time>2019-02-20T10:26:11.000Z</time>
      </trkpt>
      <trkpt lat="46.01078" lon="6.5815">
        <ele>1962.4000244141</ele>
        <time>2019-02-20T10:26:15.000Z</time>
      </trkpt>
      <trkpt lat="46.01077" lon="6.58147">
        <ele>1963</ele>
        <time>2019-02-20T10:26:20.000Z</time>
      </trkpt>
      <trkpt lat="46.01076" lon="6.58144">
        <ele>1963.4000244141</ele>
        <time>2019-02-20T10:26:24.000Z</time>
      </trkpt>
      <trkpt lat="46.01076" lon="6.58142">
        <ele>1963.5999755859</ele>
        <time>2019-02-20T10:26:28.000Z</time>
      </trkpt>
      <trkpt lat="46.01075" lon="6.58139">
        <ele>1964</ele>
        <time>2019-02-20T10:26:33.000Z</time>
      </trkpt>
      <trkpt lat="46.01075" lon="6.58136">
        <ele>1964.8000488281</ele>
        <time>2019-02-20T10:26:38.000Z</time>
      </trkpt>
      <trkpt lat="46.01074" lon="6.58133">
        <ele>1965.4000244141</ele>
        <time>2019-02-20T10:26:43.000Z</time>
      </trkpt>
      <trkpt lat="46.01073" lon="6.5813">
        <ele>1966.1999511719</ele>
        <time>2019-02-20T10:26:48.000Z</time>
      </trkpt>
      <trkpt lat="46.01072" lon="6.58128">
        <ele>1966.5999755859</ele>
        <time>2019-02-20T10:26:53.000Z</time>
      </trkpt>
      <trkpt lat="46.01071" lon="6.58125">
        <ele>1966.8000488281</ele>
        <time>2019-02-20T10:26:58.000Z</time>
      </trkpt>
      <trkpt lat="46.0107" lon="6.58123">
        <ele>1967.8000488281</ele>
        <time>2019-02-20T10:27:03.000Z</time>
      </trkpt>
      <trkpt lat="46.01068" lon="6.58122">
        <ele>1968.1999511719</ele>
        <time>2019-02-20T10:27:08.000Z</time>
      </trkpt>
      <trkpt lat="46.01067" lon="6.5812">
        <ele>1968.5999755859</ele>
        <time>2019-02-20T10:27:13.000Z</time>
      </trkpt>
      <trkpt lat="46.01065" lon="6.58119">
        <ele>1969.1999511719</ele>
        <time>2019-02-20T10:27:18.000Z</time>
      </trkpt>
      <trkpt lat="46.01064" lon="6.58117">
        <ele>1969.5995771191</ele>
        <time>2019-02-20T10:27:23.000Z</time>
      </trkpt>
      <trkpt lat="46.01061" lon="6.58116">
        <ele>1970.1999511719</ele>
        <time>2019-02-20T10:27:29.000Z</time>
      </trkpt>
      <trkpt lat="46.01059" lon="6.58116">
        <ele>1970.5999755859</ele>
        <time>2019-02-20T10:27:34.000Z</time>
      </trkpt>
      <trkpt lat="46.01057" lon="6.58117">
        <ele>1971</ele>
        <time>2019-02-20T10:27:39.000Z</time>
      </trkpt>
      <trkpt lat="46.01055" lon="6.58119">
        <ele>1971.4000244141</ele>
        <time>2019-02-20T10:27:44.000Z</time>
      </trkpt>
      <trkpt lat="46.01054" lon="6.58121">
        <ele>1972</ele>
        <time>2019-02-20T10:27:49.000Z</time>
      </trkpt>
      <trkpt lat="46.01053" lon="6.58123">
        <ele>1972.4000244141</ele>
        <time>2019-02-20T10:27:54.000Z</time>
      </trkpt>
      <trkpt lat="46.01052" lon="6.58126">
        <ele>1973</ele>
        <time>2019-02-20T10:27:59.000Z</time>
      </trkpt>
      <trkpt lat="46.01051" lon="6.58128">
        <ele>1973</ele>
        <time>2019-02-20T10:28:03.000Z</time>
      </trkpt>
      <trkpt lat="46.0105" lon="6.58131">
        <ele>1973.5999755859</ele>
        <time>2019-02-20T10:28:07.000Z</time>
      </trkpt>
      <trkpt lat="46.01049" lon="6.58134">
        <ele>1974</ele>
        <time>2019-02-20T10:28:12.000Z</time>
      </trkpt>
      <trkpt lat="46.01048" lon="6.58136">
        <ele>1974.5999755859</ele>
        <time>2019-02-20T10:28:16.000Z</time>
      </trkpt>
      <trkpt lat="46.01047" lon="6.58139">
        <ele>1975</ele>
        <time>2019-02-20T10:28:21.000Z</time>
      </trkpt>
      <trkpt lat="46.01046" lon="6.58141">
        <ele>1975.1999511719</ele>
        <time>2019-02-20T10:28:25.000Z</time>
      </trkpt>
      <trkpt lat="46.01045" lon="6.58143">
        <ele>1975.8000488281</ele>
        <time>2019-02-20T10:28:29.000Z</time>
      </trkpt>
      <trkpt lat="46.01044" lon="6.58146">
        <ele>1976.1999511719</ele>
        <time>2019-02-20T10:28:33.000Z</time>
      </trkpt>
      <trkpt lat="46.01042" lon="6.58148">
        <ele>1977</ele>
        <time>2019-02-20T10:28:37.000Z</time>
      </trkpt>
      <trkpt lat="46.01041" lon="6.58151">
        <ele>1977.4000244141</ele>
        <time>2019-02-20T10:28:42.000Z</time>
      </trkpt>
      <trkpt lat="46.0104" lon="6.58152">
        <ele>1977.5999755859</ele>
        <time>2019-02-20T10:28:45.000Z</time>
      </trkpt>
      <trkpt lat="46.01038" lon="6.58155">
        <ele>1978</ele>
        <time>2019-02-20T10:28:49.000Z</time>
      </trkpt>
      <trkpt lat="46.01036" lon="6.58157">
        <ele>1978.1999511719</ele>
        <time>2019-02-20T10:28:53.000Z</time>
      </trkpt>
      <trkpt lat="46.01035" lon="6.5816">
        <ele>1978.5999755859</ele>
        <time>2019-02-20T10:28:57.000Z</time>
      </trkpt>
      <trkpt lat="46.01033" lon="6.58162">
        <ele>1978.8000488281</ele>
        <time>2019-02-20T10:29:01.000Z</time>
      </trkpt>
      <trkpt lat="46.01032" lon="6.58164">
        <ele>1979.5995765999</ele>
        <time>2019-02-20T10:29:05.000Z</time>
      </trkpt>
      <trkpt lat="46.0103" lon="6.58166">
        <ele>1980</ele>
        <time>2019-02-20T10:29:09.000Z</time>
      </trkpt>
      <trkpt lat="46.01029" lon="6.58168">
        <ele>1980.1999511719</ele>
        <time>2019-02-20T10:29:13.000Z</time>
      </trkpt>
      <trkpt lat="46.01028" lon="6.58171">
        <ele>1980.5999755859</ele>
        <time>2019-02-20T10:29:17.000Z</time>
      </trkpt>
      <trkpt lat="46.01027" lon="6.58173">
        <ele>1981.1999511719</ele>
        <time>2019-02-20T10:29:21.000Z</time>
      </trkpt>
      <trkpt lat="46.01025" lon="6.58175">
        <ele>1981.4000244141</ele>
        <time>2019-02-20T10:29:25.000Z</time>
      </trkpt>
      <trkpt lat="46.01024" lon="6.58177">
        <ele>1981.8000488281</ele>
        <time>2019-02-20T10:29:29.000Z</time>
      </trkpt>
      <trkpt lat="46.01022" lon="6.58179">
        <ele>1982.5999755859</ele>
        <time>2019-02-20T10:29:33.000Z</time>
      </trkpt>
      <trkpt lat="46.01021" lon="6.58181">
        <ele>1983</ele>
        <time>2019-02-20T10:29:37.000Z</time>
      </trkpt>
      <trkpt lat="46.01019" lon="6.58183">
        <ele>1983</ele>
        <time>2019-02-20T10:29:41.000Z</time>
      </trkpt>
      <trkpt lat="46.01018" lon="6.58186">
        <ele>1983.4000244141</ele>
        <time>2019-02-20T10:29:45.000Z</time>
      </trkpt>
      <trkpt lat="46.01017" lon="6.58188">
        <ele>1983.5999755859</ele>
        <time>2019-02-20T10:29:49.000Z</time>
      </trkpt>
      <trkpt lat="46.01016" lon="6.5819">
        <ele>1983.8000488281</ele>
        <time>2019-02-20T10:29:52.000Z</time>
      </trkpt>
      <trkpt lat="46.01014" lon="6.58193">
        <ele>1984.1997517397</ele>
        <time>2019-02-20T10:29:56.000Z</time>
      </trkpt>
      <trkpt lat="46.01013" lon="6.58195">
        <ele>1984.5999755859</ele>
        <time>2019-02-20T10:30:00.000Z</time>
      </trkpt>
      <trkpt lat="46.01012" lon="6.58198">
        <ele>1985.4000244141</ele>
        <time>2019-02-20T10:30:05.000Z</time>
      </trkpt>
      <trkpt lat="46.01011" lon="6.582">
        <ele>1986</ele>
        <time>2019-02-20T10:30:10.000Z</time>
      </trkpt>
      <trkpt lat="46.01009" lon="6.58202">
        <ele>1986.5999755859</ele>
        <time>2019-02-20T10:30:15.000Z</time>
      </trkpt>
      <trkpt lat="46.01007" lon="6.58203">
        <ele>1987.4000244141</ele>
        <time>2019-02-20T10:30:20.000Z</time>
      </trkpt>
      <trkpt lat="46.01005" lon="6.58205">
        <ele>1988</ele>
        <time>2019-02-20T10:30:24.000Z</time>
      </trkpt>
      <trkpt lat="46.01004" lon="6.58207">
        <ele>1988.5999755859</ele>
        <time>2019-02-20T10:30:29.000Z</time>
      </trkpt>
      <trkpt lat="46.01002" lon="6.58208">
        <ele>1989.4000244141</ele>
        <time>2019-02-20T10:30:34.000Z</time>
      </trkpt>
      <trkpt lat="46.01" lon="6.5821">
        <ele>1990</ele>
        <time>2019-02-20T10:30:38.000Z</time>
      </trkpt>
      <trkpt lat="46.00999" lon="6.58212">
        <ele>1990.8000488281</ele>
        <time>2019-02-20T10:30:43.000Z</time>
      </trkpt>
      <trkpt lat="46.00997" lon="6.58214">
        <ele>1991.5999755859</ele>
        <time>2019-02-20T10:30:48.000Z</time>
      </trkpt>
      <trkpt lat="46.00996" lon="6.58216">
        <ele>1992</ele>
        <time>2019-02-20T10:30:53.000Z</time>
      </trkpt>
      <trkpt lat="46.00994" lon="6.58218">
        <ele>1992.5999755859</ele>
        <time>2019-02-20T10:30:58.000Z</time>
      </trkpt>
      <trkpt lat="46.00992" lon="6.58219">
        <ele>1993.1999511719</ele>
        <time>2019-02-20T10:31:03.000Z</time>
      </trkpt>
      <trkpt lat="46.00991" lon="6.58221">
        <ele>1993.4000244141</ele>
        <time>2019-02-20T10:31:08.000Z</time>
      </trkpt>
      <trkpt lat="46.00989" lon="6.58222">
        <ele>1994.8000488281</ele>
        <time>2019-02-20T10:31:14.000Z</time>
      </trkpt>
      <trkpt lat="46.00987" lon="6.58224">
        <ele>1995.1999511719</ele>
        <time>2019-02-20T10:31:19.000Z</time>
      </trkpt>
      <trkpt lat="46.00985" lon="6.58226">
        <ele>1996</ele>
        <time>2019-02-20T10:31:24.000Z</time>
      </trkpt>
      <trkpt lat="46.00984" lon="6.58227">
        <ele>1996.4000244141</ele>
        <time>2019-02-20T10:31:28.000Z</time>
      </trkpt>
      <trkpt lat="46.00982" lon="6.58228">
        <ele>1996.8000488281</ele>
        <time>2019-02-20T10:31:33.000Z</time>
      </trkpt>
      <trkpt lat="46.0098" lon="6.58229">
        <ele>1997.4000244141</ele>
        <time>2019-02-20T10:31:38.000Z</time>
      </trkpt>
      <trkpt lat="46.00978" lon="6.5823">
        <ele>1998.1999511719</ele>
        <time>2019-02-20T10:31:43.000Z</time>
      </trkpt>
      <trkpt lat="46.00976" lon="6.58231">
        <ele>1999</ele>
        <time>2019-02-20T10:31:47.000Z</time>
      </trkpt>
      <trkpt lat="46.00974" lon="6.58232">
        <ele>1999</ele>
        <time>2019-02-20T10:31:52.000Z</time>
      </trkpt>
      <trkpt lat="46.00972" lon="6.58233">
        <ele>1999.5999755859</ele>
        <time>2019-02-20T10:31:56.000Z</time>
      </trkpt>
      <trkpt lat="46.0097" lon="6.58234">
        <ele>2000.4000244141</ele>
        <time>2019-02-20T10:32:00.000Z</time>
      </trkpt>
      <trkpt lat="46.00968" lon="6.58235">
        <ele>2000.8000488281</ele>
        <time>2019-02-20T10:32:06.000Z</time>
      </trkpt>
      <trkpt lat="46.00966" lon="6.58235">
        <ele>2001.4000244141</ele>
        <time>2019-02-20T10:32:11.000Z</time>
      </trkpt>
      <trkpt lat="46.00964" lon="6.58236">
        <ele>2002</ele>
        <time>2019-02-20T10:32:16.000Z</time>
      </trkpt>
      <trkpt lat="46.00962" lon="6.58236">
        <ele>2002.4000244141</ele>
        <time>2019-02-20T10:32:21.000Z</time>
      </trkpt>
      <trkpt lat="46.0096" lon="6.58236">
        <ele>2003.1999511719</ele>
        <time>2019-02-20T10:32:28.000Z</time>
      </trkpt>
      <trkpt lat="46.00958" lon="6.58235">
        <ele>2004</ele>
        <time>2019-02-20T10:32:34.000Z</time>
      </trkpt>
      <trkpt lat="46.00956" lon="6.58235">
        <ele>2004.1999511719</ele>
        <time>2019-02-20T10:32:38.000Z</time>
      </trkpt>
      <trkpt lat="46.00954" lon="6.58234">
        <ele>2005</ele>
        <time>2019-02-20T10:32:42.000Z</time>
      </trkpt>
      <trkpt lat="46.00953" lon="6.58232">
        <ele>2005.5999755859</ele>
        <time>2019-02-20T10:32:47.000Z</time>
      </trkpt>
      <trkpt lat="46.00951" lon="6.5823">
        <ele>2006.4000244141</ele>
        <time>2019-02-20T10:32:52.000Z</time>
      </trkpt>
      <trkpt lat="46.00949" lon="6.58229">
        <ele>2006.8000488281</ele>
        <time>2019-02-20T10:32:56.000Z</time>
      </trkpt>
      <trkpt lat="46.00947" lon="6.58227">
        <ele>2007</ele>
        <time>2019-02-20T10:33:01.000Z</time>
      </trkpt>
      <trkpt lat="46.00946" lon="6.58225">
        <ele>2007.5999755859</ele>
        <time>2019-02-20T10:33:05.000Z</time>
      </trkpt>
      <trkpt lat="46.00944" lon="6.58224">
        <ele>2008</ele>
        <time>2019-02-20T10:33:10.000Z</time>
      </trkpt>
      <trkpt lat="46.00943" lon="6.58222">
        <ele>2008.5999755859</ele>
        <time>2019-02-20T10:33:15.000Z</time>
      </trkpt>
      <trkpt lat="46.00942" lon="6.5822">
        <ele>2009</ele>
        <time>2019-02-20T10:33:19.000Z</time>
      </trkpt>
      <trkpt lat="46.0094" lon="6.58218">
        <ele>2009.1999511719</ele>
        <time>2019-02-20T10:33:24.000Z</time>
      </trkpt>
      <trkpt lat="46.00938" lon="6.58216">
        <ele>2009.8000488281</ele>
        <time>2019-02-20T10:33:29.000Z</time>
      </trkpt>
      <trkpt lat="46.00936" lon="6.58215">
        <ele>2010.4000244141</ele>
        <time>2019-02-20T10:33:33.000Z</time>
      </trkpt>
      <trkpt lat="46.00935" lon="6.58214">
        <ele>2010.4000244141</ele>
        <time>2019-02-20T10:33:38.000Z</time>
      </trkpt>
      <trkpt lat="46.00934" lon="6.58212">
        <ele>2011.1999511719</ele>
        <time>2019-02-20T10:33:45.000Z</time>
      </trkpt>
      <trkpt lat="46.00932" lon="6.5821">
        <ele>2011.1999511719</ele>
        <time>2019-02-20T10:33:50.000Z</time>
      </trkpt>
      <trkpt lat="46.0093" lon="6.58208">
        <ele>2011.5999755859</ele>
        <time>2019-02-20T10:33:54.000Z</time>
      </trkpt>
      <trkpt lat="46.00929" lon="6.58206">
        <ele>2012</ele>
        <time>2019-02-20T10:33:58.000Z</time>
      </trkpt>
      <trkpt lat="46.00927" lon="6.58204">
        <ele>2012.4000244141</ele>
        <time>2019-02-20T10:34:02.000Z</time>
      </trkpt>
      <trkpt lat="46.00926" lon="6.58202">
        <ele>2012.5999755859</ele>
        <time>2019-02-20T10:34:06.000Z</time>
      </trkpt>
      <trkpt lat="46.00924" lon="6.58199">
        <ele>2012.8000488281</ele>
        <time>2019-02-20T10:34:10.000Z</time>
      </trkpt>
      <trkpt lat="46.00923" lon="6.58197">
        <ele>2013.1999511719</ele>
        <time>2019-02-20T10:34:14.000Z</time>
      </trkpt>
      <trkpt lat="46.00922" lon="6.58194">
        <ele>2013.5999755859</ele>
        <time>2019-02-20T10:34:17.000Z</time>
      </trkpt>
      <trkpt lat="46.00921" lon="6.58191">
        <ele>2013.4000244141</ele>
        <time>2019-02-20T10:34:21.000Z</time>
      </trkpt>
      <trkpt lat="46.00921" lon="6.58189">
        <ele>2013.8000488281</ele>
        <time>2019-02-20T10:34:25.000Z</time>
      </trkpt>
      <trkpt lat="46.0092" lon="6.58186">
        <ele>2014</ele>
        <time>2019-02-20T10:35:08.000Z</time>
      </trkpt>
      <trkpt lat="46.0092" lon="6.58183">
        <ele>2014</ele>
        <time>2019-02-20T10:35:12.000Z</time>
      </trkpt>
      <trkpt lat="46.00919" lon="6.5818">
        <ele>2014.1999511719</ele>
        <time>2019-02-20T10:35:18.000Z</time>
      </trkpt>
      <trkpt lat="46.00919" lon="6.58178">
        <ele>2014.5999755859</ele>
        <time>2019-02-20T10:35:21.000Z</time>
      </trkpt>
      <trkpt lat="46.00918" lon="6.58175">
        <ele>2015</ele>
        <time>2019-02-20T10:35:26.000Z</time>
      </trkpt>
      <trkpt lat="46.00917" lon="6.58172">
        <ele>2015.4000244141</ele>
        <time>2019-02-20T10:35:29.000Z</time>
      </trkpt>
      <trkpt lat="46.00917" lon="6.58169">
        <ele>2015.4000244141</ele>
        <time>2019-02-20T10:35:32.000Z</time>
      </trkpt>
      <trkpt lat="46.00917" lon="6.58165">
        <ele>2015</ele>
        <time>2019-02-20T10:35:35.000Z</time>
      </trkpt>
      <trkpt lat="46.00916" lon="6.58162">
        <ele>2014.8000488281</ele>
        <time>2019-02-20T10:35:38.000Z</time>
      </trkpt>
      <trkpt lat="46.00916" lon="6.58159">
        <ele>2014.8000488281</ele>
        <time>2019-02-20T10:35:41.000Z</time>
      </trkpt>
      <trkpt lat="46.00916" lon="6.58155">
        <ele>2015</ele>
        <time>2019-02-20T10:35:44.000Z</time>
      </trkpt>
      <trkpt lat="46.00917" lon="6.58151">
        <ele>2015</ele>
        <time>2019-02-20T10:35:47.000Z</time>
      </trkpt>
      <trkpt lat="46.00917" lon="6.58148">
        <ele>2015.4000244141</ele>
        <time>2019-02-20T10:35:50.000Z</time>
      </trkpt>
      <trkpt lat="46.00918" lon="6.58146">
        <ele>2015</ele>
        <time>2019-02-20T10:35:53.000Z</time>
      </trkpt>
      <trkpt lat="46.00919" lon="6.58143">
        <ele>2015.4000244141</ele>
        <time>2019-02-20T10:35:57.000Z</time>
      </trkpt>
      <trkpt lat="46.0092" lon="6.5814">
        <ele>2015.5999755859</ele>
        <time>2019-02-20T10:36:00.000Z</time>
      </trkpt>
      <trkpt lat="46.00921" lon="6.58137">
        <ele>2015.8000488281</ele>
        <time>2019-02-20T10:36:03.000Z</time>
      </trkpt>
      <trkpt lat="46.00921" lon="6.58134">
        <ele>2016</ele>
        <time>2019-02-20T10:36:06.000Z</time>
      </trkpt>
      <trkpt lat="46.00922" lon="6.58132">
        <ele>2016</ele>
        <time>2019-02-20T10:36:09.000Z</time>
      </trkpt>
      <trkpt lat="46.00923" lon="6.58129">
        <ele>2016.5999755859</ele>
        <time>2019-02-20T10:36:12.000Z</time>
      </trkpt>
      <trkpt lat="46.00924" lon="6.58126">
        <ele>2016.4000244141</ele>
        <time>2019-02-20T10:36:15.000Z</time>
      </trkpt>
      <trkpt lat="46.00924" lon="6.58123">
        <ele>2016.5999755859</ele>
        <time>2019-02-20T10:36:18.000Z</time>
      </trkpt>
      <trkpt lat="46.00925" lon="6.58121">
        <ele>2016.5999755859</ele>
        <time>2019-02-20T10:36:22.000Z</time>
      </trkpt>
      <trkpt lat="46.00926" lon="6.58119">
        <ele>2016.8000488281</ele>
        <time>2019-02-20T10:36:25.000Z</time>
      </trkpt>
      <trkpt lat="46.00927" lon="6.58116">
        <ele>2016.5999755859</ele>
        <time>2019-02-20T10:36:28.000Z</time>
      </trkpt>
      <trkpt lat="46.00928" lon="6.58113">
        <ele>2017.1999511719</ele>
        <time>2019-02-20T10:36:31.000Z</time>
      </trkpt>
      <trkpt lat="46.00929" lon="6.58111">
        <ele>2017.4000244141</ele>
        <time>2019-02-20T10:36:35.000Z</time>
      </trkpt>
      <trkpt lat="46.0093" lon="6.58108">
        <ele>2017.4000244141</ele>
        <time>2019-02-20T10:36:38.000Z</time>
      </trkpt>
      <trkpt lat="46.00931" lon="6.58105">
        <ele>2017.4000244141</ele>
        <time>2019-02-20T10:36:42.000Z</time>
      </trkpt>
      <trkpt lat="46.00932" lon="6.58102">
        <ele>2017.5999755859</ele>
        <time>2019-02-20T10:36:45.000Z</time>
      </trkpt>
      <trkpt lat="46.00933" lon="6.58098">
        <ele>2017.1999511719</ele>
        <time>2019-02-20T10:36:48.000Z</time>
      </trkpt>
      <trkpt lat="46.00934" lon="6.58096">
        <ele>2017.4000244141</ele>
        <time>2019-02-20T10:36:51.000Z</time>
      </trkpt>
      <trkpt lat="46.00935" lon="6.58093">
        <ele>2017.5999755859</ele>
        <time>2019-02-20T10:36:54.000Z</time>
      </trkpt>
      <trkpt lat="46.00935" lon="6.5809">
        <ele>2017.5999755859</ele>
        <time>2019-02-20T10:36:57.000Z</time>
      </trkpt>
      <trkpt lat="46.00936" lon="6.58087">
        <ele>2018</ele>
        <time>2019-02-20T10:37:00.000Z</time>
      </trkpt>
      <trkpt lat="46.00937" lon="6.58084">
        <ele>2017.5999755859</ele>
        <time>2019-02-20T10:37:03.000Z</time>
      </trkpt>
      <trkpt lat="46.00938" lon="6.58081">
        <ele>2018</ele>
        <time>2019-02-20T10:37:06.000Z</time>
      </trkpt>
      <trkpt lat="46.00939" lon="6.58078">
        <ele>2017.5999755859</ele>
        <time>2019-02-20T10:37:09.000Z</time>
      </trkpt>
      <trkpt lat="46.0094" lon="6.58075">
        <ele>2017.4000244141</ele>
        <time>2019-02-20T10:37:12.000Z</time>
      </trkpt>
      <trkpt lat="46.0094" lon="6.58072">
        <ele>2017.8000488281</ele>
        <time>2019-02-20T10:37:15.000Z</time>
      </trkpt>
      <trkpt lat="46.00941" lon="6.5807">
        <ele>2017.4000244141</ele>
        <time>2019-02-20T10:37:18.000Z</time>
      </trkpt>
      <trkpt lat="46.00942" lon="6.58068">
        <ele>2017.8000488281</ele>
        <time>2019-02-20T10:37:21.000Z</time>
      </trkpt>
      <trkpt lat="46.00943" lon="6.58065">
        <ele>2018</ele>
        <time>2019-02-20T10:37:24.000Z</time>
      </trkpt>
      <trkpt lat="46.00943" lon="6.58062">
        <ele>2017.5999755859</ele>
        <time>2019-02-20T10:37:27.000Z</time>
      </trkpt>
      <trkpt lat="46.00944" lon="6.58059">
        <ele>2017.5999755859</ele>
        <time>2019-02-20T10:37:30.000Z</time>
      </trkpt>
      <trkpt lat="46.00945" lon="6.58056">
        <ele>2018</ele>
        <time>2019-02-20T10:37:34.000Z</time>
      </trkpt>
      <trkpt lat="46.00946" lon="6.58053">
        <ele>2018</ele>
        <time>2019-02-20T10:37:37.000Z</time>
      </trkpt>
      <trkpt lat="46.00947" lon="6.58051">
        <ele>2018.1999511719</ele>
        <time>2019-02-20T10:37:41.000Z</time>
      </trkpt>
      <trkpt lat="46.00948" lon="6.58048">
        <ele>2018.5999755859</ele>
        <time>2019-02-20T10:37:45.000Z</time>
      </trkpt>
      <trkpt lat="46.00949" lon="6.58045">
        <ele>2018.8000488281</ele>
        <time>2019-02-20T10:37:49.000Z</time>
      </trkpt>
      <trkpt lat="46.0095" lon="6.58042">
        <ele>2018.4000244141</ele>
        <time>2019-02-20T10:37:52.000Z</time>
      </trkpt>
      <trkpt lat="46.0095" lon="6.5804">
        <ele>2018.4000244141</ele>
        <time>2019-02-20T10:37:55.000Z</time>
      </trkpt>
      <trkpt lat="46.00951" lon="6.58037">
        <ele>2018.1999511719</ele>
        <time>2019-02-20T10:37:58.000Z</time>
      </trkpt>
      <trkpt lat="46.00951" lon="6.58034">
        <ele>2018.8000488281</ele>
        <time>2019-02-20T10:38:01.000Z</time>
      </trkpt>
      <trkpt lat="46.00952" lon="6.58031">
        <ele>2019</ele>
        <time>2019-02-20T10:38:05.000Z</time>
      </trkpt>
      <trkpt lat="46.00953" lon="6.58028">
        <ele>2019.5999755859</ele>
        <time>2019-02-20T10:38:09.000Z</time>
      </trkpt>
      <trkpt lat="46.00954" lon="6.58025">
        <ele>2019.5999755859</ele>
        <time>2019-02-20T10:38:12.000Z</time>
      </trkpt>
      <trkpt lat="46.00954" lon="6.58022">
        <ele>2020</ele>
        <time>2019-02-20T10:38:15.000Z</time>
      </trkpt>
      <trkpt lat="46.00955" lon="6.5802">
        <ele>2020</ele>
        <time>2019-02-20T10:38:18.000Z</time>
      </trkpt>
      <trkpt lat="46.00955" lon="6.58017">
        <ele>2019.5999755859</ele>
        <time>2019-02-20T10:38:21.000Z</time>
      </trkpt>
      <trkpt lat="46.00956" lon="6.58014">
        <ele>2019.4000244141</ele>
        <time>2019-02-20T10:38:25.000Z</time>
      </trkpt>
      <trkpt lat="46.00957" lon="6.58011">
        <ele>2019.5999755859</ele>
        <time>2019-02-20T10:38:29.000Z</time>
      </trkpt>
      <trkpt lat="46.00957" lon="6.58008">
        <ele>2019.8000488281</ele>
        <time>2019-02-20T10:38:32.000Z</time>
      </trkpt>
      <trkpt lat="46.00958" lon="6.58005">
        <ele>2019.5999755859</ele>
        <time>2019-02-20T10:38:36.000Z</time>
      </trkpt>
      <trkpt lat="46.00959" lon="6.58002">
        <ele>2020</ele>
        <time>2019-02-20T10:38:40.000Z</time>
      </trkpt>
      <trkpt lat="46.00959" lon="6.57999">
        <ele>2020</ele>
        <time>2019-02-20T10:38:43.000Z</time>
      </trkpt>
      <trkpt lat="46.0096" lon="6.57996">
        <ele>2020.1999511719</ele>
        <time>2019-02-20T10:38:46.000Z</time>
      </trkpt>
      <trkpt lat="46.00961" lon="6.57993">
        <ele>2020.1999511719</ele>
        <time>2019-02-20T10:38:49.000Z</time>
      </trkpt>
      <trkpt lat="46.00961" lon="6.57991">
        <ele>2020.5999755859</ele>
        <time>2019-02-20T10:38:52.000Z</time>
      </trkpt>
      <trkpt lat="46.00962" lon="6.57988">
        <ele>2020.5999755859</ele>
        <time>2019-02-20T10:38:55.000Z</time>
      </trkpt>
      <trkpt lat="46.00963" lon="6.57985">
        <ele>2020.8000488281</ele>
        <time>2019-02-20T10:38:59.000Z</time>
      </trkpt>
      <trkpt lat="46.00964" lon="6.57982">
        <ele>2021.1999511719</ele>
        <time>2019-02-20T10:39:03.000Z</time>
      </trkpt>
      <trkpt lat="46.00965" lon="6.5798">
        <ele>2021.1999511719</ele>
        <time>2019-02-20T10:39:06.000Z</time>
      </trkpt>
      <trkpt lat="46.00966" lon="6.57977">
        <ele>2021.5999755859</ele>
        <time>2019-02-20T10:39:10.000Z</time>
      </trkpt>
      <trkpt lat="46.00966" lon="6.57974">
        <ele>2021.1999511719</ele>
        <time>2019-02-20T10:39:13.000Z</time>
      </trkpt>
      <trkpt lat="46.00967" lon="6.57971">
        <ele>2021.5999755859</ele>
        <time>2019-02-20T10:39:16.000Z</time>
      </trkpt>
      <trkpt lat="46.00968" lon="6.57968">
        <ele>2021.5999755859</ele>
        <time>2019-02-20T10:39:19.000Z</time>
      </trkpt>
      <trkpt lat="46.00969" lon="6.57965">
        <ele>2022</ele>
        <time>2019-02-20T10:39:22.000Z</time>
      </trkpt>
      <trkpt lat="46.00969" lon="6.57962">
        <ele>2022</ele>
        <time>2019-02-20T10:39:26.000Z</time>
      </trkpt>
      <trkpt lat="46.0097" lon="6.57958">
        <ele>2022.4000244141</ele>
        <time>2019-02-20T10:39:30.000Z</time>
      </trkpt>
      <trkpt lat="46.00971" lon="6.57956">
        <ele>2022.1999511719</ele>
        <time>2019-02-20T10:39:33.000Z</time>
      </trkpt>
      <trkpt lat="46.00972" lon="6.57953">
        <ele>2022.4000244141</ele>
        <time>2019-02-20T10:39:37.000Z</time>
      </trkpt>
      <trkpt lat="46.00972" lon="6.5795">
        <ele>2022.4000244141</ele>
        <time>2019-02-20T10:39:41.000Z</time>
      </trkpt>
      <trkpt lat="46.00973" lon="6.57947">
        <ele>2022.8000488281</ele>
        <time>2019-02-20T10:39:44.000Z</time>
      </trkpt>
      <trkpt lat="46.00973" lon="6.57945">
        <ele>2022.8000488281</ele>
        <time>2019-02-20T10:39:48.000Z</time>
      </trkpt>
      <trkpt lat="46.00974" lon="6.57942">
        <ele>2023.1999511719</ele>
        <time>2019-02-20T10:39:52.000Z</time>
      </trkpt>
      <trkpt lat="46.00975" lon="6.57939">
        <ele>2023.1999511719</ele>
        <time>2019-02-20T10:39:56.000Z</time>
      </trkpt>
      <trkpt lat="46.00975" lon="6.57936">
        <ele>2023.1999511719</ele>
        <time>2019-02-20T10:40:00.000Z</time>
      </trkpt>
      <trkpt lat="46.00975" lon="6.57933">
        <ele>2023.5999755859</ele>
        <time>2019-02-20T10:40:04.000Z</time>
      </trkpt>
      <trkpt lat="46.00975" lon="6.57929">
        <ele>2023.799650118</ele>
        <time>2019-02-20T10:40:08.000Z</time>
      </trkpt>
      <trkpt lat="46.00975" lon="6.57927">
        <ele>2024</ele>
        <time>2019-02-20T10:40:11.000Z</time>
      </trkpt>
      <trkpt lat="46.00975" lon="6.57924">
        <ele>2024</ele>
        <time>2019-02-20T10:40:14.000Z</time>
      </trkpt>
      <trkpt lat="46.00976" lon="6.57921">
        <ele>2024</ele>
        <time>2019-02-20T10:40:17.000Z</time>
      </trkpt>
      <trkpt lat="46.00976" lon="6.57918">
        <ele>2024.1999511719</ele>
        <time>2019-02-20T10:40:20.000Z</time>
      </trkpt>
      <trkpt lat="46.00976" lon="6.57915">
        <ele>2024.4000244141</ele>
        <time>2019-02-20T10:40:24.000Z</time>
      </trkpt>
      <trkpt lat="46.00976" lon="6.57911">
        <ele>2024.5999755859</ele>
        <time>2019-02-20T10:40:27.000Z</time>
      </trkpt>
      <trkpt lat="46.00976" lon="6.57908">
        <ele>2024.8000488281</ele>
        <time>2019-02-20T10:40:30.000Z</time>
      </trkpt>
      <trkpt lat="46.00975" lon="6.57904">
        <ele>2024.8000488281</ele>
        <time>2019-02-20T10:40:33.000Z</time>
      </trkpt>
      <trkpt lat="46.00975" lon="6.579">
        <ele>2024.5999755859</ele>
        <time>2019-02-20T10:40:36.000Z</time>
      </trkpt>
      <trkpt lat="46.00975" lon="6.57897">
        <ele>2024.5999755859</ele>
        <time>2019-02-20T10:40:39.000Z</time>
      </trkpt>
      <trkpt lat="46.00974" lon="6.57893">
        <ele>2024.4000244141</ele>
        <time>2019-02-20T10:40:42.000Z</time>
      </trkpt>
      <trkpt lat="46.00974" lon="6.5789">
        <ele>2024.1999511719</ele>
        <time>2019-02-20T10:40:45.000Z</time>
      </trkpt>
      <trkpt lat="46.00974" lon="6.57887">
        <ele>2024.4000244141</ele>
        <time>2019-02-20T10:40:47.000Z</time>
      </trkpt>
      <trkpt lat="46.00973" lon="6.57884">
        <ele>2023.8000488281</ele>
        <time>2019-02-20T10:40:49.000Z</time>
      </trkpt>
      <trkpt lat="46.00972" lon="6.5788">
        <ele>2023.8000488281</ele>
        <time>2019-02-20T10:40:51.000Z</time>
      </trkpt>
      <trkpt lat="46.00971" lon="6.57875">
        <ele>2023.8000488281</ele>
        <time>2019-02-20T10:40:53.000Z</time>
      </trkpt>
      <trkpt lat="46.00971" lon="6.57872">
        <ele>2023.4000244141</ele>
        <time>2019-02-20T10:40:54.000Z</time>
      </trkpt>
      <trkpt lat="46.0097" lon="6.57867">
        <ele>2023.4000244141</ele>
        <time>2019-02-20T10:40:56.000Z</time>
      </trkpt>
      <trkpt lat="46.00969" lon="6.57862">
        <ele>2022.5999755859</ele>
        <time>2019-02-20T10:40:58.000Z</time>
      </trkpt>
      <trkpt lat="46.00969" lon="6.5786">
        <ele>2022.5999755859</ele>
        <time>2019-02-20T10:40:59.000Z</time>
      </trkpt>
      <trkpt lat="46.00968" lon="6.57856">
        <ele>2022.1999511719</ele>
        <time>2019-02-20T10:41:01.000Z</time>
      </trkpt>
      <trkpt lat="46.00967" lon="6.57853">
        <ele>2022</ele>
        <time>2019-02-20T10:41:02.000Z</time>
      </trkpt>
      <trkpt lat="46.00966" lon="6.5785">
        <ele>2021.8000488281</ele>
        <time>2019-02-20T10:41:03.000Z</time>
      </trkpt>
      <trkpt lat="46.00966" lon="6.57848">
        <ele>2021.5999755859</ele>
        <time>2019-02-20T10:41:04.000Z</time>
      </trkpt>
      <trkpt lat="46.00965" lon="6.57845">
        <ele>2021.1999511719</ele>
        <time>2019-02-20T10:41:05.000Z</time>
      </trkpt>
      <trkpt lat="46.00964" lon="6.57843">
        <ele>2020.8000488281</ele>
        <time>2019-02-20T10:41:06.000Z</time>
      </trkpt>
      <trkpt lat="46.00963" lon="6.5784">
        <ele>2020.5999755859</ele>
        <time>2019-02-20T10:41:07.000Z</time>
      </trkpt>
      <trkpt lat="46.00962" lon="6.57836">
        <ele>2020.4000244141</ele>
        <time>2019-02-20T10:41:08.000Z</time>
      </trkpt>
      <trkpt lat="46.00961" lon="6.57833">
        <ele>2020</ele>
        <time>2019-02-20T10:41:09.000Z</time>
      </trkpt>
      <trkpt lat="46.0096" lon="6.5783">
        <ele>2019.5999755859</ele>
        <time>2019-02-20T10:41:10.000Z</time>
      </trkpt>
      <trkpt lat="46.00959" lon="6.57827">
        <ele>2019.1999511719</ele>
        <time>2019-02-20T10:41:11.000Z</time>
      </trkpt>
      <trkpt lat="46.00958" lon="6.57824">
        <ele>2018.8000488281</ele>
        <time>2019-02-20T10:41:12.000Z</time>
      </trkpt>
      <trkpt lat="46.00957" lon="6.57821">
        <ele>2018.5999755859</ele>
        <time>2019-02-20T10:41:13.000Z</time>
      </trkpt>
      <trkpt lat="46.00955" lon="6.57818">
        <ele>2018</ele>
        <time>2019-02-20T10:41:14.000Z</time>
      </trkpt>
      <trkpt lat="46.00954" lon="6.57815">
        <ele>2017.4000244141</ele>
        <time>2019-02-20T10:41:15.000Z</time>
      </trkpt>
      <trkpt lat="46.00953" lon="6.57812">
        <ele>2016.8000488281</ele>
        <time>2019-02-20T10:41:16.000Z</time>
      </trkpt>
      <trkpt lat="46.00952" lon="6.57809">
        <ele>2016</ele>
        <time>2019-02-20T10:41:17.000Z</time>
      </trkpt>
      <trkpt lat="46.00951" lon="6.57807">
        <ele>2015.5999755859</ele>
        <time>2019-02-20T10:41:18.000Z</time>
      </trkpt>
      <trkpt lat="46.0095" lon="6.57804">
        <ele>2015</ele>
        <time>2019-02-20T10:41:19.000Z</time>
      </trkpt>
      <trkpt lat="46.00948" lon="6.57801">
        <ele>2014.4000244141</ele>
        <time>2019-02-20T10:41:20.000Z</time>
      </trkpt>
      <trkpt lat="46.00947" lon="6.57799">
        <ele>2014</ele>
        <time>2019-02-20T10:41:21.000Z</time>
      </trkpt>
      <trkpt lat="46.00945" lon="6.57798">
        <ele>2009.5999755859</ele>
        <time>2019-02-20T10:42:15.000Z</time>
      </trkpt>
      <trkpt lat="46.00943" lon="6.57794">
        <ele>2009</ele>
        <time>2019-02-20T10:42:17.000Z</time>
      </trkpt>
      <trkpt lat="46.00941" lon="6.57791">
        <ele>2008.8000488281</ele>
        <time>2019-02-20T10:42:18.000Z</time>
      </trkpt>
      <trkpt lat="46.0094" lon="6.57789">
        <ele>2008.8000488281</ele>
        <time>2019-02-20T10:42:19.000Z</time>
      </trkpt>
      <trkpt lat="46.00939" lon="6.57787">
        <ele>2008.8000488281</ele>
        <time>2019-02-20T10:42:20.000Z</time>
      </trkpt>
      <trkpt lat="46.00937" lon="6.57784">
        <ele>2008.5999755859</ele>
        <time>2019-02-20T10:42:21.000Z</time>
      </trkpt>
      <trkpt lat="46.00935" lon="6.57782">
        <ele>2008</ele>
        <time>2019-02-20T10:42:22.000Z</time>
      </trkpt>
      <trkpt lat="46.00934" lon="6.57779">
        <ele>2007.4000244141</ele>
        <time>2019-02-20T10:42:23.000Z</time>
      </trkpt>
      <trkpt lat="46.00932" lon="6.57777">
        <ele>2007</ele>
        <time>2019-02-20T10:42:24.000Z</time>
      </trkpt>
      <trkpt lat="46.00929" lon="6.57773">
        <ele>2006.5999755859</ele>
        <time>2019-02-20T10:42:25.000Z</time>
      </trkpt>
      <trkpt lat="46.00926" lon="6.5777">
        <ele>2006</ele>
        <time>2019-02-20T10:42:26.000Z</time>
      </trkpt>
      <trkpt lat="46.00923" lon="6.57766">
        <ele>2005.1999511719</ele>
        <time>2019-02-20T10:42:27.000Z</time>
      </trkpt>
      <trkpt lat="46.0092" lon="6.57761">
        <ele>2004.8000488281</ele>
        <time>2019-02-20T10:42:28.000Z</time>
      </trkpt>
      <trkpt lat="46.00917" lon="6.57756">
        <ele>2004.4000244141</ele>
        <time>2019-02-20T10:42:29.000Z</time>
      </trkpt>
      <trkpt lat="46.00914" lon="6.57751">
        <ele>2003.8000488281</ele>
        <time>2019-02-20T10:42:30.000Z</time>
      </trkpt>
      <trkpt lat="46.0091" lon="6.57746">
        <ele>2003</ele>
        <time>2019-02-20T10:42:31.000Z</time>
      </trkpt>
      <trkpt lat="46.00908" lon="6.5774">
        <ele>2002.1999511719</ele>
        <time>2019-02-20T10:42:32.000Z</time>
      </trkpt>
      <trkpt lat="46.00905" lon="6.57735">
        <ele>2001</ele>
        <time>2019-02-20T10:42:33.000Z</time>
      </trkpt>
      <trkpt lat="46.00903" lon="6.57729">
        <ele>2000</ele>
        <time>2019-02-20T10:42:34.000Z</time>
      </trkpt>
      <trkpt lat="46.00901" lon="6.57724">
        <ele>1998.8000488281</ele>
        <time>2019-02-20T10:42:35.000Z</time>
      </trkpt>
      <trkpt lat="46.00898" lon="6.57718">
        <ele>1997.5999755859</ele>
        <time>2019-02-20T10:42:36.000Z</time>
      </trkpt>
      <trkpt lat="46.00896" lon="6.57714">
        <ele>1996.5999755859</ele>
        <time>2019-02-20T10:42:37.000Z</time>
      </trkpt>
      <trkpt lat="46.00894" lon="6.57709">
        <ele>1995.4000244141</ele>
        <time>2019-02-20T10:42:38.000Z</time>
      </trkpt>
      <trkpt lat="46.00893" lon="6.57705">
        <ele>1994.4000244141</ele>
        <time>2019-02-20T10:42:39.000Z</time>
      </trkpt>
      <trkpt lat="46.00891" lon="6.577">
        <ele>1993.4000244141</ele>
        <time>2019-02-20T10:42:40.000Z</time>
      </trkpt>
      <trkpt lat="46.00888" lon="6.57696">
        <ele>1992.4010218183</ele>
        <time>2019-02-20T10:42:41.000Z</time>
      </trkpt>
      <trkpt lat="46.00886" lon="6.57692">
        <ele>1991.1999511719</ele>
        <time>2019-02-20T10:42:42.000Z</time>
      </trkpt>
      <trkpt lat="46.00885" lon="6.57688">
        <ele>1990.4000244141</ele>
        <time>2019-02-20T10:42:43.000Z</time>
      </trkpt>
      <trkpt lat="46.00883" lon="6.57685">
        <ele>1989.5999755859</ele>
        <time>2019-02-20T10:42:44.000Z</time>
      </trkpt>
      <trkpt lat="46.00882" lon="6.57683">
        <ele>1988.8000488281</ele>
        <time>2019-02-20T10:42:45.000Z</time>
      </trkpt>
      <trkpt lat="46.0088" lon="6.57681">
        <ele>1987.1999511719</ele>
        <time>2019-02-20T10:42:47.000Z</time>
      </trkpt>
      <trkpt lat="46.00879" lon="6.57679">
        <ele>1984.8000488281</ele>
        <time>2019-02-20T10:42:53.000Z</time>
      </trkpt>
      <trkpt lat="46.00877" lon="6.5768">
        <ele>1984.8000488281</ele>
        <time>2019-02-20T10:43:37.000Z</time>
      </trkpt>
      <trkpt lat="46.00876" lon="6.57682">
        <ele>1984.5999755859</ele>
        <time>2019-02-20T10:44:24.000Z</time>
      </trkpt>
      <trkpt lat="46.00874" lon="6.57682">
        <ele>1984.8000488281</ele>
        <time>2019-02-20T10:44:42.000Z</time>
      </trkpt>
      <trkpt lat="46.00873" lon="6.57681">
        <ele>1984.8000488281</ele>
        <time>2019-02-20T10:44:48.000Z</time>
      </trkpt>
      <trkpt lat="46.00872" lon="6.57678">
        <ele>1984.8000488281</ele>
        <time>2019-02-20T10:45:00.000Z</time>
      </trkpt>
      <trkpt lat="46.00871" lon="6.57676">
        <ele>1984.8000488281</ele>
        <time>2019-02-20T10:45:41.000Z</time>
      </trkpt>
      <trkpt lat="46.00869" lon="6.57673">
        <ele>1985</ele>
        <time>2019-02-20T10:45:46.000Z</time>
      </trkpt>
      <trkpt lat="46.00868" lon="6.57671">
        <ele>1985.1999511719</ele>
        <time>2019-02-20T10:45:49.000Z</time>
      </trkpt>
      <trkpt lat="46.00867" lon="6.57668">
        <ele>1985.4000244141</ele>
        <time>2019-02-20T10:45:52.000Z</time>
      </trkpt>
      <trkpt lat="46.00865" lon="6.57666">
        <ele>1985.4000244141</ele>
        <time>2019-02-20T10:45:55.000Z</time>
      </trkpt>
      <trkpt lat="46.00864" lon="6.57663">
        <ele>1985.1999511719</ele>
        <time>2019-02-20T10:45:58.000Z</time>
      </trkpt>
      <trkpt lat="46.00863" lon="6.5766">
        <ele>1985.1999511719</ele>
        <time>2019-02-20T10:46:01.000Z</time>
      </trkpt>
      <trkpt lat="46.00861" lon="6.57658">
        <ele>1985.1999511719</ele>
        <time>2019-02-20T10:46:04.000Z</time>
      </trkpt>
      <trkpt lat="46.0086" lon="6.57655">
        <ele>1985.1999511719</ele>
        <time>2019-02-20T10:46:07.000Z</time>
      </trkpt>
      <trkpt lat="46.00859" lon="6.57652">
        <ele>1985</ele>
        <time>2019-02-20T10:46:10.000Z</time>
      </trkpt>
      <trkpt lat="46.00858" lon="6.5765">
        <ele>1985.4000244141</ele>
        <time>2019-02-20T10:46:13.000Z</time>
      </trkpt>
      <trkpt lat="46.00856" lon="6.57647">
        <ele>1985</ele>
        <time>2019-02-20T10:46:16.000Z</time>
      </trkpt>
      <trkpt lat="46.00855" lon="6.57644">
        <ele>1984.8000488281</ele>
        <time>2019-02-20T10:46:19.000Z</time>
      </trkpt>
      <trkpt lat="46.00854" lon="6.5764">
        <ele>1985</ele>
        <time>2019-02-20T10:46:22.000Z</time>
      </trkpt>
      <trkpt lat="46.00852" lon="6.57638">
        <ele>1985.4000244141</ele>
        <time>2019-02-20T10:46:25.000Z</time>
      </trkpt>
      <trkpt lat="46.00852" lon="6.57634">
        <ele>1985</ele>
        <time>2019-02-20T10:46:28.000Z</time>
      </trkpt>
      <trkpt lat="46.00851" lon="6.57631">
        <ele>1984.8000488281</ele>
        <time>2019-02-20T10:46:31.000Z</time>
      </trkpt>
      <trkpt lat="46.0085" lon="6.57628">
        <ele>1984.5999755859</ele>
        <time>2019-02-20T10:46:33.000Z</time>
      </trkpt>
      <trkpt lat="46.0085" lon="6.57625">
        <ele>1984.4000244141</ele>
        <time>2019-02-20T10:46:36.000Z</time>
      </trkpt>
      <trkpt lat="46.0085" lon="6.57622">
        <ele>1984.1999511719</ele>
        <time>2019-02-20T10:46:40.000Z</time>
      </trkpt>
      <trkpt lat="46.00849" lon="6.57619">
        <ele>1984.4000244141</ele>
        <time>2019-02-20T10:46:43.000Z</time>
      </trkpt>
      <trkpt lat="46.00849" lon="6.57615">
        <ele>1984.1999511719</ele>
        <time>2019-02-20T10:46:46.000Z</time>
      </trkpt>
      <trkpt lat="46.00848" lon="6.57611">
        <ele>1983.8000488281</ele>
        <time>2019-02-20T10:46:49.000Z</time>
      </trkpt>
      <trkpt lat="46.00847" lon="6.57607">
        <ele>1983.8000488281</ele>
        <time>2019-02-20T10:46:51.000Z</time>
      </trkpt>
      <trkpt lat="46.00845" lon="6.57603">
        <ele>1983.5999755859</ele>
        <time>2019-02-20T10:46:53.000Z</time>
      </trkpt>
      <trkpt lat="46.00843" lon="6.57601">
        <ele>1983.5999755859</ele>
        <time>2019-02-20T10:46:55.000Z</time>
      </trkpt>
      <trkpt lat="46.00842" lon="6.576">
        <ele>1983.1999511719</ele>
        <time>2019-02-20T10:46:57.000Z</time>
      </trkpt>
      <trkpt lat="46.0084" lon="6.57598">
        <ele>1982</ele>
        <time>2019-02-20T10:47:01.000Z</time>
      </trkpt>
      <trkpt lat="46.00838" lon="6.57598">
        <ele>1982</ele>
        <time>2019-02-20T10:47:06.000Z</time>
      </trkpt>
      <trkpt lat="46.00836" lon="6.57597">
        <ele>1981.8000488281</ele>
        <time>2019-02-20T10:47:10.000Z</time>
      </trkpt>
      <trkpt lat="46.00834" lon="6.57597">
        <ele>1982.1999511719</ele>
        <time>2019-02-20T10:47:14.000Z</time>
      </trkpt>
      <trkpt lat="46.00832" lon="6.57597">
        <ele>1982.8000488281</ele>
        <time>2019-02-20T10:47:24.000Z</time>
      </trkpt>
      <trkpt lat="46.0083" lon="6.57597">
        <ele>1982.8000488281</ele>
        <time>2019-02-20T10:47:27.000Z</time>
      </trkpt>
      <trkpt lat="46.00828" lon="6.57597">
        <ele>1982.5999755859</ele>
        <time>2019-02-20T10:47:31.000Z</time>
      </trkpt>
      <trkpt lat="46.00826" lon="6.57596">
        <ele>1983.1999511719</ele>
        <time>2019-02-20T10:47:35.000Z</time>
      </trkpt>
      <trkpt lat="46.00824" lon="6.57596">
        <ele>1983.5999755859</ele>
        <time>2019-02-20T10:47:39.000Z</time>
      </trkpt>
      <trkpt lat="46.00822" lon="6.57595">
        <ele>1983.1999511719</ele>
        <time>2019-02-20T10:47:43.000Z</time>
      </trkpt>
      <trkpt lat="46.0082" lon="6.57595">
        <ele>1983.4004228809</ele>
        <time>2019-02-20T10:47:47.000Z</time>
      </trkpt>
      <trkpt lat="46.00817" lon="6.57594">
        <ele>1983.5999755859</ele>
        <time>2019-02-20T10:47:51.000Z</time>
      </trkpt>
      <trkpt lat="46.00815" lon="6.57594">
        <ele>1984.4000244141</ele>
        <time>2019-02-20T10:47:55.000Z</time>
      </trkpt>
      <trkpt lat="46.00813" lon="6.57594">
        <ele>1984.4000244141</ele>
        <time>2019-02-20T10:47:59.000Z</time>
      </trkpt>
      <trkpt lat="46.00811" lon="6.57593">
        <ele>1985.1999511719</ele>
        <time>2019-02-20T10:48:02.000Z</time>
      </trkpt>
      <trkpt lat="46.00809" lon="6.57593">
        <ele>1985.1999511719</ele>
        <time>2019-02-20T10:48:05.000Z</time>
      </trkpt>
      <trkpt lat="46.00807" lon="6.57592">
        <ele>1985.5999755859</ele>
        <time>2019-02-20T10:48:09.000Z</time>
      </trkpt>
      <trkpt lat="46.00805" lon="6.57591">
        <ele>1986</ele>
        <time>2019-02-20T10:48:12.000Z</time>
      </trkpt>
      <trkpt lat="46.00803" lon="6.5759">
        <ele>1986.4000244141</ele>
        <time>2019-02-20T10:48:15.000Z</time>
      </trkpt>
      <trkpt lat="46.00802" lon="6.57588">
        <ele>1987</ele>
        <time>2019-02-20T10:48:18.000Z</time>
      </trkpt>
      <trkpt lat="46.00801" lon="6.57585">
        <ele>1987.5999755859</ele>
        <time>2019-02-20T10:48:22.000Z</time>
      </trkpt>
      <trkpt lat="46.00802" lon="6.57582">
        <ele>1988</ele>
        <time>2019-02-20T10:48:27.000Z</time>
      </trkpt>
      <trkpt lat="46.00802" lon="6.57579">
        <ele>1989</ele>
        <time>2019-02-20T10:48:31.000Z</time>
      </trkpt>
      <trkpt lat="46.00802" lon="6.57576">
        <ele>1989.5999755859</ele>
        <time>2019-02-20T10:48:35.000Z</time>
      </trkpt>
      <trkpt lat="46.00802" lon="6.57573">
        <ele>1990.4000244141</ele>
        <time>2019-02-20T10:48:39.000Z</time>
      </trkpt>
      <trkpt lat="46.00802" lon="6.5757">
        <ele>1991.199552705</ele>
        <time>2019-02-20T10:48:43.000Z</time>
      </trkpt>
      <trkpt lat="46.00801" lon="6.57567">
        <ele>1991.5999755859</ele>
        <time>2019-02-20T10:48:47.000Z</time>
      </trkpt>
      <trkpt lat="46.00801" lon="6.57564">
        <ele>1991.8000488281</ele>
        <time>2019-02-20T10:48:50.000Z</time>
      </trkpt>
      <trkpt lat="46.00801" lon="6.57561">
        <ele>1991.8000488281</ele>
        <time>2019-02-20T10:48:54.000Z</time>
      </trkpt>
      <trkpt lat="46.00801" lon="6.57558">
        <ele>1992.1999511719</ele>
        <time>2019-02-20T10:48:57.000Z</time>
      </trkpt>
      <trkpt lat="46.00801" lon="6.57556">
        <ele>1992.5999755859</ele>
        <time>2019-02-20T10:49:00.000Z</time>
      </trkpt>
      <trkpt lat="46.00801" lon="6.57552">
        <ele>1992.8000488281</ele>
        <time>2019-02-20T10:49:04.000Z</time>
      </trkpt>
      <trkpt lat="46.008" lon="6.5755">
        <ele>1993.1999511719</ele>
        <time>2019-02-20T10:49:30.000Z</time>
      </trkpt>
      <trkpt lat="46.00798" lon="6.57547">
        <ele>1993.4000244141</ele>
        <time>2019-02-20T10:49:34.000Z</time>
      </trkpt>
      <trkpt lat="46.00797" lon="6.57545">
        <ele>1993.4000244141</ele>
        <time>2019-02-20T10:49:37.000Z</time>
      </trkpt>
      <trkpt lat="46.00795" lon="6.57543">
        <ele>1993.4000244141</ele>
        <time>2019-02-20T10:49:40.000Z</time>
      </trkpt>
      <trkpt lat="46.00793" lon="6.57542">
        <ele>1993.5999755859</ele>
        <time>2019-02-20T10:49:43.000Z</time>
      </trkpt>
      <trkpt lat="46.00791" lon="6.57542">
        <ele>1994</ele>
        <time>2019-02-20T10:49:46.000Z</time>
      </trkpt>
      <trkpt lat="46.00789" lon="6.57542">
        <ele>1994</ele>
        <time>2019-02-20T10:49:49.000Z</time>
      </trkpt>
      <trkpt lat="46.00787" lon="6.57541">
        <ele>1994.1999511719</ele>
        <time>2019-02-20T10:49:52.000Z</time>
      </trkpt>
      <trkpt lat="46.00785" lon="6.5754">
        <ele>1994.4000244141</ele>
        <time>2019-02-20T10:50:32.000Z</time>
      </trkpt>
      <trkpt lat="46.00783" lon="6.57538">
        <ele>1994.5999755859</ele>
        <time>2019-02-20T10:50:35.000Z</time>
      </trkpt>
      <trkpt lat="46.00781" lon="6.57537">
        <ele>1994.4000244141</ele>
        <time>2019-02-20T10:50:38.000Z</time>
      </trkpt>
      <trkpt lat="46.00779" lon="6.57536">
        <ele>1994.1999511719</ele>
        <time>2019-02-20T10:50:41.000Z</time>
      </trkpt>
      <trkpt lat="46.00778" lon="6.57534">
        <ele>1995</ele>
        <time>2019-02-20T10:50:44.000Z</time>
      </trkpt>
      <trkpt lat="46.00776" lon="6.57532">
        <ele>1994.8000488281</ele>
        <time>2019-02-20T10:50:47.000Z</time>
      </trkpt>
      <trkpt lat="46.00774" lon="6.5753">
        <ele>1995</ele>
        <time>2019-02-20T10:50:50.000Z</time>
      </trkpt>
      <trkpt lat="46.00772" lon="6.57527">
        <ele>1995.1999511719</ele>
        <time>2019-02-20T10:50:53.000Z</time>
      </trkpt>
      <trkpt lat="46.00771" lon="6.57525">
        <ele>1995.5999755859</ele>
        <time>2019-02-20T10:50:56.000Z</time>
      </trkpt>
      <trkpt lat="46.00769" lon="6.57524">
        <ele>1995.4000244141</ele>
        <time>2019-02-20T10:50:59.000Z</time>
      </trkpt>
      <trkpt lat="46.00767" lon="6.57522">
        <ele>1995</ele>
        <time>2019-02-20T10:51:02.000Z</time>
      </trkpt>
      <trkpt lat="46.00766" lon="6.5752">
        <ele>1995.1999511719</ele>
        <time>2019-02-20T10:51:05.000Z</time>
      </trkpt>
      <trkpt lat="46.00764" lon="6.57518">
        <ele>1995</ele>
        <time>2019-02-20T10:51:08.000Z</time>
      </trkpt>
      <trkpt lat="46.00762" lon="6.57517">
        <ele>1994.799650118</ele>
        <time>2019-02-20T10:51:11.000Z</time>
      </trkpt>
      <trkpt lat="46.00761" lon="6.57515">
        <ele>1995.199552705</ele>
        <time>2019-02-20T10:51:14.000Z</time>
      </trkpt>
      <trkpt lat="46.0076" lon="6.57512">
        <ele>1994.8000488281</ele>
        <time>2019-02-20T10:51:17.000Z</time>
      </trkpt>
      <trkpt lat="46.00758" lon="6.5751">
        <ele>1995.1999511719</ele>
        <time>2019-02-20T10:51:20.000Z</time>
      </trkpt>
      <trkpt lat="46.00757" lon="6.57508">
        <ele>1994.8000488281</ele>
        <time>2019-02-20T10:51:23.000Z</time>
      </trkpt>
      <trkpt lat="46.00755" lon="6.57506">
        <ele>1994.8000488281</ele>
        <time>2019-02-20T10:51:26.000Z</time>
      </trkpt>
      <trkpt lat="46.00754" lon="6.57504">
        <ele>1994</ele>
        <time>2019-02-20T10:51:32.000Z</time>
      </trkpt>
      <trkpt lat="46.00752" lon="6.57502">
        <ele>1994</ele>
        <time>2019-02-20T10:51:36.000Z</time>
      </trkpt>
      <trkpt lat="46.0075" lon="6.57502">
        <ele>1994</ele>
        <time>2019-02-20T10:51:39.000Z</time>
      </trkpt>
      <trkpt lat="46.00748" lon="6.57501">
        <ele>1994.1999511719</ele>
        <time>2019-02-20T10:51:43.000Z</time>
      </trkpt>
      <trkpt lat="46.00746" lon="6.575">
        <ele>1994.5999755859</ele>
        <time>2019-02-20T10:51:46.000Z</time>
      </trkpt>
      <trkpt lat="46.00745" lon="6.57498">
        <ele>1994.5999755859</ele>
        <time>2019-02-20T10:51:49.000Z</time>
      </trkpt>
      <trkpt lat="46.00743" lon="6.57497">
        <ele>1994.4000244141</ele>
        <time>2019-02-20T10:51:52.000Z</time>
      </trkpt>
      <trkpt lat="46.0074" lon="6.57497">
        <ele>1994.8000488281</ele>
        <time>2019-02-20T10:51:55.000Z</time>
      </trkpt>
      <trkpt lat="46.00738" lon="6.57496">
        <ele>1994.5999755859</ele>
        <time>2019-02-20T10:51:58.000Z</time>
      </trkpt>
      <trkpt lat="46.00736" lon="6.57496">
        <ele>1994.5999755859</ele>
        <time>2019-02-20T10:52:01.000Z</time>
      </trkpt>
      <trkpt lat="46.00734" lon="6.57495">
        <ele>1994.8000488281</ele>
        <time>2019-02-20T10:52:04.000Z</time>
      </trkpt>
      <trkpt lat="46.00733" lon="6.57493">
        <ele>1994.6001751398</ele>
        <time>2019-02-20T10:52:07.000Z</time>
      </trkpt>
      <trkpt lat="46.00731" lon="6.57492">
        <ele>1994.4000244141</ele>
        <time>2019-02-20T10:52:10.000Z</time>
      </trkpt>
      <trkpt lat="46.00729" lon="6.5749">
        <ele>1994.8000488281</ele>
        <time>2019-02-20T10:52:13.000Z</time>
      </trkpt>
      <trkpt lat="46.00728" lon="6.57488">
        <ele>1994.5999755859</ele>
        <time>2019-02-20T10:52:16.000Z</time>
      </trkpt>
      <trkpt lat="46.00726" lon="6.57486">
        <ele>1994.4000244141</ele>
        <time>2019-02-20T10:52:19.000Z</time>
      </trkpt>
      <trkpt lat="46.00725" lon="6.57484">
        <ele>1994.4000244141</ele>
        <time>2019-02-20T10:52:22.000Z</time>
      </trkpt>
      <trkpt lat="46.00723" lon="6.57482">
        <ele>1994</ele>
        <time>2019-02-20T10:52:25.000Z</time>
      </trkpt>
      <trkpt lat="46.00721" lon="6.5748">
        <ele>1994</ele>
        <time>2019-02-20T10:52:27.000Z</time>
      </trkpt>
      <trkpt lat="46.00719" lon="6.57478">
        <ele>1994</ele>
        <time>2019-02-20T10:52:29.000Z</time>
      </trkpt>
      <trkpt lat="46.00715" lon="6.57476">
        <ele>1993.8000488281</ele>
        <time>2019-02-20T10:52:31.000Z</time>
      </trkpt>
      <trkpt lat="46.00712" lon="6.57474">
        <ele>1993.4000244141</ele>
        <time>2019-02-20T10:52:33.000Z</time>
      </trkpt>
      <trkpt lat="46.0071" lon="6.57473">
        <ele>1993.1999511719</ele>
        <time>2019-02-20T10:52:35.000Z</time>
      </trkpt>
      <trkpt lat="46.00708" lon="6.57472">
        <ele>1993</ele>
        <time>2019-02-20T10:52:37.000Z</time>
      </trkpt>
      <trkpt lat="46.00706" lon="6.57471">
        <ele>1992.4000244141</ele>
        <time>2019-02-20T10:52:39.000Z</time>
      </trkpt>
      <trkpt lat="46.00703" lon="6.5747">
        <ele>1992</ele>
        <time>2019-02-20T10:52:41.000Z</time>
      </trkpt>
      <trkpt lat="46.00701" lon="6.57469">
        <ele>1991.1999511719</ele>
        <time>2019-02-20T10:52:43.000Z</time>
      </trkpt>
      <trkpt lat="46.00699" lon="6.57468">
        <ele>1990.5999755859</ele>
        <time>2019-02-20T10:52:45.000Z</time>
      </trkpt>
      <trkpt lat="46.00697" lon="6.57467">
        <ele>1990</ele>
        <time>2019-02-20T10:52:47.000Z</time>
      </trkpt>
      <trkpt lat="46.00695" lon="6.57466">
        <ele>1990</ele>
        <time>2019-02-20T10:52:49.000Z</time>
      </trkpt>
      <trkpt lat="46.00694" lon="6.57464">
        <ele>1989.8000488281</ele>
        <time>2019-02-20T10:52:51.000Z</time>
      </trkpt>
      <trkpt lat="46.00693" lon="6.57462">
        <ele>1989.7998492742</ele>
        <time>2019-02-20T10:52:53.000Z</time>
      </trkpt>
      <trkpt lat="46.00691" lon="6.57459">
        <ele>1989.8000488281</ele>
        <time>2019-02-20T10:52:56.000Z</time>
      </trkpt>
      <trkpt lat="46.00689" lon="6.57458">
        <ele>1989.5999755859</ele>
        <time>2019-02-20T10:52:59.000Z</time>
      </trkpt>
      <trkpt lat="46.00688" lon="6.57455">
        <ele>1989.8000488281</ele>
        <time>2019-02-20T10:53:03.000Z</time>
      </trkpt>
      <trkpt lat="46.00686" lon="6.57454">
        <ele>1990.4000244141</ele>
        <time>2019-02-20T10:53:26.000Z</time>
      </trkpt>
      <trkpt lat="46.00684" lon="6.57453">
        <ele>1988.5999755859</ele>
        <time>2019-02-20T10:53:50.000Z</time>
      </trkpt>
      <trkpt lat="46.00682" lon="6.57451">
        <ele>1988.8000488281</ele>
        <time>2019-02-20T10:53:52.000Z</time>
      </trkpt>
      <trkpt lat="46.00679" lon="6.57448">
        <ele>1989</ele>
        <time>2019-02-20T10:53:54.000Z</time>
      </trkpt>
      <trkpt lat="46.00677" lon="6.57446">
        <ele>1989</ele>
        <time>2019-02-20T10:53:55.000Z</time>
      </trkpt>
      <trkpt lat="46.00676" lon="6.57444">
        <ele>1989</ele>
        <time>2019-02-20T10:53:56.000Z</time>
      </trkpt>
      <trkpt lat="46.00674" lon="6.57442">
        <ele>1988.5999755859</ele>
        <time>2019-02-20T10:53:57.000Z</time>
      </trkpt>
      <trkpt lat="46.00671" lon="6.5744">
        <ele>1988.8000488281</ele>
        <time>2019-02-20T10:53:58.000Z</time>
      </trkpt>
      <trkpt lat="46.00669" lon="6.57438">
        <ele>1988.5999755859</ele>
        <time>2019-02-20T10:53:59.000Z</time>
      </trkpt>
      <trkpt lat="46.00667" lon="6.57436">
        <ele>1988</ele>
        <time>2019-02-20T10:54:00.000Z</time>
      </trkpt>
      <trkpt lat="46.00665" lon="6.57434">
        <ele>1987.8000488281</ele>
        <time>2019-02-20T10:54:01.000Z</time>
      </trkpt>
      <trkpt lat="46.00663" lon="6.57431">
        <ele>1986.8000488281</ele>
        <time>2019-02-20T10:54:03.000Z</time>
      </trkpt>
      <trkpt lat="46.0066" lon="6.57427">
        <ele>1985.5999755859</ele>
        <time>2019-02-20T10:54:05.000Z</time>
      </trkpt>
      <trkpt lat="46.00658" lon="6.57425">
        <ele>1985</ele>
        <time>2019-02-20T10:54:06.000Z</time>
      </trkpt>
      <trkpt lat="46.00657" lon="6.57423">
        <ele>1984.5999755859</ele>
        <time>2019-02-20T10:54:07.000Z</time>
      </trkpt>
      <trkpt lat="46.00654" lon="6.5742">
        <ele>1983.5999755859</ele>
        <time>2019-02-20T10:54:09.000Z</time>
      </trkpt>
      <trkpt lat="46.00647" lon="6.57411">
        <ele>1980.4000244141</ele>
        <time>2019-02-20T10:54:17.000Z</time>
      </trkpt>
      <trkpt lat="46.00638" lon="6.57406">
        <ele>1978</ele>
        <time>2019-02-20T10:54:53.000Z</time>
      </trkpt>
      <trkpt lat="46.00639" lon="6.57402">
        <ele>1976.8000488281</ele>
        <time>2019-02-20T10:57:13.000Z</time>
      </trkpt>
      <trkpt lat="46.00629" lon="6.574">
        <ele>1976.5999755859</ele>
        <time>2019-02-20T10:57:22.000Z</time>
      </trkpt>
      <trkpt lat="46.00621" lon="6.57393">
        <ele>1975.8000488281</ele>
        <time>2019-02-20T10:57:27.000Z</time>
      </trkpt>
      <trkpt lat="46.00618" lon="6.57381">
        <ele>1973.8000488281</ele>
        <time>2019-02-20T10:57:35.000Z</time>
      </trkpt>
      <trkpt lat="46.00616" lon="6.57377">
        <ele>1973</ele>
        <time>2019-02-20T10:57:38.000Z</time>
      </trkpt>
      <trkpt lat="46.00615" lon="6.57373">
        <ele>1973.4000244141</ele>
        <time>2019-02-20T10:57:41.000Z</time>
      </trkpt>
      <trkpt lat="46.00613" lon="6.5737">
        <ele>1972.8000488281</ele>
        <time>2019-02-20T10:57:44.000Z</time>
      </trkpt>
      <trkpt lat="46.00612" lon="6.57368">
        <ele>1972.8000488281</ele>
        <time>2019-02-20T10:57:46.000Z</time>
      </trkpt>
      <trkpt lat="46.00612" lon="6.57364">
        <ele>1972.8000488281</ele>
        <time>2019-02-20T10:57:48.000Z</time>
      </trkpt>
      <trkpt lat="46.00611" lon="6.57362">
        <ele>1972.5999755859</ele>
        <time>2019-02-20T10:57:50.000Z</time>
      </trkpt>
      <trkpt lat="46.00609" lon="6.57359">
        <ele>1972.4000244141</ele>
        <time>2019-02-20T10:57:52.000Z</time>
      </trkpt>
      <trkpt lat="46.00608" lon="6.57357">
        <ele>1972.5999755859</ele>
        <time>2019-02-20T10:57:54.000Z</time>
      </trkpt>
      <trkpt lat="46.00607" lon="6.57355">
        <ele>1972.5999755859</ele>
        <time>2019-02-20T10:57:56.000Z</time>
      </trkpt>
      <trkpt lat="46.00605" lon="6.57353">
        <ele>1972.4000244141</ele>
        <time>2019-02-20T10:57:58.000Z</time>
      </trkpt>
      <trkpt lat="46.00604" lon="6.57351">
        <ele>1972.1999511719</ele>
        <time>2019-02-20T10:58:00.000Z</time>
      </trkpt>
      <trkpt lat="46.00602" lon="6.57348">
        <ele>1972</ele>
        <time>2019-02-20T10:58:03.000Z</time>
      </trkpt>
      <trkpt lat="46.00601" lon="6.57346">
        <ele>1971.4000244141</ele>
        <time>2019-02-20T10:58:49.000Z</time>
      </trkpt>
      <trkpt lat="46.006" lon="6.57344">
        <ele>1971.4000244141</ele>
        <time>2019-02-20T10:58:51.000Z</time>
      </trkpt>
      <trkpt lat="46.00598" lon="6.57341">
        <ele>1971.4000244141</ele>
        <time>2019-02-20T10:58:53.000Z</time>
      </trkpt>
      <trkpt lat="46.00597" lon="6.57338">
        <ele>1971.4000244141</ele>
        <time>2019-02-20T10:58:54.000Z</time>
      </trkpt>
      <trkpt lat="46.00595" lon="6.57336">
        <ele>1971.4000244141</ele>
        <time>2019-02-20T10:58:55.000Z</time>
      </trkpt>
      <trkpt lat="46.00593" lon="6.57333">
        <ele>1971.5999755859</ele>
        <time>2019-02-20T10:58:56.000Z</time>
      </trkpt>
      <trkpt lat="46.00591" lon="6.5733">
        <ele>1971.5999755859</ele>
        <time>2019-02-20T10:58:57.000Z</time>
      </trkpt>
      <trkpt lat="46.0059" lon="6.57327">
        <ele>1971.1999511719</ele>
        <time>2019-02-20T10:58:58.000Z</time>
      </trkpt>
      <trkpt lat="46.00588" lon="6.57325">
        <ele>1971</ele>
        <time>2019-02-20T10:58:59.000Z</time>
      </trkpt>
      <trkpt lat="46.00585" lon="6.57323">
        <ele>1970</ele>
        <time>2019-02-20T10:59:01.000Z</time>
      </trkpt>
      <trkpt lat="46.00584" lon="6.57321">
        <ele>1968.5999755859</ele>
        <time>2019-02-20T10:59:04.000Z</time>
      </trkpt>
      <trkpt lat="46.00582" lon="6.57319">
        <ele>1967.5999755859</ele>
        <time>2019-02-20T10:59:07.000Z</time>
      </trkpt>
      <trkpt lat="46.00581" lon="6.57317">
        <ele>1967.4000244141</ele>
        <time>2019-02-20T10:59:09.000Z</time>
      </trkpt>
      <trkpt lat="46.00579" lon="6.57316">
        <ele>1967.4000244141</ele>
        <time>2019-02-20T10:59:11.000Z</time>
      </trkpt>
      <trkpt lat="46.00578" lon="6.57314">
        <ele>1967.1999511719</ele>
        <time>2019-02-20T10:59:13.000Z</time>
      </trkpt>
      <trkpt lat="46.00576" lon="6.57312">
        <ele>1967.1999511719</ele>
        <time>2019-02-20T10:59:15.000Z</time>
      </trkpt>
      <trkpt lat="46.00575" lon="6.5731">
        <ele>1967.1999511719</ele>
        <time>2019-02-20T10:59:17.000Z</time>
      </trkpt>
      <trkpt lat="46.00573" lon="6.57309">
        <ele>1967.8000488281</ele>
        <time>2019-02-20T10:59:22.000Z</time>
      </trkpt>
      <trkpt lat="46.00574" lon="6.57311">
        <ele>1968.1999511719</ele>
        <time>2019-02-20T10:59:36.000Z</time>
      </trkpt>
      <trkpt lat="46.00573" lon="6.57309">
        <ele>1967.8000488281</ele>
        <time>2019-02-20T10:59:43.000Z</time>
      </trkpt>
      <trkpt lat="46.00571" lon="6.57307">
        <ele>1967.8000488281</ele>
        <time>2019-02-20T10:59:46.000Z</time>
      </trkpt>
      <trkpt lat="46.00569" lon="6.57305">
        <ele>1967.8000488281</ele>
        <time>2019-02-20T10:59:49.000Z</time>
      </trkpt>
      <trkpt lat="46.00567" lon="6.57303">
        <ele>1967.4000244141</ele>
        <time>2019-02-20T10:59:52.000Z</time>
      </trkpt>
      <trkpt lat="46.00565" lon="6.57302">
        <ele>1967.8000488281</ele>
        <time>2019-02-20T10:59:54.000Z</time>
      </trkpt>
      <trkpt lat="46.00563" lon="6.573">
        <ele>1967.8000488281</ele>
        <time>2019-02-20T10:59:57.000Z</time>
      </trkpt>
      <trkpt lat="46.00561" lon="6.57298">
        <ele>1968.1999511719</ele>
        <time>2019-02-20T11:00:00.000Z</time>
      </trkpt>
      <trkpt lat="46.00559" lon="6.57297">
        <ele>1968.1999511719</ele>
        <time>2019-02-20T11:00:03.000Z</time>
      </trkpt>
      <trkpt lat="46.00557" lon="6.57295">
        <ele>1968.5999755859</ele>
        <time>2019-02-20T11:00:06.000Z</time>
      </trkpt>
      <trkpt lat="46.00556" lon="6.57294">
        <ele>1968.8000488281</ele>
        <time>2019-02-20T11:00:09.000Z</time>
      </trkpt>
      <trkpt lat="46.00554" lon="6.57292">
        <ele>1969.4000244141</ele>
        <time>2019-02-20T11:00:12.000Z</time>
      </trkpt>
      <trkpt lat="46.00553" lon="6.57289">
        <ele>1970</ele>
        <time>2019-02-20T11:00:15.000Z</time>
      </trkpt>
      <trkpt lat="46.00551" lon="6.57287">
        <ele>1969.8000488281</ele>
        <time>2019-02-20T11:00:19.000Z</time>
      </trkpt>
      <trkpt lat="46.00549" lon="6.57288">
        <ele>1970.4000244141</ele>
        <time>2019-02-20T11:01:02.000Z</time>
      </trkpt>
      <trkpt lat="46.00551" lon="6.57289">
        <ele>1970.5999755859</ele>
        <time>2019-02-20T11:01:34.000Z</time>
      </trkpt>
      <trkpt lat="46.00549" lon="6.57287">
        <ele>1970.8000488281</ele>
        <time>2019-02-20T11:02:31.000Z</time>
      </trkpt>
      <trkpt lat="46.00547" lon="6.57285">
        <ele>1970.5999755859</ele>
        <time>2019-02-20T11:02:34.000Z</time>
      </trkpt>
      <trkpt lat="46.00545" lon="6.57283">
        <ele>1970.5999755859</ele>
        <time>2019-02-20T11:02:36.000Z</time>
      </trkpt>
      <trkpt lat="46.00544" lon="6.57281">
        <ele>1970.8000488281</ele>
        <time>2019-02-20T11:02:38.000Z</time>
      </trkpt>
      <trkpt lat="46.00542" lon="6.57279">
        <ele>1970.8000488281</ele>
        <time>2019-02-20T11:02:40.000Z</time>
      </trkpt>
      <trkpt lat="46.00541" lon="6.57276">
        <ele>1970.4000244141</ele>
        <time>2019-02-20T11:02:43.000Z</time>
      </trkpt>
      <trkpt lat="46.0054" lon="6.57273">
        <ele>1970.4000244141</ele>
        <time>2019-02-20T11:02:46.000Z</time>
      </trkpt>
      <trkpt lat="46.00538" lon="6.5727">
        <ele>1970.4000244141</ele>
        <time>2019-02-20T11:02:49.000Z</time>
      </trkpt>
      <trkpt lat="46.00536" lon="6.57268">
        <ele>1970.1999511719</ele>
        <time>2019-02-20T11:02:52.000Z</time>
      </trkpt>
      <trkpt lat="46.00534" lon="6.57265">
        <ele>1970.5999755859</ele>
        <time>2019-02-20T11:02:55.000Z</time>
      </trkpt>
      <trkpt lat="46.00533" lon="6.57263">
        <ele>1970.8000488281</ele>
        <time>2019-02-20T11:02:57.000Z</time>
      </trkpt>
      <trkpt lat="46.00531" lon="6.57261">
        <ele>1970.8000488281</ele>
        <time>2019-02-20T11:03:00.000Z</time>
      </trkpt>
      <trkpt lat="46.00529" lon="6.57259">
        <ele>1971</ele>
        <time>2019-02-20T11:03:02.000Z</time>
      </trkpt>
      <trkpt lat="46.00527" lon="6.57257">
        <ele>1970.9998005679</ele>
        <time>2019-02-20T11:03:05.000Z</time>
      </trkpt>
      <trkpt lat="46.00525" lon="6.57256">
        <ele>1971</ele>
        <time>2019-02-20T11:03:08.000Z</time>
      </trkpt>
      <trkpt lat="46.00523" lon="6.57255">
        <ele>1971.4000244141</ele>
        <time>2019-02-20T11:03:11.000Z</time>
      </trkpt>
      <trkpt lat="46.00521" lon="6.57254">
        <ele>1971.4000244141</ele>
        <time>2019-02-20T11:03:14.000Z</time>
      </trkpt>
      <trkpt lat="46.00519" lon="6.57254">
        <ele>1972</ele>
        <time>2019-02-20T11:03:17.000Z</time>
      </trkpt>
      <trkpt lat="46.00517" lon="6.57253">
        <ele>1972.5999755859</ele>
        <time>2019-02-20T11:03:21.000Z</time>
      </trkpt>
      <trkpt lat="46.00515" lon="6.57252">
        <ele>1973.5999755859</ele>
        <time>2019-02-20T11:03:26.000Z</time>
      </trkpt>
      <trkpt lat="46.00513" lon="6.57251">
        <ele>1974.1999511719</ele>
        <time>2019-02-20T11:03:29.000Z</time>
      </trkpt>
      <trkpt lat="46.00512" lon="6.5725">
        <ele>1974.5999755859</ele>
        <time>2019-02-20T11:03:33.000Z</time>
      </trkpt>
      <trkpt lat="46.00509" lon="6.57249">
        <ele>1974.5999755859</ele>
        <time>2019-02-20T11:03:37.000Z</time>
      </trkpt>
      <trkpt lat="46.00508" lon="6.57248">
        <ele>1975</ele>
        <time>2019-02-20T11:03:40.000Z</time>
      </trkpt>
      <trkpt lat="46.00506" lon="6.57247">
        <ele>1975.5999755859</ele>
        <time>2019-02-20T11:03:44.000Z</time>
      </trkpt>
      <trkpt lat="46.00504" lon="6.57246">
        <ele>1976.4000244141</ele>
        <time>2019-02-20T11:03:48.000Z</time>
      </trkpt>
      <trkpt lat="46.00502" lon="6.57245">
        <ele>1976.8000488281</ele>
        <time>2019-02-20T11:03:52.000Z</time>
      </trkpt>
      <trkpt lat="46.005" lon="6.57243">
        <ele>1977.199552705</ele>
        <time>2019-02-20T11:03:56.000Z</time>
      </trkpt>
      <trkpt lat="46.00499" lon="6.57242">
        <ele>1977.1999511719</ele>
        <time>2019-02-20T11:03:59.000Z</time>
      </trkpt>
      <trkpt lat="46.00497" lon="6.57241">
        <ele>1977.5999755859</ele>
        <time>2019-02-20T11:04:03.000Z</time>
      </trkpt>
      <trkpt lat="46.00495" lon="6.5724">
        <ele>1977.8000488281</ele>
        <time>2019-02-20T11:04:06.000Z</time>
      </trkpt>
      <trkpt lat="46.00493" lon="6.57239">
        <ele>1978.4000244141</ele>
        <time>2019-02-20T11:04:10.000Z</time>
      </trkpt>
      <trkpt lat="46.0049" lon="6.57239">
        <ele>1978.4000244141</ele>
        <time>2019-02-20T11:04:14.000Z</time>
      </trkpt>
      <trkpt lat="46.00489" lon="6.57237">
        <ele>1979</ele>
        <time>2019-02-20T11:04:18.000Z</time>
      </trkpt>
      <trkpt lat="46.00487" lon="6.57236">
        <ele>1978.7998492742</ele>
        <time>2019-02-20T11:04:22.000Z</time>
      </trkpt>
      <trkpt lat="46.00485" lon="6.57234">
        <ele>1978.5999755859</ele>
        <time>2019-02-20T11:04:26.000Z</time>
      </trkpt>
      <trkpt lat="46.00483" lon="6.57233">
        <ele>1979.1999511719</ele>
        <time>2019-02-20T11:04:29.000Z</time>
      </trkpt>
      <trkpt lat="46.0048" lon="6.57232">
        <ele>1979.5999755859</ele>
        <time>2019-02-20T11:04:33.000Z</time>
      </trkpt>
      <trkpt lat="46.00479" lon="6.57231">
        <ele>1979.5999755859</ele>
        <time>2019-02-20T11:04:37.000Z</time>
      </trkpt>
      <trkpt lat="46.00477" lon="6.57231">
        <ele>1979.8000488281</ele>
        <time>2019-02-20T11:04:39.000Z</time>
      </trkpt>
      <trkpt lat="46.00474" lon="6.5723">
        <ele>1980</ele>
        <time>2019-02-20T11:04:42.000Z</time>
      </trkpt>
      <trkpt lat="46.00472" lon="6.57229">
        <ele>1980.1999511719</ele>
        <time>2019-02-20T11:04:45.000Z</time>
      </trkpt>
      <trkpt lat="46.0047" lon="6.57227">
        <ele>1980</ele>
        <time>2019-02-20T11:04:48.000Z</time>
      </trkpt>
      <trkpt lat="46.00467" lon="6.57226">
        <ele>1980.1999511719</ele>
        <time>2019-02-20T11:04:51.000Z</time>
      </trkpt>
      <trkpt lat="46.00466" lon="6.57225">
        <ele>1980.1999511719</ele>
        <time>2019-02-20T11:04:53.000Z</time>
      </trkpt>
      <trkpt lat="46.00464" lon="6.57224">
        <ele>1980</ele>
        <time>2019-02-20T11:04:55.000Z</time>
      </trkpt>
      <trkpt lat="46.00462" lon="6.57223">
        <ele>1980</ele>
        <time>2019-02-20T11:04:57.000Z</time>
      </trkpt>
      <trkpt lat="46.0046" lon="6.57221">
        <ele>1979.8000488281</ele>
        <time>2019-02-20T11:04:59.000Z</time>
      </trkpt>
      <trkpt lat="46.00458" lon="6.5722">
        <ele>1979.8000488281</ele>
        <time>2019-02-20T11:05:02.000Z</time>
      </trkpt>
      <trkpt lat="46.00457" lon="6.57219">
        <ele>1980</ele>
        <time>2019-02-20T11:05:04.000Z</time>
      </trkpt>
      <trkpt lat="46.00455" lon="6.57218">
        <ele>1980.1999511719</ele>
        <time>2019-02-20T11:05:06.000Z</time>
      </trkpt>
      <trkpt lat="46.00453" lon="6.57217">
        <ele>1980.4000244141</ele>
        <time>2019-02-20T11:05:09.000Z</time>
      </trkpt>
      <trkpt lat="46.00451" lon="6.57216">
        <ele>1980.4000244141</ele>
        <time>2019-02-20T11:05:12.000Z</time>
      </trkpt>
      <trkpt lat="46.00449" lon="6.57215">
        <ele>1980.5999755859</ele>
        <time>2019-02-20T11:05:15.000Z</time>
      </trkpt>
      <trkpt lat="46.00446" lon="6.57213">
        <ele>1980.5999755859</ele>
        <time>2019-02-20T11:05:18.000Z</time>
      </trkpt>
      <trkpt lat="46.00444" lon="6.57212">
        <ele>1981</ele>
        <time>2019-02-20T11:05:21.000Z</time>
      </trkpt>
      <trkpt lat="46.00442" lon="6.5721">
        <ele>1981.1999511719</ele>
        <time>2019-02-20T11:05:24.000Z</time>
      </trkpt>
      <trkpt lat="46.0044" lon="6.57208">
        <ele>1981.1999511719</ele>
        <time>2019-02-20T11:05:27.000Z</time>
      </trkpt>
      <trkpt lat="46.00438" lon="6.57207">
        <ele>1981.1999511719</ele>
        <time>2019-02-20T11:05:30.000Z</time>
      </trkpt>
      <trkpt lat="46.00436" lon="6.57206">
        <ele>1981.1999511719</ele>
        <time>2019-02-20T11:05:32.000Z</time>
      </trkpt>
      <trkpt lat="46.00434" lon="6.57205">
        <ele>1981.4000244141</ele>
        <time>2019-02-20T11:05:35.000Z</time>
      </trkpt>
      <trkpt lat="46.00432" lon="6.57203">
        <ele>1981.2001507258</ele>
        <time>2019-02-20T11:05:38.000Z</time>
      </trkpt>
      <trkpt lat="46.0043" lon="6.57202">
        <ele>1981.1999511719</ele>
        <time>2019-02-20T11:05:40.000Z</time>
      </trkpt>
      <trkpt lat="46.00428" lon="6.57201">
        <ele>1981.1999511719</ele>
        <time>2019-02-20T11:05:42.000Z</time>
      </trkpt>
      <trkpt lat="46.00426" lon="6.57199">
        <ele>1981.1999511719</ele>
        <time>2019-02-20T11:05:45.000Z</time>
      </trkpt>
      <trkpt lat="46.00424" lon="6.57198">
        <ele>1981.1999511719</ele>
        <time>2019-02-20T11:05:47.000Z</time>
      </trkpt>
      <trkpt lat="46.00423" lon="6.57197">
        <ele>1981.4000244141</ele>
        <time>2019-02-20T11:05:49.000Z</time>
      </trkpt>
      <trkpt lat="46.00421" lon="6.57195">
        <ele>1981.4000244141</ele>
        <time>2019-02-20T11:05:52.000Z</time>
      </trkpt>
      <trkpt lat="46.00419" lon="6.57194">
        <ele>1981.4000244141</ele>
        <time>2019-02-20T11:05:54.000Z</time>
      </trkpt>
      <trkpt lat="46.00417" lon="6.57192">
        <ele>1981.4000244141</ele>
        <time>2019-02-20T11:05:56.000Z</time>
      </trkpt>
      <trkpt lat="46.00415" lon="6.57191">
        <ele>1981.8000488281</ele>
        <time>2019-02-20T11:05:59.000Z</time>
      </trkpt>
      <trkpt lat="46.00412" lon="6.57189">
        <ele>1982</ele>
        <time>2019-02-20T11:06:02.000Z</time>
      </trkpt>
      <trkpt lat="46.00411" lon="6.57188">
        <ele>1981.5999755859</ele>
        <time>2019-02-20T11:06:04.000Z</time>
      </trkpt>
      <trkpt lat="46.00408" lon="6.57187">
        <ele>1981.5999755859</ele>
        <time>2019-02-20T11:06:07.000Z</time>
      </trkpt>
      <trkpt lat="46.00406" lon="6.57186">
        <ele>1982</ele>
        <time>2019-02-20T11:06:10.000Z</time>
      </trkpt>
      <trkpt lat="46.00404" lon="6.57185">
        <ele>1981.8000488281</ele>
        <time>2019-02-20T11:06:13.000Z</time>
      </trkpt>
      <trkpt lat="46.00401" lon="6.57185">
        <ele>1981.8000488281</ele>
        <time>2019-02-20T11:06:16.000Z</time>
      </trkpt>
      <trkpt lat="46.00399" lon="6.57184">
        <ele>1981.5999755859</ele>
        <time>2019-02-20T11:06:19.000Z</time>
      </trkpt>
      <trkpt lat="46.00397" lon="6.57183">
        <ele>1981.8000488281</ele>
        <time>2019-02-20T11:06:22.000Z</time>
      </trkpt>
      <trkpt lat="46.00395" lon="6.57183">
        <ele>1982.4000244141</ele>
        <time>2019-02-20T11:06:25.000Z</time>
      </trkpt>
      <trkpt lat="46.00393" lon="6.57182">
        <ele>1982.4000244141</ele>
        <time>2019-02-20T11:06:28.000Z</time>
      </trkpt>
      <trkpt lat="46.0039" lon="6.57182">
        <ele>1982.5999755859</ele>
        <time>2019-02-20T11:06:31.000Z</time>
      </trkpt>
      <trkpt lat="46.00388" lon="6.57181">
        <ele>1982.5999755859</ele>
        <time>2019-02-20T11:06:34.000Z</time>
      </trkpt>
      <trkpt lat="46.00386" lon="6.57181">
        <ele>1982.8000488281</ele>
        <time>2019-02-20T11:06:36.000Z</time>
      </trkpt>
      <trkpt lat="46.00383" lon="6.5718">
        <ele>1982.8000488281</ele>
        <time>2019-02-20T11:06:39.000Z</time>
      </trkpt>
      <trkpt lat="46.00381" lon="6.57179">
        <ele>1983</ele>
        <time>2019-02-20T11:06:42.000Z</time>
      </trkpt>
      <trkpt lat="46.00379" lon="6.57178">
        <ele>1983</ele>
        <time>2019-02-20T11:06:45.000Z</time>
      </trkpt>
      <trkpt lat="46.00377" lon="6.57177">
        <ele>1983</ele>
        <time>2019-02-20T11:06:48.000Z</time>
      </trkpt>
      <trkpt lat="46.00374" lon="6.57176">
        <ele>1983.1999511719</ele>
        <time>2019-02-20T11:06:51.000Z</time>
      </trkpt>
      <trkpt lat="46.00372" lon="6.57175">
        <ele>1983.4000244141</ele>
        <time>2019-02-20T11:06:53.000Z</time>
      </trkpt>
      <trkpt lat="46.0037" lon="6.57174">
        <ele>1983.4000244141</ele>
        <time>2019-02-20T11:06:55.000Z</time>
      </trkpt>
      <trkpt lat="46.00369" lon="6.57173">
        <ele>1983.5999755859</ele>
        <time>2019-02-20T11:06:57.000Z</time>
      </trkpt>
      <trkpt lat="46.00367" lon="6.57173">
        <ele>1983.5999755859</ele>
        <time>2019-02-20T11:06:59.000Z</time>
      </trkpt>
      <trkpt lat="46.00365" lon="6.57172">
        <ele>1983.4000244141</ele>
        <time>2019-02-20T11:07:01.000Z</time>
      </trkpt>
      <trkpt lat="46.00363" lon="6.57171">
        <ele>1983.5999755859</ele>
        <time>2019-02-20T11:07:03.000Z</time>
      </trkpt>
      <trkpt lat="46.00361" lon="6.57171">
        <ele>1983.4000244141</ele>
        <time>2019-02-20T11:07:05.000Z</time>
      </trkpt>
      <trkpt lat="46.00359" lon="6.5717">
        <ele>1983.8000488281</ele>
        <time>2019-02-20T11:07:07.000Z</time>
      </trkpt>
      <trkpt lat="46.00357" lon="6.57169">
        <ele>1983.8000488281</ele>
        <time>2019-02-20T11:07:09.000Z</time>
      </trkpt>
      <trkpt lat="46.00355" lon="6.57168">
        <ele>1984</ele>
        <time>2019-02-20T11:07:11.000Z</time>
      </trkpt>
      <trkpt lat="46.00354" lon="6.57168">
        <ele>1983.8000488281</ele>
        <time>2019-02-20T11:07:13.000Z</time>
      </trkpt>
      <trkpt lat="46.00352" lon="6.57167">
        <ele>1983.5999755859</ele>
        <time>2019-02-20T11:07:15.000Z</time>
      </trkpt>
      <trkpt lat="46.0035" lon="6.57166">
        <ele>1983.5999755859</ele>
        <time>2019-02-20T11:07:17.000Z</time>
      </trkpt>
      <trkpt lat="46.00347" lon="6.57166">
        <ele>1983.5997761538</ele>
        <time>2019-02-20T11:07:20.000Z</time>
      </trkpt>
      <trkpt lat="46.00345" lon="6.57165">
        <ele>1983.5999755859</ele>
        <time>2019-02-20T11:07:23.000Z</time>
      </trkpt>
      <trkpt lat="46.00343" lon="6.57164">
        <ele>1983.5999755859</ele>
        <time>2019-02-20T11:07:26.000Z</time>
      </trkpt>
      <trkpt lat="46.00341" lon="6.57163">
        <ele>1983.5999755859</ele>
        <time>2019-02-20T11:07:29.000Z</time>
      </trkpt>
      <trkpt lat="46.00338" lon="6.57163">
        <ele>1983.8000488281</ele>
        <time>2019-02-20T11:07:32.000Z</time>
      </trkpt>
      <trkpt lat="46.00336" lon="6.57162">
        <ele>1983.8000488281</ele>
        <time>2019-02-20T11:07:35.000Z</time>
      </trkpt>
      <trkpt lat="46.00334" lon="6.57161">
        <ele>1984</ele>
        <time>2019-02-20T11:07:37.000Z</time>
      </trkpt>
      <trkpt lat="46.00332" lon="6.5716">
        <ele>1984.1999511719</ele>
        <time>2019-02-20T11:07:39.000Z</time>
      </trkpt>
      <trkpt lat="46.00331" lon="6.57159">
        <ele>1984.1999511719</ele>
        <time>2019-02-20T11:07:41.000Z</time>
      </trkpt>
      <trkpt lat="46.00328" lon="6.57158">
        <ele>1984.1999511719</ele>
        <time>2019-02-20T11:07:44.000Z</time>
      </trkpt>
      <trkpt lat="46.00326" lon="6.57157">
        <ele>1984.1999511719</ele>
        <time>2019-02-20T11:07:46.000Z</time>
      </trkpt>
      <trkpt lat="46.00323" lon="6.57156">
        <ele>1984.4000244141</ele>
        <time>2019-02-20T11:07:48.000Z</time>
      </trkpt>
      <trkpt lat="46.0032" lon="6.57155">
        <ele>1984.4000244141</ele>
        <time>2019-02-20T11:07:50.000Z</time>
      </trkpt>
      <trkpt lat="46.00317" lon="6.57153">
        <ele>1984.4000244141</ele>
        <time>2019-02-20T11:07:52.000Z</time>
      </trkpt>
      <trkpt lat="46.00315" lon="6.57152">
        <ele>1984.1999511719</ele>
        <time>2019-02-20T11:07:53.000Z</time>
      </trkpt>
      <trkpt lat="46.00311" lon="6.5715">
        <ele>1983.8000488281</ele>
        <time>2019-02-20T11:07:55.000Z</time>
      </trkpt>
      <trkpt lat="46.00309" lon="6.57149">
        <ele>1983.5999755859</ele>
        <time>2019-02-20T11:07:56.000Z</time>
      </trkpt>
      <trkpt lat="46.00306" lon="6.57148">
        <ele>1983.5999755859</ele>
        <time>2019-02-20T11:07:58.000Z</time>
      </trkpt>
      <trkpt lat="46.00304" lon="6.57146">
        <ele>1983.1999511719</ele>
        <time>2019-02-20T11:08:00.000Z</time>
      </trkpt>
      <trkpt lat="46.00301" lon="6.57144">
        <ele>1982.5999755859</ele>
        <time>2019-02-20T11:08:02.000Z</time>
      </trkpt>
      <trkpt lat="46.00299" lon="6.57143">
        <ele>1982.1999511719</ele>
        <time>2019-02-20T11:08:04.000Z</time>
      </trkpt>
      <trkpt lat="46.00297" lon="6.57142">
        <ele>1982</ele>
        <time>2019-02-20T11:08:06.000Z</time>
      </trkpt>
      <trkpt lat="46.00295" lon="6.57141">
        <ele>1981.8000488281</ele>
        <time>2019-02-20T11:08:08.000Z</time>
      </trkpt>
      <trkpt lat="46.00293" lon="6.5714">
        <ele>1981.4000244141</ele>
        <time>2019-02-20T11:08:10.000Z</time>
      </trkpt>
      <trkpt lat="46.0029" lon="6.57138">
        <ele>1981.4000244141</ele>
        <time>2019-02-20T11:08:13.000Z</time>
      </trkpt>
      <trkpt lat="46.00288" lon="6.57137">
        <ele>1981.4000244141</ele>
        <time>2019-02-20T11:08:16.000Z</time>
      </trkpt>
      <trkpt lat="46.00287" lon="6.57135">
        <ele>1981.4000244141</ele>
        <time>2019-02-20T11:08:19.000Z</time>
      </trkpt>
      <trkpt lat="46.00285" lon="6.57133">
        <ele>1982</ele>
        <time>2019-02-20T11:08:22.000Z</time>
      </trkpt>
      <trkpt lat="46.00283" lon="6.57132">
        <ele>1981.8000488281</ele>
        <time>2019-02-20T11:08:24.000Z</time>
      </trkpt>
      <trkpt lat="46.0028" lon="6.57131">
        <ele>1981.8000488281</ele>
        <time>2019-02-20T11:08:27.000Z</time>
      </trkpt>
      <trkpt lat="46.00278" lon="6.57129">
        <ele>1982</ele>
        <time>2019-02-20T11:08:29.000Z</time>
      </trkpt>
      <trkpt lat="46.00276" lon="6.57128">
        <ele>1981.8000488281</ele>
        <time>2019-02-20T11:08:31.000Z</time>
      </trkpt>
      <trkpt lat="46.00274" lon="6.57127">
        <ele>1981.8000488281</ele>
        <time>2019-02-20T11:08:33.000Z</time>
      </trkpt>
      <trkpt lat="46.00271" lon="6.57125">
        <ele>1981.8000488281</ele>
        <time>2019-02-20T11:08:35.000Z</time>
      </trkpt>
      <trkpt lat="46.00269" lon="6.57124">
        <ele>1981.5999755859</ele>
        <time>2019-02-20T11:08:37.000Z</time>
      </trkpt>
      <trkpt lat="46.00265" lon="6.57122">
        <ele>1981.4000244141</ele>
        <time>2019-02-20T11:08:41.000Z</time>
      </trkpt>
      <trkpt lat="46.00263" lon="6.57122">
        <ele>1981.1999511719</ele>
        <time>2019-02-20T11:08:43.000Z</time>
      </trkpt>
      <trkpt lat="46.00261" lon="6.5712">
        <ele>1981</ele>
        <time>2019-02-20T11:08:46.000Z</time>
      </trkpt>
      <trkpt lat="46.00258" lon="6.57118">
        <ele>1980.4000244141</ele>
        <time>2019-02-20T11:08:50.000Z</time>
      </trkpt>
      <trkpt lat="46.00255" lon="6.57117">
        <ele>1980.5999755859</ele>
        <time>2019-02-20T11:08:53.000Z</time>
      </trkpt>
      <trkpt lat="46.00254" lon="6.57116">
        <ele>1980.5999755859</ele>
        <time>2019-02-20T11:08:55.000Z</time>
      </trkpt>
      <trkpt lat="46.00251" lon="6.57115">
        <ele>1980.4000244141</ele>
        <time>2019-02-20T11:08:58.000Z</time>
      </trkpt>
      <trkpt lat="46.00249" lon="6.57114">
        <ele>1980</ele>
        <time>2019-02-20T11:09:01.000Z</time>
      </trkpt>
      <trkpt lat="46.00246" lon="6.57113">
        <ele>1980</ele>
        <time>2019-02-20T11:09:04.000Z</time>
      </trkpt>
      <trkpt lat="46.00244" lon="6.57112">
        <ele>1979.8000488281</ele>
        <time>2019-02-20T11:09:07.000Z</time>
      </trkpt>
      <trkpt lat="46.00242" lon="6.57111">
        <ele>1980</ele>
        <time>2019-02-20T11:09:10.000Z</time>
      </trkpt>
      <trkpt lat="46.0024" lon="6.57111">
        <ele>1979.8000488281</ele>
        <time>2019-02-20T11:09:12.000Z</time>
      </trkpt>
      <trkpt lat="46.00238" lon="6.57111">
        <ele>1979.8000488281</ele>
        <time>2019-02-20T11:09:14.000Z</time>
      </trkpt>
      <trkpt lat="46.00235" lon="6.5711">
        <ele>1980.1999511719</ele>
        <time>2019-02-20T11:09:17.000Z</time>
      </trkpt>
      <trkpt lat="46.00233" lon="6.57109">
        <ele>1980.4000244141</ele>
        <time>2019-02-20T11:09:20.000Z</time>
      </trkpt>
      <trkpt lat="46.0023" lon="6.57108">
        <ele>1980.5999755859</ele>
        <time>2019-02-20T11:09:23.000Z</time>
      </trkpt>
      <trkpt lat="46.00228" lon="6.57107">
        <ele>1980.4000244141</ele>
        <time>2019-02-20T11:09:26.000Z</time>
      </trkpt>
      <trkpt lat="46.00225" lon="6.57107">
        <ele>1980</ele>
        <time>2019-02-20T11:09:29.000Z</time>
      </trkpt>
      <trkpt lat="46.00222" lon="6.57106">
        <ele>1980.4000244141</ele>
        <time>2019-02-20T11:09:33.000Z</time>
      </trkpt>
      <trkpt lat="46.0022" lon="6.57105">
        <ele>1980.4000244141</ele>
        <time>2019-02-20T11:09:37.000Z</time>
      </trkpt>
      <trkpt lat="46.00218" lon="6.57104">
        <ele>1980.5999755859</ele>
        <time>2019-02-20T11:09:40.000Z</time>
      </trkpt>
      <trkpt lat="46.00216" lon="6.57103">
        <ele>1980.4000244141</ele>
        <time>2019-02-20T11:09:42.000Z</time>
      </trkpt>
      <trkpt lat="46.00214" lon="6.57102">
        <ele>1980.5999755859</ele>
        <time>2019-02-20T11:09:45.000Z</time>
      </trkpt>
      <trkpt lat="46.00212" lon="6.571">
        <ele>1980.8000488281</ele>
        <time>2019-02-20T11:09:48.000Z</time>
      </trkpt>
      <trkpt lat="46.0021" lon="6.57099">
        <ele>1980.8000488281</ele>
        <time>2019-02-20T11:09:50.000Z</time>
      </trkpt>
      <trkpt lat="46.00208" lon="6.57099">
        <ele>1981</ele>
        <time>2019-02-20T11:09:52.000Z</time>
      </trkpt>
      <trkpt lat="46.00206" lon="6.57098">
        <ele>1981.1999511719</ele>
        <time>2019-02-20T11:09:54.000Z</time>
      </trkpt>
      <trkpt lat="46.00204" lon="6.57096">
        <ele>1981.4000244141</ele>
        <time>2019-02-20T11:09:57.000Z</time>
      </trkpt>
      <trkpt lat="46.00202" lon="6.57095">
        <ele>1981.4000244141</ele>
        <time>2019-02-20T11:10:00.000Z</time>
      </trkpt>
      <trkpt lat="46.002" lon="6.57094">
        <ele>1981.4000244141</ele>
        <time>2019-02-20T11:10:02.000Z</time>
      </trkpt>
      <trkpt lat="46.00197" lon="6.57093">
        <ele>1981.5999755859</ele>
        <time>2019-02-20T11:10:05.000Z</time>
      </trkpt>
      <trkpt lat="46.00195" lon="6.57092">
        <ele>1982</ele>
        <time>2019-02-20T11:10:07.000Z</time>
      </trkpt>
      <trkpt lat="46.00193" lon="6.57091">
        <ele>1981.8000488281</ele>
        <time>2019-02-20T11:10:09.000Z</time>
      </trkpt>
      <trkpt lat="46.00192" lon="6.5709">
        <ele>1981.8000488281</ele>
        <time>2019-02-20T11:10:11.000Z</time>
      </trkpt>
      <trkpt lat="46.0019" lon="6.57089">
        <ele>1981.8000488281</ele>
        <time>2019-02-20T11:10:13.000Z</time>
      </trkpt>
      <trkpt lat="46.00188" lon="6.57088">
        <ele>1981.5999755859</ele>
        <time>2019-02-20T11:10:15.000Z</time>
      </trkpt>
      <trkpt lat="46.00186" lon="6.57088">
        <ele>1981.5999755859</ele>
        <time>2019-02-20T11:10:17.000Z</time>
      </trkpt>
      <trkpt lat="46.00184" lon="6.57087">
        <ele>1981.5999755859</ele>
        <time>2019-02-20T11:10:19.000Z</time>
      </trkpt>
      <trkpt lat="46.00182" lon="6.57086">
        <ele>1981.5999755859</ele>
        <time>2019-02-20T11:10:21.000Z</time>
      </trkpt>
      <trkpt lat="46.0018" lon="6.57086">
        <ele>1981.1999511719</ele>
        <time>2019-02-20T11:10:23.000Z</time>
      </trkpt>
      <trkpt lat="46.00178" lon="6.57086">
        <ele>1981.5999755859</ele>
        <time>2019-02-20T11:10:25.000Z</time>
      </trkpt>
      <trkpt lat="46.00175" lon="6.57085">
        <ele>1981.4000244141</ele>
        <time>2019-02-20T11:10:27.000Z</time>
      </trkpt>
      <trkpt lat="46.00174" lon="6.57084">
        <ele>1981.4000244141</ele>
        <time>2019-02-20T11:10:29.000Z</time>
      </trkpt>
      <trkpt lat="46.00171" lon="6.57083">
        <ele>1980.8000488281</ele>
        <time>2019-02-20T11:10:32.000Z</time>
      </trkpt>
      <trkpt lat="46.00167" lon="6.57082">
        <ele>1980.4000244141</ele>
        <time>2019-02-20T11:10:37.000Z</time>
      </trkpt>
      <trkpt lat="46.00165" lon="6.57081">
        <ele>1980.4000244141</ele>
        <time>2019-02-20T11:10:39.000Z</time>
      </trkpt>
      <trkpt lat="46.00161" lon="6.5708">
        <ele>1980.1999511719</ele>
        <time>2019-02-20T11:10:42.000Z</time>
      </trkpt>
      <trkpt lat="46.00159" lon="6.57078">
        <ele>1980.1999511719</ele>
        <time>2019-02-20T11:10:45.000Z</time>
      </trkpt>
      <trkpt lat="46.00157" lon="6.57077">
        <ele>1980.5999755859</ele>
        <time>2019-02-20T11:10:48.000Z</time>
      </trkpt>
      <trkpt lat="46.00155" lon="6.57076">
        <ele>1980.4000244141</ele>
        <time>2019-02-20T11:10:50.000Z</time>
      </trkpt>
      <trkpt lat="46.00153" lon="6.57074">
        <ele>1980</ele>
        <time>2019-02-20T11:10:53.000Z</time>
      </trkpt>
      <trkpt lat="46.00151" lon="6.57072">
        <ele>1980</ele>
        <time>2019-02-20T11:10:56.000Z</time>
      </trkpt>
      <trkpt lat="46.0015" lon="6.5707">
        <ele>1980.4000244141</ele>
        <time>2019-02-20T11:10:59.000Z</time>
      </trkpt>
      <trkpt lat="46.00148" lon="6.57068">
        <ele>1980.4000244141</ele>
        <time>2019-02-20T11:11:02.000Z</time>
      </trkpt>
      <trkpt lat="46.00146" lon="6.57066">
        <ele>1980.1999511719</ele>
        <time>2019-02-20T11:11:04.000Z</time>
      </trkpt>
      <trkpt lat="46.00144" lon="6.57064">
        <ele>1980.1999511719</ele>
        <time>2019-02-20T11:11:07.000Z</time>
      </trkpt>
      <trkpt lat="46.00143" lon="6.57062">
        <ele>1980.1999511719</ele>
        <time>2019-02-20T11:11:10.000Z</time>
      </trkpt>
      <trkpt lat="46.00141" lon="6.5706">
        <ele>1980</ele>
        <time>2019-02-20T11:11:13.000Z</time>
      </trkpt>
      <trkpt lat="46.00139" lon="6.57059">
        <ele>1980.1999511719</ele>
        <time>2019-02-20T11:11:16.000Z</time>
      </trkpt>
      <trkpt lat="46.00138" lon="6.57057">
        <ele>1980.8000488281</ele>
        <time>2019-02-20T11:11:19.000Z</time>
      </trkpt>
      <trkpt lat="46.00136" lon="6.57054">
        <ele>1980.5999755859</ele>
        <time>2019-02-20T11:11:22.000Z</time>
      </trkpt>
      <trkpt lat="46.00133" lon="6.57052">
        <ele>1980.5999755859</ele>
        <time>2019-02-20T11:11:25.000Z</time>
      </trkpt>
      <trkpt lat="46.00132" lon="6.5705">
        <ele>1980.4000244141</ele>
        <time>2019-02-20T11:11:27.000Z</time>
      </trkpt>
      <trkpt lat="46.0013" lon="6.57049">
        <ele>1980.5999755859</ele>
        <time>2019-02-20T11:11:29.000Z</time>
      </trkpt>
      <trkpt lat="46.00129" lon="6.57046">
        <ele>1980.5999755859</ele>
        <time>2019-02-20T11:11:32.000Z</time>
      </trkpt>
      <trkpt lat="46.00127" lon="6.57044">
        <ele>1980.4002238462</ele>
        <time>2019-02-20T11:11:35.000Z</time>
      </trkpt>
      <trkpt lat="46.00125" lon="6.57042">
        <ele>1981</ele>
        <time>2019-02-20T11:11:38.000Z</time>
      </trkpt>
      <trkpt lat="46.00123" lon="6.5704">
        <ele>1980.8000488281</ele>
        <time>2019-02-20T11:11:40.000Z</time>
      </trkpt>
      <trkpt lat="46.00122" lon="6.57039">
        <ele>1980.5999755859</ele>
        <time>2019-02-20T11:11:42.000Z</time>
      </trkpt>
      <trkpt lat="46.0012" lon="6.57037">
        <ele>1980.8000488281</ele>
        <time>2019-02-20T11:11:44.000Z</time>
      </trkpt>
      <trkpt lat="46.00119" lon="6.57035">
        <ele>1980.8000488281</ele>
        <time>2019-02-20T11:11:46.000Z</time>
      </trkpt>
      <trkpt lat="46.00117" lon="6.57034">
        <ele>1980.5999755859</ele>
        <time>2019-02-20T11:11:48.000Z</time>
      </trkpt>
      <trkpt lat="46.00116" lon="6.57032">
        <ele>1980.5999755859</ele>
        <time>2019-02-20T11:11:50.000Z</time>
      </trkpt>
      <trkpt lat="46.00114" lon="6.5703">
        <ele>1980.5999755859</ele>
        <time>2019-02-20T11:11:52.000Z</time>
      </trkpt>
      <trkpt lat="46.00113" lon="6.57029">
        <ele>1980.5999755859</ele>
        <time>2019-02-20T11:11:54.000Z</time>
      </trkpt>
      <trkpt lat="46.00111" lon="6.57027">
        <ele>1980.4000244141</ele>
        <time>2019-02-20T11:11:57.000Z</time>
      </trkpt>
      <trkpt lat="46.00109" lon="6.57025">
        <ele>1980.4000244141</ele>
        <time>2019-02-20T11:12:00.000Z</time>
      </trkpt>
      <trkpt lat="46.00106" lon="6.57024">
        <ele>1980.4000244141</ele>
        <time>2019-02-20T11:12:03.000Z</time>
      </trkpt>
      <trkpt lat="46.00104" lon="6.57023">
        <ele>1980.4000244141</ele>
        <time>2019-02-20T11:12:06.000Z</time>
      </trkpt>
      <trkpt lat="46.00102" lon="6.57023">
        <ele>1980.4000244141</ele>
        <time>2019-02-20T11:12:08.000Z</time>
      </trkpt>
      <trkpt lat="46.00101" lon="6.57022">
        <ele>1980.4000244141</ele>
        <time>2019-02-20T11:12:11.000Z</time>
      </trkpt>
      <trkpt lat="46.00098" lon="6.57021">
        <ele>1980.5999755859</ele>
        <time>2019-02-20T11:12:14.000Z</time>
      </trkpt>
      <trkpt lat="46.00096" lon="6.57021">
        <ele>1980.8000488281</ele>
        <time>2019-02-20T11:12:16.000Z</time>
      </trkpt>
      <trkpt lat="46.00094" lon="6.57021">
        <ele>1980.8000488281</ele>
        <time>2019-02-20T11:12:19.000Z</time>
      </trkpt>
      <trkpt lat="46.00091" lon="6.5702">
        <ele>1980.4000244141</ele>
        <time>2019-02-20T11:12:22.000Z</time>
      </trkpt>
      <trkpt lat="46.00089" lon="6.57018">
        <ele>1980.5999755859</ele>
        <time>2019-02-20T11:12:25.000Z</time>
      </trkpt>
      <trkpt lat="46.00086" lon="6.57017">
        <ele>1980.5999755859</ele>
        <time>2019-02-20T11:12:28.000Z</time>
      </trkpt>
      <trkpt lat="46.00085" lon="6.57016">
        <ele>1980.5999755859</ele>
        <time>2019-02-20T11:12:30.000Z</time>
      </trkpt>
      <trkpt lat="46.00082" lon="6.57015">
        <ele>1980.5999755859</ele>
        <time>2019-02-20T11:12:33.000Z</time>
      </trkpt>
      <trkpt lat="46.0008" lon="6.57014">
        <ele>1980.5999755859</ele>
        <time>2019-02-20T11:12:36.000Z</time>
      </trkpt>
      <trkpt lat="46.00078" lon="6.57012">
        <ele>1980.5999755859</ele>
        <time>2019-02-20T11:12:39.000Z</time>
      </trkpt>
      <trkpt lat="46.00077" lon="6.5701">
        <ele>1980.5999755859</ele>
        <time>2019-02-20T11:12:42.000Z</time>
      </trkpt>
      <trkpt lat="46.00075" lon="6.57009">
        <ele>1980.5999755859</ele>
        <time>2019-02-20T11:12:46.000Z</time>
      </trkpt>
      <trkpt lat="46.00073" lon="6.57008">
        <ele>1981.1999511719</ele>
        <time>2019-02-20T11:12:49.000Z</time>
      </trkpt>
      <trkpt lat="46.00071" lon="6.57007">
        <ele>1981.0001994321</ele>
        <time>2019-02-20T11:12:52.000Z</time>
      </trkpt>
      <trkpt lat="46.00069" lon="6.57008">
        <ele>1981.1999511719</ele>
        <time>2019-02-20T11:12:56.000Z</time>
      </trkpt>
      <trkpt lat="46.00066" lon="6.57007">
        <ele>1981.1999511719</ele>
        <time>2019-02-20T11:13:00.000Z</time>
      </trkpt>
      <trkpt lat="46.00064" lon="6.57008">
        <ele>1981.4000244141</ele>
        <time>2019-02-20T11:13:02.000Z</time>
      </trkpt>
      <trkpt lat="46.00062" lon="6.57008">
        <ele>1981.4000244141</ele>
        <time>2019-02-20T11:13:04.000Z</time>
      </trkpt>
      <trkpt lat="46.0006" lon="6.57007">
        <ele>1981.4000244141</ele>
        <time>2019-02-20T11:13:06.000Z</time>
      </trkpt>
      <trkpt lat="46.00057" lon="6.57007">
        <ele>1981.1999511719</ele>
        <time>2019-02-20T11:13:08.000Z</time>
      </trkpt>
      <trkpt lat="46.00053" lon="6.57008">
        <ele>1980.8000488281</ele>
        <time>2019-02-20T11:13:10.000Z</time>
      </trkpt>
      <trkpt lat="46.00051" lon="6.57008">
        <ele>1980.5999755859</ele>
        <time>2019-02-20T11:13:11.000Z</time>
      </trkpt>
      <trkpt lat="46.0005" lon="6.57008">
        <ele>1980.5999755859</ele>
        <time>2019-02-20T11:13:12.000Z</time>
      </trkpt>
      <trkpt lat="46.00047" lon="6.57009">
        <ele>1980.1999511719</ele>
        <time>2019-02-20T11:13:14.000Z</time>
      </trkpt>
      <trkpt lat="46.00044" lon="6.5701">
        <ele>1979.8000488281</ele>
        <time>2019-02-20T11:13:16.000Z</time>
      </trkpt>
      <trkpt lat="46.00041" lon="6.5701">
        <ele>1979.4000244141</ele>
        <time>2019-02-20T11:13:18.000Z</time>
      </trkpt>
      <trkpt lat="46.00038" lon="6.5701">
        <ele>1979</ele>
        <time>2019-02-20T11:13:20.000Z</time>
      </trkpt>
      <trkpt lat="46.00036" lon="6.5701">
        <ele>1978.5999755859</ele>
        <time>2019-02-20T11:13:21.000Z</time>
      </trkpt>
      <trkpt lat="46.00034" lon="6.57009">
        <ele>1978.4000244141</ele>
        <time>2019-02-20T11:13:22.000Z</time>
      </trkpt>
      <trkpt lat="46.00031" lon="6.57009">
        <ele>1978.1999511719</ele>
        <time>2019-02-20T11:13:24.000Z</time>
      </trkpt>
      <trkpt lat="46.00028" lon="6.57009">
        <ele>1977.5999755859</ele>
        <time>2019-02-20T11:13:26.000Z</time>
      </trkpt>
      <trkpt lat="46.00025" lon="6.57008">
        <ele>1977.5999755859</ele>
        <time>2019-02-20T11:13:27.000Z</time>
      </trkpt>
      <trkpt lat="46.00023" lon="6.57008">
        <ele>1977.1999511719</ele>
        <time>2019-02-20T11:13:28.000Z</time>
      </trkpt>
      <trkpt lat="46.0002" lon="6.57008">
        <ele>1977</ele>
        <time>2019-02-20T11:13:30.000Z</time>
      </trkpt>
      <trkpt lat="46.00017" lon="6.57008">
        <ele>1976.1999511719</ele>
        <time>2019-02-20T11:13:32.000Z</time>
      </trkpt>
      <trkpt lat="46.00014" lon="6.57008">
        <ele>1975.8000488281</ele>
        <time>2019-02-20T11:13:34.000Z</time>
      </trkpt>
      <trkpt lat="46.0001" lon="6.57009">
        <ele>1975.4000244141</ele>
        <time>2019-02-20T11:13:36.000Z</time>
      </trkpt>
      <trkpt lat="46.00007" lon="6.57009">
        <ele>1975</ele>
        <time>2019-02-20T11:13:37.000Z</time>
      </trkpt>
      <trkpt lat="46.00004" lon="6.57009">
        <ele>1974.8000488281</ele>
        <time>2019-02-20T11:13:38.000Z</time>
      </trkpt>
      <trkpt lat="46.00002" lon="6.57008">
        <ele>1974.8000488281</ele>
        <time>2019-02-20T11:13:39.000Z</time>
      </trkpt>
      <trkpt lat="46" lon="6.57008">
        <ele>1974.4000244141</ele>
        <time>2019-02-20T11:13:40.000Z</time>
      </trkpt>
      <trkpt lat="45.99999" lon="6.57006">
        <ele>1973.8000488281</ele>
        <time>2019-02-20T11:13:42.000Z</time>
      </trkpt>
      <trkpt lat="45.99997" lon="6.57004">
        <ele>1972.5999755859</ele>
        <time>2019-02-20T11:13:46.000Z</time>
      </trkpt>
      <trkpt lat="45.99995" lon="6.57004">
        <ele>1972.1999511719</ele>
        <time>2019-02-20T11:13:49.000Z</time>
      </trkpt>
      <trkpt lat="45.99994" lon="6.57004">
        <ele>1972</ele>
        <time>2019-02-20T11:13:52.000Z</time>
      </trkpt>
      <trkpt lat="45.99991" lon="6.57004">
        <ele>1972</ele>
        <time>2019-02-20T11:13:56.000Z</time>
      </trkpt>
      <trkpt lat="45.99989" lon="6.57005">
        <ele>1972.1999511719</ele>
        <time>2019-02-20T11:14:00.000Z</time>
      </trkpt>
      <trkpt lat="45.99987" lon="6.57005">
        <ele>1972.4000244141</ele>
        <time>2019-02-20T11:14:04.000Z</time>
      </trkpt>
      <trkpt lat="45.99985" lon="6.57005">
        <ele>1973</ele>
        <time>2019-02-20T11:14:07.000Z</time>
      </trkpt>
      <trkpt lat="45.99983" lon="6.57005">
        <ele>1973.1999511719</ele>
        <time>2019-02-20T11:14:10.000Z</time>
      </trkpt>
      <trkpt lat="45.99981" lon="6.57006">
        <ele>1973.5999755859</ele>
        <time>2019-02-20T11:14:13.000Z</time>
      </trkpt>
      <trkpt lat="45.99979" lon="6.57007">
        <ele>1974.1999511719</ele>
        <time>2019-02-20T11:14:17.000Z</time>
      </trkpt>
      <trkpt lat="45.99977" lon="6.57007">
        <ele>1974</ele>
        <time>2019-02-20T11:14:19.000Z</time>
      </trkpt>
      <trkpt lat="45.99975" lon="6.57008">
        <ele>1974.4000244141</ele>
        <time>2019-02-20T11:14:21.000Z</time>
      </trkpt>
      <trkpt lat="45.99972" lon="6.57008">
        <ele>1974.4000244141</ele>
        <time>2019-02-20T11:14:24.000Z</time>
      </trkpt>
      <trkpt lat="45.9997" lon="6.57009">
        <ele>1974.1999511719</ele>
        <time>2019-02-20T11:14:27.000Z</time>
      </trkpt>
      <trkpt lat="45.99967" lon="6.57009">
        <ele>1974</ele>
        <time>2019-02-20T11:14:30.000Z</time>
      </trkpt>
      <trkpt lat="45.99966" lon="6.57009">
        <ele>1974</ele>
        <time>2019-02-20T11:14:32.000Z</time>
      </trkpt>
      <trkpt lat="45.99964" lon="6.57009">
        <ele>1973.8000488281</ele>
        <time>2019-02-20T11:14:34.000Z</time>
      </trkpt>
      <trkpt lat="45.99962" lon="6.5701">
        <ele>1973.8000488281</ele>
        <time>2019-02-20T11:14:36.000Z</time>
      </trkpt>
      <trkpt lat="45.9996" lon="6.5701">
        <ele>1974.1999511719</ele>
        <time>2019-02-20T11:14:39.000Z</time>
      </trkpt>
      <trkpt lat="45.99957" lon="6.57011">
        <ele>1973.8000488281</ele>
        <time>2019-02-20T11:14:42.000Z</time>
      </trkpt>
      <trkpt lat="45.99955" lon="6.57011">
        <ele>1973.5999755859</ele>
        <time>2019-02-20T11:14:45.000Z</time>
      </trkpt>
      <trkpt lat="45.99953" lon="6.57011">
        <ele>1973.5999755859</ele>
        <time>2019-02-20T11:14:48.000Z</time>
      </trkpt>
      <trkpt lat="45.99951" lon="6.57011">
        <ele>1973.5999755859</ele>
        <time>2019-02-20T11:14:51.000Z</time>
      </trkpt>
      <trkpt lat="45.99948" lon="6.57012">
        <ele>1973.5999755859</ele>
        <time>2019-02-20T11:14:54.000Z</time>
      </trkpt>
      <trkpt lat="45.99946" lon="6.57011">
        <ele>1973.5999755859</ele>
        <time>2019-02-20T11:14:57.000Z</time>
      </trkpt>
      <trkpt lat="45.99944" lon="6.57011">
        <ele>1973.8000488281</ele>
        <time>2019-02-20T11:15:00.000Z</time>
      </trkpt>
      <trkpt lat="45.99942" lon="6.57012">
        <ele>1973.5999755859</ele>
        <time>2019-02-20T11:15:03.000Z</time>
      </trkpt>
      <trkpt lat="45.9994" lon="6.57011">
        <ele>1973.5999755859</ele>
        <time>2019-02-20T11:15:06.000Z</time>
      </trkpt>
      <trkpt lat="45.99938" lon="6.57011">
        <ele>1973.1999511719</ele>
        <time>2019-02-20T11:15:09.000Z</time>
      </trkpt>
      <trkpt lat="45.99936" lon="6.57012">
        <ele>1973.4000244141</ele>
        <time>2019-02-20T11:15:12.000Z</time>
      </trkpt>
      <trkpt lat="45.99934" lon="6.57013">
        <ele>1973.5999755859</ele>
        <time>2019-02-20T11:15:15.000Z</time>
      </trkpt>
      <trkpt lat="45.99932" lon="6.57014">
        <ele>1973.8000488281</ele>
        <time>2019-02-20T11:15:18.000Z</time>
      </trkpt>
      <trkpt lat="45.9993" lon="6.57015">
        <ele>1974</ele>
        <time>2019-02-20T11:15:19.000Z</time>
      </trkpt>
      <trkpt lat="45.99928" lon="6.57016">
        <ele>1974</ele>
        <time>2019-02-20T11:15:20.000Z</time>
      </trkpt>
      <trkpt lat="45.99925" lon="6.57016">
        <ele>1974</ele>
        <time>2019-02-20T11:15:22.000Z</time>
      </trkpt>
      <trkpt lat="45.99923" lon="6.57017">
        <ele>1973.4000244141</ele>
        <time>2019-02-20T11:15:25.000Z</time>
      </trkpt>
      <trkpt lat="45.99921" lon="6.57018">
        <ele>1972.8000488281</ele>
        <time>2019-02-20T11:15:28.000Z</time>
      </trkpt>
      <trkpt lat="45.99919" lon="6.57018">
        <ele>1972.4000244141</ele>
        <time>2019-02-20T11:15:31.000Z</time>
      </trkpt>
      <trkpt lat="45.99917" lon="6.57018">
        <ele>1972.4000244141</ele>
        <time>2019-02-20T11:15:34.000Z</time>
      </trkpt>
      <trkpt lat="45.99915" lon="6.57018">
        <ele>1972.5999755859</ele>
        <time>2019-02-20T11:15:37.000Z</time>
      </trkpt>
      <trkpt lat="45.99913" lon="6.57019">
        <ele>1972.8000488281</ele>
        <time>2019-02-20T11:15:40.000Z</time>
      </trkpt>
      <trkpt lat="45.99911" lon="6.57019">
        <ele>1972.4000244141</ele>
        <time>2019-02-20T11:15:44.000Z</time>
      </trkpt>
      <trkpt lat="45.99908" lon="6.5702">
        <ele>1972.4000244141</ele>
        <time>2019-02-20T11:15:48.000Z</time>
      </trkpt>
      <trkpt lat="45.99907" lon="6.5702">
        <ele>1973.1999511719</ele>
        <time>2019-02-20T11:15:51.000Z</time>
      </trkpt>
      <trkpt lat="45.99905" lon="6.57021">
        <ele>1973.1999511719</ele>
        <time>2019-02-20T11:15:54.000Z</time>
      </trkpt>
      <trkpt lat="45.99903" lon="6.57021">
        <ele>1973.4000244141</ele>
        <time>2019-02-20T11:15:57.000Z</time>
      </trkpt>
      <trkpt lat="45.999" lon="6.57022">
        <ele>1974</ele>
        <time>2019-02-20T11:16:01.000Z</time>
      </trkpt>
      <trkpt lat="45.99898" lon="6.57022">
        <ele>1973.8000488281</ele>
        <time>2019-02-20T11:16:05.000Z</time>
      </trkpt>
      <trkpt lat="45.99895" lon="6.57023">
        <ele>1973.5999755859</ele>
        <time>2019-02-20T11:16:09.000Z</time>
      </trkpt>
      <trkpt lat="45.99894" lon="6.57023">
        <ele>1974.1999511719</ele>
        <time>2019-02-20T11:16:12.000Z</time>
      </trkpt>
      <trkpt lat="45.99891" lon="6.57024">
        <ele>1974.1999511719</ele>
        <time>2019-02-20T11:16:15.000Z</time>
      </trkpt>
      <trkpt lat="45.9989" lon="6.57024">
        <ele>1974</ele>
        <time>2019-02-20T11:16:17.000Z</time>
      </trkpt>
      <trkpt lat="45.99887" lon="6.57025">
        <ele>1974.1999511719</ele>
        <time>2019-02-20T11:16:19.000Z</time>
      </trkpt>
      <trkpt lat="45.99884" lon="6.57026">
        <ele>1974.1999511719</ele>
        <time>2019-02-20T11:16:21.000Z</time>
      </trkpt>
      <trkpt lat="45.99881" lon="6.57027">
        <ele>1974.4000244141</ele>
        <time>2019-02-20T11:16:23.000Z</time>
      </trkpt>
      <trkpt lat="45.99878" lon="6.57028">
        <ele>1974.1999511719</ele>
        <time>2019-02-20T11:16:25.000Z</time>
      </trkpt>
      <trkpt lat="45.99876" lon="6.57028">
        <ele>1974</ele>
        <time>2019-02-20T11:16:27.000Z</time>
      </trkpt>
      <trkpt lat="45.99874" lon="6.57029">
        <ele>1973.4000244141</ele>
        <time>2019-02-20T11:16:30.000Z</time>
      </trkpt>
      <trkpt lat="45.99872" lon="6.5703">
        <ele>1973.4000244141</ele>
        <time>2019-02-20T11:16:34.000Z</time>
      </trkpt>
      <trkpt lat="45.9987" lon="6.5703">
        <ele>1973.5999755859</ele>
        <time>2019-02-20T11:16:37.000Z</time>
      </trkpt>
      <trkpt lat="45.99868" lon="6.57031">
        <ele>1973.4000244141</ele>
        <time>2019-02-20T11:16:40.000Z</time>
      </trkpt>
      <trkpt lat="45.99865" lon="6.57032">
        <ele>1973.4000244141</ele>
        <time>2019-02-20T11:16:43.000Z</time>
      </trkpt>
      <trkpt lat="45.99863" lon="6.57032">
        <ele>1973.8000488281</ele>
        <time>2019-02-20T11:16:46.000Z</time>
      </trkpt>
      <trkpt lat="45.99861" lon="6.57032">
        <ele>1974.1999511719</ele>
        <time>2019-02-20T11:16:50.000Z</time>
      </trkpt>
      <trkpt lat="45.99859" lon="6.57033">
        <ele>1974.4000244141</ele>
        <time>2019-02-20T11:16:54.000Z</time>
      </trkpt>
      <trkpt lat="45.99856" lon="6.57033">
        <ele>1974.4000244141</ele>
        <time>2019-02-20T11:16:57.000Z</time>
      </trkpt>
      <trkpt lat="45.99854" lon="6.57033">
        <ele>1974.5999755859</ele>
        <time>2019-02-20T11:17:01.000Z</time>
      </trkpt>
      <trkpt lat="45.99852" lon="6.57033">
        <ele>1975</ele>
        <time>2019-02-20T11:17:04.000Z</time>
      </trkpt>
      <trkpt lat="45.99849" lon="6.57033">
        <ele>1975.1999511719</ele>
        <time>2019-02-20T11:17:07.000Z</time>
      </trkpt>
      <trkpt lat="45.99847" lon="6.57033">
        <ele>1975.4000244141</ele>
        <time>2019-02-20T11:17:10.000Z</time>
      </trkpt>
      <trkpt lat="45.99844" lon="6.57032">
        <ele>1975.5999755859</ele>
        <time>2019-02-20T11:17:13.000Z</time>
      </trkpt>
      <trkpt lat="45.99842" lon="6.57032">
        <ele>1975.5999755859</ele>
        <time>2019-02-20T11:17:16.000Z</time>
      </trkpt>
      <trkpt lat="45.9984" lon="6.57033">
        <ele>1975.4000244141</ele>
        <time>2019-02-20T11:17:19.000Z</time>
      </trkpt>
      <trkpt lat="45.99837" lon="6.57032">
        <ele>1975.5999755859</ele>
        <time>2019-02-20T11:17:22.000Z</time>
      </trkpt>
      <trkpt lat="45.99835" lon="6.57032">
        <ele>1975.8000488281</ele>
        <time>2019-02-20T11:17:25.000Z</time>
      </trkpt>
      <trkpt lat="45.99833" lon="6.57033">
        <ele>1975.8000488281</ele>
        <time>2019-02-20T11:17:27.000Z</time>
      </trkpt>
      <trkpt lat="45.9983" lon="6.57033">
        <ele>1976.4000244141</ele>
        <time>2019-02-20T11:17:29.000Z</time>
      </trkpt>
      <trkpt lat="45.99828" lon="6.57033">
        <ele>1976.1999511719</ele>
        <time>2019-02-20T11:17:31.000Z</time>
      </trkpt>
      <trkpt lat="45.99825" lon="6.57033">
        <ele>1975.8000488281</ele>
        <time>2019-02-20T11:17:33.000Z</time>
      </trkpt>
      <trkpt lat="45.99822" lon="6.57033">
        <ele>1975.8000488281</ele>
        <time>2019-02-20T11:17:35.000Z</time>
      </trkpt>
      <trkpt lat="45.99819" lon="6.57033">
        <ele>1975.5999755859</ele>
        <time>2019-02-20T11:17:37.000Z</time>
      </trkpt>
      <trkpt lat="45.99817" lon="6.57032">
        <ele>1975</ele>
        <time>2019-02-20T11:17:40.000Z</time>
      </trkpt>
      <trkpt lat="45.99815" lon="6.57033">
        <ele>1974.5999755859</ele>
        <time>2019-02-20T11:17:43.000Z</time>
      </trkpt>
      <trkpt lat="45.99813" lon="6.57033">
        <ele>1974.5999755859</ele>
        <time>2019-02-20T11:17:47.000Z</time>
      </trkpt>
      <trkpt lat="45.99811" lon="6.57033">
        <ele>1974.8000488281</ele>
        <time>2019-02-20T11:17:51.000Z</time>
      </trkpt>
      <trkpt lat="45.99809" lon="6.57033">
        <ele>1975</ele>
        <time>2019-02-20T11:17:55.000Z</time>
      </trkpt>
      <trkpt lat="45.99807" lon="6.57033">
        <ele>1975.4000244141</ele>
        <time>2019-02-20T11:17:59.000Z</time>
      </trkpt>
      <trkpt lat="45.99805" lon="6.57032">
        <ele>1975.4000244141</ele>
        <time>2019-02-20T11:18:02.000Z</time>
      </trkpt>
      <trkpt lat="45.99803" lon="6.57032">
        <ele>1975.8000488281</ele>
        <time>2019-02-20T11:18:05.000Z</time>
      </trkpt>
      <trkpt lat="45.99801" lon="6.57033">
        <ele>1976</ele>
        <time>2019-02-20T11:18:07.000Z</time>
      </trkpt>
      <trkpt lat="45.99799" lon="6.57033">
        <ele>1976.1999511719</ele>
        <time>2019-02-20T11:18:09.000Z</time>
      </trkpt>
      <trkpt lat="45.99796" lon="6.57033">
        <ele>1975.8000488281</ele>
        <time>2019-02-20T11:18:12.000Z</time>
      </trkpt>
      <trkpt lat="45.99794" lon="6.57033">
        <ele>1976.4000244141</ele>
        <time>2019-02-20T11:18:15.000Z</time>
      </trkpt>
      <trkpt lat="45.99791" lon="6.57033">
        <ele>1976.1999511719</ele>
        <time>2019-02-20T11:18:18.000Z</time>
      </trkpt>
      <trkpt lat="45.99789" lon="6.57033">
        <ele>1976</ele>
        <time>2019-02-20T11:18:21.000Z</time>
      </trkpt>
      <trkpt lat="45.99787" lon="6.57032">
        <ele>1975.5999755859</ele>
        <time>2019-02-20T11:18:24.000Z</time>
      </trkpt>
      <trkpt lat="45.99785" lon="6.57032">
        <ele>1975.5999755859</ele>
        <time>2019-02-20T11:18:27.000Z</time>
      </trkpt>
      <trkpt lat="45.99782" lon="6.57032">
        <ele>1976</ele>
        <time>2019-02-20T11:18:30.000Z</time>
      </trkpt>
      <trkpt lat="45.99781" lon="6.57031">
        <ele>1975.8000488281</ele>
        <time>2019-02-20T11:18:32.000Z</time>
      </trkpt>
      <trkpt lat="45.99778" lon="6.57031">
        <ele>1975.5999755859</ele>
        <time>2019-02-20T11:18:34.000Z</time>
      </trkpt>
      <trkpt lat="45.99776" lon="6.57031">
        <ele>1975.8000488281</ele>
        <time>2019-02-20T11:18:36.000Z</time>
      </trkpt>
      <trkpt lat="45.99774" lon="6.57031">
        <ele>1975.5999755859</ele>
        <time>2019-02-20T11:18:38.000Z</time>
      </trkpt>
      <trkpt lat="45.99772" lon="6.57031">
        <ele>1975.4000244141</ele>
        <time>2019-02-20T11:18:40.000Z</time>
      </trkpt>
      <trkpt lat="45.9977" lon="6.57031">
        <ele>1975.1999511719</ele>
        <time>2019-02-20T11:18:43.000Z</time>
      </trkpt>
      <trkpt lat="45.99768" lon="6.57032">
        <ele>1975.4000244141</ele>
        <time>2019-02-20T11:18:46.000Z</time>
      </trkpt>
      <trkpt lat="45.99766" lon="6.57032">
        <ele>1975.8000488281</ele>
        <time>2019-02-20T11:18:49.000Z</time>
      </trkpt>
      <trkpt lat="45.99764" lon="6.57032">
        <ele>1975.1999511719</ele>
        <time>2019-02-20T11:18:52.000Z</time>
      </trkpt>
      <trkpt lat="45.99762" lon="6.57033">
        <ele>1975.4000244141</ele>
        <time>2019-02-20T11:18:55.000Z</time>
      </trkpt>
      <trkpt lat="45.9976" lon="6.57033">
        <ele>1975.8000488281</ele>
        <time>2019-02-20T11:18:59.000Z</time>
      </trkpt>
      <trkpt lat="45.99758" lon="6.57034">
        <ele>1975.8000488281</ele>
        <time>2019-02-20T11:19:02.000Z</time>
      </trkpt>
      <trkpt lat="45.99756" lon="6.57034">
        <ele>1975.8000488281</ele>
        <time>2019-02-20T11:19:05.000Z</time>
      </trkpt>
      <trkpt lat="45.99754" lon="6.57034">
        <ele>1976.1999511719</ele>
        <time>2019-02-20T11:19:08.000Z</time>
      </trkpt>
      <trkpt lat="45.99752" lon="6.57034">
        <ele>1976.5999755859</ele>
        <time>2019-02-20T11:19:11.000Z</time>
      </trkpt>
      <trkpt lat="45.9975" lon="6.57034">
        <ele>1976.799650118</ele>
        <time>2019-02-20T11:19:14.000Z</time>
      </trkpt>
      <trkpt lat="45.99747" lon="6.57034">
        <ele>1977</ele>
        <time>2019-02-20T11:19:17.000Z</time>
      </trkpt>
      <trkpt lat="45.99745" lon="6.57034">
        <ele>1976.8000488281</ele>
        <time>2019-02-20T11:19:20.000Z</time>
      </trkpt>
      <trkpt lat="45.99743" lon="6.57034">
        <ele>1976.8000488281</ele>
        <time>2019-02-20T11:19:23.000Z</time>
      </trkpt>
      <trkpt lat="45.9974" lon="6.57034">
        <ele>1976.8000488281</ele>
        <time>2019-02-20T11:19:26.000Z</time>
      </trkpt>
      <trkpt lat="45.99738" lon="6.57035">
        <ele>1976.8000488281</ele>
        <time>2019-02-20T11:19:29.000Z</time>
      </trkpt>
      <trkpt lat="45.99735" lon="6.57035">
        <ele>1977.1999511719</ele>
        <time>2019-02-20T11:19:32.000Z</time>
      </trkpt>
      <trkpt lat="45.99733" lon="6.57036">
        <ele>1976.8000488281</ele>
        <time>2019-02-20T11:19:35.000Z</time>
      </trkpt>
      <trkpt lat="45.9973" lon="6.57036">
        <ele>1976.5999755859</ele>
        <time>2019-02-20T11:19:38.000Z</time>
      </trkpt>
      <trkpt lat="45.99728" lon="6.57037">
        <ele>1976.4000244141</ele>
        <time>2019-02-20T11:19:41.000Z</time>
      </trkpt>
      <trkpt lat="45.99725" lon="6.57037">
        <ele>1976.5999755859</ele>
        <time>2019-02-20T11:19:44.000Z</time>
      </trkpt>
      <trkpt lat="45.99723" lon="6.57038">
        <ele>1976.4000244141</ele>
        <time>2019-02-20T11:19:47.000Z</time>
      </trkpt>
      <trkpt lat="45.99721" lon="6.57038">
        <ele>1976.4000244141</ele>
        <time>2019-02-20T11:19:50.000Z</time>
      </trkpt>
      <trkpt lat="45.99719" lon="6.57039">
        <ele>1976.5999755859</ele>
        <time>2019-02-20T11:19:53.000Z</time>
      </trkpt>
      <trkpt lat="45.99716" lon="6.5704">
        <ele>1977.1999511719</ele>
        <time>2019-02-20T11:19:57.000Z</time>
      </trkpt>
      <trkpt lat="45.99714" lon="6.57041">
        <ele>1977.1999511719</ele>
        <time>2019-02-20T11:19:59.000Z</time>
      </trkpt>
      <trkpt lat="45.99713" lon="6.57043">
        <ele>1977.5999755859</ele>
        <time>2019-02-20T11:20:01.000Z</time>
      </trkpt>
      <trkpt lat="45.99711" lon="6.57043">
        <ele>1977.5999755859</ele>
        <time>2019-02-20T11:20:05.000Z</time>
      </trkpt>
      <trkpt lat="45.99709" lon="6.57043">
        <ele>1977.8000488281</ele>
        <time>2019-02-20T11:20:11.000Z</time>
      </trkpt>
      <trkpt lat="45.99707" lon="6.57043">
        <ele>1977.5999755859</ele>
        <time>2019-02-20T11:20:51.000Z</time>
      </trkpt>
      <trkpt lat="45.99705" lon="6.57043">
        <ele>1977.5999755859</ele>
        <time>2019-02-20T11:20:54.000Z</time>
      </trkpt>
      <trkpt lat="45.99702" lon="6.57044">
        <ele>1977.4004236766</ele>
        <time>2019-02-20T11:20:57.000Z</time>
      </trkpt>
      <trkpt lat="45.997" lon="6.57044">
        <ele>1977.4000244141</ele>
        <time>2019-02-20T11:21:00.000Z</time>
      </trkpt>
      <trkpt lat="45.99697" lon="6.57045">
        <ele>1977.5999755859</ele>
        <time>2019-02-20T11:21:03.000Z</time>
      </trkpt>
      <trkpt lat="45.99695" lon="6.57045">
        <ele>1977.5999755859</ele>
        <time>2019-02-20T11:21:06.000Z</time>
      </trkpt>
      <trkpt lat="45.99693" lon="6.57045">
        <ele>1978</ele>
        <time>2019-02-20T11:21:09.000Z</time>
      </trkpt>
      <trkpt lat="45.99691" lon="6.57046">
        <ele>1978.4000244141</ele>
        <time>2019-02-20T11:21:12.000Z</time>
      </trkpt>
      <trkpt lat="45.99689" lon="6.57047">
        <ele>1978.8000488281</ele>
        <time>2019-02-20T11:21:15.000Z</time>
      </trkpt>
      <trkpt lat="45.99687" lon="6.57048">
        <ele>1979.8000488281</ele>
        <time>2019-02-20T11:21:18.000Z</time>
      </trkpt>
      <trkpt lat="45.99685" lon="6.5705">
        <ele>1980.1999511719</ele>
        <time>2019-02-20T11:21:20.000Z</time>
      </trkpt>
      <trkpt lat="45.99683" lon="6.57051">
        <ele>1980.5999755859</ele>
        <time>2019-02-20T11:21:22.000Z</time>
      </trkpt>
      <trkpt lat="45.99681" lon="6.57053">
        <ele>1981</ele>
        <time>2019-02-20T11:21:25.000Z</time>
      </trkpt>
      <trkpt lat="45.99679" lon="6.57055">
        <ele>1981.4000244141</ele>
        <time>2019-02-20T11:21:27.000Z</time>
      </trkpt>
      <trkpt lat="45.99677" lon="6.57057">
        <ele>1981.8000488281</ele>
        <time>2019-02-20T11:21:30.000Z</time>
      </trkpt>
      <trkpt lat="45.99675" lon="6.57058">
        <ele>1982.1999511719</ele>
        <time>2019-02-20T11:21:32.000Z</time>
      </trkpt>
      <trkpt lat="45.99674" lon="6.57059">
        <ele>1982.1999511719</ele>
        <time>2019-02-20T11:21:34.000Z</time>
      </trkpt>
      <trkpt lat="45.99672" lon="6.5706">
        <ele>1982.4000244141</ele>
        <time>2019-02-20T11:21:36.000Z</time>
      </trkpt>
      <trkpt lat="45.99669" lon="6.57062">
        <ele>1982.8000488281</ele>
        <time>2019-02-20T11:21:38.000Z</time>
      </trkpt>
      <trkpt lat="45.99667" lon="6.57062">
        <ele>1983.1999511719</ele>
        <time>2019-02-20T11:21:40.000Z</time>
      </trkpt>
      <trkpt lat="45.99665" lon="6.57063">
        <ele>1983.1999511719</ele>
        <time>2019-02-20T11:21:42.000Z</time>
      </trkpt>
      <trkpt lat="45.99663" lon="6.57064">
        <ele>1983.4000244141</ele>
        <time>2019-02-20T11:21:44.000Z</time>
      </trkpt>
      <trkpt lat="45.9966" lon="6.57065">
        <ele>1983.5999755859</ele>
        <time>2019-02-20T11:21:46.000Z</time>
      </trkpt>
      <trkpt lat="45.99658" lon="6.57067">
        <ele>1983.8000488281</ele>
        <time>2019-02-20T11:21:48.000Z</time>
      </trkpt>
      <trkpt lat="45.99656" lon="6.57068">
        <ele>1984</ele>
        <time>2019-02-20T11:21:50.000Z</time>
      </trkpt>
      <trkpt lat="45.99654" lon="6.57069">
        <ele>1984.5999755859</ele>
        <time>2019-02-20T11:21:52.000Z</time>
      </trkpt>
      <trkpt lat="45.99652" lon="6.5707">
        <ele>1984.5999755859</ele>
        <time>2019-02-20T11:21:55.000Z</time>
      </trkpt>
      <trkpt lat="45.9965" lon="6.57072">
        <ele>1984.8000488281</ele>
        <time>2019-02-20T11:21:58.000Z</time>
      </trkpt>
      <trkpt lat="45.99648" lon="6.57074">
        <ele>1985</ele>
        <time>2019-02-20T11:22:00.000Z</time>
      </trkpt>
      <trkpt lat="45.99646" lon="6.57075">
        <ele>1985.1999511719</ele>
        <time>2019-02-20T11:22:02.000Z</time>
      </trkpt>
      <trkpt lat="45.99644" lon="6.57076">
        <ele>1985.4000244141</ele>
        <time>2019-02-20T11:22:05.000Z</time>
      </trkpt>
      <trkpt lat="45.99641" lon="6.57078">
        <ele>1985.5999755859</ele>
        <time>2019-02-20T11:22:07.000Z</time>
      </trkpt>
      <trkpt lat="45.99639" lon="6.5708">
        <ele>1986</ele>
        <time>2019-02-20T11:22:10.000Z</time>
      </trkpt>
      <trkpt lat="45.99637" lon="6.57082">
        <ele>1985.8000488281</ele>
        <time>2019-02-20T11:22:12.000Z</time>
      </trkpt>
      <trkpt lat="45.99636" lon="6.57084">
        <ele>1986</ele>
        <time>2019-02-20T11:22:14.000Z</time>
      </trkpt>
      <trkpt lat="45.99633" lon="6.57085">
        <ele>1986.4000244141</ele>
        <time>2019-02-20T11:22:16.000Z</time>
      </trkpt>
      <trkpt lat="45.99631" lon="6.57087">
        <ele>1986.4000244141</ele>
        <time>2019-02-20T11:22:18.000Z</time>
      </trkpt>
      <trkpt lat="45.99629" lon="6.57087">
        <ele>1986.1999511719</ele>
        <time>2019-02-20T11:22:20.000Z</time>
      </trkpt>
      <trkpt lat="45.99627" lon="6.57088">
        <ele>1986.5999755859</ele>
        <time>2019-02-20T11:22:22.000Z</time>
      </trkpt>
      <trkpt lat="45.99625" lon="6.57089">
        <ele>1986.4000244141</ele>
        <time>2019-02-20T11:22:24.000Z</time>
      </trkpt>
      <trkpt lat="45.99622" lon="6.5709">
        <ele>1986.5999755859</ele>
        <time>2019-02-20T11:22:27.000Z</time>
      </trkpt>
      <trkpt lat="45.99621" lon="6.57091">
        <ele>1986.8000488281</ele>
        <time>2019-02-20T11:22:29.000Z</time>
      </trkpt>
      <trkpt lat="45.99619" lon="6.57093">
        <ele>1986.8000488281</ele>
        <time>2019-02-20T11:22:31.000Z</time>
      </trkpt>
      <trkpt lat="45.99617" lon="6.57094">
        <ele>1986.5999755859</ele>
        <time>2019-02-20T11:22:33.000Z</time>
      </trkpt>
      <trkpt lat="45.99615" lon="6.57095">
        <ele>1986.5999755859</ele>
        <time>2019-02-20T11:22:35.000Z</time>
      </trkpt>
      <trkpt lat="45.99613" lon="6.57096">
        <ele>1986.8000488281</ele>
        <time>2019-02-20T11:22:37.000Z</time>
      </trkpt>
      <trkpt lat="45.99611" lon="6.57097">
        <ele>1986.4000244141</ele>
        <time>2019-02-20T11:22:40.000Z</time>
      </trkpt>
      <trkpt lat="45.99609" lon="6.57099">
        <ele>1986.5999755859</ele>
        <time>2019-02-20T11:22:42.000Z</time>
      </trkpt>
      <trkpt lat="45.99608" lon="6.57101">
        <ele>1986.8000488281</ele>
        <time>2019-02-20T11:22:44.000Z</time>
      </trkpt>
      <trkpt lat="45.99606" lon="6.57103">
        <ele>1987.1999511719</ele>
        <time>2019-02-20T11:22:47.000Z</time>
      </trkpt>
      <trkpt lat="45.99604" lon="6.57105">
        <ele>1987.4000244141</ele>
        <time>2019-02-20T11:22:50.000Z</time>
      </trkpt>
      <trkpt lat="45.99602" lon="6.57107">
        <ele>1987.1999511719</ele>
        <time>2019-02-20T11:22:53.000Z</time>
      </trkpt>
      <trkpt lat="45.99601" lon="6.57109">
        <ele>1987.4000244141</ele>
        <time>2019-02-20T11:22:56.000Z</time>
      </trkpt>
      <trkpt lat="45.99599" lon="6.57111">
        <ele>1987.5999755859</ele>
        <time>2019-02-20T11:22:59.000Z</time>
      </trkpt>
      <trkpt lat="45.99598" lon="6.57113">
        <ele>1988.4000244141</ele>
        <time>2019-02-20T11:23:06.000Z</time>
      </trkpt>
      <trkpt lat="45.99596" lon="6.57115">
        <ele>1988.8000488281</ele>
        <time>2019-02-20T11:23:12.000Z</time>
      </trkpt>
      <trkpt lat="45.99594" lon="6.57117">
        <ele>1989.1999511719</ele>
        <time>2019-02-20T11:23:15.000Z</time>
      </trkpt>
      <trkpt lat="45.99592" lon="6.5712">
        <ele>1989.5999755859</ele>
        <time>2019-02-20T11:23:18.000Z</time>
      </trkpt>
      <trkpt lat="45.9959" lon="6.57122">
        <ele>1989.8000488281</ele>
        <time>2019-02-20T11:23:21.000Z</time>
      </trkpt>
      <trkpt lat="45.99589" lon="6.57124">
        <ele>1989.8000488281</ele>
        <time>2019-02-20T11:23:24.000Z</time>
      </trkpt>
      <trkpt lat="45.99587" lon="6.57126">
        <ele>1990.1999511719</ele>
        <time>2019-02-20T11:23:27.000Z</time>
      </trkpt>
      <trkpt lat="45.99585" lon="6.57128">
        <ele>1990</ele>
        <time>2019-02-20T11:23:30.000Z</time>
      </trkpt>
      <trkpt lat="45.99583" lon="6.5713">
        <ele>1990.4000244141</ele>
        <time>2019-02-20T11:23:33.000Z</time>
      </trkpt>
      <trkpt lat="45.99581" lon="6.57132">
        <ele>1991</ele>
        <time>2019-02-20T11:23:36.000Z</time>
      </trkpt>
      <trkpt lat="45.9958" lon="6.57134">
        <ele>1991.4000244141</ele>
        <time>2019-02-20T11:23:39.000Z</time>
      </trkpt>
      <trkpt lat="45.99578" lon="6.57136">
        <ele>1991.4000244141</ele>
        <time>2019-02-20T11:23:42.000Z</time>
      </trkpt>
      <trkpt lat="45.99577" lon="6.57138">
        <ele>1991.5999755859</ele>
        <time>2019-02-20T11:23:46.000Z</time>
      </trkpt>
      <trkpt lat="45.99575" lon="6.5714">
        <ele>1991.8000488281</ele>
        <time>2019-02-20T11:23:50.000Z</time>
      </trkpt>
      <trkpt lat="45.99573" lon="6.57141">
        <ele>1992.1999511719</ele>
        <time>2019-02-20T11:23:54.000Z</time>
      </trkpt>
      <trkpt lat="45.99571" lon="6.57142">
        <ele>1992.5999755859</ele>
        <time>2019-02-20T11:23:58.000Z</time>
      </trkpt>
      <trkpt lat="45.99569" lon="6.57144">
        <ele>1992.5999755859</ele>
        <time>2019-02-20T11:24:01.000Z</time>
      </trkpt>
      <trkpt lat="45.99567" lon="6.57145">
        <ele>1993.1999511719</ele>
        <time>2019-02-20T11:24:04.000Z</time>
      </trkpt>
      <trkpt lat="45.99566" lon="6.57146">
        <ele>1994</ele>
        <time>2019-02-20T11:24:07.000Z</time>
      </trkpt>
      <trkpt lat="45.99564" lon="6.57148">
        <ele>1994.4000244141</ele>
        <time>2019-02-20T11:24:11.000Z</time>
      </trkpt>
      <trkpt lat="45.99562" lon="6.57149">
        <ele>1995</ele>
        <time>2019-02-20T11:24:15.000Z</time>
      </trkpt>
      <trkpt lat="45.99559" lon="6.5715">
        <ele>1995.1999511719</ele>
        <time>2019-02-20T11:24:19.000Z</time>
      </trkpt>
      <trkpt lat="45.99557" lon="6.57151">
        <ele>1995.4000244141</ele>
        <time>2019-02-20T11:24:22.000Z</time>
      </trkpt>
      <trkpt lat="45.99556" lon="6.57152">
        <ele>1995.799650118</ele>
        <time>2019-02-20T11:24:25.000Z</time>
      </trkpt>
      <trkpt lat="45.99554" lon="6.57153">
        <ele>1996</ele>
        <time>2019-02-20T11:24:28.000Z</time>
      </trkpt>
      <trkpt lat="45.99552" lon="6.57155">
        <ele>1996.4000244141</ele>
        <time>2019-02-20T11:24:31.000Z</time>
      </trkpt>
      <trkpt lat="45.9955" lon="6.57157">
        <ele>1996.8000488281</ele>
        <time>2019-02-20T11:24:35.000Z</time>
      </trkpt>
      <trkpt lat="45.99548" lon="6.57159">
        <ele>1996.8000488281</ele>
        <time>2019-02-20T11:24:39.000Z</time>
      </trkpt>
      <trkpt lat="45.99547" lon="6.57161">
        <ele>1997.1999511719</ele>
        <time>2019-02-20T11:24:42.000Z</time>
      </trkpt>
      <trkpt lat="45.99545" lon="6.57163">
        <ele>1997.5999755859</ele>
        <time>2019-02-20T11:24:45.000Z</time>
      </trkpt>
      <trkpt lat="45.99544" lon="6.57165">
        <ele>1998.1999511719</ele>
        <time>2019-02-20T11:24:49.000Z</time>
      </trkpt>
      <trkpt lat="45.99542" lon="6.57166">
        <ele>1998.5999755859</ele>
        <time>2019-02-20T11:24:54.000Z</time>
      </trkpt>
      <trkpt lat="45.99541" lon="6.57168">
        <ele>1999.8000488281</ele>
        <time>2019-02-20T11:24:58.000Z</time>
      </trkpt>
      <trkpt lat="45.99539" lon="6.57171">
        <ele>2000.1999511719</ele>
        <time>2019-02-20T11:25:02.000Z</time>
      </trkpt>
      <trkpt lat="45.99537" lon="6.57173">
        <ele>2001</ele>
        <time>2019-02-20T11:25:08.000Z</time>
      </trkpt>
      <trkpt lat="45.99536" lon="6.57174">
        <ele>2001.399625704</ele>
        <time>2019-02-20T11:25:11.000Z</time>
      </trkpt>
      <trkpt lat="45.99534" lon="6.57177">
        <ele>2002</ele>
        <time>2019-02-20T11:25:15.000Z</time>
      </trkpt>
      <trkpt lat="45.99533" lon="6.57179">
        <ele>2002</ele>
        <time>2019-02-20T11:25:18.000Z</time>
      </trkpt>
      <trkpt lat="45.99532" lon="6.57181">
        <ele>2002.1999511719</ele>
        <time>2019-02-20T11:25:21.000Z</time>
      </trkpt>
      <trkpt lat="45.99531" lon="6.57184">
        <ele>2002.4000244141</ele>
        <time>2019-02-20T11:25:24.000Z</time>
      </trkpt>
      <trkpt lat="45.9953" lon="6.57186">
        <ele>2002.4000244141</ele>
        <time>2019-02-20T11:25:27.000Z</time>
      </trkpt>
      <trkpt lat="45.99528" lon="6.57189">
        <ele>2002.4000244141</ele>
        <time>2019-02-20T11:25:30.000Z</time>
      </trkpt>
      <trkpt lat="45.99526" lon="6.57191">
        <ele>2002.4000244141</ele>
        <time>2019-02-20T11:25:33.000Z</time>
      </trkpt>
      <trkpt lat="45.99525" lon="6.57193">
        <ele>2001.5999755859</ele>
        <time>2019-02-20T11:25:36.000Z</time>
      </trkpt>
      <trkpt lat="45.99524" lon="6.57195">
        <ele>2001.5999755859</ele>
        <time>2019-02-20T11:25:39.000Z</time>
      </trkpt>
      <trkpt lat="45.99522" lon="6.57197">
        <ele>2001.8000488281</ele>
        <time>2019-02-20T11:25:43.000Z</time>
      </trkpt>
      <trkpt lat="45.9952" lon="6.57198">
        <ele>2002.1999511719</ele>
        <time>2019-02-20T11:25:47.000Z</time>
      </trkpt>
      <trkpt lat="45.99519" lon="6.57199">
        <ele>2002.5999755859</ele>
        <time>2019-02-20T11:25:51.000Z</time>
      </trkpt>
      <trkpt lat="45.99517" lon="6.57201">
        <ele>2003.4000244141</ele>
        <time>2019-02-20T11:25:55.000Z</time>
      </trkpt>
      <trkpt lat="45.99515" lon="6.57202">
        <ele>2004</ele>
        <time>2019-02-20T11:25:59.000Z</time>
      </trkpt>
      <trkpt lat="45.99514" lon="6.57205">
        <ele>2004.4000244141</ele>
        <time>2019-02-20T11:26:06.000Z</time>
      </trkpt>
      <trkpt lat="45.99513" lon="6.57207">
        <ele>2005</ele>
        <time>2019-02-20T11:26:10.000Z</time>
      </trkpt>
      <trkpt lat="45.99511" lon="6.57209">
        <ele>2005.4000244141</ele>
        <time>2019-02-20T11:26:14.000Z</time>
      </trkpt>
      <trkpt lat="45.9951" lon="6.57211">
        <ele>2005.4000244141</ele>
        <time>2019-02-20T11:26:17.000Z</time>
      </trkpt>
      <trkpt lat="45.99509" lon="6.57214">
        <ele>2006</ele>
        <time>2019-02-20T11:26:21.000Z</time>
      </trkpt>
      <trkpt lat="45.99507" lon="6.57216">
        <ele>2005.8000488281</ele>
        <time>2019-02-20T11:26:24.000Z</time>
      </trkpt>
      <trkpt lat="45.99505" lon="6.57218">
        <ele>2006</ele>
        <time>2019-02-20T11:26:27.000Z</time>
      </trkpt>
      <trkpt lat="45.99503" lon="6.57219">
        <ele>2005.8000488281</ele>
        <time>2019-02-20T11:26:30.000Z</time>
      </trkpt>
      <trkpt lat="45.99502" lon="6.57221">
        <ele>2006</ele>
        <time>2019-02-20T11:26:33.000Z</time>
      </trkpt>
      <trkpt lat="45.995" lon="6.57223">
        <ele>2006</ele>
        <time>2019-02-20T11:26:36.000Z</time>
      </trkpt>
      <trkpt lat="45.99499" lon="6.57225">
        <ele>2006.4000244141</ele>
        <time>2019-02-20T11:26:39.000Z</time>
      </trkpt>
      <trkpt lat="45.99498" lon="6.57227">
        <ele>2006.4000244141</ele>
        <time>2019-02-20T11:26:43.000Z</time>
      </trkpt>
      <trkpt lat="45.99497" lon="6.57229">
        <ele>2007</ele>
        <time>2019-02-20T11:26:47.000Z</time>
      </trkpt>
      <trkpt lat="45.99495" lon="6.57231">
        <ele>2007.4000244141</ele>
        <time>2019-02-20T11:26:51.000Z</time>
      </trkpt>
      <trkpt lat="45.99494" lon="6.57233">
        <ele>2008.5999755859</ele>
        <time>2019-02-20T11:26:59.000Z</time>
      </trkpt>
      <trkpt lat="45.99492" lon="6.57235">
        <ele>2008.5999755859</ele>
        <time>2019-02-20T11:27:02.000Z</time>
      </trkpt>
      <trkpt lat="45.9949" lon="6.57237">
        <ele>2008.8000488281</ele>
        <time>2019-02-20T11:27:05.000Z</time>
      </trkpt>
      <trkpt lat="45.99488" lon="6.57239">
        <ele>2009</ele>
        <time>2019-02-20T11:27:08.000Z</time>
      </trkpt>
      <trkpt lat="45.99486" lon="6.5724">
        <ele>2009.4000244141</ele>
        <time>2019-02-20T11:27:12.000Z</time>
      </trkpt>
      <trkpt lat="45.99484" lon="6.57241">
        <ele>2010.1999511719</ele>
        <time>2019-02-20T11:27:18.000Z</time>
      </trkpt>
      <trkpt lat="45.99482" lon="6.57243">
        <ele>2010.5999755859</ele>
        <time>2019-02-20T11:27:21.000Z</time>
      </trkpt>
      <trkpt lat="45.99481" lon="6.57245">
        <ele>2010.8000488281</ele>
        <time>2019-02-20T11:27:24.000Z</time>
      </trkpt>
      <trkpt lat="45.99479" lon="6.57247">
        <ele>2011.4000244141</ele>
        <time>2019-02-20T11:27:29.000Z</time>
      </trkpt>
      <trkpt lat="45.99478" lon="6.57249">
        <ele>2011.8000488281</ele>
        <time>2019-02-20T11:27:33.000Z</time>
      </trkpt>
      <trkpt lat="45.99476" lon="6.57252">
        <ele>2012.4000244141</ele>
        <time>2019-02-20T11:27:40.000Z</time>
      </trkpt>
      <trkpt lat="45.99475" lon="6.57254">
        <ele>2012.8000488281</ele>
        <time>2019-02-20T11:27:44.000Z</time>
      </trkpt>
      <trkpt lat="45.99474" lon="6.57257">
        <ele>2013.4000244141</ele>
        <time>2019-02-20T11:27:48.000Z</time>
      </trkpt>
      <trkpt lat="45.99473" lon="6.5726">
        <ele>2013.5999755859</ele>
        <time>2019-02-20T11:27:52.000Z</time>
      </trkpt>
      <trkpt lat="45.99471" lon="6.57262">
        <ele>2014</ele>
        <time>2019-02-20T11:29:42.000Z</time>
      </trkpt>
      <trkpt lat="45.9947" lon="6.57265">
        <ele>2014.1999511719</ele>
        <time>2019-02-20T11:30:31.000Z</time>
      </trkpt>
      <trkpt lat="45.9947" lon="6.57268">
        <ele>2014.5999755859</ele>
        <time>2019-02-20T11:30:35.000Z</time>
      </trkpt>
      <trkpt lat="45.99469" lon="6.5727">
        <ele>2014.8000488281</ele>
        <time>2019-02-20T11:30:39.000Z</time>
      </trkpt>
      <trkpt lat="45.99468" lon="6.57274">
        <ele>2015.4000244141</ele>
        <time>2019-02-20T11:30:43.000Z</time>
      </trkpt>
      <trkpt lat="45.99467" lon="6.57277">
        <ele>2015.5999755859</ele>
        <time>2019-02-20T11:30:47.000Z</time>
      </trkpt>
      <trkpt lat="45.99467" lon="6.57279">
        <ele>2016</ele>
        <time>2019-02-20T11:30:51.000Z</time>
      </trkpt>
      <trkpt lat="45.99467" lon="6.57283">
        <ele>2016.4000244141</ele>
        <time>2019-02-20T11:30:55.000Z</time>
      </trkpt>
      <trkpt lat="45.99467" lon="6.57286">
        <ele>2016.8000488281</ele>
        <time>2019-02-20T11:30:59.000Z</time>
      </trkpt>
      <trkpt lat="45.99468" lon="6.57289">
        <ele>2017</ele>
        <time>2019-02-20T11:31:04.000Z</time>
      </trkpt>
      <trkpt lat="45.99468" lon="6.57292">
        <ele>2017.3998248602</ele>
        <time>2019-02-20T11:31:08.000Z</time>
      </trkpt>
      <trkpt lat="45.99469" lon="6.57295">
        <ele>2018.1999511719</ele>
        <time>2019-02-20T11:31:12.000Z</time>
      </trkpt>
      <trkpt lat="45.99469" lon="6.57297">
        <ele>2018.4000244141</ele>
        <time>2019-02-20T11:31:16.000Z</time>
      </trkpt>
      <trkpt lat="45.99469" lon="6.573">
        <ele>2019</ele>
        <time>2019-02-20T11:31:20.000Z</time>
      </trkpt>
      <trkpt lat="45.9947" lon="6.57303">
        <ele>2019.1999511719</ele>
        <time>2019-02-20T11:31:23.000Z</time>
      </trkpt>
      <trkpt lat="45.99471" lon="6.57306">
        <ele>2019.4000244141</ele>
        <time>2019-02-20T11:31:27.000Z</time>
      </trkpt>
      <trkpt lat="45.99472" lon="6.57309">
        <ele>2019.5999755859</ele>
        <time>2019-02-20T11:31:31.000Z</time>
      </trkpt>
      <trkpt lat="45.99472" lon="6.57311">
        <ele>2020</ele>
        <time>2019-02-20T11:31:35.000Z</time>
      </trkpt>
      <trkpt lat="45.99473" lon="6.57314">
        <ele>2020.5999755859</ele>
        <time>2019-02-20T11:31:39.000Z</time>
      </trkpt>
      <trkpt lat="45.99475" lon="6.57317">
        <ele>2021.1999511719</ele>
        <time>2019-02-20T11:31:43.000Z</time>
      </trkpt>
      <trkpt lat="45.99476" lon="6.5732">
        <ele>2021.4000244141</ele>
        <time>2019-02-20T11:31:48.000Z</time>
      </trkpt>
      <trkpt lat="45.99477" lon="6.57323">
        <ele>2021.8000488281</ele>
        <time>2019-02-20T11:31:53.000Z</time>
      </trkpt>
      <trkpt lat="45.99479" lon="6.57325">
        <ele>2022.4000244141</ele>
        <time>2019-02-20T11:31:57.000Z</time>
      </trkpt>
      <trkpt lat="45.9948" lon="6.57327">
        <ele>2022.5999755859</ele>
        <time>2019-02-20T11:32:01.000Z</time>
      </trkpt>
      <trkpt lat="45.99481" lon="6.57329">
        <ele>2022.5999755859</ele>
        <time>2019-02-20T11:32:05.000Z</time>
      </trkpt>
      <trkpt lat="45.99482" lon="6.57331">
        <ele>2023.1999511719</ele>
        <time>2019-02-20T11:32:08.000Z</time>
      </trkpt>
      <trkpt lat="45.99483" lon="6.57333">
        <ele>2023.8000488281</ele>
        <time>2019-02-20T11:32:12.000Z</time>
      </trkpt>
      <trkpt lat="45.99485" lon="6.57335">
        <ele>2024</ele>
        <time>2019-02-20T11:32:15.000Z</time>
      </trkpt>
      <trkpt lat="45.99486" lon="6.57338">
        <ele>2024.8000488281</ele>
        <time>2019-02-20T11:32:19.000Z</time>
      </trkpt>
      <trkpt lat="45.99487" lon="6.5734">
        <ele>2024.8000488281</ele>
        <time>2019-02-20T11:32:22.000Z</time>
      </trkpt>
      <trkpt lat="45.99488" lon="6.57343">
        <ele>2025.1999511719</ele>
        <time>2019-02-20T11:32:26.000Z</time>
      </trkpt>
      <trkpt lat="45.99489" lon="6.57345">
        <ele>2025.1999511719</ele>
        <time>2019-02-20T11:32:30.000Z</time>
      </trkpt>
      <trkpt lat="45.9949" lon="6.57348">
        <ele>2025.4000244141</ele>
        <time>2019-02-20T11:32:34.000Z</time>
      </trkpt>
      <trkpt lat="45.99491" lon="6.5735">
        <ele>2026</ele>
        <time>2019-02-20T11:32:38.000Z</time>
      </trkpt>
      <trkpt lat="45.99492" lon="6.57353">
        <ele>2026.4000244141</ele>
        <time>2019-02-20T11:32:42.000Z</time>
      </trkpt>
      <trkpt lat="45.99493" lon="6.57355">
        <ele>2027</ele>
        <time>2019-02-20T11:32:45.000Z</time>
      </trkpt>
      <trkpt lat="45.99493" lon="6.57358">
        <ele>2026.8000488281</ele>
        <time>2019-02-20T11:32:51.000Z</time>
      </trkpt>
      <trkpt lat="45.99494" lon="6.57361">
        <ele>2027.4000244141</ele>
        <time>2019-02-20T11:32:56.000Z</time>
      </trkpt>
      <trkpt lat="45.99495" lon="6.57364">
        <ele>2027.8000488281</ele>
        <time>2019-02-20T11:33:01.000Z</time>
      </trkpt>
      <trkpt lat="45.99495" lon="6.57367">
        <ele>2028.4000244141</ele>
        <time>2019-02-20T11:33:06.000Z</time>
      </trkpt>
      <trkpt lat="45.99496" lon="6.5737">
        <ele>2028.5999755859</ele>
        <time>2019-02-20T11:33:10.000Z</time>
      </trkpt>
      <trkpt lat="45.99495" lon="6.57373">
        <ele>2029.4000244141</ele>
        <time>2019-02-20T11:33:17.000Z</time>
      </trkpt>
      <trkpt lat="45.99493" lon="6.57374">
        <ele>2029.5999755859</ele>
        <time>2019-02-20T11:33:20.000Z</time>
      </trkpt>
      <trkpt lat="45.99491" lon="6.57375">
        <ele>2030.4000244141</ele>
        <time>2019-02-20T11:33:24.000Z</time>
      </trkpt>
      <trkpt lat="45.99489" lon="6.57377">
        <ele>2031.1999511719</ele>
        <time>2019-02-20T11:33:28.000Z</time>
      </trkpt>
      <trkpt lat="45.99487" lon="6.57376">
        <ele>2031.5999755859</ele>
        <time>2019-02-20T11:33:32.000Z</time>
      </trkpt>
      <trkpt lat="45.99485" lon="6.57376">
        <ele>2031.8000488281</ele>
        <time>2019-02-20T11:33:36.000Z</time>
      </trkpt>
      <trkpt lat="45.99483" lon="6.57376">
        <ele>2032.9996015332</ele>
        <time>2019-02-20T11:33:41.000Z</time>
      </trkpt>
      <trkpt lat="45.99481" lon="6.57375">
        <ele>2033</ele>
        <time>2019-02-20T11:33:46.000Z</time>
      </trkpt>
      <trkpt lat="45.99479" lon="6.57376">
        <ele>2033.5999755859</ele>
        <time>2019-02-20T11:33:50.000Z</time>
      </trkpt>
      <trkpt lat="45.99477" lon="6.57376">
        <ele>2034</ele>
        <time>2019-02-20T11:33:54.000Z</time>
      </trkpt>
      <trkpt lat="45.99474" lon="6.57377">
        <ele>2034.4000244141</ele>
        <time>2019-02-20T11:33:59.000Z</time>
      </trkpt>
      <trkpt lat="45.99472" lon="6.57377">
        <ele>2035</ele>
        <time>2019-02-20T11:34:07.000Z</time>
      </trkpt>
      <trkpt lat="45.9947" lon="6.57378">
        <ele>2035.4000244141</ele>
        <time>2019-02-20T11:34:11.000Z</time>
      </trkpt>
      <trkpt lat="45.99469" lon="6.57379">
        <ele>2036</ele>
        <time>2019-02-20T11:34:15.000Z</time>
      </trkpt>
      <trkpt lat="45.99467" lon="6.5738">
        <ele>2037.5999755859</ele>
        <time>2019-02-20T11:34:26.000Z</time>
      </trkpt>
      <trkpt lat="45.99465" lon="6.57383">
        <ele>2038.1999511719</ele>
        <time>2019-02-20T11:34:30.000Z</time>
      </trkpt>
      <trkpt lat="45.99464" lon="6.57385">
        <ele>2038.5999755859</ele>
        <time>2019-02-20T11:34:34.000Z</time>
      </trkpt>
      <trkpt lat="45.99463" lon="6.57388">
        <ele>2039</ele>
        <time>2019-02-20T11:34:38.000Z</time>
      </trkpt>
      <trkpt lat="45.99462" lon="6.57391">
        <ele>2039.4000244141</ele>
        <time>2019-02-20T11:34:42.000Z</time>
      </trkpt>
      <trkpt lat="45.99462" lon="6.57394">
        <ele>2040.1999511719</ele>
        <time>2019-02-20T11:34:46.000Z</time>
      </trkpt>
      <trkpt lat="45.99462" lon="6.57397">
        <ele>2040.4000244141</ele>
        <time>2019-02-20T11:34:50.000Z</time>
      </trkpt>
      <trkpt lat="45.99463" lon="6.574">
        <ele>2040.8000488281</ele>
        <time>2019-02-20T11:34:55.000Z</time>
      </trkpt>
      <trkpt lat="45.99463" lon="6.57402">
        <ele>2041.8000488281</ele>
        <time>2019-02-20T11:35:00.000Z</time>
      </trkpt>
      <trkpt lat="45.99464" lon="6.57405">
        <ele>2042.1999511719</ele>
        <time>2019-02-20T11:35:06.000Z</time>
      </trkpt>
      <trkpt lat="45.99465" lon="6.57408">
        <ele>2043</ele>
        <time>2019-02-20T11:35:12.000Z</time>
      </trkpt>
      <trkpt lat="45.99466" lon="6.57411">
        <ele>2043.4000244141</ele>
        <time>2019-02-20T11:35:18.000Z</time>
      </trkpt>
      <trkpt lat="45.99467" lon="6.57413">
        <ele>2044</ele>
        <time>2019-02-20T11:35:24.000Z</time>
      </trkpt>
      <trkpt lat="45.99467" lon="6.57416">
        <ele>2044.8000488281</ele>
        <time>2019-02-20T11:35:29.000Z</time>
      </trkpt>
      <trkpt lat="45.99468" lon="6.57419">
        <ele>2045.5999755859</ele>
        <time>2019-02-20T11:35:34.000Z</time>
      </trkpt>
      <trkpt lat="45.99468" lon="6.57422">
        <ele>2045.5999755859</ele>
        <time>2019-02-20T11:35:39.000Z</time>
      </trkpt>
      <trkpt lat="45.99468" lon="6.57425">
        <ele>2046.4000244141</ele>
        <time>2019-02-20T11:35:44.000Z</time>
      </trkpt>
      <trkpt lat="45.99469" lon="6.57428">
        <ele>2046.8000488281</ele>
        <time>2019-02-20T11:35:50.000Z</time>
      </trkpt>
      <trkpt lat="45.99469" lon="6.5743">
        <ele>2047.1999511719</ele>
        <time>2019-02-20T11:35:56.000Z</time>
      </trkpt>
      <trkpt lat="45.9947" lon="6.57433">
        <ele>2047.8000488281</ele>
        <time>2019-02-20T11:36:01.000Z</time>
      </trkpt>
      <trkpt lat="45.99471" lon="6.57435">
        <ele>2048.1999511719</ele>
        <time>2019-02-20T11:36:05.000Z</time>
      </trkpt>
      <trkpt lat="45.99472" lon="6.57438">
        <ele>2048.8000488281</ele>
        <time>2019-02-20T11:36:09.000Z</time>
      </trkpt>
      <trkpt lat="45.99474" lon="6.5744">
        <ele>2049</ele>
        <time>2019-02-20T11:36:12.000Z</time>
      </trkpt>
      <trkpt lat="45.99475" lon="6.57442">
        <ele>2049.1999511719</ele>
        <time>2019-02-20T11:36:15.000Z</time>
      </trkpt>
      <trkpt lat="45.99476" lon="6.57444">
        <ele>2049.6000976562</ele>
        <time>2019-02-20T11:36:18.000Z</time>
      </trkpt>
      <trkpt lat="45.99477" lon="6.57447">
        <ele>2049.6000976562</ele>
        <time>2019-02-20T11:36:23.000Z</time>
      </trkpt>
      <trkpt lat="45.99477" lon="6.5745">
        <ele>2050</ele>
        <time>2019-02-20T11:36:27.000Z</time>
      </trkpt>
      <trkpt lat="45.99478" lon="6.57453">
        <ele>2050.6000976562</ele>
        <time>2019-02-20T11:36:31.000Z</time>
      </trkpt>
      <trkpt lat="45.99478" lon="6.57455">
        <ele>2050.8000488281</ele>
        <time>2019-02-20T11:36:36.000Z</time>
      </trkpt>
      <trkpt lat="45.99478" lon="6.57458">
        <ele>2051.6000976562</ele>
        <time>2019-02-20T11:36:41.000Z</time>
      </trkpt>
      <trkpt lat="45.99479" lon="6.57461">
        <ele>2052</ele>
        <time>2019-02-20T11:36:46.000Z</time>
      </trkpt>
      <trkpt lat="45.9948" lon="6.57464">
        <ele>2052.3999023438</ele>
        <time>2019-02-20T11:36:51.000Z</time>
      </trkpt>
      <trkpt lat="45.9948" lon="6.57466">
        <ele>2053.3999023438</ele>
        <time>2019-02-20T11:36:56.000Z</time>
      </trkpt>
      <trkpt lat="45.9948" lon="6.57469">
        <ele>2053.8000488281</ele>
        <time>2019-02-20T11:37:01.000Z</time>
      </trkpt>
      <trkpt lat="45.9948" lon="6.57472">
        <ele>2053.800447295</ele>
        <time>2019-02-20T11:37:05.000Z</time>
      </trkpt>
      <trkpt lat="45.9948" lon="6.57475">
        <ele>2054.3999023438</ele>
        <time>2019-02-20T11:37:09.000Z</time>
      </trkpt>
      <trkpt lat="45.9948" lon="6.57478">
        <ele>2055</ele>
        <time>2019-02-20T11:37:14.000Z</time>
      </trkpt>
      <trkpt lat="45.9948" lon="6.57481">
        <ele>2055.6000976562</ele>
        <time>2019-02-20T11:37:19.000Z</time>
      </trkpt>
      <trkpt lat="45.9948" lon="6.57484">
        <ele>2056.1999511719</ele>
        <time>2019-02-20T11:37:24.000Z</time>
      </trkpt>
      <trkpt lat="45.99481" lon="6.57487">
        <ele>2056.8000488281</ele>
        <time>2019-02-20T11:37:28.000Z</time>
      </trkpt>
      <trkpt lat="45.99481" lon="6.57489">
        <ele>2057.6000976562</ele>
        <time>2019-02-20T11:37:33.000Z</time>
      </trkpt>
      <trkpt lat="45.99482" lon="6.57492">
        <ele>2057.8000488281</ele>
        <time>2019-02-20T11:37:38.000Z</time>
      </trkpt>
      <trkpt lat="45.99483" lon="6.57494">
        <ele>2058.1999511719</ele>
        <time>2019-02-20T11:37:42.000Z</time>
      </trkpt>
      <trkpt lat="45.99483" lon="6.57497">
        <ele>2058.8000488281</ele>
        <time>2019-02-20T11:37:48.000Z</time>
      </trkpt>
      <trkpt lat="45.99483" lon="6.575">
        <ele>2059.3999023438</ele>
        <time>2019-02-20T11:37:53.000Z</time>
      </trkpt>
      <trkpt lat="45.99483" lon="6.57503">
        <ele>2059.6000976562</ele>
        <time>2019-02-20T11:37:58.000Z</time>
      </trkpt>
      <trkpt lat="45.99483" lon="6.57506">
        <ele>2060.3999023438</ele>
        <time>2019-02-20T11:38:03.000Z</time>
      </trkpt>
      <trkpt lat="45.99483" lon="6.57509">
        <ele>2060.8000488281</ele>
        <time>2019-02-20T11:38:08.000Z</time>
      </trkpt>
      <trkpt lat="45.99483" lon="6.57512">
        <ele>2061.1999511719</ele>
        <time>2019-02-20T11:38:12.000Z</time>
      </trkpt>
      <trkpt lat="45.99483" lon="6.57514">
        <ele>2061.6000976562</ele>
        <time>2019-02-20T11:38:16.000Z</time>
      </trkpt>
      <trkpt lat="45.99482" lon="6.57516">
        <ele>2062.1999511719</ele>
        <time>2019-02-20T11:38:20.000Z</time>
      </trkpt>
      <trkpt lat="45.99482" lon="6.57519">
        <ele>2062.3999023438</ele>
        <time>2019-02-20T11:38:25.000Z</time>
      </trkpt>
      <trkpt lat="45.99481" lon="6.57521">
        <ele>2062.6000976562</ele>
        <time>2019-02-20T11:38:28.000Z</time>
      </trkpt>
      <trkpt lat="45.99481" lon="6.57524">
        <ele>2063</ele>
        <time>2019-02-20T11:38:33.000Z</time>
      </trkpt>
      <trkpt lat="45.99482" lon="6.57526">
        <ele>2063.8000488281</ele>
        <time>2019-02-20T11:38:40.000Z</time>
      </trkpt>
      <trkpt lat="45.99483" lon="6.5753">
        <ele>2064</ele>
        <time>2019-02-20T11:38:45.000Z</time>
      </trkpt>
      <trkpt lat="45.99483" lon="6.57533">
        <ele>2064.6000976562</ele>
        <time>2019-02-20T11:38:50.000Z</time>
      </trkpt>
      <trkpt lat="45.99481" lon="6.57535">
        <ele>2064.8000488281</ele>
        <time>2019-02-20T11:38:54.000Z</time>
      </trkpt>
      <trkpt lat="45.99482" lon="6.57538">
        <ele>2066</ele>
        <time>2019-02-20T11:38:59.000Z</time>
      </trkpt>
      <trkpt lat="45.99483" lon="6.57542">
        <ele>2066.6000976562</ele>
        <time>2019-02-20T11:39:04.000Z</time>
      </trkpt>
      <trkpt lat="45.99483" lon="6.57544">
        <ele>2067.1999511719</ele>
        <time>2019-02-20T11:39:09.000Z</time>
      </trkpt>
      <trkpt lat="45.99483" lon="6.57547">
        <ele>2067.8000488281</ele>
        <time>2019-02-20T11:39:15.000Z</time>
      </trkpt>
      <trkpt lat="45.99482" lon="6.5755">
        <ele>2068</ele>
        <time>2019-02-20T11:39:19.000Z</time>
      </trkpt>
      <trkpt lat="45.99482" lon="6.57553">
        <ele>2068.6000976562</ele>
        <time>2019-02-20T11:39:23.000Z</time>
      </trkpt>
      <trkpt lat="45.99482" lon="6.57556">
        <ele>2068.6000976562</ele>
        <time>2019-02-20T11:39:28.000Z</time>
      </trkpt>
      <trkpt lat="45.99482" lon="6.57559">
        <ele>2069</ele>
        <time>2019-02-20T11:39:32.000Z</time>
      </trkpt>
      <trkpt lat="45.99482" lon="6.57562">
        <ele>2069.8000488281</ele>
        <time>2019-02-20T11:39:37.000Z</time>
      </trkpt>
      <trkpt lat="45.99481" lon="6.57565">
        <ele>2070.6000976562</ele>
        <time>2019-02-20T11:39:42.000Z</time>
      </trkpt>
      <trkpt lat="45.99481" lon="6.57567">
        <ele>2071</ele>
        <time>2019-02-20T11:39:47.000Z</time>
      </trkpt>
      <trkpt lat="45.9948" lon="6.5757">
        <ele>2071.6000976562</ele>
        <time>2019-02-20T11:39:52.000Z</time>
      </trkpt>
      <trkpt lat="45.9948" lon="6.57573">
        <ele>2071.8000488281</ele>
        <time>2019-02-20T11:39:57.000Z</time>
      </trkpt>
      <trkpt lat="45.99478" lon="6.57576">
        <ele>2072.6000976562</ele>
        <time>2019-02-20T11:40:01.000Z</time>
      </trkpt>
      <trkpt lat="45.99477" lon="6.57578">
        <ele>2073.1999511719</ele>
        <time>2019-02-20T11:40:05.000Z</time>
      </trkpt>
      <trkpt lat="45.99476" lon="6.57581">
        <ele>2073.8000488281</ele>
        <time>2019-02-20T11:40:10.000Z</time>
      </trkpt>
      <trkpt lat="45.99475" lon="6.57583">
        <ele>2074.1999511719</ele>
        <time>2019-02-20T11:40:15.000Z</time>
      </trkpt>
      <trkpt lat="45.99474" lon="6.57585">
        <ele>2074.8000488281</ele>
        <time>2019-02-20T11:40:21.000Z</time>
      </trkpt>
      <trkpt lat="45.99473" lon="6.57588">
        <ele>2075.8000488281</ele>
        <time>2019-02-20T11:40:27.000Z</time>
      </trkpt>
      <trkpt lat="45.99472" lon="6.5759">
        <ele>2076.1999511719</ele>
        <time>2019-02-20T11:40:32.000Z</time>
      </trkpt>
      <trkpt lat="45.99471" lon="6.57593">
        <ele>2076.6000976562</ele>
        <time>2019-02-20T11:40:38.000Z</time>
      </trkpt>
      <trkpt lat="45.9947" lon="6.57595">
        <ele>2077.3999023438</ele>
        <time>2019-02-20T11:40:44.000Z</time>
      </trkpt>
      <trkpt lat="45.99468" lon="6.57598">
        <ele>2077.8000488281</ele>
        <time>2019-02-20T11:40:49.000Z</time>
      </trkpt>
      <trkpt lat="45.99467" lon="6.576">
        <ele>2078.6000976562</ele>
        <time>2019-02-20T11:40:57.000Z</time>
      </trkpt>
      <trkpt lat="45.99466" lon="6.57602">
        <ele>2079.6000976562</ele>
        <time>2019-02-20T11:41:02.000Z</time>
      </trkpt>
      <trkpt lat="45.99465" lon="6.57604">
        <ele>2080.1999511719</ele>
        <time>2019-02-20T11:41:08.000Z</time>
      </trkpt>
      <trkpt lat="45.99463" lon="6.57606">
        <ele>2080.8000488281</ele>
        <time>2019-02-20T11:41:15.000Z</time>
      </trkpt>
      <trkpt lat="45.99462" lon="6.57608">
        <ele>2081.1999511719</ele>
        <time>2019-02-20T11:41:21.000Z</time>
      </trkpt>
      <trkpt lat="45.9946" lon="6.57609">
        <ele>2082</ele>
        <time>2019-02-20T11:41:27.000Z</time>
      </trkpt>
      <trkpt lat="45.99458" lon="6.57611">
        <ele>2082.3999023438</ele>
        <time>2019-02-20T11:41:32.000Z</time>
      </trkpt>
      <trkpt lat="45.99457" lon="6.57613">
        <ele>2083.1999511719</ele>
        <time>2019-02-20T11:41:37.000Z</time>
      </trkpt>
      <trkpt lat="45.99455" lon="6.57612">
        <ele>2083.8000488281</ele>
        <time>2019-02-20T11:41:42.000Z</time>
      </trkpt>
      <trkpt lat="45.99453" lon="6.5761">
        <ele>2084.1999511719</ele>
        <time>2019-02-20T11:41:47.000Z</time>
      </trkpt>
      <trkpt lat="45.99451" lon="6.57609">
        <ele>2085.3999023438</ele>
        <time>2019-02-20T11:41:52.000Z</time>
      </trkpt>
      <trkpt lat="45.9945" lon="6.57608">
        <ele>2085.3999023438</ele>
        <time>2019-02-20T11:41:57.000Z</time>
      </trkpt>
      <trkpt lat="45.99448" lon="6.57606">
        <ele>2086.1999511719</ele>
        <time>2019-02-20T11:42:01.000Z</time>
      </trkpt>
      <trkpt lat="45.99446" lon="6.57605">
        <ele>2086.8000488281</ele>
        <time>2019-02-20T11:42:07.000Z</time>
      </trkpt>
      <trkpt lat="45.99444" lon="6.57603">
        <ele>2087.6000976562</ele>
        <time>2019-02-20T11:42:12.000Z</time>
      </trkpt>
      <trkpt lat="45.99443" lon="6.57601">
        <ele>2088.1999511719</ele>
        <time>2019-02-20T11:42:17.000Z</time>
      </trkpt>
      <trkpt lat="45.99441" lon="6.576">
        <ele>2088.3999023438</ele>
        <time>2019-02-20T11:42:22.000Z</time>
      </trkpt>
      <trkpt lat="45.9944" lon="6.57598">
        <ele>2088.6000976562</ele>
        <time>2019-02-20T11:42:27.000Z</time>
      </trkpt>
      <trkpt lat="45.99438" lon="6.57597">
        <ele>2089</ele>
        <time>2019-02-20T11:42:31.000Z</time>
      </trkpt>
      <trkpt lat="45.99437" lon="6.57595">
        <ele>2088.6000976562</ele>
        <time>2019-02-20T11:42:36.000Z</time>
      </trkpt>
      <trkpt lat="45.99435" lon="6.57593">
        <ele>2090.6000976562</ele>
        <time>2019-02-20T11:42:44.000Z</time>
      </trkpt>
      <trkpt lat="45.99434" lon="6.57591">
        <ele>2090.8000488281</ele>
        <time>2019-02-20T11:42:49.000Z</time>
      </trkpt>
      <trkpt lat="45.99432" lon="6.57589">
        <ele>2091.1999511719</ele>
        <time>2019-02-20T11:42:54.000Z</time>
      </trkpt>
      <trkpt lat="45.99431" lon="6.57587">
        <ele>2091.8000488281</ele>
        <time>2019-02-20T11:42:59.000Z</time>
      </trkpt>
      <trkpt lat="45.99429" lon="6.57585">
        <ele>2092.1999511719</ele>
        <time>2019-02-20T11:43:05.000Z</time>
      </trkpt>
      <trkpt lat="45.99427" lon="6.57583">
        <ele>2092.8000488281</ele>
        <time>2019-02-20T11:43:10.000Z</time>
      </trkpt>
      <trkpt lat="45.99426" lon="6.57582">
        <ele>2093.3999023438</ele>
        <time>2019-02-20T11:43:15.000Z</time>
      </trkpt>
      <trkpt lat="45.99424" lon="6.5758">
        <ele>2094</ele>
        <time>2019-02-20T11:43:21.000Z</time>
      </trkpt>
      <trkpt lat="45.99422" lon="6.57579">
        <ele>2094.3999023438</ele>
        <time>2019-02-20T11:43:26.000Z</time>
      </trkpt>
      <trkpt lat="45.9942" lon="6.57577">
        <ele>2095.1999511719</ele>
        <time>2019-02-20T11:43:31.000Z</time>
      </trkpt>
      <trkpt lat="45.99419" lon="6.57576">
        <ele>2096</ele>
        <time>2019-02-20T11:43:36.000Z</time>
      </trkpt>
      <trkpt lat="45.99417" lon="6.57574">
        <ele>2096.8000488281</ele>
        <time>2019-02-20T11:43:42.000Z</time>
      </trkpt>
      <trkpt lat="45.99415" lon="6.57573">
        <ele>2096.8000488281</ele>
        <time>2019-02-20T11:43:47.000Z</time>
      </trkpt>
      <trkpt lat="45.99413" lon="6.57572">
        <ele>2097.8000488281</ele>
        <time>2019-02-20T11:43:54.000Z</time>
      </trkpt>
      <trkpt lat="45.99411" lon="6.5757">
        <ele>2098.3999023438</ele>
        <time>2019-02-20T11:44:00.000Z</time>
      </trkpt>
      <trkpt lat="45.9941" lon="6.57569">
        <ele>2099.1999511719</ele>
        <time>2019-02-20T11:44:07.000Z</time>
      </trkpt>
      <trkpt lat="45.99408" lon="6.57568">
        <ele>2099.8000488281</ele>
        <time>2019-02-20T11:44:13.000Z</time>
      </trkpt>
      <trkpt lat="45.99406" lon="6.57567">
        <ele>2100</ele>
        <time>2019-02-20T11:44:18.000Z</time>
      </trkpt>
      <trkpt lat="45.99404" lon="6.57566">
        <ele>2100.6000976562</ele>
        <time>2019-02-20T11:44:23.000Z</time>
      </trkpt>
      <trkpt lat="45.99402" lon="6.57564">
        <ele>2101.6000976562</ele>
        <time>2019-02-20T11:44:27.000Z</time>
      </trkpt>
      <trkpt lat="45.99401" lon="6.57563">
        <ele>2101.3999023438</ele>
        <time>2019-02-20T11:44:32.000Z</time>
      </trkpt>
      <trkpt lat="45.99399" lon="6.57562">
        <ele>2102</ele>
        <time>2019-02-20T11:44:37.000Z</time>
      </trkpt>
      <trkpt lat="45.99397" lon="6.57561">
        <ele>2102.6000976562</ele>
        <time>2019-02-20T11:44:43.000Z</time>
      </trkpt>
      <trkpt lat="45.99395" lon="6.5756">
        <ele>2103</ele>
        <time>2019-02-20T11:44:48.000Z</time>
      </trkpt>
      <trkpt lat="45.99393" lon="6.57559">
        <ele>2103.3999023438</ele>
        <time>2019-02-20T11:44:53.000Z</time>
      </trkpt>
      <trkpt lat="45.99391" lon="6.57557">
        <ele>2104.1999511719</ele>
        <time>2019-02-20T11:44:59.000Z</time>
      </trkpt>
      <trkpt lat="45.9939" lon="6.57556">
        <ele>2104.1999511719</ele>
        <time>2019-02-20T11:45:04.000Z</time>
      </trkpt>
      <trkpt lat="45.99388" lon="6.57555">
        <ele>2104.8000488281</ele>
        <time>2019-02-20T11:45:09.000Z</time>
      </trkpt>
      <trkpt lat="45.99386" lon="6.57553">
        <ele>2105.1999511719</ele>
        <time>2019-02-20T11:45:14.000Z</time>
      </trkpt>
      <trkpt lat="45.99384" lon="6.57551">
        <ele>2105.6000976562</ele>
        <time>2019-02-20T11:45:21.000Z</time>
      </trkpt>
      <trkpt lat="45.99383" lon="6.57549">
        <ele>2106</ele>
        <time>2019-02-20T11:45:25.000Z</time>
      </trkpt>
      <trkpt lat="45.99381" lon="6.57547">
        <ele>2106.6000976562</ele>
        <time>2019-02-20T11:45:30.000Z</time>
      </trkpt>
      <trkpt lat="45.99379" lon="6.57545">
        <ele>2107</ele>
        <time>2019-02-20T11:45:34.000Z</time>
      </trkpt>
      <trkpt lat="45.99378" lon="6.57543">
        <ele>2107</ele>
        <time>2019-02-20T11:45:38.000Z</time>
      </trkpt>
      <trkpt lat="45.99376" lon="6.57542">
        <ele>2107.8000488281</ele>
        <time>2019-02-20T11:45:41.000Z</time>
      </trkpt>
      <trkpt lat="45.99375" lon="6.5754">
        <ele>2108.1999511719</ele>
        <time>2019-02-20T11:45:45.000Z</time>
      </trkpt>
      <trkpt lat="45.99374" lon="6.57537">
        <ele>2107.8000488281</ele>
        <time>2019-02-20T11:45:49.000Z</time>
      </trkpt>
      <trkpt lat="45.99373" lon="6.57535">
        <ele>2109</ele>
        <time>2019-02-20T11:45:54.000Z</time>
      </trkpt>
      <trkpt lat="45.99371" lon="6.57533">
        <ele>2109</ele>
        <time>2019-02-20T11:46:00.000Z</time>
      </trkpt>
      <trkpt lat="45.9937" lon="6.5753">
        <ele>2109.6000976562</ele>
        <time>2019-02-20T11:46:04.000Z</time>
      </trkpt>
      <trkpt lat="45.99369" lon="6.57528">
        <ele>2109</ele>
        <time>2019-02-20T11:46:12.000Z</time>
      </trkpt>
      <trkpt lat="45.99368" lon="6.57526">
        <ele>2109.3999023438</ele>
        <time>2019-02-20T11:46:16.000Z</time>
      </trkpt>
      <trkpt lat="45.99367" lon="6.57524">
        <ele>2109.6000976562</ele>
        <time>2019-02-20T11:46:19.000Z</time>
      </trkpt>
      <trkpt lat="45.99365" lon="6.57522">
        <ele>2109.8000488281</ele>
        <time>2019-02-20T11:46:22.000Z</time>
      </trkpt>
      <trkpt lat="45.99364" lon="6.5752">
        <ele>2109.8000488281</ele>
        <time>2019-02-20T11:46:25.000Z</time>
      </trkpt>
      <trkpt lat="45.99363" lon="6.57518">
        <ele>2110.3999023438</ele>
        <time>2019-02-20T11:46:28.000Z</time>
      </trkpt>
      <trkpt lat="45.99361" lon="6.57516">
        <ele>2110.6000976562</ele>
        <time>2019-02-20T11:46:32.000Z</time>
      </trkpt>
      <trkpt lat="45.99359" lon="6.57514">
        <ele>2110.8000488281</ele>
        <time>2019-02-20T11:46:36.000Z</time>
      </trkpt>
      <trkpt lat="45.99358" lon="6.57511">
        <ele>2110.8000488281</ele>
        <time>2019-02-20T11:46:40.000Z</time>
      </trkpt>
      <trkpt lat="45.99357" lon="6.57509">
        <ele>2110.3999023438</ele>
        <time>2019-02-20T11:46:44.000Z</time>
      </trkpt>
      <trkpt lat="45.99355" lon="6.57507">
        <ele>2110.6000976562</ele>
        <time>2019-02-20T11:46:48.000Z</time>
      </trkpt>
      <trkpt lat="45.99354" lon="6.57505">
        <ele>2110.8000488281</ele>
        <time>2019-02-20T11:46:51.000Z</time>
      </trkpt>
      <trkpt lat="45.99352" lon="6.57503">
        <ele>2110.8000488281</ele>
        <time>2019-02-20T11:46:54.000Z</time>
      </trkpt>
      <trkpt lat="45.99351" lon="6.575">
        <ele>2111.1999511719</ele>
        <time>2019-02-20T11:46:58.000Z</time>
      </trkpt>
      <trkpt lat="45.9935" lon="6.57498">
        <ele>2111.1999511719</ele>
        <time>2019-02-20T11:47:01.000Z</time>
      </trkpt>
      <trkpt lat="45.99348" lon="6.57496">
        <ele>2111.6000976562</ele>
        <time>2019-02-20T11:47:05.000Z</time>
      </trkpt>
      <trkpt lat="45.99346" lon="6.57494">
        <ele>2112.3999023438</ele>
        <time>2019-02-20T11:47:09.000Z</time>
      </trkpt>
      <trkpt lat="45.99344" lon="6.57493">
        <ele>2113</ele>
        <time>2019-02-20T11:47:13.000Z</time>
      </trkpt>
      <trkpt lat="45.99343" lon="6.57491">
        <ele>2113</ele>
        <time>2019-02-20T11:47:24.000Z</time>
      </trkpt>
      <trkpt lat="45.99342" lon="6.57488">
        <ele>2113.6000976562</ele>
        <time>2019-02-20T11:47:52.000Z</time>
      </trkpt>
      <trkpt lat="45.9934" lon="6.57486">
        <ele>2113.8000488281</ele>
        <time>2019-02-20T11:47:56.000Z</time>
      </trkpt>
      <trkpt lat="45.99339" lon="6.57484">
        <ele>2114.1999511719</ele>
        <time>2019-02-20T11:48:13.000Z</time>
      </trkpt>
      <trkpt lat="45.99337" lon="6.57482">
        <ele>2114.1999511719</ele>
        <time>2019-02-20T11:48:16.000Z</time>
      </trkpt>
      <trkpt lat="45.99336" lon="6.5748">
        <ele>2114.1999511719</ele>
        <time>2019-02-20T11:48:19.000Z</time>
      </trkpt>
      <trkpt lat="45.99335" lon="6.57478">
        <ele>2114</ele>
        <time>2019-02-20T11:48:22.000Z</time>
      </trkpt>
      <trkpt lat="45.99333" lon="6.57476">
        <ele>2114.8000488281</ele>
        <time>2019-02-20T11:48:25.000Z</time>
      </trkpt>
      <trkpt lat="45.99332" lon="6.57474">
        <ele>2114.8000488281</ele>
        <time>2019-02-20T11:48:28.000Z</time>
      </trkpt>
      <trkpt lat="45.9933" lon="6.57472">
        <ele>2115</ele>
        <time>2019-02-20T11:48:31.000Z</time>
      </trkpt>
      <trkpt lat="45.99328" lon="6.5747">
        <ele>2114.8000488281</ele>
        <time>2019-02-20T11:48:34.000Z</time>
      </trkpt>
      <trkpt lat="45.99327" lon="6.57468">
        <ele>2115</ele>
        <time>2019-02-20T11:48:37.000Z</time>
      </trkpt>
      <trkpt lat="45.99325" lon="6.57466">
        <ele>2115.3999023438</ele>
        <time>2019-02-20T11:48:40.000Z</time>
      </trkpt>
      <trkpt lat="45.99323" lon="6.57465">
        <ele>2115.6000976562</ele>
        <time>2019-02-20T11:48:43.000Z</time>
      </trkpt>
      <trkpt lat="45.99322" lon="6.57463">
        <ele>2116.1999511719</ele>
        <time>2019-02-20T11:48:46.000Z</time>
      </trkpt>
      <trkpt lat="45.9932" lon="6.57461">
        <ele>2115.8000488281</ele>
        <time>2019-02-20T11:48:49.000Z</time>
      </trkpt>
      <trkpt lat="45.99319" lon="6.57459">
        <ele>2115.8000488281</ele>
        <time>2019-02-20T11:48:52.000Z</time>
      </trkpt>
      <trkpt lat="45.99317" lon="6.57457">
        <ele>2116.1999511719</ele>
        <time>2019-02-20T11:48:55.000Z</time>
      </trkpt>
      <trkpt lat="45.99316" lon="6.57455">
        <ele>2116.9996015332</ele>
        <time>2019-02-20T11:48:59.000Z</time>
      </trkpt>
      <trkpt lat="45.99314" lon="6.57453">
        <ele>2117.1999511719</ele>
        <time>2019-02-20T11:49:02.000Z</time>
      </trkpt>
      <trkpt lat="45.99313" lon="6.57451">
        <ele>2117.3999023438</ele>
        <time>2019-02-20T11:49:05.000Z</time>
      </trkpt>
      <trkpt lat="45.99311" lon="6.57449">
        <ele>2117.1999511719</ele>
        <time>2019-02-20T11:49:08.000Z</time>
      </trkpt>
      <trkpt lat="45.99309" lon="6.57447">
        <ele>2117.1999511719</ele>
        <time>2019-02-20T11:49:11.000Z</time>
      </trkpt>
      <trkpt lat="45.99308" lon="6.57446">
        <ele>2117.3999023438</ele>
        <time>2019-02-20T11:49:14.000Z</time>
      </trkpt>
      <trkpt lat="45.99306" lon="6.57444">
        <ele>2117.3999023438</ele>
        <time>2019-02-20T11:49:17.000Z</time>
      </trkpt>
      <trkpt lat="45.99305" lon="6.57442">
        <ele>2118</ele>
        <time>2019-02-20T11:49:20.000Z</time>
      </trkpt>
      <trkpt lat="45.99303" lon="6.5744">
        <ele>2118.1999511719</ele>
        <time>2019-02-20T11:49:23.000Z</time>
      </trkpt>
      <trkpt lat="45.99302" lon="6.57438">
        <ele>2118.6000976562</ele>
        <time>2019-02-20T11:49:26.000Z</time>
      </trkpt>
      <trkpt lat="45.993" lon="6.57436">
        <ele>2118.6000976562</ele>
        <time>2019-02-20T11:49:29.000Z</time>
      </trkpt>
      <trkpt lat="45.99299" lon="6.57435">
        <ele>2118.8000488281</ele>
        <time>2019-02-20T11:49:32.000Z</time>
      </trkpt>
      <trkpt lat="45.99297" lon="6.57433">
        <ele>2119</ele>
        <time>2019-02-20T11:49:35.000Z</time>
      </trkpt>
      <trkpt lat="45.99295" lon="6.57431">
        <ele>2119.3999023438</ele>
        <time>2019-02-20T11:49:38.000Z</time>
      </trkpt>
      <trkpt lat="45.99293" lon="6.57429">
        <ele>2119.6000976562</ele>
        <time>2019-02-20T11:49:41.000Z</time>
      </trkpt>
      <trkpt lat="45.99292" lon="6.57428">
        <ele>2119</ele>
        <time>2019-02-20T11:49:44.000Z</time>
      </trkpt>
      <trkpt lat="45.9929" lon="6.57426">
        <ele>2119</ele>
        <time>2019-02-20T11:49:47.000Z</time>
      </trkpt>
      <trkpt lat="45.99289" lon="6.57423">
        <ele>2119.1999511719</ele>
        <time>2019-02-20T11:49:51.000Z</time>
      </trkpt>
      <trkpt lat="45.99287" lon="6.57421">
        <ele>2119</ele>
        <time>2019-02-20T11:49:55.000Z</time>
      </trkpt>
      <trkpt lat="45.99285" lon="6.5742">
        <ele>2119.3999023438</ele>
        <time>2019-02-20T11:49:59.000Z</time>
      </trkpt>
      <trkpt lat="45.99284" lon="6.57419">
        <ele>2119.6000976562</ele>
        <time>2019-02-20T11:50:02.000Z</time>
      </trkpt>
      <trkpt lat="45.99282" lon="6.57418">
        <ele>2119.6000976562</ele>
        <time>2019-02-20T11:50:05.000Z</time>
      </trkpt>
      <trkpt lat="45.9928" lon="6.57416">
        <ele>2119.8000488281</ele>
        <time>2019-02-20T11:50:08.000Z</time>
      </trkpt>
      <trkpt lat="45.99278" lon="6.57414">
        <ele>2120.1999511719</ele>
        <time>2019-02-20T11:50:12.000Z</time>
      </trkpt>
      <trkpt lat="45.99277" lon="6.57413">
        <ele>2120.6000976562</ele>
        <time>2019-02-20T11:50:16.000Z</time>
      </trkpt>
      <trkpt lat="45.99275" lon="6.57412">
        <ele>2121.1999511719</ele>
        <time>2019-02-20T11:50:20.000Z</time>
      </trkpt>
      <trkpt lat="45.99273" lon="6.5741">
        <ele>2122</ele>
        <time>2019-02-20T11:50:24.000Z</time>
      </trkpt>
      <trkpt lat="45.99271" lon="6.57408">
        <ele>2122.6000976562</ele>
        <time>2019-02-20T11:50:29.000Z</time>
      </trkpt>
      <trkpt lat="45.9927" lon="6.57407">
        <ele>2123</ele>
        <time>2019-02-20T11:50:34.000Z</time>
      </trkpt>
      <trkpt lat="45.99268" lon="6.57405">
        <ele>2124.1999511719</ele>
        <time>2019-02-20T11:50:39.000Z</time>
      </trkpt>
      <trkpt lat="45.99266" lon="6.57404">
        <ele>2124.6000976562</ele>
        <time>2019-02-20T11:50:43.000Z</time>
      </trkpt>
      <trkpt lat="45.99265" lon="6.57402">
        <ele>2124.6000976562</ele>
        <time>2019-02-20T11:50:47.000Z</time>
      </trkpt>
      <trkpt lat="45.99263" lon="6.57401">
        <ele>2125.1999511719</ele>
        <time>2019-02-20T11:50:51.000Z</time>
      </trkpt>
      <trkpt lat="45.99262" lon="6.57399">
        <ele>2126</ele>
        <time>2019-02-20T11:50:55.000Z</time>
      </trkpt>
      <trkpt lat="45.9926" lon="6.57397">
        <ele>2126.1999511719</ele>
        <time>2019-02-20T11:50:59.000Z</time>
      </trkpt>
      <trkpt lat="45.99259" lon="6.57394">
        <ele>2126.3999023438</ele>
        <time>2019-02-20T11:51:04.000Z</time>
      </trkpt>
      <trkpt lat="45.99258" lon="6.57392">
        <ele>2127</ele>
        <time>2019-02-20T11:51:08.000Z</time>
      </trkpt>
      <trkpt lat="45.99256" lon="6.5739">
        <ele>2127.1999511719</ele>
        <time>2019-02-20T11:51:12.000Z</time>
      </trkpt>
      <trkpt lat="45.99254" lon="6.57389">
        <ele>2127.6000976562</ele>
        <time>2019-02-20T11:51:16.000Z</time>
      </trkpt>
      <trkpt lat="45.99252" lon="6.57388">
        <ele>2128.3999023438</ele>
        <time>2019-02-20T11:51:20.000Z</time>
      </trkpt>
      <trkpt lat="45.9925" lon="6.57387">
        <ele>2129</ele>
        <time>2019-02-20T11:51:24.000Z</time>
      </trkpt>
      <trkpt lat="45.99248" lon="6.57385">
        <ele>2129</ele>
        <time>2019-02-20T11:51:28.000Z</time>
      </trkpt>
      <trkpt lat="45.99247" lon="6.57384">
        <ele>2129.7988538885</ele>
        <time>2019-02-20T11:51:32.000Z</time>
      </trkpt>
      <trkpt lat="45.99245" lon="6.57382">
        <ele>2129.8000488281</ele>
        <time>2019-02-20T11:51:36.000Z</time>
      </trkpt>
      <trkpt lat="45.99244" lon="6.5738">
        <ele>2129.8000488281</ele>
        <time>2019-02-20T11:51:40.000Z</time>
      </trkpt>
      <trkpt lat="45.99242" lon="6.57379">
        <ele>2131</ele>
        <time>2019-02-20T11:51:45.000Z</time>
      </trkpt>
      <trkpt lat="45.99241" lon="6.57377">
        <ele>2131.1999511719</ele>
        <time>2019-02-20T11:51:51.000Z</time>
      </trkpt>
      <trkpt lat="45.99239" lon="6.57376">
        <ele>2132</ele>
        <time>2019-02-20T11:51:55.000Z</time>
      </trkpt>
      <trkpt lat="45.99238" lon="6.57374">
        <ele>2132.3999023438</ele>
        <time>2019-02-20T11:51:59.000Z</time>
      </trkpt>
      <trkpt lat="45.99236" lon="6.57372">
        <ele>2132.6000976562</ele>
        <time>2019-02-20T11:52:03.000Z</time>
      </trkpt>
      <trkpt lat="45.99235" lon="6.5737">
        <ele>2133.6000976562</ele>
        <time>2019-02-20T11:52:07.000Z</time>
      </trkpt>
      <trkpt lat="45.99233" lon="6.57368">
        <ele>2134.1999511719</ele>
        <time>2019-02-20T11:52:11.000Z</time>
      </trkpt>
      <trkpt lat="45.99232" lon="6.57365">
        <ele>2134.3999023438</ele>
        <time>2019-02-20T11:52:15.000Z</time>
      </trkpt>
      <trkpt lat="45.99231" lon="6.57363">
        <ele>2135.3999023438</ele>
        <time>2019-02-20T11:52:19.000Z</time>
      </trkpt>
      <trkpt lat="45.9923" lon="6.57361">
        <ele>2135.8000488281</ele>
        <time>2019-02-20T11:52:24.000Z</time>
      </trkpt>
      <trkpt lat="45.99229" lon="6.57359">
        <ele>2136.3999023438</ele>
        <time>2019-02-20T11:52:28.000Z</time>
      </trkpt>
      <trkpt lat="45.99228" lon="6.57356">
        <ele>2137</ele>
        <time>2019-02-20T11:52:33.000Z</time>
      </trkpt>
      <trkpt lat="45.99226" lon="6.57354">
        <ele>2137.8000488281</ele>
        <time>2019-02-20T11:52:37.000Z</time>
      </trkpt>
      <trkpt lat="45.99225" lon="6.57351">
        <ele>2138.3999023438</ele>
        <time>2019-02-20T11:52:42.000Z</time>
      </trkpt>
      <trkpt lat="45.99224" lon="6.57349">
        <ele>2139.1999511719</ele>
        <time>2019-02-20T11:52:47.000Z</time>
      </trkpt>
      <trkpt lat="45.99222" lon="6.57348">
        <ele>2139.6000976562</ele>
        <time>2019-02-20T11:52:51.000Z</time>
      </trkpt>
      <trkpt lat="45.9922" lon="6.57346">
        <ele>2139.8000488281</ele>
        <time>2019-02-20T11:52:55.000Z</time>
      </trkpt>
      <trkpt lat="45.99219" lon="6.57345">
        <ele>2140.1999511719</ele>
        <time>2019-02-20T11:52:59.000Z</time>
      </trkpt>
      <trkpt lat="45.99217" lon="6.57343">
        <ele>2140.6000976562</ele>
        <time>2019-02-20T11:53:03.000Z</time>
      </trkpt>
      <trkpt lat="45.99215" lon="6.57341">
        <ele>2140.6000976562</ele>
        <time>2019-02-20T11:53:07.000Z</time>
      </trkpt>
      <trkpt lat="45.99214" lon="6.57339">
        <ele>2140.6000976562</ele>
        <time>2019-02-20T11:53:11.000Z</time>
      </trkpt>
      <trkpt lat="45.99212" lon="6.57338">
        <ele>2141.3999023438</ele>
        <time>2019-02-20T11:53:15.000Z</time>
      </trkpt>
      <trkpt lat="45.9921" lon="6.57336">
        <ele>2141.8000488281</ele>
        <time>2019-02-20T11:53:19.000Z</time>
      </trkpt>
      <trkpt lat="45.99209" lon="6.57334">
        <ele>2142.1999511719</ele>
        <time>2019-02-20T11:53:23.000Z</time>
      </trkpt>
      <trkpt lat="45.99207" lon="6.57332">
        <ele>2142.3999023438</ele>
        <time>2019-02-20T11:53:27.000Z</time>
      </trkpt>
      <trkpt lat="45.99205" lon="6.5733">
        <ele>2143</ele>
        <time>2019-02-20T11:53:31.000Z</time>
      </trkpt>
      <trkpt lat="45.99203" lon="6.57329">
        <ele>2143.1999511719</ele>
        <time>2019-02-20T11:53:35.000Z</time>
      </trkpt>
      <trkpt lat="45.99202" lon="6.57327">
        <ele>2143.3999023438</ele>
        <time>2019-02-20T11:53:39.000Z</time>
      </trkpt>
      <trkpt lat="45.992" lon="6.57325">
        <ele>2143.3999023438</ele>
        <time>2019-02-20T11:53:43.000Z</time>
      </trkpt>
      <trkpt lat="45.99198" lon="6.57323">
        <ele>2144</ele>
        <time>2019-02-20T11:53:47.000Z</time>
      </trkpt>
      <trkpt lat="45.99197" lon="6.57321">
        <ele>2144.6000976562</ele>
        <time>2019-02-20T11:53:51.000Z</time>
      </trkpt>
      <trkpt lat="45.99195" lon="6.57319">
        <ele>2144.8000488281</ele>
        <time>2019-02-20T11:53:55.000Z</time>
      </trkpt>
      <trkpt lat="45.99194" lon="6.57317">
        <ele>2145.3999023438</ele>
        <time>2019-02-20T11:53:59.000Z</time>
      </trkpt>
      <trkpt lat="45.99192" lon="6.57315">
        <ele>2145.6000976562</ele>
        <time>2019-02-20T11:54:03.000Z</time>
      </trkpt>
      <trkpt lat="45.99191" lon="6.57314">
        <ele>2146.3999023438</ele>
        <time>2019-02-20T11:54:07.000Z</time>
      </trkpt>
      <trkpt lat="45.99189" lon="6.57312">
        <ele>2146.8000488281</ele>
        <time>2019-02-20T11:54:11.000Z</time>
      </trkpt>
      <trkpt lat="45.99187" lon="6.57312">
        <ele>2147.3999023438</ele>
        <time>2019-02-20T11:54:16.000Z</time>
      </trkpt>
      <trkpt lat="45.99186" lon="6.57311">
        <ele>2147.6000976562</ele>
        <time>2019-02-20T11:54:20.000Z</time>
      </trkpt>
      <trkpt lat="45.99187" lon="6.5731">
        <ele>2147.8000488281</ele>
        <time>2019-02-20T12:10:13.000Z</time>
      </trkpt>
      <trkpt lat="45.99186" lon="6.57312">
        <ele>2147.8000488281</ele>
        <time>2019-02-20T12:12:06.000Z</time>
      </trkpt>
      <trkpt lat="45.99187" lon="6.57314">
        <ele>2147.6000976562</ele>
        <time>2019-02-20T12:12:46.000Z</time>
      </trkpt>
      <trkpt lat="45.99189" lon="6.57315">
        <ele>2147.6000976562</ele>
        <time>2019-02-20T12:12:55.000Z</time>
      </trkpt>
      <trkpt lat="45.99191" lon="6.57314">
        <ele>2147.1999511719</ele>
        <time>2019-02-20T12:13:33.000Z</time>
      </trkpt>
      <trkpt lat="45.99193" lon="6.57316">
        <ele>2146.8000488281</ele>
        <time>2019-02-20T12:13:38.000Z</time>
      </trkpt>
      <trkpt lat="45.99195" lon="6.57319">
        <ele>2146.8000488281</ele>
        <time>2019-02-20T12:13:45.000Z</time>
      </trkpt>
      <trkpt lat="45.99197" lon="6.57323">
        <ele>2146.6000976562</ele>
        <time>2019-02-20T12:13:46.000Z</time>
      </trkpt>
      <trkpt lat="45.992" lon="6.57329">
        <ele>2146.6000976562</ele>
        <time>2019-02-20T12:13:47.000Z</time>
      </trkpt>
      <trkpt lat="45.99204" lon="6.57335">
        <ele>2146.3999023438</ele>
        <time>2019-02-20T12:13:48.000Z</time>
      </trkpt>
      <trkpt lat="45.99209" lon="6.5734">
        <ele>2146.3999023438</ele>
        <time>2019-02-20T12:13:49.000Z</time>
      </trkpt>
      <trkpt lat="45.99212" lon="6.57342">
        <ele>2146.3999023438</ele>
        <time>2019-02-20T12:13:50.000Z</time>
      </trkpt>
      <trkpt lat="45.99215" lon="6.57344">
        <ele>2146.1999511719</ele>
        <time>2019-02-20T12:13:51.000Z</time>
      </trkpt>
      <trkpt lat="45.99218" lon="6.57345">
        <ele>2146</ele>
        <time>2019-02-20T12:13:52.000Z</time>
      </trkpt>
      <trkpt lat="45.9922" lon="6.57347">
        <ele>2145.3999023438</ele>
        <time>2019-02-20T12:13:53.000Z</time>
      </trkpt>
      <trkpt lat="45.99223" lon="6.57352">
        <ele>2145</ele>
        <time>2019-02-20T12:13:54.000Z</time>
      </trkpt>
      <trkpt lat="45.99225" lon="6.57357">
        <ele>2144</ele>
        <time>2019-02-20T12:13:55.000Z</time>
      </trkpt>
      <trkpt lat="45.99228" lon="6.57362">
        <ele>2143.1999511719</ele>
        <time>2019-02-20T12:13:56.000Z</time>
      </trkpt>
      <trkpt lat="45.99232" lon="6.57364">
        <ele>2142.6000976562</ele>
        <time>2019-02-20T12:13:57.000Z</time>
      </trkpt>
      <trkpt lat="45.99235" lon="6.57366">
        <ele>2142.1999511719</ele>
        <time>2019-02-20T12:13:58.000Z</time>
      </trkpt>
      <trkpt lat="45.99238" lon="6.5737">
        <ele>2141.8000488281</ele>
        <time>2019-02-20T12:13:59.000Z</time>
      </trkpt>
      <trkpt lat="45.99241" lon="6.57375">
        <ele>2141.3999023438</ele>
        <time>2019-02-20T12:14:00.000Z</time>
      </trkpt>
      <trkpt lat="45.99244" lon="6.57379">
        <ele>2140.8000488281</ele>
        <time>2019-02-20T12:14:01.000Z</time>
      </trkpt>
      <trkpt lat="45.99247" lon="6.57382">
        <ele>2140</ele>
        <time>2019-02-20T12:14:02.000Z</time>
      </trkpt>
      <trkpt lat="45.99249" lon="6.57383">
        <ele>2132</ele>
        <time>2019-02-20T12:14:21.000Z</time>
      </trkpt>
      <trkpt lat="45.99253" lon="6.57387">
        <ele>2132</ele>
        <time>2019-02-20T12:14:23.000Z</time>
      </trkpt>
      <trkpt lat="45.99256" lon="6.5739">
        <ele>2132</ele>
        <time>2019-02-20T12:14:24.000Z</time>
      </trkpt>
      <trkpt lat="45.99259" lon="6.57392">
        <ele>2131.8000488281</ele>
        <time>2019-02-20T12:14:25.000Z</time>
      </trkpt>
      <trkpt lat="45.99262" lon="6.57395">
        <ele>2131.6000976562</ele>
        <time>2019-02-20T12:14:26.000Z</time>
      </trkpt>
      <trkpt lat="45.99265" lon="6.57398">
        <ele>2131.1999511719</ele>
        <time>2019-02-20T12:14:27.000Z</time>
      </trkpt>
      <trkpt lat="45.99268" lon="6.574">
        <ele>2131.3999023438</ele>
        <time>2019-02-20T12:14:28.000Z</time>
      </trkpt>
      <trkpt lat="45.9927" lon="6.57402">
        <ele>2130.8006471245</ele>
        <time>2019-02-20T12:14:29.000Z</time>
      </trkpt>
      <trkpt lat="45.99271" lon="6.57404">
        <ele>2130.1999511719</ele>
        <time>2019-02-20T12:14:30.000Z</time>
      </trkpt>
      <trkpt lat="45.99273" lon="6.57405">
        <ele>2129.6000976562</ele>
        <time>2019-02-20T12:14:31.000Z</time>
      </trkpt>
      <trkpt lat="45.99275" lon="6.57407">
        <ele>2128.6000976562</ele>
        <time>2019-02-20T12:14:32.000Z</time>
      </trkpt>
      <trkpt lat="45.99273" lon="6.57405">
        <ele>2127.6000976562</ele>
        <time>2019-02-20T12:14:34.000Z</time>
      </trkpt>
      <trkpt lat="45.99277" lon="6.57408">
        <ele>2126.1999511719</ele>
        <time>2019-02-20T12:14:38.000Z</time>
      </trkpt>
      <trkpt lat="45.99281" lon="6.57411">
        <ele>2125.8000488281</ele>
        <time>2019-02-20T12:14:39.000Z</time>
      </trkpt>
      <trkpt lat="45.99287" lon="6.57415">
        <ele>2125.3999023438</ele>
        <time>2019-02-20T12:14:40.000Z</time>
      </trkpt>
      <trkpt lat="45.99293" lon="6.5742">
        <ele>2125.1999511719</ele>
        <time>2019-02-20T12:14:41.000Z</time>
      </trkpt>
      <trkpt lat="45.99299" lon="6.57426">
        <ele>2125.1999511719</ele>
        <time>2019-02-20T12:14:42.000Z</time>
      </trkpt>
      <trkpt lat="45.99305" lon="6.57432">
        <ele>2124.6000976562</ele>
        <time>2019-02-20T12:14:43.000Z</time>
      </trkpt>
      <trkpt lat="45.99311" lon="6.57437">
        <ele>2124</ele>
        <time>2019-02-20T12:14:44.000Z</time>
      </trkpt>
      <trkpt lat="45.99316" lon="6.57443">
        <ele>2123.1999511719</ele>
        <time>2019-02-20T12:14:45.000Z</time>
      </trkpt>
      <trkpt lat="45.9932" lon="6.57449">
        <ele>2122</ele>
        <time>2019-02-20T12:14:46.000Z</time>
      </trkpt>
      <trkpt lat="45.99324" lon="6.57455">
        <ele>2120.8000488281</ele>
        <time>2019-02-20T12:14:47.000Z</time>
      </trkpt>
      <trkpt lat="45.99329" lon="6.5746">
        <ele>2119.8000488281</ele>
        <time>2019-02-20T12:14:48.000Z</time>
      </trkpt>
      <trkpt lat="45.99333" lon="6.57465">
        <ele>2118.8000488281</ele>
        <time>2019-02-20T12:14:49.000Z</time>
      </trkpt>
      <trkpt lat="45.99337" lon="6.5747">
        <ele>2117.8000488281</ele>
        <time>2019-02-20T12:14:50.000Z</time>
      </trkpt>
      <trkpt lat="45.99339" lon="6.57473">
        <ele>2117</ele>
        <time>2019-02-20T12:14:51.000Z</time>
      </trkpt>
      <trkpt lat="45.99341" lon="6.57475">
        <ele>2115.6000976562</ele>
        <time>2019-02-20T12:14:55.000Z</time>
      </trkpt>
      <trkpt lat="45.99342" lon="6.57477">
        <ele>2115</ele>
        <time>2019-02-20T12:14:57.000Z</time>
      </trkpt>
      <trkpt lat="45.99343" lon="6.5748">
        <ele>2114.6000976562</ele>
        <time>2019-02-20T12:15:00.000Z</time>
      </trkpt>
      <trkpt lat="45.99346" lon="6.57481">
        <ele>2113.6000976562</ele>
        <time>2019-02-20T12:15:29.000Z</time>
      </trkpt>
      <trkpt lat="45.99348" lon="6.57483">
        <ele>2113.3999023438</ele>
        <time>2019-02-20T12:15:30.000Z</time>
      </trkpt>
      <trkpt lat="45.99351" lon="6.57486">
        <ele>2113.1999511719</ele>
        <time>2019-02-20T12:15:31.000Z</time>
      </trkpt>
      <trkpt lat="45.99354" lon="6.57489">
        <ele>2113.3999023438</ele>
        <time>2019-02-20T12:15:32.000Z</time>
      </trkpt>
      <trkpt lat="45.99358" lon="6.57492">
        <ele>2113.6000976562</ele>
        <time>2019-02-20T12:15:33.000Z</time>
      </trkpt>
      <trkpt lat="45.99361" lon="6.57496">
        <ele>2113.6000976562</ele>
        <time>2019-02-20T12:15:34.000Z</time>
      </trkpt>
      <trkpt lat="45.99366" lon="6.57497">
        <ele>2113.3999023438</ele>
        <time>2019-02-20T12:15:35.000Z</time>
      </trkpt>
      <trkpt lat="45.99371" lon="6.57497">
        <ele>2113</ele>
        <time>2019-02-20T12:15:36.000Z</time>
      </trkpt>
      <trkpt lat="45.99372" lon="6.57492">
        <ele>2112.6000976562</ele>
        <time>2019-02-20T12:15:37.000Z</time>
      </trkpt>
      <trkpt lat="45.99371" lon="6.57477">
        <ele>2109.8000488281</ele>
        <time>2019-02-20T12:15:40.000Z</time>
      </trkpt>
      <trkpt lat="45.99363" lon="6.57464">
        <ele>2106.1999511719</ele>
        <time>2019-02-20T12:15:43.000Z</time>
      </trkpt>
      <trkpt lat="45.99357" lon="6.57462">
        <ele>2100.8000488281</ele>
        <time>2019-02-20T12:15:49.000Z</time>
      </trkpt>
      <trkpt lat="45.99357" lon="6.57459">
        <ele>2099.6000976562</ele>
        <time>2019-02-20T12:16:04.000Z</time>
      </trkpt>
      <trkpt lat="45.99358" lon="6.57456">
        <ele>2099.6000976562</ele>
        <time>2019-02-20T12:16:05.000Z</time>
      </trkpt>
      <trkpt lat="45.9936" lon="6.57451">
        <ele>2099.6000976562</ele>
        <time>2019-02-20T12:16:06.000Z</time>
      </trkpt>
      <trkpt lat="45.99363" lon="6.57445">
        <ele>2099.6000976562</ele>
        <time>2019-02-20T12:16:07.000Z</time>
      </trkpt>
      <trkpt lat="45.99366" lon="6.57438">
        <ele>2099.6000976562</ele>
        <time>2019-02-20T12:16:08.000Z</time>
      </trkpt>
      <trkpt lat="45.99363" lon="6.57419">
        <ele>2098.800447295</ele>
        <time>2019-02-20T12:16:11.000Z</time>
      </trkpt>
      <trkpt lat="45.99358" lon="6.57406">
        <ele>2096.8000488281</ele>
        <time>2019-02-20T12:16:13.000Z</time>
      </trkpt>
      <trkpt lat="45.99352" lon="6.57398">
        <ele>2090.6000976562</ele>
        <time>2019-02-20T12:16:17.000Z</time>
      </trkpt>
      <trkpt lat="45.99351" lon="6.57401">
        <ele>2086</ele>
        <time>2019-02-20T12:16:47.000Z</time>
      </trkpt>
      <trkpt lat="45.9935" lon="6.57404">
        <ele>2086</ele>
        <time>2019-02-20T12:16:52.000Z</time>
      </trkpt>
      <trkpt lat="45.99349" lon="6.57405">
        <ele>2086</ele>
        <time>2019-02-20T12:16:59.000Z</time>
      </trkpt>
      <trkpt lat="45.99348" lon="6.57403">
        <ele>2085.8000488281</ele>
        <time>2019-02-20T12:17:07.000Z</time>
      </trkpt>
      <trkpt lat="45.99347" lon="6.574">
        <ele>2085.8000488281</ele>
        <time>2019-02-20T12:17:10.000Z</time>
      </trkpt>
      <trkpt lat="45.99344" lon="6.57383">
        <ele>2084.6000976562</ele>
        <time>2019-02-20T12:17:14.000Z</time>
      </trkpt>
      <trkpt lat="45.99339" lon="6.57367">
        <ele>2083.3999023438</ele>
        <time>2019-02-20T12:17:17.000Z</time>
      </trkpt>
      <trkpt lat="45.99335" lon="6.57349">
        <ele>2082.3999023438</ele>
        <time>2019-02-20T12:17:20.000Z</time>
      </trkpt>
      <trkpt lat="45.99332" lon="6.57334">
        <ele>2081.6000976562</ele>
        <time>2019-02-20T12:17:22.000Z</time>
      </trkpt>
      <trkpt lat="45.99329" lon="6.57317">
        <ele>2081.3999023438</ele>
        <time>2019-02-20T12:17:24.000Z</time>
      </trkpt>
      <trkpt lat="45.99327" lon="6.57299">
        <ele>2080.3999023438</ele>
        <time>2019-02-20T12:17:26.000Z</time>
      </trkpt>
      <trkpt lat="45.99325" lon="6.57281">
        <ele>2078.3999023438</ele>
        <time>2019-02-20T12:17:28.000Z</time>
      </trkpt>
      <trkpt lat="45.99322" lon="6.57265">
        <ele>2076.6000976562</ele>
        <time>2019-02-20T12:17:30.000Z</time>
      </trkpt>
      <trkpt lat="45.99318" lon="6.57252">
        <ele>2074</ele>
        <time>2019-02-20T12:17:32.000Z</time>
      </trkpt>
      <trkpt lat="45.99316" lon="6.57236">
        <ele>2070.1999511719</ele>
        <time>2019-02-20T12:17:34.000Z</time>
      </trkpt>
      <trkpt lat="45.9932" lon="6.5722">
        <ele>2067.3999023438</ele>
        <time>2019-02-20T12:17:36.000Z</time>
      </trkpt>
      <trkpt lat="45.99326" lon="6.57205">
        <ele>2063.8000488281</ele>
        <time>2019-02-20T12:17:38.000Z</time>
      </trkpt>
      <trkpt lat="45.99332" lon="6.5719">
        <ele>2062.6000976562</ele>
        <time>2019-02-20T12:17:40.000Z</time>
      </trkpt>
      <trkpt lat="45.99336" lon="6.57177">
        <ele>2060.8000488281</ele>
        <time>2019-02-20T12:17:42.000Z</time>
      </trkpt>
      <trkpt lat="45.99342" lon="6.57159">
        <ele>2057.3999023438</ele>
        <time>2019-02-20T12:17:45.000Z</time>
      </trkpt>
      <trkpt lat="45.99351" lon="6.57147">
        <ele>2056.1999511719</ele>
        <time>2019-02-20T12:17:47.000Z</time>
      </trkpt>
      <trkpt lat="45.99361" lon="6.57134">
        <ele>2054.6000976562</ele>
        <time>2019-02-20T12:17:49.000Z</time>
      </trkpt>
      <trkpt lat="45.99375" lon="6.57117">
        <ele>2053.6000976562</ele>
        <time>2019-02-20T12:17:51.000Z</time>
      </trkpt>
      <trkpt lat="45.99382" lon="6.57108">
        <ele>2052.6000976562</ele>
        <time>2019-02-20T12:17:52.000Z</time>
      </trkpt>
      <trkpt lat="45.99389" lon="6.57098">
        <ele>2050.6020924646</ele>
        <time>2019-02-20T12:17:53.000Z</time>
      </trkpt>
      <trkpt lat="45.99395" lon="6.5709">
        <ele>2049.3999023438</ele>
        <time>2019-02-20T12:17:54.000Z</time>
      </trkpt>
      <trkpt lat="45.99405" lon="6.57079">
        <ele>2047</ele>
        <time>2019-02-20T12:17:56.000Z</time>
      </trkpt>
      <trkpt lat="45.99414" lon="6.5707">
        <ele>2043.4000244141</ele>
        <time>2019-02-20T12:17:58.000Z</time>
      </trkpt>
      <trkpt lat="45.99422" lon="6.57063">
        <ele>2040.8000488281</ele>
        <time>2019-02-20T12:18:00.000Z</time>
      </trkpt>
      <trkpt lat="45.99425" lon="6.57061">
        <ele>2040.4000244141</ele>
        <time>2019-02-20T12:18:01.000Z</time>
      </trkpt>
      <trkpt lat="45.99429" lon="6.57058">
        <ele>2039.1999511719</ele>
        <time>2019-02-20T12:18:02.000Z</time>
      </trkpt>
      <trkpt lat="45.99433" lon="6.57055">
        <ele>2038.4000244141</ele>
        <time>2019-02-20T12:18:03.000Z</time>
      </trkpt>
      <trkpt lat="45.99436" lon="6.57052">
        <ele>2037.8000488281</ele>
        <time>2019-02-20T12:18:04.000Z</time>
      </trkpt>
      <trkpt lat="45.99438" lon="6.57049">
        <ele>2037</ele>
        <time>2019-02-20T12:18:05.000Z</time>
      </trkpt>
      <trkpt lat="45.9944" lon="6.57048">
        <ele>2036.1999511719</ele>
        <time>2019-02-20T12:18:06.000Z</time>
      </trkpt>
      <trkpt lat="45.99442" lon="6.57046">
        <ele>2035.4000244141</ele>
        <time>2019-02-20T12:18:07.000Z</time>
      </trkpt>
      <trkpt lat="45.99444" lon="6.57044">
        <ele>2034.8000488281</ele>
        <time>2019-02-20T12:18:08.000Z</time>
      </trkpt>
      <trkpt lat="45.99446" lon="6.57042">
        <ele>2034.1999511719</ele>
        <time>2019-02-20T12:18:09.000Z</time>
      </trkpt>
      <trkpt lat="45.99447" lon="6.57039">
        <ele>2033.4000244141</ele>
        <time>2019-02-20T12:18:11.000Z</time>
      </trkpt>
      <trkpt lat="45.99449" lon="6.57035">
        <ele>2032.4000244141</ele>
        <time>2019-02-20T12:18:13.000Z</time>
      </trkpt>
      <trkpt lat="45.99451" lon="6.57033">
        <ele>2032</ele>
        <time>2019-02-20T12:18:14.000Z</time>
      </trkpt>
      <trkpt lat="45.99452" lon="6.57031">
        <ele>2032</ele>
        <time>2019-02-20T12:18:15.000Z</time>
      </trkpt>
      <trkpt lat="45.99453" lon="6.57029">
        <ele>2032.4000244141</ele>
        <time>2019-02-20T12:18:16.000Z</time>
      </trkpt>
      <trkpt lat="45.9946" lon="6.57018">
        <ele>2031.5999755859</ele>
        <time>2019-02-20T12:18:21.000Z</time>
      </trkpt>
      <trkpt lat="45.99468" lon="6.57008">
        <ele>2030.5999755859</ele>
        <time>2019-02-20T12:18:25.000Z</time>
      </trkpt>
      <trkpt lat="45.99472" lon="6.57005">
        <ele>2030.4000244141</ele>
        <time>2019-02-20T12:18:26.000Z</time>
      </trkpt>
      <trkpt lat="45.99476" lon="6.57001">
        <ele>2030.1999511719</ele>
        <time>2019-02-20T12:18:27.000Z</time>
      </trkpt>
      <trkpt lat="45.99481" lon="6.56996">
        <ele>2030</ele>
        <time>2019-02-20T12:18:28.000Z</time>
      </trkpt>
      <trkpt lat="45.99486" lon="6.5699">
        <ele>2030</ele>
        <time>2019-02-20T12:18:29.000Z</time>
      </trkpt>
      <trkpt lat="45.99491" lon="6.56984">
        <ele>2029.5999755859</ele>
        <time>2019-02-20T12:18:30.000Z</time>
      </trkpt>
      <trkpt lat="45.99496" lon="6.56979">
        <ele>2029.4000244141</ele>
        <time>2019-02-20T12:18:31.000Z</time>
      </trkpt>
      <trkpt lat="45.995" lon="6.56974">
        <ele>2029.1999511719</ele>
        <time>2019-02-20T12:18:32.000Z</time>
      </trkpt>
      <trkpt lat="45.99505" lon="6.5697">
        <ele>2028.4000244141</ele>
        <time>2019-02-20T12:18:33.000Z</time>
      </trkpt>
      <trkpt lat="45.99509" lon="6.56966">
        <ele>2027.8000488281</ele>
        <time>2019-02-20T12:18:34.000Z</time>
      </trkpt>
      <trkpt lat="45.99514" lon="6.56963">
        <ele>2027.4000244141</ele>
        <time>2019-02-20T12:18:35.000Z</time>
      </trkpt>
      <trkpt lat="45.99518" lon="6.56959">
        <ele>2026.5999755859</ele>
        <time>2019-02-20T12:18:36.000Z</time>
      </trkpt>
      <trkpt lat="45.99523" lon="6.56956">
        <ele>2025.8000488281</ele>
        <time>2019-02-20T12:18:37.000Z</time>
      </trkpt>
      <trkpt lat="45.99528" lon="6.56952">
        <ele>2025.4000244141</ele>
        <time>2019-02-20T12:18:38.000Z</time>
      </trkpt>
      <trkpt lat="45.99532" lon="6.56948">
        <ele>2024.8000488281</ele>
        <time>2019-02-20T12:18:39.000Z</time>
      </trkpt>
      <trkpt lat="45.99537" lon="6.56945">
        <ele>2024.4000244141</ele>
        <time>2019-02-20T12:18:40.000Z</time>
      </trkpt>
      <trkpt lat="45.99548" lon="6.56937">
        <ele>2023</ele>
        <time>2019-02-20T12:18:42.000Z</time>
      </trkpt>
      <trkpt lat="45.99564" lon="6.56929">
        <ele>2022.000398986</ele>
        <time>2019-02-20T12:18:44.000Z</time>
      </trkpt>
      <trkpt lat="45.99573" lon="6.56924">
        <ele>2021.4000244141</ele>
        <time>2019-02-20T12:18:45.000Z</time>
      </trkpt>
      <trkpt lat="45.99583" lon="6.56918">
        <ele>2020.4000244141</ele>
        <time>2019-02-20T12:18:46.000Z</time>
      </trkpt>
      <trkpt lat="45.99593" lon="6.56912">
        <ele>2019.5999755859</ele>
        <time>2019-02-20T12:18:47.000Z</time>
      </trkpt>
      <trkpt lat="45.99603" lon="6.56905">
        <ele>2018.4000244141</ele>
        <time>2019-02-20T12:18:48.000Z</time>
      </trkpt>
      <trkpt lat="45.99613" lon="6.56898">
        <ele>2016.8000488281</ele>
        <time>2019-02-20T12:18:49.000Z</time>
      </trkpt>
      <trkpt lat="45.99621" lon="6.5689">
        <ele>2014.8000488281</ele>
        <time>2019-02-20T12:18:50.000Z</time>
      </trkpt>
      <trkpt lat="45.99629" lon="6.56883">
        <ele>2012.5999755859</ele>
        <time>2019-02-20T12:18:51.000Z</time>
      </trkpt>
      <trkpt lat="45.99641" lon="6.5687">
        <ele>2007.4000244141</ele>
        <time>2019-02-20T12:18:53.000Z</time>
      </trkpt>
      <trkpt lat="45.99644" lon="6.56866">
        <ele>2006</ele>
        <time>2019-02-20T12:18:54.000Z</time>
      </trkpt>
      <trkpt lat="45.99645" lon="6.56862">
        <ele>2004.8000488281</ele>
        <time>2019-02-20T12:18:55.000Z</time>
      </trkpt>
      <trkpt lat="45.99647" lon="6.5686">
        <ele>2003</ele>
        <time>2019-02-20T12:18:57.000Z</time>
      </trkpt>
      <trkpt lat="45.9965" lon="6.56858">
        <ele>2003.5999755859</ele>
        <time>2019-02-20T12:18:59.000Z</time>
      </trkpt>
      <trkpt lat="45.99652" lon="6.56857">
        <ele>2004.1999511719</ele>
        <time>2019-02-20T12:19:00.000Z</time>
      </trkpt>
      <trkpt lat="45.99654" lon="6.56856">
        <ele>2005.1999511719</ele>
        <time>2019-02-20T12:19:01.000Z</time>
      </trkpt>
      <trkpt lat="45.99658" lon="6.56856">
        <ele>2005.5999755859</ele>
        <time>2019-02-20T12:19:02.000Z</time>
      </trkpt>
      <trkpt lat="45.99661" lon="6.56855">
        <ele>2005.8000488281</ele>
        <time>2019-02-20T12:19:03.000Z</time>
      </trkpt>
      <trkpt lat="45.99666" lon="6.56853">
        <ele>2006.1999511719</ele>
        <time>2019-02-20T12:19:04.000Z</time>
      </trkpt>
      <trkpt lat="45.99671" lon="6.56852">
        <ele>2006</ele>
        <time>2019-02-20T12:19:05.000Z</time>
      </trkpt>
      <trkpt lat="45.99675" lon="6.5685">
        <ele>2005.8000488281</ele>
        <time>2019-02-20T12:19:06.000Z</time>
      </trkpt>
      <trkpt lat="45.99679" lon="6.56848">
        <ele>2006</ele>
        <time>2019-02-20T12:19:07.000Z</time>
      </trkpt>
      <trkpt lat="45.99683" lon="6.56847">
        <ele>2005.5999755859</ele>
        <time>2019-02-20T12:19:08.000Z</time>
      </trkpt>
      <trkpt lat="45.99686" lon="6.56846">
        <ele>2005.4000244141</ele>
        <time>2019-02-20T12:19:09.000Z</time>
      </trkpt>
      <trkpt lat="45.9969" lon="6.56845">
        <ele>2004.8000488281</ele>
        <time>2019-02-20T12:19:10.000Z</time>
      </trkpt>
      <trkpt lat="45.99694" lon="6.56844">
        <ele>2004.1999511719</ele>
        <time>2019-02-20T12:19:11.000Z</time>
      </trkpt>
      <trkpt lat="45.997" lon="6.56843">
        <ele>2004</ele>
        <time>2019-02-20T12:19:12.000Z</time>
      </trkpt>
      <trkpt lat="45.99706" lon="6.56841">
        <ele>2003.8000488281</ele>
        <time>2019-02-20T12:19:13.000Z</time>
      </trkpt>
      <trkpt lat="45.99712" lon="6.5684">
        <ele>2003.8000488281</ele>
        <time>2019-02-20T12:19:14.000Z</time>
      </trkpt>
      <trkpt lat="45.99718" lon="6.56839">
        <ele>2003.4000244141</ele>
        <time>2019-02-20T12:19:15.000Z</time>
      </trkpt>
      <trkpt lat="45.99725" lon="6.56839">
        <ele>2003.1999511719</ele>
        <time>2019-02-20T12:19:16.000Z</time>
      </trkpt>
      <trkpt lat="45.99731" lon="6.5684">
        <ele>2002.8000488281</ele>
        <time>2019-02-20T12:19:17.000Z</time>
      </trkpt>
      <trkpt lat="45.99737" lon="6.56841">
        <ele>2002.4000244141</ele>
        <time>2019-02-20T12:19:18.000Z</time>
      </trkpt>
      <trkpt lat="45.99743" lon="6.56843">
        <ele>2002</ele>
        <time>2019-02-20T12:19:19.000Z</time>
      </trkpt>
      <trkpt lat="45.99754" lon="6.5685">
        <ele>2000</ele>
        <time>2019-02-20T12:19:21.000Z</time>
      </trkpt>
      <trkpt lat="45.99762" lon="6.56858">
        <ele>1998.8000488281</ele>
        <time>2019-02-20T12:19:23.000Z</time>
      </trkpt>
      <trkpt lat="45.99771" lon="6.56868">
        <ele>1997.8000488281</ele>
        <time>2019-02-20T12:19:25.000Z</time>
      </trkpt>
      <trkpt lat="45.99777" lon="6.5688">
        <ele>1996.8000488281</ele>
        <time>2019-02-20T12:19:27.000Z</time>
      </trkpt>
      <trkpt lat="45.99783" lon="6.56895">
        <ele>1996</ele>
        <time>2019-02-20T12:19:30.000Z</time>
      </trkpt>
      <trkpt lat="45.99786" lon="6.56899">
        <ele>1995.4000244141</ele>
        <time>2019-02-20T12:19:31.000Z</time>
      </trkpt>
      <trkpt lat="45.9979" lon="6.56904">
        <ele>1994.8000488281</ele>
        <time>2019-02-20T12:19:33.000Z</time>
      </trkpt>
      <trkpt lat="45.99799" lon="6.5691">
        <ele>1993.8000488281</ele>
        <time>2019-02-20T12:19:36.000Z</time>
      </trkpt>
      <trkpt lat="45.99802" lon="6.56913">
        <ele>1993.1999511719</ele>
        <time>2019-02-20T12:19:37.000Z</time>
      </trkpt>
      <trkpt lat="45.99805" lon="6.56914">
        <ele>1993</ele>
        <time>2019-02-20T12:19:38.000Z</time>
      </trkpt>
      <trkpt lat="45.99808" lon="6.56915">
        <ele>1992.4000244141</ele>
        <time>2019-02-20T12:19:39.000Z</time>
      </trkpt>
      <trkpt lat="45.9981" lon="6.56915">
        <ele>1992.8000488281</ele>
        <time>2019-02-20T12:19:40.000Z</time>
      </trkpt>
      <trkpt lat="45.99812" lon="6.56916">
        <ele>1992.5999755859</ele>
        <time>2019-02-20T12:19:41.000Z</time>
      </trkpt>
      <trkpt lat="45.99815" lon="6.56915">
        <ele>1992.5999755859</ele>
        <time>2019-02-20T12:19:43.000Z</time>
      </trkpt>
      <trkpt lat="45.99813" lon="6.56915">
        <ele>1993</ele>
        <time>2019-02-20T12:19:54.000Z</time>
      </trkpt>
      <trkpt lat="45.99811" lon="6.56915">
        <ele>1993.5999755859</ele>
        <time>2019-02-20T12:20:09.000Z</time>
      </trkpt>
      <trkpt lat="45.99813" lon="6.56913">
        <ele>1991.8000488281</ele>
        <time>2019-02-20T12:20:45.000Z</time>
      </trkpt>
      <trkpt lat="45.99817" lon="6.56913">
        <ele>1991.5999755859</ele>
        <time>2019-02-20T12:20:47.000Z</time>
      </trkpt>
      <trkpt lat="45.99819" lon="6.56913">
        <ele>1991.5999755859</ele>
        <time>2019-02-20T12:20:48.000Z</time>
      </trkpt>
      <trkpt lat="45.99821" lon="6.56912">
        <ele>1991.4000244141</ele>
        <time>2019-02-20T12:20:49.000Z</time>
      </trkpt>
      <trkpt lat="45.99824" lon="6.56912">
        <ele>1991.8000488281</ele>
        <time>2019-02-20T12:20:50.000Z</time>
      </trkpt>
      <trkpt lat="45.99827" lon="6.56912">
        <ele>1992</ele>
        <time>2019-02-20T12:20:51.000Z</time>
      </trkpt>
      <trkpt lat="45.9983" lon="6.56912">
        <ele>1992</ele>
        <time>2019-02-20T12:20:52.000Z</time>
      </trkpt>
      <trkpt lat="45.99832" lon="6.56912">
        <ele>1991.8000488281</ele>
        <time>2019-02-20T12:20:53.000Z</time>
      </trkpt>
      <trkpt lat="45.99843" lon="6.56913">
        <ele>1991.1999511719</ele>
        <time>2019-02-20T12:20:56.000Z</time>
      </trkpt>
      <trkpt lat="45.99854" lon="6.56916">
        <ele>1990.4000244141</ele>
        <time>2019-02-20T12:20:59.000Z</time>
      </trkpt>
      <trkpt lat="45.99864" lon="6.56917">
        <ele>1990.1999511719</ele>
        <time>2019-02-20T12:21:01.000Z</time>
      </trkpt>
      <trkpt lat="45.99874" lon="6.56919">
        <ele>1990</ele>
        <time>2019-02-20T12:21:03.000Z</time>
      </trkpt>
      <trkpt lat="45.99884" lon="6.5692">
        <ele>1989.1999511719</ele>
        <time>2019-02-20T12:21:06.000Z</time>
      </trkpt>
      <trkpt lat="45.99887" lon="6.56918">
        <ele>1988.8000488281</ele>
        <time>2019-02-20T12:21:09.000Z</time>
      </trkpt>
      <trkpt lat="45.99889" lon="6.56918">
        <ele>1988.5999755859</ele>
        <time>2019-02-20T12:21:15.000Z</time>
      </trkpt>
      <trkpt lat="45.99891" lon="6.56916">
        <ele>1989</ele>
        <time>2019-02-20T12:21:19.000Z</time>
      </trkpt>
      <trkpt lat="45.99894" lon="6.56915">
        <ele>1988.8000488281</ele>
        <time>2019-02-20T12:21:21.000Z</time>
      </trkpt>
      <trkpt lat="45.99896" lon="6.56915">
        <ele>1989</ele>
        <time>2019-02-20T12:21:22.000Z</time>
      </trkpt>
      <trkpt lat="45.99898" lon="6.56914">
        <ele>1989</ele>
        <time>2019-02-20T12:21:23.000Z</time>
      </trkpt>
      <trkpt lat="45.99901" lon="6.56913">
        <ele>1988.8000488281</ele>
        <time>2019-02-20T12:21:24.000Z</time>
      </trkpt>
      <trkpt lat="45.99905" lon="6.56912">
        <ele>1988.8000488281</ele>
        <time>2019-02-20T12:21:25.000Z</time>
      </trkpt>
      <trkpt lat="45.9991" lon="6.56911">
        <ele>1988.5999755859</ele>
        <time>2019-02-20T12:21:26.000Z</time>
      </trkpt>
      <trkpt lat="45.99915" lon="6.56909">
        <ele>1988.5999755859</ele>
        <time>2019-02-20T12:21:27.000Z</time>
      </trkpt>
      <trkpt lat="45.9992" lon="6.56908">
        <ele>1988.5999755859</ele>
        <time>2019-02-20T12:21:28.000Z</time>
      </trkpt>
      <trkpt lat="45.99925" lon="6.56906">
        <ele>1988.5999755859</ele>
        <time>2019-02-20T12:21:29.000Z</time>
      </trkpt>
      <trkpt lat="45.99929" lon="6.56905">
        <ele>1988.5999755859</ele>
        <time>2019-02-20T12:21:30.000Z</time>
      </trkpt>
      <trkpt lat="45.99933" lon="6.56904">
        <ele>1988.5999755859</ele>
        <time>2019-02-20T12:21:31.000Z</time>
      </trkpt>
      <trkpt lat="45.99937" lon="6.56902">
        <ele>1988.5999755859</ele>
        <time>2019-02-20T12:21:32.000Z</time>
      </trkpt>
      <trkpt lat="45.99949" lon="6.56898">
        <ele>1986.1999511719</ele>
        <time>2019-02-20T12:21:36.000Z</time>
      </trkpt>
      <trkpt lat="45.99959" lon="6.569">
        <ele>1986</ele>
        <time>2019-02-20T12:21:38.000Z</time>
      </trkpt>
      <trkpt lat="45.99967" lon="6.56906">
        <ele>1985.5999755859</ele>
        <time>2019-02-20T12:21:40.000Z</time>
      </trkpt>
      <trkpt lat="45.99976" lon="6.56913">
        <ele>1984.5999755859</ele>
        <time>2019-02-20T12:21:44.000Z</time>
      </trkpt>
      <trkpt lat="45.99977" lon="6.56915">
        <ele>1983.1999511719</ele>
        <time>2019-02-20T12:21:47.000Z</time>
      </trkpt>
      <trkpt lat="45.99979" lon="6.56917">
        <ele>1983.4000244141</ele>
        <time>2019-02-20T12:21:53.000Z</time>
      </trkpt>
      <trkpt lat="45.99982" lon="6.56919">
        <ele>1983.8000488281</ele>
        <time>2019-02-20T12:21:55.000Z</time>
      </trkpt>
      <trkpt lat="45.99984" lon="6.5692">
        <ele>1984</ele>
        <time>2019-02-20T12:21:56.000Z</time>
      </trkpt>
      <trkpt lat="45.99986" lon="6.56921">
        <ele>1984.1999511719</ele>
        <time>2019-02-20T12:21:57.000Z</time>
      </trkpt>
      <trkpt lat="45.99994" lon="6.56929">
        <ele>1983.8000488281</ele>
        <time>2019-02-20T12:22:01.000Z</time>
      </trkpt>
      <trkpt lat="45.99996" lon="6.56932">
        <ele>1983.8000488281</ele>
        <time>2019-02-20T12:22:02.000Z</time>
      </trkpt>
      <trkpt lat="45.99998" lon="6.56935">
        <ele>1983.8000488281</ele>
        <time>2019-02-20T12:22:03.000Z</time>
      </trkpt>
      <trkpt lat="46.00001" lon="6.56939">
        <ele>1983.4000244141</ele>
        <time>2019-02-20T12:22:04.000Z</time>
      </trkpt>
      <trkpt lat="46.00004" lon="6.56942">
        <ele>1983.5999755859</ele>
        <time>2019-02-20T12:22:05.000Z</time>
      </trkpt>
      <trkpt lat="46.00007" lon="6.56946">
        <ele>1983.8000488281</ele>
        <time>2019-02-20T12:22:06.000Z</time>
      </trkpt>
      <trkpt lat="46.00009" lon="6.5695">
        <ele>1983.5999755859</ele>
        <time>2019-02-20T12:22:07.000Z</time>
      </trkpt>
      <trkpt lat="46.00011" lon="6.56953">
        <ele>1983.2003501579</ele>
        <time>2019-02-20T12:22:08.000Z</time>
      </trkpt>
      <trkpt lat="46.00013" lon="6.56955">
        <ele>1983</ele>
        <time>2019-02-20T12:22:09.000Z</time>
      </trkpt>
      <trkpt lat="46.00014" lon="6.56958">
        <ele>1982.8000488281</ele>
        <time>2019-02-20T12:22:10.000Z</time>
      </trkpt>
      <trkpt lat="46.00015" lon="6.56961">
        <ele>1982.5999755859</ele>
        <time>2019-02-20T12:22:11.000Z</time>
      </trkpt>
      <trkpt lat="46.00016" lon="6.56964">
        <ele>1982.4000244141</ele>
        <time>2019-02-20T12:22:12.000Z</time>
      </trkpt>
      <trkpt lat="46.00018" lon="6.56967">
        <ele>1982.5999755859</ele>
        <time>2019-02-20T12:22:13.000Z</time>
      </trkpt>
      <trkpt lat="46.0002" lon="6.56969">
        <ele>1982.1999511719</ele>
        <time>2019-02-20T12:22:14.000Z</time>
      </trkpt>
      <trkpt lat="46.00021" lon="6.56972">
        <ele>1982.1999511719</ele>
        <time>2019-02-20T12:22:15.000Z</time>
      </trkpt>
      <trkpt lat="46.00022" lon="6.56974">
        <ele>1982</ele>
        <time>2019-02-20T12:22:16.000Z</time>
      </trkpt>
      <trkpt lat="46.00023" lon="6.56977">
        <ele>1982.1999511719</ele>
        <time>2019-02-20T12:22:17.000Z</time>
      </trkpt>
      <trkpt lat="46.00024" lon="6.56979">
        <ele>1981.8000488281</ele>
        <time>2019-02-20T12:22:18.000Z</time>
      </trkpt>
      <trkpt lat="46.00026" lon="6.56982">
        <ele>1981.8000488281</ele>
        <time>2019-02-20T12:22:19.000Z</time>
      </trkpt>
      <trkpt lat="46.00027" lon="6.56984">
        <ele>1981.5999755859</ele>
        <time>2019-02-20T12:22:20.000Z</time>
      </trkpt>
      <trkpt lat="46.00029" lon="6.56987">
        <ele>1981.4000244141</ele>
        <time>2019-02-20T12:22:21.000Z</time>
      </trkpt>
      <trkpt lat="46.00031" lon="6.56989">
        <ele>1981.4000244141</ele>
        <time>2019-02-20T12:22:22.000Z</time>
      </trkpt>
      <trkpt lat="46.00032" lon="6.56991">
        <ele>1981.1999511719</ele>
        <time>2019-02-20T12:22:23.000Z</time>
      </trkpt>
      <trkpt lat="46.00034" lon="6.56993">
        <ele>1981.1999511719</ele>
        <time>2019-02-20T12:22:25.000Z</time>
      </trkpt>
      <trkpt lat="46.00036" lon="6.56995">
        <ele>1981</ele>
        <time>2019-02-20T12:22:28.000Z</time>
      </trkpt>
      <trkpt lat="46.00038" lon="6.56996">
        <ele>1981</ele>
        <time>2019-02-20T12:22:35.000Z</time>
      </trkpt>
      <trkpt lat="46.0004" lon="6.56997">
        <ele>1980.8000488281</ele>
        <time>2019-02-20T12:22:40.000Z</time>
      </trkpt>
      <trkpt lat="46.00042" lon="6.56997">
        <ele>1981.1999511719</ele>
        <time>2019-02-20T12:22:45.000Z</time>
      </trkpt>
      <trkpt lat="46.00044" lon="6.57">
        <ele>1981.1999511719</ele>
        <time>2019-02-20T12:22:48.000Z</time>
      </trkpt>
      <trkpt lat="46.00053" lon="6.57003">
        <ele>1981.4000244141</ele>
        <time>2019-02-20T12:22:53.000Z</time>
      </trkpt>
      <trkpt lat="46.0006" lon="6.57006">
        <ele>1980.8000488281</ele>
        <time>2019-02-20T12:22:57.000Z</time>
      </trkpt>
      <trkpt lat="46.00062" lon="6.57005">
        <ele>1981.8000488281</ele>
        <time>2019-02-20T12:23:05.000Z</time>
      </trkpt>
      <trkpt lat="46.00064" lon="6.57005">
        <ele>1982.1999511719</ele>
        <time>2019-02-20T12:23:09.000Z</time>
      </trkpt>
      <trkpt lat="46.00066" lon="6.57004">
        <ele>1982.8000488281</ele>
        <time>2019-02-20T12:23:15.000Z</time>
      </trkpt>
      <trkpt lat="46.00068" lon="6.57003">
        <ele>1983.4000244141</ele>
        <time>2019-02-20T12:23:21.000Z</time>
      </trkpt>
      <trkpt lat="46.0007" lon="6.57003">
        <ele>1983.5999755859</ele>
        <time>2019-02-20T12:23:24.000Z</time>
      </trkpt>
      <trkpt lat="46.00072" lon="6.57003">
        <ele>1983.4000244141</ele>
        <time>2019-02-20T12:23:29.000Z</time>
      </trkpt>
      <trkpt lat="46.00074" lon="6.57003">
        <ele>1983.8000488281</ele>
        <time>2019-02-20T12:23:31.000Z</time>
      </trkpt>
      <trkpt lat="46.00077" lon="6.57002">
        <ele>1983.8000488281</ele>
        <time>2019-02-20T12:23:35.000Z</time>
      </trkpt>
      <trkpt lat="46.00079" lon="6.57003">
        <ele>1984.1999511719</ele>
        <time>2019-02-20T12:23:39.000Z</time>
      </trkpt>
      <trkpt lat="46.00081" lon="6.57002">
        <ele>1984.5999755859</ele>
        <time>2019-02-20T12:23:42.000Z</time>
      </trkpt>
      <trkpt lat="46.00084" lon="6.57003">
        <ele>1984.1999511719</ele>
        <time>2019-02-20T12:23:45.000Z</time>
      </trkpt>
      <trkpt lat="46.00086" lon="6.57004">
        <ele>1984.1999511719</ele>
        <time>2019-02-20T12:23:49.000Z</time>
      </trkpt>
      <trkpt lat="46.00087" lon="6.57004">
        <ele>1984.4000244141</ele>
        <time>2019-02-20T12:23:58.000Z</time>
      </trkpt>
      <trkpt lat="46.00089" lon="6.57004">
        <ele>1984.4000244141</ele>
        <time>2019-02-20T12:24:40.000Z</time>
      </trkpt>
      <trkpt lat="46.00091" lon="6.57006">
        <ele>1984.4000244141</ele>
        <time>2019-02-20T12:24:57.000Z</time>
      </trkpt>
      <trkpt lat="46.00094" lon="6.57007">
        <ele>1984.4000244141</ele>
        <time>2019-02-20T12:24:58.000Z</time>
      </trkpt>
      <trkpt lat="46.00096" lon="6.57009">
        <ele>1984.5999755859</ele>
        <time>2019-02-20T12:24:59.000Z</time>
      </trkpt>
      <trkpt lat="46.00099" lon="6.5701">
        <ele>1984.4000244141</ele>
        <time>2019-02-20T12:25:00.000Z</time>
      </trkpt>
      <trkpt lat="46.00101" lon="6.57012">
        <ele>1984.4000244141</ele>
        <time>2019-02-20T12:25:01.000Z</time>
      </trkpt>
      <trkpt lat="46.00105" lon="6.57015">
        <ele>1984</ele>
        <time>2019-02-20T12:25:02.000Z</time>
      </trkpt>
      <trkpt lat="46.00109" lon="6.57019">
        <ele>1984.1999511719</ele>
        <time>2019-02-20T12:25:03.000Z</time>
      </trkpt>
      <trkpt lat="46.00113" lon="6.57023">
        <ele>1984</ele>
        <time>2019-02-20T12:25:04.000Z</time>
      </trkpt>
      <trkpt lat="46.00118" lon="6.57027">
        <ele>1983.5999755859</ele>
        <time>2019-02-20T12:25:05.000Z</time>
      </trkpt>
      <trkpt lat="46.00122" lon="6.57031">
        <ele>1983.5999755859</ele>
        <time>2019-02-20T12:25:06.000Z</time>
      </trkpt>
      <trkpt lat="46.00125" lon="6.57036">
        <ele>1983</ele>
        <time>2019-02-20T12:25:07.000Z</time>
      </trkpt>
      <trkpt lat="46.00128" lon="6.5704">
        <ele>1983.1999511719</ele>
        <time>2019-02-20T12:25:08.000Z</time>
      </trkpt>
      <trkpt lat="46.00131" lon="6.57043">
        <ele>1982.1999511719</ele>
        <time>2019-02-20T12:25:09.000Z</time>
      </trkpt>
      <trkpt lat="46.00132" lon="6.57045">
        <ele>1982.5999755859</ele>
        <time>2019-02-20T12:25:10.000Z</time>
      </trkpt>
      <trkpt lat="46.00135" lon="6.57048">
        <ele>1982</ele>
        <time>2019-02-20T12:25:11.000Z</time>
      </trkpt>
      <trkpt lat="46.00137" lon="6.5705">
        <ele>1981.4000244141</ele>
        <time>2019-02-20T12:25:12.000Z</time>
      </trkpt>
      <trkpt lat="46.00139" lon="6.57052">
        <ele>1981</ele>
        <time>2019-02-20T12:25:13.000Z</time>
      </trkpt>
      <trkpt lat="46.00142" lon="6.57055">
        <ele>1981.4000244141</ele>
        <time>2019-02-20T12:25:15.000Z</time>
      </trkpt>
      <trkpt lat="46.00144" lon="6.57057">
        <ele>1981.4000244141</ele>
        <time>2019-02-20T12:25:16.000Z</time>
      </trkpt>
      <trkpt lat="46.00146" lon="6.5706">
        <ele>1981.4000244141</ele>
        <time>2019-02-20T12:25:17.000Z</time>
      </trkpt>
      <trkpt lat="46.00149" lon="6.57062">
        <ele>1981.4000244141</ele>
        <time>2019-02-20T12:25:18.000Z</time>
      </trkpt>
      <trkpt lat="46.00152" lon="6.57064">
        <ele>1981.1999511719</ele>
        <time>2019-02-20T12:25:19.000Z</time>
      </trkpt>
      <trkpt lat="46.00154" lon="6.57066">
        <ele>1980.8000488281</ele>
        <time>2019-02-20T12:25:20.000Z</time>
      </trkpt>
      <trkpt lat="46.00156" lon="6.57067">
        <ele>1981.1999511719</ele>
        <time>2019-02-20T12:25:21.000Z</time>
      </trkpt>
      <trkpt lat="46.00158" lon="6.57068">
        <ele>1981</ele>
        <time>2019-02-20T12:25:22.000Z</time>
      </trkpt>
      <trkpt lat="46.0016" lon="6.5707">
        <ele>1980.8000488281</ele>
        <time>2019-02-20T12:25:23.000Z</time>
      </trkpt>
      <trkpt lat="46.00162" lon="6.57072">
        <ele>1981</ele>
        <time>2019-02-20T12:25:24.000Z</time>
      </trkpt>
      <trkpt lat="46.00164" lon="6.57074">
        <ele>1980.5999755859</ele>
        <time>2019-02-20T12:25:25.000Z</time>
      </trkpt>
      <trkpt lat="46.00165" lon="6.57076">
        <ele>1980.8000488281</ele>
        <time>2019-02-20T12:25:26.000Z</time>
      </trkpt>
      <trkpt lat="46.00168" lon="6.57079">
        <ele>1980.8000488281</ele>
        <time>2019-02-20T12:25:28.000Z</time>
      </trkpt>
      <trkpt lat="46.0017" lon="6.5708">
        <ele>1981.1999511719</ele>
        <time>2019-02-20T12:25:29.000Z</time>
      </trkpt>
      <trkpt lat="46.00172" lon="6.57083">
        <ele>1980.5999755859</ele>
        <time>2019-02-20T12:25:31.000Z</time>
      </trkpt>
      <trkpt lat="46.00173" lon="6.57086">
        <ele>1980.4000244141</ele>
        <time>2019-02-20T12:25:33.000Z</time>
      </trkpt>
      <trkpt lat="46.00175" lon="6.57088">
        <ele>1980.4000244141</ele>
        <time>2019-02-20T12:25:34.000Z</time>
      </trkpt>
      <trkpt lat="46.00176" lon="6.5709">
        <ele>1980.4000244141</ele>
        <time>2019-02-20T12:25:35.000Z</time>
      </trkpt>
      <trkpt lat="46.00178" lon="6.57093">
        <ele>1980.1999511719</ele>
        <time>2019-02-20T12:25:36.000Z</time>
      </trkpt>
      <trkpt lat="46.0018" lon="6.57095">
        <ele>1980.8000488281</ele>
        <time>2019-02-20T12:25:37.000Z</time>
      </trkpt>
      <trkpt lat="46.00182" lon="6.57097">
        <ele>1980.8000488281</ele>
        <time>2019-02-20T12:25:38.000Z</time>
      </trkpt>
      <trkpt lat="46.00184" lon="6.57099">
        <ele>1981</ele>
        <time>2019-02-20T12:25:39.000Z</time>
      </trkpt>
      <trkpt lat="46.00185" lon="6.571">
        <ele>1980.8000488281</ele>
        <time>2019-02-20T12:25:40.000Z</time>
      </trkpt>
      <trkpt lat="46.00187" lon="6.57102">
        <ele>1981</ele>
        <time>2019-02-20T12:25:41.000Z</time>
      </trkpt>
      <trkpt lat="46.00189" lon="6.57103">
        <ele>1980.5999755859</ele>
        <time>2019-02-20T12:25:42.000Z</time>
      </trkpt>
      <trkpt lat="46.0019" lon="6.57105">
        <ele>1980.8000488281</ele>
        <time>2019-02-20T12:25:43.000Z</time>
      </trkpt>
      <trkpt lat="46.00194" lon="6.57109">
        <ele>1980.5999755859</ele>
        <time>2019-02-20T12:25:45.000Z</time>
      </trkpt>
      <trkpt lat="46.00195" lon="6.57111">
        <ele>1980.1999511719</ele>
        <time>2019-02-20T12:25:46.000Z</time>
      </trkpt>
      <trkpt lat="46.00197" lon="6.57114">
        <ele>1980.1999511719</ele>
        <time>2019-02-20T12:25:47.000Z</time>
      </trkpt>
      <trkpt lat="46.00199" lon="6.57116">
        <ele>1980.1999511719</ele>
        <time>2019-02-20T12:25:48.000Z</time>
      </trkpt>
      <trkpt lat="46.002" lon="6.57119">
        <ele>1979.8000488281</ele>
        <time>2019-02-20T12:25:49.000Z</time>
      </trkpt>
      <trkpt lat="46.00201" lon="6.57122">
        <ele>1979.8000488281</ele>
        <time>2019-02-20T12:25:50.000Z</time>
      </trkpt>
      <trkpt lat="46.00203" lon="6.57125">
        <ele>1980</ele>
        <time>2019-02-20T12:25:51.000Z</time>
      </trkpt>
      <trkpt lat="46.00204" lon="6.57128">
        <ele>1980</ele>
        <time>2019-02-20T12:25:52.000Z</time>
      </trkpt>
      <trkpt lat="46.00206" lon="6.57131">
        <ele>1980.4000244141</ele>
        <time>2019-02-20T12:25:54.000Z</time>
      </trkpt>
      <trkpt lat="46.00208" lon="6.57135">
        <ele>1980.1999511719</ele>
        <time>2019-02-20T12:25:56.000Z</time>
      </trkpt>
      <trkpt lat="46.0021" lon="6.57137">
        <ele>1980.1999511719</ele>
        <time>2019-02-20T12:25:57.000Z</time>
      </trkpt>
      <trkpt lat="46.00212" lon="6.5714">
        <ele>1980.1999511719</ele>
        <time>2019-02-20T12:25:58.000Z</time>
      </trkpt>
      <trkpt lat="46.00215" lon="6.57143">
        <ele>1980</ele>
        <time>2019-02-20T12:25:59.000Z</time>
      </trkpt>
      <trkpt lat="46.00218" lon="6.57146">
        <ele>1980.1999511719</ele>
        <time>2019-02-20T12:26:00.000Z</time>
      </trkpt>
      <trkpt lat="46.0022" lon="6.57149">
        <ele>1980</ele>
        <time>2019-02-20T12:26:01.000Z</time>
      </trkpt>
      <trkpt lat="46.00223" lon="6.57152">
        <ele>1980</ele>
        <time>2019-02-20T12:26:02.000Z</time>
      </trkpt>
      <trkpt lat="46.00225" lon="6.57155">
        <ele>1979.5999755859</ele>
        <time>2019-02-20T12:26:03.000Z</time>
      </trkpt>
      <trkpt lat="46.00228" lon="6.57158">
        <ele>1979.4000244141</ele>
        <time>2019-02-20T12:26:04.000Z</time>
      </trkpt>
      <trkpt lat="46.0023" lon="6.57162">
        <ele>1979</ele>
        <time>2019-02-20T12:26:05.000Z</time>
      </trkpt>
      <trkpt lat="46.00232" lon="6.57165">
        <ele>1979</ele>
        <time>2019-02-20T12:26:06.000Z</time>
      </trkpt>
      <trkpt lat="46.00235" lon="6.57167">
        <ele>1978.8000488281</ele>
        <time>2019-02-20T12:26:07.000Z</time>
      </trkpt>
      <trkpt lat="46.00237" lon="6.5717">
        <ele>1978.5999755859</ele>
        <time>2019-02-20T12:26:08.000Z</time>
      </trkpt>
      <trkpt lat="46.0024" lon="6.57173">
        <ele>1978.5999755859</ele>
        <time>2019-02-20T12:26:09.000Z</time>
      </trkpt>
      <trkpt lat="46.00243" lon="6.57177">
        <ele>1978.5999755859</ele>
        <time>2019-02-20T12:26:10.000Z</time>
      </trkpt>
      <trkpt lat="46.00246" lon="6.57182">
        <ele>1978.1999511719</ele>
        <time>2019-02-20T12:26:11.000Z</time>
      </trkpt>
      <trkpt lat="46.00249" lon="6.57188">
        <ele>1977.5999755859</ele>
        <time>2019-02-20T12:26:12.000Z</time>
      </trkpt>
      <trkpt lat="46.00253" lon="6.57196">
        <ele>1977.8000488281</ele>
        <time>2019-02-20T12:26:13.000Z</time>
      </trkpt>
      <trkpt lat="46.00257" lon="6.57203">
        <ele>1977.1999511719</ele>
        <time>2019-02-20T12:26:14.000Z</time>
      </trkpt>
      <trkpt lat="46.00261" lon="6.5721">
        <ele>1976.8000488281</ele>
        <time>2019-02-20T12:26:15.000Z</time>
      </trkpt>
      <trkpt lat="46.00265" lon="6.57214">
        <ele>1976.8000488281</ele>
        <time>2019-02-20T12:26:16.000Z</time>
      </trkpt>
      <trkpt lat="46.00268" lon="6.57218">
        <ele>1976.4000244141</ele>
        <time>2019-02-20T12:26:17.000Z</time>
      </trkpt>
      <trkpt lat="46.00271" lon="6.57221">
        <ele>1976</ele>
        <time>2019-02-20T12:26:18.000Z</time>
      </trkpt>
      <trkpt lat="46.00273" lon="6.57224">
        <ele>1975.4000244141</ele>
        <time>2019-02-20T12:26:19.000Z</time>
      </trkpt>
      <trkpt lat="46.00275" lon="6.57227">
        <ele>1975</ele>
        <time>2019-02-20T12:26:20.000Z</time>
      </trkpt>
      <trkpt lat="46.00276" lon="6.57229">
        <ele>1974.8000488281</ele>
        <time>2019-02-20T12:26:21.000Z</time>
      </trkpt>
      <trkpt lat="46.00278" lon="6.57231">
        <ele>1974.5999755859</ele>
        <time>2019-02-20T12:26:22.000Z</time>
      </trkpt>
      <trkpt lat="46.00279" lon="6.57234">
        <ele>1974.2003501579</ele>
        <time>2019-02-20T12:26:23.000Z</time>
      </trkpt>
      <trkpt lat="46.00281" lon="6.57237">
        <ele>1974.1999511719</ele>
        <time>2019-02-20T12:26:24.000Z</time>
      </trkpt>
      <trkpt lat="46.00282" lon="6.57239">
        <ele>1973.5999755859</ele>
        <time>2019-02-20T12:26:25.000Z</time>
      </trkpt>
      <trkpt lat="46.00284" lon="6.57242">
        <ele>1973.5999755859</ele>
        <time>2019-02-20T12:26:26.000Z</time>
      </trkpt>
      <trkpt lat="46.00286" lon="6.57245">
        <ele>1973.1999511719</ele>
        <time>2019-02-20T12:26:27.000Z</time>
      </trkpt>
      <trkpt lat="46.00287" lon="6.57247">
        <ele>1972.8000488281</ele>
        <time>2019-02-20T12:26:28.000Z</time>
      </trkpt>
      <trkpt lat="46.00289" lon="6.57251">
        <ele>1972.8000488281</ele>
        <time>2019-02-20T12:26:29.000Z</time>
      </trkpt>
      <trkpt lat="46.00291" lon="6.57254">
        <ele>1972.5999755859</ele>
        <time>2019-02-20T12:26:30.000Z</time>
      </trkpt>
      <trkpt lat="46.00292" lon="6.57258">
        <ele>1972.1999511719</ele>
        <time>2019-02-20T12:26:31.000Z</time>
      </trkpt>
      <trkpt lat="46.00294" lon="6.57263">
        <ele>1972.5999755859</ele>
        <time>2019-02-20T12:26:32.000Z</time>
      </trkpt>
      <trkpt lat="46.00296" lon="6.57267">
        <ele>1972.4000244141</ele>
        <time>2019-02-20T12:26:33.000Z</time>
      </trkpt>
      <trkpt lat="46.00298" lon="6.57272">
        <ele>1972.1999511719</ele>
        <time>2019-02-20T12:26:34.000Z</time>
      </trkpt>
      <trkpt lat="46.003" lon="6.57277">
        <ele>1972.1999511719</ele>
        <time>2019-02-20T12:26:35.000Z</time>
      </trkpt>
      <trkpt lat="46.00302" lon="6.57282">
        <ele>1971.8000488281</ele>
        <time>2019-02-20T12:26:36.000Z</time>
      </trkpt>
      <trkpt lat="46.00304" lon="6.57287">
        <ele>1971.8000488281</ele>
        <time>2019-02-20T12:26:37.000Z</time>
      </trkpt>
      <trkpt lat="46.00306" lon="6.57292">
        <ele>1971.8000488281</ele>
        <time>2019-02-20T12:26:38.000Z</time>
      </trkpt>
      <trkpt lat="46.00307" lon="6.57298">
        <ele>1971.4000244141</ele>
        <time>2019-02-20T12:26:39.000Z</time>
      </trkpt>
      <trkpt lat="46.00309" lon="6.57303">
        <ele>1971</ele>
        <time>2019-02-20T12:26:40.000Z</time>
      </trkpt>
      <trkpt lat="46.00311" lon="6.57307">
        <ele>1970.5999755859</ele>
        <time>2019-02-20T12:26:41.000Z</time>
      </trkpt>
      <trkpt lat="46.00312" lon="6.57311">
        <ele>1970.4000244141</ele>
        <time>2019-02-20T12:26:42.000Z</time>
      </trkpt>
      <trkpt lat="46.00313" lon="6.57314">
        <ele>1970.1999511719</ele>
        <time>2019-02-20T12:26:43.000Z</time>
      </trkpt>
      <trkpt lat="46.00315" lon="6.57317">
        <ele>1970</ele>
        <time>2019-02-20T12:26:44.000Z</time>
      </trkpt>
      <trkpt lat="46.00317" lon="6.5732">
        <ele>1969.8000488281</ele>
        <time>2019-02-20T12:26:45.000Z</time>
      </trkpt>
      <trkpt lat="46.00319" lon="6.57323">
        <ele>1969.5999755859</ele>
        <time>2019-02-20T12:26:46.000Z</time>
      </trkpt>
      <trkpt lat="46.00321" lon="6.57326">
        <ele>1969.4000244141</ele>
        <time>2019-02-20T12:26:47.000Z</time>
      </trkpt>
      <trkpt lat="46.00323" lon="6.57329">
        <ele>1969.5999755859</ele>
        <time>2019-02-20T12:26:48.000Z</time>
      </trkpt>
      <trkpt lat="46.00325" lon="6.57333">
        <ele>1969.1999511719</ele>
        <time>2019-02-20T12:26:49.000Z</time>
      </trkpt>
      <trkpt lat="46.00327" lon="6.57336">
        <ele>1969.4000244141</ele>
        <time>2019-02-20T12:26:50.000Z</time>
      </trkpt>
      <trkpt lat="46.0033" lon="6.5734">
        <ele>1969.4000244141</ele>
        <time>2019-02-20T12:26:51.000Z</time>
      </trkpt>
      <trkpt lat="46.00332" lon="6.57345">
        <ele>1969</ele>
        <time>2019-02-20T12:26:52.000Z</time>
      </trkpt>
      <trkpt lat="46.00335" lon="6.57349">
        <ele>1969</ele>
        <time>2019-02-20T12:26:53.000Z</time>
      </trkpt>
      <trkpt lat="46.00337" lon="6.57354">
        <ele>1968.5999755859</ele>
        <time>2019-02-20T12:26:54.000Z</time>
      </trkpt>
      <trkpt lat="46.0034" lon="6.57359">
        <ele>1968.1999511719</ele>
        <time>2019-02-20T12:26:55.000Z</time>
      </trkpt>
      <trkpt lat="46.00343" lon="6.57364">
        <ele>1968.1999511719</ele>
        <time>2019-02-20T12:26:56.000Z</time>
      </trkpt>
      <trkpt lat="46.00347" lon="6.5737">
        <ele>1967.8000488281</ele>
        <time>2019-02-20T12:26:57.000Z</time>
      </trkpt>
      <trkpt lat="46.0035" lon="6.57376">
        <ele>1967.1999511719</ele>
        <time>2019-02-20T12:26:58.000Z</time>
      </trkpt>
      <trkpt lat="46.00353" lon="6.57383">
        <ele>1966.8000488281</ele>
        <time>2019-02-20T12:26:59.000Z</time>
      </trkpt>
      <trkpt lat="46.00356" lon="6.5739">
        <ele>1966.1999511719</ele>
        <time>2019-02-20T12:27:00.000Z</time>
      </trkpt>
      <trkpt lat="46.0036" lon="6.57397">
        <ele>1966</ele>
        <time>2019-02-20T12:27:01.000Z</time>
      </trkpt>
      <trkpt lat="46.00364" lon="6.57404">
        <ele>1965.4000244141</ele>
        <time>2019-02-20T12:27:02.000Z</time>
      </trkpt>
      <trkpt lat="46.00368" lon="6.57411">
        <ele>1965</ele>
        <time>2019-02-20T12:27:03.000Z</time>
      </trkpt>
      <trkpt lat="46.00371" lon="6.57416">
        <ele>1964.5999755859</ele>
        <time>2019-02-20T12:27:04.000Z</time>
      </trkpt>
      <trkpt lat="46.00374" lon="6.57421">
        <ele>1964</ele>
        <time>2019-02-20T12:27:05.000Z</time>
      </trkpt>
      <trkpt lat="46.00377" lon="6.57423">
        <ele>1963.5999755859</ele>
        <time>2019-02-20T12:27:06.000Z</time>
      </trkpt>
      <trkpt lat="46.00375" lon="6.57424">
        <ele>1960.5999755859</ele>
        <time>2019-02-20T12:27:15.000Z</time>
      </trkpt>
      <trkpt lat="46.00373" lon="6.57425">
        <ele>1960.4000244141</ele>
        <time>2019-02-20T12:27:19.000Z</time>
      </trkpt>
      <trkpt lat="46.00374" lon="6.57423">
        <ele>1960</ele>
        <time>2019-02-20T12:27:30.000Z</time>
      </trkpt>
      <trkpt lat="46.00376" lon="6.57424">
        <ele>1960</ele>
        <time>2019-02-20T12:27:33.000Z</time>
      </trkpt>
      <trkpt lat="46.00378" lon="6.57425">
        <ele>1960</ele>
        <time>2019-02-20T12:27:35.000Z</time>
      </trkpt>
      <trkpt lat="46.00381" lon="6.57425">
        <ele>1960</ele>
        <time>2019-02-20T12:27:38.000Z</time>
      </trkpt>
      <trkpt lat="46.0038" lon="6.57423">
        <ele>1960.8000488281</ele>
        <time>2019-02-20T12:28:55.000Z</time>
      </trkpt>
      <trkpt lat="46.00382" lon="6.57423">
        <ele>1961</ele>
        <time>2019-02-20T12:29:11.000Z</time>
      </trkpt>
      <trkpt lat="46.00386" lon="6.57423">
        <ele>1960.8000488281</ele>
        <time>2019-02-20T12:29:13.000Z</time>
      </trkpt>
      <trkpt lat="46.00388" lon="6.57423">
        <ele>1960.8000488281</ele>
        <time>2019-02-20T12:29:14.000Z</time>
      </trkpt>
      <trkpt lat="46.00391" lon="6.57423">
        <ele>1960.8000488281</ele>
        <time>2019-02-20T12:29:15.000Z</time>
      </trkpt>
      <trkpt lat="46.00394" lon="6.57423">
        <ele>1960.8000488281</ele>
        <time>2019-02-20T12:29:16.000Z</time>
      </trkpt>
      <trkpt lat="46.00397" lon="6.57423">
        <ele>1960.5999755859</ele>
        <time>2019-02-20T12:29:17.000Z</time>
      </trkpt>
      <trkpt lat="46.004" lon="6.57423">
        <ele>1960.4000244141</ele>
        <time>2019-02-20T12:29:18.000Z</time>
      </trkpt>
      <trkpt lat="46.00404" lon="6.57423">
        <ele>1960.4000244141</ele>
        <time>2019-02-20T12:29:19.000Z</time>
      </trkpt>
      <trkpt lat="46.00408" lon="6.57423">
        <ele>1960.1999511719</ele>
        <time>2019-02-20T12:29:20.000Z</time>
      </trkpt>
      <trkpt lat="46.00411" lon="6.57422">
        <ele>1959.8000488281</ele>
        <time>2019-02-20T12:29:21.000Z</time>
      </trkpt>
      <trkpt lat="46.00416" lon="6.57422">
        <ele>1959.5999755859</ele>
        <time>2019-02-20T12:29:22.000Z</time>
      </trkpt>
      <trkpt lat="46.0042" lon="6.57421">
        <ele>1959.1999511719</ele>
        <time>2019-02-20T12:29:23.000Z</time>
      </trkpt>
      <trkpt lat="46.00425" lon="6.5742">
        <ele>1959.1999511719</ele>
        <time>2019-02-20T12:29:24.000Z</time>
      </trkpt>
      <trkpt lat="46.00431" lon="6.57419">
        <ele>1959.1999511719</ele>
        <time>2019-02-20T12:29:25.000Z</time>
      </trkpt>
      <trkpt lat="46.00437" lon="6.57418">
        <ele>1959</ele>
        <time>2019-02-20T12:29:26.000Z</time>
      </trkpt>
      <trkpt lat="46.00442" lon="6.57417">
        <ele>1958.1999511719</ele>
        <time>2019-02-20T12:29:27.000Z</time>
      </trkpt>
      <trkpt lat="46.00448" lon="6.57417">
        <ele>1957.5999755859</ele>
        <time>2019-02-20T12:29:28.000Z</time>
      </trkpt>
      <trkpt lat="46.00454" lon="6.57417">
        <ele>1957.5999755859</ele>
        <time>2019-02-20T12:29:29.000Z</time>
      </trkpt>
      <trkpt lat="46.00458" lon="6.57418">
        <ele>1956.8000488281</ele>
        <time>2019-02-20T12:29:30.000Z</time>
      </trkpt>
      <trkpt lat="46.00462" lon="6.57418">
        <ele>1956.4000244141</ele>
        <time>2019-02-20T12:29:31.000Z</time>
      </trkpt>
      <trkpt lat="46.00466" lon="6.57418">
        <ele>1955.8000488281</ele>
        <time>2019-02-20T12:29:32.000Z</time>
      </trkpt>
      <trkpt lat="46.0047" lon="6.5742">
        <ele>1955.1999511719</ele>
        <time>2019-02-20T12:29:33.000Z</time>
      </trkpt>
      <trkpt lat="46.00475" lon="6.57422">
        <ele>1954.8000488281</ele>
        <time>2019-02-20T12:29:34.000Z</time>
      </trkpt>
      <trkpt lat="46.0048" lon="6.57425">
        <ele>1954.4000244141</ele>
        <time>2019-02-20T12:29:35.000Z</time>
      </trkpt>
      <trkpt lat="46.00485" lon="6.57428">
        <ele>1954</ele>
        <time>2019-02-20T12:29:36.000Z</time>
      </trkpt>
      <trkpt lat="46.00489" lon="6.5743">
        <ele>1953.8000488281</ele>
        <time>2019-02-20T12:29:37.000Z</time>
      </trkpt>
      <trkpt lat="46.00492" lon="6.57431">
        <ele>1953.1999511719</ele>
        <time>2019-02-20T12:29:38.000Z</time>
      </trkpt>
      <trkpt lat="46.00494" lon="6.57432">
        <ele>1952.8000488281</ele>
        <time>2019-02-20T12:29:39.000Z</time>
      </trkpt>
      <trkpt lat="46.00498" lon="6.57432">
        <ele>1952</ele>
        <time>2019-02-20T12:29:41.000Z</time>
      </trkpt>
      <trkpt lat="46.005" lon="6.57432">
        <ele>1951.5999755859</ele>
        <time>2019-02-20T12:29:42.000Z</time>
      </trkpt>
      <trkpt lat="46.00503" lon="6.57431">
        <ele>1951.1999511719</ele>
        <time>2019-02-20T12:29:43.000Z</time>
      </trkpt>
      <trkpt lat="46.00506" lon="6.5743">
        <ele>1951.5999755859</ele>
        <time>2019-02-20T12:29:44.000Z</time>
      </trkpt>
      <trkpt lat="46.00509" lon="6.5743">
        <ele>1951.1999511719</ele>
        <time>2019-02-20T12:29:45.000Z</time>
      </trkpt>
      <trkpt lat="46.00513" lon="6.57431">
        <ele>1951</ele>
        <time>2019-02-20T12:29:46.000Z</time>
      </trkpt>
      <trkpt lat="46.00516" lon="6.57432">
        <ele>1950.8002482603</ele>
        <time>2019-02-20T12:29:47.000Z</time>
      </trkpt>
      <trkpt lat="46.00518" lon="6.57432">
        <ele>1951</ele>
        <time>2019-02-20T12:29:48.000Z</time>
      </trkpt>
      <trkpt lat="46.00521" lon="6.57432">
        <ele>1950.1999511719</ele>
        <time>2019-02-20T12:31:31.000Z</time>
      </trkpt>
      <trkpt lat="46.00524" lon="6.57431">
        <ele>1950</ele>
        <time>2019-02-20T12:31:32.000Z</time>
      </trkpt>
      <trkpt lat="46.00527" lon="6.57429">
        <ele>1949.8000488281</ele>
        <time>2019-02-20T12:31:33.000Z</time>
      </trkpt>
      <trkpt lat="46.00532" lon="6.57426">
        <ele>1949.8000488281</ele>
        <time>2019-02-20T12:31:34.000Z</time>
      </trkpt>
      <trkpt lat="46.00535" lon="6.57421">
        <ele>1949.8000488281</ele>
        <time>2019-02-20T12:31:35.000Z</time>
      </trkpt>
      <trkpt lat="46.00539" lon="6.57415">
        <ele>1949.8000488281</ele>
        <time>2019-02-20T12:31:36.000Z</time>
      </trkpt>
      <trkpt lat="46.00543" lon="6.57411">
        <ele>1949.5999755859</ele>
        <time>2019-02-20T12:31:37.000Z</time>
      </trkpt>
      <trkpt lat="46.00547" lon="6.57408">
        <ele>1949.1999511719</ele>
        <time>2019-02-20T12:31:38.000Z</time>
      </trkpt>
      <trkpt lat="46.0055" lon="6.57408">
        <ele>1948.8000488281</ele>
        <time>2019-02-20T12:31:39.000Z</time>
      </trkpt>
      <trkpt lat="46.00553" lon="6.57409">
        <ele>1948</ele>
        <time>2019-02-20T12:31:40.000Z</time>
      </trkpt>
      <trkpt lat="46.00556" lon="6.57411">
        <ele>1947</ele>
        <time>2019-02-20T12:31:41.000Z</time>
      </trkpt>
      <trkpt lat="46.0056" lon="6.57414">
        <ele>1945.8000488281</ele>
        <time>2019-02-20T12:31:42.000Z</time>
      </trkpt>
      <trkpt lat="46.00563" lon="6.57416">
        <ele>1944.8000488281</ele>
        <time>2019-02-20T12:31:43.000Z</time>
      </trkpt>
      <trkpt lat="46.00566" lon="6.57418">
        <ele>1944.8000488281</ele>
        <time>2019-02-20T12:31:44.000Z</time>
      </trkpt>
      <trkpt lat="46.00569" lon="6.57419">
        <ele>1944.8000488281</ele>
        <time>2019-02-20T12:31:46.000Z</time>
      </trkpt>
      <trkpt lat="46.00573" lon="6.57422">
        <ele>1944</ele>
        <time>2019-02-20T12:31:48.000Z</time>
      </trkpt>
      <trkpt lat="46.00577" lon="6.57425">
        <ele>1943.8000488281</ele>
        <time>2019-02-20T12:31:49.000Z</time>
      </trkpt>
      <trkpt lat="46.0058" lon="6.57429">
        <ele>1943.5999755859</ele>
        <time>2019-02-20T12:31:50.000Z</time>
      </trkpt>
      <trkpt lat="46.00581" lon="6.57436">
        <ele>1943.1999511719</ele>
        <time>2019-02-20T12:31:51.000Z</time>
      </trkpt>
      <trkpt lat="46.00578" lon="6.57444">
        <ele>1943</ele>
        <time>2019-02-20T12:31:52.000Z</time>
      </trkpt>
      <trkpt lat="46.00578" lon="6.57453">
        <ele>1942.8000488281</ele>
        <time>2019-02-20T12:31:53.000Z</time>
      </trkpt>
      <trkpt lat="46.00578" lon="6.57463">
        <ele>1941.8000488281</ele>
        <time>2019-02-20T12:31:54.000Z</time>
      </trkpt>
      <trkpt lat="46.00585" lon="6.57481">
        <ele>1940.4000244141</ele>
        <time>2019-02-20T12:31:56.000Z</time>
      </trkpt>
      <trkpt lat="46.00594" lon="6.57499">
        <ele>1938.5999755859</ele>
        <time>2019-02-20T12:31:58.000Z</time>
      </trkpt>
      <trkpt lat="46.00601" lon="6.57513">
        <ele>1935</ele>
        <time>2019-02-20T12:32:00.000Z</time>
      </trkpt>
      <trkpt lat="46.00603" lon="6.57518">
        <ele>1933.5999755859</ele>
        <time>2019-02-20T12:32:01.000Z</time>
      </trkpt>
      <trkpt lat="46.00605" lon="6.57523">
        <ele>1932.5999755859</ele>
        <time>2019-02-20T12:32:02.000Z</time>
      </trkpt>
      <trkpt lat="46.00606" lon="6.57527">
        <ele>1931.5999755859</ele>
        <time>2019-02-20T12:32:03.000Z</time>
      </trkpt>
      <trkpt lat="46.00606" lon="6.57529">
        <ele>1930.8000488281</ele>
        <time>2019-02-20T12:32:04.000Z</time>
      </trkpt>
      <trkpt lat="46.00607" lon="6.57532">
        <ele>1930</ele>
        <time>2019-02-20T12:32:05.000Z</time>
      </trkpt>
      <trkpt lat="46.00608" lon="6.57538">
        <ele>1928.5999755859</ele>
        <time>2019-02-20T12:32:07.000Z</time>
      </trkpt>
      <trkpt lat="46.0061" lon="6.57541">
        <ele>1928.1999511719</ele>
        <time>2019-02-20T12:32:08.000Z</time>
      </trkpt>
      <trkpt lat="46.00612" lon="6.57545">
        <ele>1927.5999755859</ele>
        <time>2019-02-20T12:32:09.000Z</time>
      </trkpt>
      <trkpt lat="46.00614" lon="6.5755">
        <ele>1927.4000244141</ele>
        <time>2019-02-20T12:32:10.000Z</time>
      </trkpt>
      <trkpt lat="46.00617" lon="6.57555">
        <ele>1927</ele>
        <time>2019-02-20T12:32:11.000Z</time>
      </trkpt>
      <trkpt lat="46.00619" lon="6.5756">
        <ele>1926.8000488281</ele>
        <time>2019-02-20T12:32:12.000Z</time>
      </trkpt>
      <trkpt lat="46.00622" lon="6.57565">
        <ele>1926.4000244141</ele>
        <time>2019-02-20T12:32:13.000Z</time>
      </trkpt>
      <trkpt lat="46.00623" lon="6.57569">
        <ele>1926.1999511719</ele>
        <time>2019-02-20T12:32:14.000Z</time>
      </trkpt>
      <trkpt lat="46.00625" lon="6.57573">
        <ele>1926</ele>
        <time>2019-02-20T12:32:15.000Z</time>
      </trkpt>
      <trkpt lat="46.00626" lon="6.57576">
        <ele>1925.5999755859</ele>
        <time>2019-02-20T12:32:16.000Z</time>
      </trkpt>
      <trkpt lat="46.00628" lon="6.57579">
        <ele>1925</ele>
        <time>2019-02-20T12:32:17.000Z</time>
      </trkpt>
      <trkpt lat="46.0063" lon="6.57582">
        <ele>1924.5999755859</ele>
        <time>2019-02-20T12:32:18.000Z</time>
      </trkpt>
      <trkpt lat="46.00631" lon="6.57585">
        <ele>1924.1999511719</ele>
        <time>2019-02-20T12:32:19.000Z</time>
      </trkpt>
      <trkpt lat="46.00633" lon="6.57588">
        <ele>1924.0001994321</ele>
        <time>2019-02-20T12:32:20.000Z</time>
      </trkpt>
      <trkpt lat="46.00636" lon="6.57592">
        <ele>1923.5999755859</ele>
        <time>2019-02-20T12:32:21.000Z</time>
      </trkpt>
      <trkpt lat="46.00638" lon="6.57596">
        <ele>1923.4000244141</ele>
        <time>2019-02-20T12:32:22.000Z</time>
      </trkpt>
      <trkpt lat="46.0064" lon="6.576">
        <ele>1923.1999511719</ele>
        <time>2019-02-20T12:32:23.000Z</time>
      </trkpt>
      <trkpt lat="46.00643" lon="6.57604">
        <ele>1923</ele>
        <time>2019-02-20T12:32:24.000Z</time>
      </trkpt>
      <trkpt lat="46.00646" lon="6.57608">
        <ele>1922.8000488281</ele>
        <time>2019-02-20T12:32:25.000Z</time>
      </trkpt>
      <trkpt lat="46.00648" lon="6.57612">
        <ele>1922.5999755859</ele>
        <time>2019-02-20T12:32:26.000Z</time>
      </trkpt>
      <trkpt lat="46.0065" lon="6.57614">
        <ele>1922.4000244141</ele>
        <time>2019-02-20T12:32:27.000Z</time>
      </trkpt>
      <trkpt lat="46.00652" lon="6.57617">
        <ele>1922</ele>
        <time>2019-02-20T12:32:28.000Z</time>
      </trkpt>
      <trkpt lat="46.00653" lon="6.57619">
        <ele>1921.4000244141</ele>
        <time>2019-02-20T12:32:29.000Z</time>
      </trkpt>
      <trkpt lat="46.00655" lon="6.57621">
        <ele>1920.8000488281</ele>
        <time>2019-02-20T12:32:30.000Z</time>
      </trkpt>
      <trkpt lat="46.00657" lon="6.57624">
        <ele>1920.5999755859</ele>
        <time>2019-02-20T12:32:31.000Z</time>
      </trkpt>
      <trkpt lat="46.00659" lon="6.57627">
        <ele>1920.4000244141</ele>
        <time>2019-02-20T12:32:32.000Z</time>
      </trkpt>
      <trkpt lat="46.00661" lon="6.5763">
        <ele>1920.4000244141</ele>
        <time>2019-02-20T12:32:33.000Z</time>
      </trkpt>
      <trkpt lat="46.00663" lon="6.57634">
        <ele>1920.4000244141</ele>
        <time>2019-02-20T12:32:34.000Z</time>
      </trkpt>
      <trkpt lat="46.00666" lon="6.5764">
        <ele>1920</ele>
        <time>2019-02-20T12:32:35.000Z</time>
      </trkpt>
      <trkpt lat="46.00669" lon="6.57646">
        <ele>1919.8000488281</ele>
        <time>2019-02-20T12:32:36.000Z</time>
      </trkpt>
      <trkpt lat="46.00672" lon="6.57652">
        <ele>1919.8000488281</ele>
        <time>2019-02-20T12:32:37.000Z</time>
      </trkpt>
      <trkpt lat="46.00674" lon="6.57658">
        <ele>1919.5999755859</ele>
        <time>2019-02-20T12:32:38.000Z</time>
      </trkpt>
      <trkpt lat="46.00676" lon="6.57663">
        <ele>1919.4000244141</ele>
        <time>2019-02-20T12:32:39.000Z</time>
      </trkpt>
      <trkpt lat="46.00677" lon="6.57666">
        <ele>1918.8000488281</ele>
        <time>2019-02-20T12:32:40.000Z</time>
      </trkpt>
      <trkpt lat="46.00678" lon="6.57669">
        <ele>1918.1999511719</ele>
        <time>2019-02-20T12:32:41.000Z</time>
      </trkpt>
      <trkpt lat="46.00679" lon="6.57673">
        <ele>1917.4000244141</ele>
        <time>2019-02-20T12:32:43.000Z</time>
      </trkpt>
      <trkpt lat="46.00681" lon="6.57675">
        <ele>1917</ele>
        <time>2019-02-20T12:32:44.000Z</time>
      </trkpt>
      <trkpt lat="46.00685" lon="6.57682">
        <ele>1917</ele>
        <time>2019-02-20T12:32:47.000Z</time>
      </trkpt>
      <trkpt lat="46.00687" lon="6.57685">
        <ele>1916.5999755859</ele>
        <time>2019-02-20T12:32:48.000Z</time>
      </trkpt>
      <trkpt lat="46.00689" lon="6.57688">
        <ele>1917.1999511719</ele>
        <time>2019-02-20T12:32:49.000Z</time>
      </trkpt>
      <trkpt lat="46.00692" lon="6.57692">
        <ele>1917.1999511719</ele>
        <time>2019-02-20T12:32:50.000Z</time>
      </trkpt>
      <trkpt lat="46.00696" lon="6.57697">
        <ele>1916.8000488281</ele>
        <time>2019-02-20T12:32:51.000Z</time>
      </trkpt>
      <trkpt lat="46.00701" lon="6.57704">
        <ele>1917</ele>
        <time>2019-02-20T12:32:52.000Z</time>
      </trkpt>
      <trkpt lat="46.00705" lon="6.57714">
        <ele>1916.8000488281</ele>
        <time>2019-02-20T12:32:53.000Z</time>
      </trkpt>
      <trkpt lat="46.00709" lon="6.57724">
        <ele>1916.1999511719</ele>
        <time>2019-02-20T12:32:54.000Z</time>
      </trkpt>
      <trkpt lat="46.00713" lon="6.57735">
        <ele>1915.8000488281</ele>
        <time>2019-02-20T12:32:55.000Z</time>
      </trkpt>
      <trkpt lat="46.00716" lon="6.57746">
        <ele>1915.5999755859</ele>
        <time>2019-02-20T12:32:56.000Z</time>
      </trkpt>
      <trkpt lat="46.00719" lon="6.5776">
        <ele>1914.8000488281</ele>
        <time>2019-02-20T12:32:57.000Z</time>
      </trkpt>
      <trkpt lat="46.00721" lon="6.57774">
        <ele>1913.8000488281</ele>
        <time>2019-02-20T12:32:58.000Z</time>
      </trkpt>
      <trkpt lat="46.00723" lon="6.57788">
        <ele>1912.1999511719</ele>
        <time>2019-02-20T12:32:59.000Z</time>
      </trkpt>
      <trkpt lat="46.00723" lon="6.57801">
        <ele>1911.1999511719</ele>
        <time>2019-02-20T12:33:00.000Z</time>
      </trkpt>
      <trkpt lat="46.00722" lon="6.57813">
        <ele>1909.8000488281</ele>
        <time>2019-02-20T12:33:01.000Z</time>
      </trkpt>
      <trkpt lat="46.00721" lon="6.57823">
        <ele>1908.1999511719</ele>
        <time>2019-02-20T12:33:02.000Z</time>
      </trkpt>
      <trkpt lat="46.00719" lon="6.57833">
        <ele>1906.4000244141</ele>
        <time>2019-02-20T12:33:03.000Z</time>
      </trkpt>
      <trkpt lat="46.00718" lon="6.57841">
        <ele>1904.8000488281</ele>
        <time>2019-02-20T12:33:04.000Z</time>
      </trkpt>
      <trkpt lat="46.00718" lon="6.57848">
        <ele>1903.4000244141</ele>
        <time>2019-02-20T12:33:05.000Z</time>
      </trkpt>
      <trkpt lat="46.00717" lon="6.57855">
        <ele>1902.8000488281</ele>
        <time>2019-02-20T12:33:06.000Z</time>
      </trkpt>
      <trkpt lat="46.00718" lon="6.5786">
        <ele>1902.5999755859</ele>
        <time>2019-02-20T12:33:07.000Z</time>
      </trkpt>
      <trkpt lat="46.00718" lon="6.57864">
        <ele>1901.8000488281</ele>
        <time>2019-02-20T12:33:08.000Z</time>
      </trkpt>
      <trkpt lat="46.00718" lon="6.57867">
        <ele>1901.8000488281</ele>
        <time>2019-02-20T12:33:09.000Z</time>
      </trkpt>
      <trkpt lat="46.00719" lon="6.5787">
        <ele>1901.8000488281</ele>
        <time>2019-02-20T12:33:10.000Z</time>
      </trkpt>
      <trkpt lat="46.0072" lon="6.57874">
        <ele>1901.5999755859</ele>
        <time>2019-02-20T12:33:12.000Z</time>
      </trkpt>
      <trkpt lat="46.0072" lon="6.57878">
        <ele>1902</ele>
        <time>2019-02-20T12:33:14.000Z</time>
      </trkpt>
      <trkpt lat="46.0072" lon="6.57881">
        <ele>1901.8000488281</ele>
        <time>2019-02-20T12:33:17.000Z</time>
      </trkpt>
      <trkpt lat="46.00721" lon="6.57883">
        <ele>1902.5999755859</ele>
        <time>2019-02-20T12:33:25.000Z</time>
      </trkpt>
      <trkpt lat="46.00719" lon="6.57884">
        <ele>1902.8000488281</ele>
        <time>2019-02-20T12:34:19.000Z</time>
      </trkpt>
      <trkpt lat="46.00717" lon="6.57885">
        <ele>1903</ele>
        <time>2019-02-20T12:36:49.000Z</time>
      </trkpt>
      <trkpt lat="46.00718" lon="6.57883">
        <ele>1902.8000488281</ele>
        <time>2019-02-20T12:37:30.000Z</time>
      </trkpt>
      <trkpt lat="46.00717" lon="6.57881">
        <ele>1903.5999755859</ele>
        <time>2019-02-20T12:44:14.000Z</time>
      </trkpt>
      <trkpt lat="46.00719" lon="6.57882">
        <ele>1903</ele>
        <time>2019-02-20T12:44:42.000Z</time>
      </trkpt>
      <trkpt lat="46.0072" lon="6.57884">
        <ele>1903.1999511719</ele>
        <time>2019-02-20T12:44:48.000Z</time>
      </trkpt>
      <trkpt lat="46.00718" lon="6.57884">
        <ele>1903.5999755859</ele>
        <time>2019-02-20T12:49:08.000Z</time>
      </trkpt>
      <trkpt lat="46.00718" lon="6.57881">
        <ele>1903</ele>
        <time>2019-02-20T12:49:25.000Z</time>
      </trkpt>
      <trkpt lat="46.0072" lon="6.57881">
        <ele>1904.8000488281</ele>
        <time>2019-02-20T12:51:35.000Z</time>
      </trkpt>
      <trkpt lat="46.00721" lon="6.57883">
        <ele>1904</ele>
        <time>2019-02-20T12:53:33.000Z</time>
      </trkpt>
      <trkpt lat="46.00723" lon="6.57884">
        <ele>1904</ele>
        <time>2019-02-20T12:53:58.000Z</time>
      </trkpt>
      <trkpt lat="46.00725" lon="6.57884">
        <ele>1903.5999755859</ele>
        <time>2019-02-20T12:54:07.000Z</time>
      </trkpt>
      <trkpt lat="46.00723" lon="6.57884">
        <ele>1903.4000244141</ele>
        <time>2019-02-20T12:54:12.000Z</time>
      </trkpt>
      <trkpt lat="46.00721" lon="6.57883">
        <ele>1905</ele>
        <time>2019-02-20T12:54:49.000Z</time>
      </trkpt>
      <trkpt lat="46.00719" lon="6.57882">
        <ele>1904</ele>
        <time>2019-02-20T12:55:24.000Z</time>
      </trkpt>
      <trkpt lat="46.0072" lon="6.57884">
        <ele>1903.1999511719</ele>
        <time>2019-02-20T12:56:55.000Z</time>
      </trkpt>
      <trkpt lat="46.00719" lon="6.57884">
        <ele>1904.1999511719</ele>
        <time>2019-02-20T13:01:06.000Z</time>
      </trkpt>
      <trkpt lat="46.00717" lon="6.57885">
        <ele>1903.1999511719</ele>
        <time>2019-02-20T13:02:42.000Z</time>
      </trkpt>
      <trkpt lat="46.00716" lon="6.57882">
        <ele>1905</ele>
        <time>2019-02-20T13:02:57.000Z</time>
      </trkpt>
      <trkpt lat="46.00718" lon="6.57881">
        <ele>1903.5999755859</ele>
        <time>2019-02-20T13:03:17.000Z</time>
      </trkpt>
      <trkpt lat="46.0072" lon="6.5788">
        <ele>1903</ele>
        <time>2019-02-20T13:03:23.000Z</time>
      </trkpt>
      <trkpt lat="46.00722" lon="6.57881">
        <ele>1903.4000244141</ele>
        <time>2019-02-20T13:03:28.000Z</time>
      </trkpt>
      <trkpt lat="46.0072" lon="6.57883">
        <ele>1904.4000244141</ele>
        <time>2019-02-20T13:04:06.000Z</time>
      </trkpt>
      <trkpt lat="46.00719" lon="6.57882">
        <ele>1905.5999755859</ele>
        <time>2019-02-20T13:05:08.000Z</time>
      </trkpt>
      <trkpt lat="46.0072" lon="6.57881">
        <ele>1905.8000488281</ele>
        <time>2019-02-20T13:05:50.000Z</time>
      </trkpt>
      <trkpt lat="46.00722" lon="6.57882">
        <ele>1904.4000244141</ele>
        <time>2019-02-20T13:06:07.000Z</time>
      </trkpt>
      <trkpt lat="46.0072" lon="6.57881">
        <ele>1906.4000244141</ele>
        <time>2019-02-20T13:06:37.000Z</time>
      </trkpt>
      <trkpt lat="46.00722" lon="6.57881">
        <ele>1906.8000488281</ele>
        <time>2019-02-20T13:07:31.000Z</time>
      </trkpt>
      <trkpt lat="46.00724" lon="6.5788">
        <ele>1906.5999755859</ele>
        <time>2019-02-20T13:07:42.000Z</time>
      </trkpt>
      <trkpt lat="46.00726" lon="6.57879">
        <ele>1906.8000488281</ele>
        <time>2019-02-20T13:07:47.000Z</time>
      </trkpt>
      <trkpt lat="46.00728" lon="6.57879">
        <ele>1906.8000488281</ele>
        <time>2019-02-20T13:07:50.000Z</time>
      </trkpt>
      <trkpt lat="46.0073" lon="6.5788">
        <ele>1907</ele>
        <time>2019-02-20T13:07:52.000Z</time>
      </trkpt>
      <trkpt lat="46.00732" lon="6.57881">
        <ele>1906.5999755859</ele>
        <time>2019-02-20T13:07:56.000Z</time>
      </trkpt>
      <trkpt lat="46.00734" lon="6.57882">
        <ele>1906.5999755859</ele>
        <time>2019-02-20T13:08:00.000Z</time>
      </trkpt>
      <trkpt lat="46.00736" lon="6.57884">
        <ele>1907.1999511719</ele>
        <time>2019-02-20T13:08:06.000Z</time>
      </trkpt>
      <trkpt lat="46.00737" lon="6.57886">
        <ele>1907.5999755859</ele>
        <time>2019-02-20T13:08:10.000Z</time>
      </trkpt>
      <trkpt lat="46.00739" lon="6.57887">
        <ele>1907.4000244141</ele>
        <time>2019-02-20T13:08:14.000Z</time>
      </trkpt>
      <trkpt lat="46.00741" lon="6.57889">
        <ele>1907.8000488281</ele>
        <time>2019-02-20T13:08:19.000Z</time>
      </trkpt>
      <trkpt lat="46.00743" lon="6.5789">
        <ele>1908.4000244141</ele>
        <time>2019-02-20T13:08:23.000Z</time>
      </trkpt>
      <trkpt lat="46.00745" lon="6.57891">
        <ele>1909</ele>
        <time>2019-02-20T13:08:27.000Z</time>
      </trkpt>
      <trkpt lat="46.00747" lon="6.57892">
        <ele>1909.4000244141</ele>
        <time>2019-02-20T13:08:37.000Z</time>
      </trkpt>
      <trkpt lat="46.00749" lon="6.57894">
        <ele>1909.5999755859</ele>
        <time>2019-02-20T13:08:42.000Z</time>
      </trkpt>
      <trkpt lat="46.0075" lon="6.57895">
        <ele>1910</ele>
        <time>2019-02-20T13:08:47.000Z</time>
      </trkpt>
      <trkpt lat="46.00752" lon="6.57896">
        <ele>1910.8000488281</ele>
        <time>2019-02-20T13:08:51.000Z</time>
      </trkpt>
      <trkpt lat="46.00754" lon="6.57897">
        <ele>1910.8000488281</ele>
        <time>2019-02-20T13:08:56.000Z</time>
      </trkpt>
      <trkpt lat="46.00756" lon="6.57899">
        <ele>1911.1999511719</ele>
        <time>2019-02-20T13:09:00.000Z</time>
      </trkpt>
      <trkpt lat="46.00757" lon="6.579">
        <ele>1911.8000488281</ele>
        <time>2019-02-20T13:09:04.000Z</time>
      </trkpt>
      <trkpt lat="46.00759" lon="6.57901">
        <ele>1912.1999511719</ele>
        <time>2019-02-20T13:09:08.000Z</time>
      </trkpt>
      <trkpt lat="46.00761" lon="6.579">
        <ele>1912.4000244141</ele>
        <time>2019-02-20T13:09:15.000Z</time>
      </trkpt>
      <trkpt lat="46.00762" lon="6.57898">
        <ele>1913</ele>
        <time>2019-02-20T13:09:21.000Z</time>
      </trkpt>
      <trkpt lat="46.00763" lon="6.57895">
        <ele>1913.5999755859</ele>
        <time>2019-02-20T13:09:25.000Z</time>
      </trkpt>
      <trkpt lat="46.00763" lon="6.57892">
        <ele>1914.5999755859</ele>
        <time>2019-02-20T13:09:30.000Z</time>
      </trkpt>
      <trkpt lat="46.00764" lon="6.5789">
        <ele>1915.5999755859</ele>
        <time>2019-02-20T13:09:36.000Z</time>
      </trkpt>
      <trkpt lat="46.00765" lon="6.57887">
        <ele>1915.4000244141</ele>
        <time>2019-02-20T13:09:40.000Z</time>
      </trkpt>
      <trkpt lat="46.00765" lon="6.57884">
        <ele>1916.4000244141</ele>
        <time>2019-02-20T13:09:48.000Z</time>
      </trkpt>
      <trkpt lat="46.00765" lon="6.57882">
        <ele>1916.8000488281</ele>
        <time>2019-02-20T13:09:54.000Z</time>
      </trkpt>
      <trkpt lat="46.00766" lon="6.57879">
        <ele>1917.5999755859</ele>
        <time>2019-02-20T13:10:00.000Z</time>
      </trkpt>
      <trkpt lat="46.00767" lon="6.57876">
        <ele>1918.8000488281</ele>
        <time>2019-02-20T13:10:06.000Z</time>
      </trkpt>
      <trkpt lat="46.00768" lon="6.57874">
        <ele>1919.1999511719</ele>
        <time>2019-02-20T13:10:12.000Z</time>
      </trkpt>
      <trkpt lat="46.00769" lon="6.57872">
        <ele>1921</ele>
        <time>2019-02-20T13:10:28.000Z</time>
      </trkpt>
      <trkpt lat="46.00771" lon="6.5787">
        <ele>1920.8000488281</ele>
        <time>2019-02-20T13:10:35.000Z</time>
      </trkpt>
      <trkpt lat="46.00772" lon="6.57868">
        <ele>1921</ele>
        <time>2019-02-20T13:10:40.000Z</time>
      </trkpt>
      <trkpt lat="46.00774" lon="6.57867">
        <ele>1921.1999511719</ele>
        <time>2019-02-20T13:10:47.000Z</time>
      </trkpt>
      <trkpt lat="46.00776" lon="6.57869">
        <ele>1921.4000244141</ele>
        <time>2019-02-20T13:10:50.000Z</time>
      </trkpt>
      <trkpt lat="46.00777" lon="6.57871">
        <ele>1922.8000488281</ele>
        <time>2019-02-20T13:10:57.000Z</time>
      </trkpt>
      <trkpt lat="46.00778" lon="6.57873">
        <ele>1923.5999755859</ele>
        <time>2019-02-20T13:11:02.000Z</time>
      </trkpt>
      <trkpt lat="46.0078" lon="6.57875">
        <ele>1924</ele>
        <time>2019-02-20T13:11:16.000Z</time>
      </trkpt>
      <trkpt lat="46.0078" lon="6.57878">
        <ele>1924</ele>
        <time>2019-02-20T13:11:21.000Z</time>
      </trkpt>
      <trkpt lat="46.00781" lon="6.57881">
        <ele>1924.7992516512</ele>
        <time>2019-02-20T13:11:26.000Z</time>
      </trkpt>
      <trkpt lat="46.00782" lon="6.57883">
        <ele>1925.8000488281</ele>
        <time>2019-02-20T13:11:33.000Z</time>
      </trkpt>
      <trkpt lat="46.00782" lon="6.57886">
        <ele>1925.5999755859</ele>
        <time>2019-02-20T13:11:39.000Z</time>
      </trkpt>
      <trkpt lat="46.00783" lon="6.57889">
        <ele>1926.5999755859</ele>
        <time>2019-02-20T13:11:45.000Z</time>
      </trkpt>
      <trkpt lat="46.00783" lon="6.57891">
        <ele>1927</ele>
        <time>2019-02-20T13:11:52.000Z</time>
      </trkpt>
      <trkpt lat="46.00784" lon="6.57894">
        <ele>1927.5999755859</ele>
        <time>2019-02-20T13:11:58.000Z</time>
      </trkpt>
      <trkpt lat="46.00785" lon="6.57897">
        <ele>1927.8000488281</ele>
        <time>2019-02-20T13:12:04.000Z</time>
      </trkpt>
      <trkpt lat="46.00785" lon="6.579">
        <ele>1928.5999755859</ele>
        <time>2019-02-20T13:12:09.000Z</time>
      </trkpt>
      <trkpt lat="46.00785" lon="6.57903">
        <ele>1929.4000244141</ele>
        <time>2019-02-20T13:12:15.000Z</time>
      </trkpt>
      <trkpt lat="46.00787" lon="6.57905">
        <ele>1930.1999511719</ele>
        <time>2019-02-20T13:12:21.000Z</time>
      </trkpt>
      <trkpt lat="46.00789" lon="6.57904">
        <ele>1930.1999511719</ele>
        <time>2019-02-20T13:12:27.000Z</time>
      </trkpt>
      <trkpt lat="46.00791" lon="6.57902">
        <ele>1931.1999511719</ele>
        <time>2019-02-20T13:12:35.000Z</time>
      </trkpt>
      <trkpt lat="46.00792" lon="6.579">
        <ele>1931.8000488281</ele>
        <time>2019-02-20T13:12:41.000Z</time>
      </trkpt>
      <trkpt lat="46.00794" lon="6.57899">
        <ele>1932.4000244141</ele>
        <time>2019-02-20T13:12:46.000Z</time>
      </trkpt>
      <trkpt lat="46.00796" lon="6.57899">
        <ele>1933</ele>
        <time>2019-02-20T13:12:51.000Z</time>
      </trkpt>
      <trkpt lat="46.00797" lon="6.57897">
        <ele>1933.4000244141</ele>
        <time>2019-02-20T13:12:56.000Z</time>
      </trkpt>
      <trkpt lat="46.00799" lon="6.57896">
        <ele>1934.1999511719</ele>
        <time>2019-02-20T13:13:02.000Z</time>
      </trkpt>
      <trkpt lat="46.00801" lon="6.57894">
        <ele>1934.5999755859</ele>
        <time>2019-02-20T13:13:07.000Z</time>
      </trkpt>
      <trkpt lat="46.00802" lon="6.57893">
        <ele>1935.5999755859</ele>
        <time>2019-02-20T13:13:13.000Z</time>
      </trkpt>
      <trkpt lat="46.00804" lon="6.57891">
        <ele>1936.5999755859</ele>
        <time>2019-02-20T13:13:20.000Z</time>
      </trkpt>
      <trkpt lat="46.00806" lon="6.57892">
        <ele>1937</ele>
        <time>2019-02-20T13:13:24.000Z</time>
      </trkpt>
      <trkpt lat="46.00807" lon="6.57894">
        <ele>1937.8000488281</ele>
        <time>2019-02-20T13:13:29.000Z</time>
      </trkpt>
      <trkpt lat="46.00809" lon="6.57896">
        <ele>1938.4000244141</ele>
        <time>2019-02-20T13:13:34.000Z</time>
      </trkpt>
      <trkpt lat="46.0081" lon="6.57898">
        <ele>1938.8000488281</ele>
        <time>2019-02-20T13:13:38.000Z</time>
      </trkpt>
      <trkpt lat="46.00811" lon="6.57901">
        <ele>1939</ele>
        <time>2019-02-20T13:13:43.000Z</time>
      </trkpt>
      <trkpt lat="46.00812" lon="6.57903">
        <ele>1940</ele>
        <time>2019-02-20T13:13:48.000Z</time>
      </trkpt>
      <trkpt lat="46.00814" lon="6.57906">
        <ele>1940.1999511719</ele>
        <time>2019-02-20T13:13:54.000Z</time>
      </trkpt>
      <trkpt lat="46.00814" lon="6.57908">
        <ele>1940.8000488281</ele>
        <time>2019-02-20T13:14:00.000Z</time>
      </trkpt>
      <trkpt lat="46.00815" lon="6.5791">
        <ele>1941.4000244141</ele>
        <time>2019-02-20T13:14:05.000Z</time>
      </trkpt>
      <trkpt lat="46.00816" lon="6.57913">
        <ele>1942</ele>
        <time>2019-02-20T13:14:11.000Z</time>
      </trkpt>
      <trkpt lat="46.00816" lon="6.57915">
        <ele>1942.8000488281</ele>
        <time>2019-02-20T13:14:16.000Z</time>
      </trkpt>
      <trkpt lat="46.00816" lon="6.57919">
        <ele>1943</ele>
        <time>2019-02-20T13:14:22.000Z</time>
      </trkpt>
      <trkpt lat="46.00816" lon="6.57921">
        <ele>1943.8000488281</ele>
        <time>2019-02-20T13:14:27.000Z</time>
      </trkpt>
      <trkpt lat="46.00816" lon="6.57924">
        <ele>1944</ele>
        <time>2019-02-20T13:14:32.000Z</time>
      </trkpt>
      <trkpt lat="46.00816" lon="6.57927">
        <ele>1944.5999755859</ele>
        <time>2019-02-20T13:14:36.000Z</time>
      </trkpt>
      <trkpt lat="46.00816" lon="6.5793">
        <ele>1945.1999511719</ele>
        <time>2019-02-20T13:14:42.000Z</time>
      </trkpt>
      <trkpt lat="46.00817" lon="6.57933">
        <ele>1946</ele>
        <time>2019-02-20T13:14:47.000Z</time>
      </trkpt>
      <trkpt lat="46.00818" lon="6.57935">
        <ele>1946.4000244141</ele>
        <time>2019-02-20T13:14:51.000Z</time>
      </trkpt>
      <trkpt lat="46.00819" lon="6.57938">
        <ele>1946</ele>
        <time>2019-02-20T13:14:56.000Z</time>
      </trkpt>
      <trkpt lat="46.00819" lon="6.57941">
        <ele>1947.4000244141</ele>
        <time>2019-02-20T13:15:03.000Z</time>
      </trkpt>
      <trkpt lat="46.00819" lon="6.57944">
        <ele>1948.5999755859</ele>
        <time>2019-02-20T13:15:09.000Z</time>
      </trkpt>
      <trkpt lat="46.00819" lon="6.57947">
        <ele>1949</ele>
        <time>2019-02-20T13:15:15.000Z</time>
      </trkpt>
      <trkpt lat="46.00819" lon="6.57949">
        <ele>1949.4000244141</ele>
        <time>2019-02-20T13:15:20.000Z</time>
      </trkpt>
      <trkpt lat="46.00818" lon="6.57952">
        <ele>1950</ele>
        <time>2019-02-20T13:15:26.000Z</time>
      </trkpt>
      <trkpt lat="46.00819" lon="6.57955">
        <ele>1950.8000488281</ele>
        <time>2019-02-20T13:15:32.000Z</time>
      </trkpt>
      <trkpt lat="46.00819" lon="6.57958">
        <ele>1951.1999511719</ele>
        <time>2019-02-20T13:15:37.000Z</time>
      </trkpt>
      <trkpt lat="46.00819" lon="6.57961">
        <ele>1952</ele>
        <time>2019-02-20T13:15:43.000Z</time>
      </trkpt>
      <trkpt lat="46.00821" lon="6.5796">
        <ele>1952.5999755859</ele>
        <time>2019-02-20T13:15:51.000Z</time>
      </trkpt>
      <trkpt lat="46.00824" lon="6.5796">
        <ele>1953.4000244141</ele>
        <time>2019-02-20T13:15:56.000Z</time>
      </trkpt>
      <trkpt lat="46.00825" lon="6.57959">
        <ele>1954</ele>
        <time>2019-02-20T13:16:05.000Z</time>
      </trkpt>
      <trkpt lat="46.00827" lon="6.57958">
        <ele>1954.8000488281</ele>
        <time>2019-02-20T13:16:10.000Z</time>
      </trkpt>
      <trkpt lat="46.00829" lon="6.57957">
        <ele>1955.1999511719</ele>
        <time>2019-02-20T13:16:15.000Z</time>
      </trkpt>
      <trkpt lat="46.00831" lon="6.57956">
        <ele>1955.5999755859</ele>
        <time>2019-02-20T13:16:21.000Z</time>
      </trkpt>
      <trkpt lat="46.00833" lon="6.57955">
        <ele>1956.1999511719</ele>
        <time>2019-02-20T13:16:28.000Z</time>
      </trkpt>
      <trkpt lat="46.00834" lon="6.57954">
        <ele>1957.1999511719</ele>
        <time>2019-02-20T13:16:34.000Z</time>
      </trkpt>
      <trkpt lat="46.00836" lon="6.57952">
        <ele>1957.8000488281</ele>
        <time>2019-02-20T13:16:40.000Z</time>
      </trkpt>
      <trkpt lat="46.00838" lon="6.57951">
        <ele>1958.5999755859</ele>
        <time>2019-02-20T13:16:46.000Z</time>
      </trkpt>
      <trkpt lat="46.0084" lon="6.57949">
        <ele>1959.4000244141</ele>
        <time>2019-02-20T13:16:53.000Z</time>
      </trkpt>
      <trkpt lat="46.00841" lon="6.57948">
        <ele>1959.7998492742</ele>
        <time>2019-02-20T13:16:58.000Z</time>
      </trkpt>
      <trkpt lat="46.00842" lon="6.57946">
        <ele>1960.4000244141</ele>
        <time>2019-02-20T13:17:02.000Z</time>
      </trkpt>
      <trkpt lat="46.00844" lon="6.57946">
        <ele>1960.8000488281</ele>
        <time>2019-02-20T13:17:08.000Z</time>
      </trkpt>
      <trkpt lat="46.00846" lon="6.57947">
        <ele>1961.4000244141</ele>
        <time>2019-02-20T13:17:13.000Z</time>
      </trkpt>
      <trkpt lat="46.00847" lon="6.5795">
        <ele>1961.5999755859</ele>
        <time>2019-02-20T13:17:18.000Z</time>
      </trkpt>
      <trkpt lat="46.00848" lon="6.57953">
        <ele>1962.399625704</ele>
        <time>2019-02-20T13:17:23.000Z</time>
      </trkpt>
      <trkpt lat="46.00848" lon="6.57955">
        <ele>1963</ele>
        <time>2019-02-20T13:17:28.000Z</time>
      </trkpt>
      <trkpt lat="46.00848" lon="6.57958">
        <ele>1963.8000488281</ele>
        <time>2019-02-20T13:17:33.000Z</time>
      </trkpt>
      <trkpt lat="46.00848" lon="6.57961">
        <ele>1964.1999511719</ele>
        <time>2019-02-20T13:17:38.000Z</time>
      </trkpt>
      <trkpt lat="46.00849" lon="6.57964">
        <ele>1965.1999511719</ele>
        <time>2019-02-20T13:17:44.000Z</time>
      </trkpt>
      <trkpt lat="46.00849" lon="6.57966">
        <ele>1965.5999755859</ele>
        <time>2019-02-20T13:17:50.000Z</time>
      </trkpt>
      <trkpt lat="46.00849" lon="6.57969">
        <ele>1966.1999511719</ele>
        <time>2019-02-20T13:17:56.000Z</time>
      </trkpt>
      <trkpt lat="46.00848" lon="6.57972">
        <ele>1966.8000488281</ele>
        <time>2019-02-20T13:18:01.000Z</time>
      </trkpt>
      <trkpt lat="46.00848" lon="6.57975">
        <ele>1967.4000244141</ele>
        <time>2019-02-20T13:18:06.000Z</time>
      </trkpt>
      <trkpt lat="46.00848" lon="6.57978">
        <ele>1967.8000488281</ele>
        <time>2019-02-20T13:18:11.000Z</time>
      </trkpt>
      <trkpt lat="46.00848" lon="6.57981">
        <ele>1968.1999511719</ele>
        <time>2019-02-20T13:18:17.000Z</time>
      </trkpt>
      <trkpt lat="46.00848" lon="6.57983">
        <ele>1968.5999755859</ele>
        <time>2019-02-20T13:18:21.000Z</time>
      </trkpt>
      <trkpt lat="46.00848" lon="6.57986">
        <ele>1969</ele>
        <time>2019-02-20T13:18:27.000Z</time>
      </trkpt>
      <trkpt lat="46.00848" lon="6.57989">
        <ele>1970</ele>
        <time>2019-02-20T13:18:34.000Z</time>
      </trkpt>
      <trkpt lat="46.00847" lon="6.57992">
        <ele>1971.1999511719</ele>
        <time>2019-02-20T13:18:41.000Z</time>
      </trkpt>
      <trkpt lat="46.00846" lon="6.57995">
        <ele>1971.5999755859</ele>
        <time>2019-02-20T13:18:46.000Z</time>
      </trkpt>
      <trkpt lat="46.00846" lon="6.57997">
        <ele>1972</ele>
        <time>2019-02-20T13:18:50.000Z</time>
      </trkpt>
      <trkpt lat="46.00846" lon="6.58">
        <ele>1972.4000244141</ele>
        <time>2019-02-20T13:18:55.000Z</time>
      </trkpt>
      <trkpt lat="46.00846" lon="6.58003">
        <ele>1973</ele>
        <time>2019-02-20T13:19:00.000Z</time>
      </trkpt>
      <trkpt lat="46.00845" lon="6.58006">
        <ele>1973.5999755859</ele>
        <time>2019-02-20T13:19:05.000Z</time>
      </trkpt>
      <trkpt lat="46.00845" lon="6.58009">
        <ele>1974.5999755859</ele>
        <time>2019-02-20T13:19:10.000Z</time>
      </trkpt>
      <trkpt lat="46.00845" lon="6.58011">
        <ele>1974.8000488281</ele>
        <time>2019-02-20T13:19:15.000Z</time>
      </trkpt>
      <trkpt lat="46.00844" lon="6.58014">
        <ele>1975.5999755859</ele>
        <time>2019-02-20T13:19:21.000Z</time>
      </trkpt>
      <trkpt lat="46.00844" lon="6.58017">
        <ele>1976.4000244141</ele>
        <time>2019-02-20T13:19:26.000Z</time>
      </trkpt>
      <trkpt lat="46.00844" lon="6.5802">
        <ele>1977.1999511719</ele>
        <time>2019-02-20T13:19:31.000Z</time>
      </trkpt>
      <trkpt lat="46.00844" lon="6.58023">
        <ele>1977.8000488281</ele>
        <time>2019-02-20T13:19:36.000Z</time>
      </trkpt>
      <trkpt lat="46.00843" lon="6.58025">
        <ele>1977.8000488281</ele>
        <time>2019-02-20T13:19:41.000Z</time>
      </trkpt>
      <trkpt lat="46.00843" lon="6.58028">
        <ele>1978.4000244141</ele>
        <time>2019-02-20T13:19:47.000Z</time>
      </trkpt>
      <trkpt lat="46.00843" lon="6.58031">
        <ele>1979.1999511719</ele>
        <time>2019-02-20T13:19:52.000Z</time>
      </trkpt>
      <trkpt lat="46.00843" lon="6.58034">
        <ele>1979.5999755859</ele>
        <time>2019-02-20T13:19:57.000Z</time>
      </trkpt>
      <trkpt lat="46.00844" lon="6.58037">
        <ele>1980</ele>
        <time>2019-02-20T13:20:02.000Z</time>
      </trkpt>
      <trkpt lat="46.00844" lon="6.5804">
        <ele>1980.5999755859</ele>
        <time>2019-02-20T13:20:08.000Z</time>
      </trkpt>
      <trkpt lat="46.00844" lon="6.58043">
        <ele>1981.1999511719</ele>
        <time>2019-02-20T13:20:13.000Z</time>
      </trkpt>
      <trkpt lat="46.00844" lon="6.58046">
        <ele>1982</ele>
        <time>2019-02-20T13:20:19.000Z</time>
      </trkpt>
      <trkpt lat="46.00845" lon="6.58049">
        <ele>1982.5999755859</ele>
        <time>2019-02-20T13:20:24.000Z</time>
      </trkpt>
      <trkpt lat="46.00845" lon="6.58052">
        <ele>1983.5999755859</ele>
        <time>2019-02-20T13:20:30.000Z</time>
      </trkpt>
      <trkpt lat="46.00846" lon="6.58054">
        <ele>1984.1999511719</ele>
        <time>2019-02-20T13:20:35.000Z</time>
      </trkpt>
      <trkpt lat="46.00846" lon="6.58057">
        <ele>1984.5999755859</ele>
        <time>2019-02-20T13:20:41.000Z</time>
      </trkpt>
      <trkpt lat="46.00847" lon="6.5806">
        <ele>1985.5987799422</ele>
        <time>2019-02-20T13:20:47.000Z</time>
      </trkpt>
      <trkpt lat="46.00848" lon="6.58063">
        <ele>1986.4000244141</ele>
        <time>2019-02-20T13:20:52.000Z</time>
      </trkpt>
      <trkpt lat="46.00849" lon="6.58066">
        <ele>1986.4000244141</ele>
        <time>2019-02-20T13:20:57.000Z</time>
      </trkpt>
      <trkpt lat="46.0085" lon="6.58068">
        <ele>1987.1999511719</ele>
        <time>2019-02-20T13:21:02.000Z</time>
      </trkpt>
      <trkpt lat="46.00851" lon="6.58071">
        <ele>1987.8000488281</ele>
        <time>2019-02-20T13:21:07.000Z</time>
      </trkpt>
      <trkpt lat="46.00852" lon="6.58073">
        <ele>1988.8000488281</ele>
        <time>2019-02-20T13:21:13.000Z</time>
      </trkpt>
      <trkpt lat="46.00853" lon="6.58076">
        <ele>1989.1999511719</ele>
        <time>2019-02-20T13:21:18.000Z</time>
      </trkpt>
      <trkpt lat="46.00853" lon="6.58079">
        <ele>1989.5999755859</ele>
        <time>2019-02-20T13:21:24.000Z</time>
      </trkpt>
      <trkpt lat="46.00854" lon="6.58081">
        <ele>1990.4000244141</ele>
        <time>2019-02-20T13:21:29.000Z</time>
      </trkpt>
      <trkpt lat="46.00855" lon="6.58084">
        <ele>1991</ele>
        <time>2019-02-20T13:21:35.000Z</time>
      </trkpt>
      <trkpt lat="46.00856" lon="6.58086">
        <ele>1991.4000244141</ele>
        <time>2019-02-20T13:21:40.000Z</time>
      </trkpt>
      <trkpt lat="46.00857" lon="6.58089">
        <ele>1992</ele>
        <time>2019-02-20T13:21:45.000Z</time>
      </trkpt>
      <trkpt lat="46.00857" lon="6.58092">
        <ele>1992.5999755859</ele>
        <time>2019-02-20T13:21:49.000Z</time>
      </trkpt>
      <trkpt lat="46.00858" lon="6.58095">
        <ele>1993.4000244141</ele>
        <time>2019-02-20T13:21:53.000Z</time>
      </trkpt>
      <trkpt lat="46.00858" lon="6.58097">
        <ele>1993.5999755859</ele>
        <time>2019-02-20T13:21:57.000Z</time>
      </trkpt>
      <trkpt lat="46.00859" lon="6.581">
        <ele>1994.1999511719</ele>
        <time>2019-02-20T13:22:01.000Z</time>
      </trkpt>
      <trkpt lat="46.0086" lon="6.58103">
        <ele>1994.4000244141</ele>
        <time>2019-02-20T13:22:05.000Z</time>
      </trkpt>
      <trkpt lat="46.00861" lon="6.58105">
        <ele>1995.1999511719</ele>
        <time>2019-02-20T13:22:09.000Z</time>
      </trkpt>
      <trkpt lat="46.00862" lon="6.58108">
        <ele>1995.4000244141</ele>
        <time>2019-02-20T13:22:13.000Z</time>
      </trkpt>
      <trkpt lat="46.00863" lon="6.5811">
        <ele>1995.8000488281</ele>
        <time>2019-02-20T13:22:17.000Z</time>
      </trkpt>
      <trkpt lat="46.00864" lon="6.58112">
        <ele>1996.5999755859</ele>
        <time>2019-02-20T13:22:21.000Z</time>
      </trkpt>
      <trkpt lat="46.00865" lon="6.58115">
        <ele>1996.5999755859</ele>
        <time>2019-02-20T13:22:26.000Z</time>
      </trkpt>
      <trkpt lat="46.00866" lon="6.58117">
        <ele>1997.4000244141</ele>
        <time>2019-02-20T13:22:30.000Z</time>
      </trkpt>
      <trkpt lat="46.00867" lon="6.58119">
        <ele>1998</ele>
        <time>2019-02-20T13:22:34.000Z</time>
      </trkpt>
      <trkpt lat="46.00868" lon="6.58122">
        <ele>1999</ele>
        <time>2019-02-20T13:22:39.000Z</time>
      </trkpt>
      <trkpt lat="46.00869" lon="6.58124">
        <ele>1999.1999511719</ele>
        <time>2019-02-20T13:22:43.000Z</time>
      </trkpt>
      <trkpt lat="46.0087" lon="6.58127">
        <ele>1999.5999755859</ele>
        <time>2019-02-20T13:22:47.000Z</time>
      </trkpt>
      <trkpt lat="46.00871" lon="6.58129">
        <ele>2000</ele>
        <time>2019-02-20T13:22:51.000Z</time>
      </trkpt>
      <trkpt lat="46.00872" lon="6.58132">
        <ele>2000.5999755859</ele>
        <time>2019-02-20T13:22:55.000Z</time>
      </trkpt>
      <trkpt lat="46.00873" lon="6.58134">
        <ele>2000.8000488281</ele>
        <time>2019-02-20T13:22:59.000Z</time>
      </trkpt>
      <trkpt lat="46.00874" lon="6.58137">
        <ele>2001.1999511719</ele>
        <time>2019-02-20T13:23:03.000Z</time>
      </trkpt>
      <trkpt lat="46.00874" lon="6.58139">
        <ele>2001.5999755859</ele>
        <time>2019-02-20T13:23:07.000Z</time>
      </trkpt>
      <trkpt lat="46.00875" lon="6.58142">
        <ele>2002.1999511719</ele>
        <time>2019-02-20T13:23:11.000Z</time>
      </trkpt>
      <trkpt lat="46.00876" lon="6.58144">
        <ele>2002.8000488281</ele>
        <time>2019-02-20T13:23:15.000Z</time>
      </trkpt>
      <trkpt lat="46.00877" lon="6.58147">
        <ele>2003.1999511719</ele>
        <time>2019-02-20T13:23:19.000Z</time>
      </trkpt>
      <trkpt lat="46.00878" lon="6.58149">
        <ele>2003.5999755859</ele>
        <time>2019-02-20T13:23:22.000Z</time>
      </trkpt>
      <trkpt lat="46.00879" lon="6.58151">
        <ele>2003.5999755859</ele>
        <time>2019-02-20T13:23:26.000Z</time>
      </trkpt>
      <trkpt lat="46.0088" lon="6.58154">
        <ele>2004.4000244141</ele>
        <time>2019-02-20T13:23:30.000Z</time>
      </trkpt>
      <trkpt lat="46.00881" lon="6.58157">
        <ele>2005</ele>
        <time>2019-02-20T13:23:34.000Z</time>
      </trkpt>
      <trkpt lat="46.00881" lon="6.58159">
        <ele>2005.1999511719</ele>
        <time>2019-02-20T13:23:38.000Z</time>
      </trkpt>
      <trkpt lat="46.00882" lon="6.58162">
        <ele>2005.1999511719</ele>
        <time>2019-02-20T13:23:42.000Z</time>
      </trkpt>
      <trkpt lat="46.00883" lon="6.58164">
        <ele>2006</ele>
        <time>2019-02-20T13:23:46.000Z</time>
      </trkpt>
      <trkpt lat="46.00884" lon="6.58167">
        <ele>2006.5999755859</ele>
        <time>2019-02-20T13:23:50.000Z</time>
      </trkpt>
      <trkpt lat="46.00885" lon="6.5817">
        <ele>2007.1999511719</ele>
        <time>2019-02-20T13:23:54.000Z</time>
      </trkpt>
      <trkpt lat="46.00886" lon="6.58173">
        <ele>2007.1999511719</ele>
        <time>2019-02-20T13:23:57.000Z</time>
      </trkpt>
      <trkpt lat="46.00887" lon="6.58176">
        <ele>2007.5999755859</ele>
        <time>2019-02-20T13:24:01.000Z</time>
      </trkpt>
      <trkpt lat="46.00888" lon="6.58179">
        <ele>2007.8000488281</ele>
        <time>2019-02-20T13:24:05.000Z</time>
      </trkpt>
      <trkpt lat="46.00889" lon="6.58181">
        <ele>2008</ele>
        <time>2019-02-20T13:24:08.000Z</time>
      </trkpt>
      <trkpt lat="46.0089" lon="6.58183">
        <ele>2008.1991542382</ele>
        <time>2019-02-20T13:24:11.000Z</time>
      </trkpt>
      <trkpt lat="46.00892" lon="6.58186">
        <ele>2008</ele>
        <time>2019-02-20T13:24:15.000Z</time>
      </trkpt>
      <trkpt lat="46.00893" lon="6.58187">
        <ele>2008.5999755859</ele>
        <time>2019-02-20T13:24:18.000Z</time>
      </trkpt>
      <trkpt lat="46.00895" lon="6.58189">
        <ele>2009</ele>
        <time>2019-02-20T13:24:21.000Z</time>
      </trkpt>
      <trkpt lat="46.00897" lon="6.58191">
        <ele>2009.1999511719</ele>
        <time>2019-02-20T13:24:25.000Z</time>
      </trkpt>
      <trkpt lat="46.00899" lon="6.58193">
        <ele>2008.8000488281</ele>
        <time>2019-02-20T13:24:28.000Z</time>
      </trkpt>
      <trkpt lat="46.009" lon="6.58195">
        <ele>2009.1999511719</ele>
        <time>2019-02-20T13:24:31.000Z</time>
      </trkpt>
      <trkpt lat="46.00902" lon="6.58196">
        <ele>2009.8000488281</ele>
        <time>2019-02-20T13:24:35.000Z</time>
      </trkpt>
      <trkpt lat="46.00904" lon="6.58198">
        <ele>2009.4000244141</ele>
        <time>2019-02-20T13:24:38.000Z</time>
      </trkpt>
      <trkpt lat="46.00906" lon="6.58199">
        <ele>2009.5999755859</ele>
        <time>2019-02-20T13:24:41.000Z</time>
      </trkpt>
      <trkpt lat="46.00908" lon="6.58201">
        <ele>2009.5999755859</ele>
        <time>2019-02-20T13:24:44.000Z</time>
      </trkpt>
      <trkpt lat="46.0091" lon="6.58202">
        <ele>2009.8000488281</ele>
        <time>2019-02-20T13:24:47.000Z</time>
      </trkpt>
      <trkpt lat="46.00912" lon="6.58204">
        <ele>2010.1999511719</ele>
        <time>2019-02-20T13:24:50.000Z</time>
      </trkpt>
      <trkpt lat="46.00915" lon="6.58205">
        <ele>2010</ele>
        <time>2019-02-20T13:24:53.000Z</time>
      </trkpt>
      <trkpt lat="46.00916" lon="6.58206">
        <ele>2010.1999511719</ele>
        <time>2019-02-20T13:24:56.000Z</time>
      </trkpt>
      <trkpt lat="46.00918" lon="6.58207">
        <ele>2010.1999511719</ele>
        <time>2019-02-20T13:24:58.000Z</time>
      </trkpt>
      <trkpt lat="46.0092" lon="6.58209">
        <ele>2010</ele>
        <time>2019-02-20T13:25:00.000Z</time>
      </trkpt>
      <trkpt lat="46.00921" lon="6.5821">
        <ele>2010.1997517397</ele>
        <time>2019-02-20T13:25:02.000Z</time>
      </trkpt>
      <trkpt lat="46.00924" lon="6.58211">
        <ele>2010</ele>
        <time>2019-02-20T13:25:05.000Z</time>
      </trkpt>
      <trkpt lat="46.00926" lon="6.58212">
        <ele>2009.8000488281</ele>
        <time>2019-02-20T13:25:07.000Z</time>
      </trkpt>
      <trkpt lat="46.00928" lon="6.58213">
        <ele>2010</ele>
        <time>2019-02-20T13:25:10.000Z</time>
      </trkpt>
      <trkpt lat="46.0093" lon="6.58214">
        <ele>2010.1999511719</ele>
        <time>2019-02-20T13:25:13.000Z</time>
      </trkpt>
      <trkpt lat="46.00929" lon="6.58212">
        <ele>2009.4000244141</ele>
        <time>2019-02-20T13:31:53.000Z</time>
      </trkpt>
      <trkpt lat="46.00931" lon="6.58213">
        <ele>2011.5999755859</ele>
        <time>2019-02-20T13:36:33.000Z</time>
      </trkpt>
      <trkpt lat="46.00934" lon="6.58215">
        <ele>2011.8000488281</ele>
        <time>2019-02-20T13:36:36.000Z</time>
      </trkpt>
      <trkpt lat="46.00937" lon="6.58217">
        <ele>2011.4000244141</ele>
        <time>2019-02-20T13:36:38.000Z</time>
      </trkpt>
      <trkpt lat="46.00939" lon="6.58219">
        <ele>2011.1999511719</ele>
        <time>2019-02-20T13:36:39.000Z</time>
      </trkpt>
      <trkpt lat="46.00941" lon="6.5822">
        <ele>2011.1999511719</ele>
        <time>2019-02-20T13:36:40.000Z</time>
      </trkpt>
      <trkpt lat="46.00944" lon="6.58222">
        <ele>2011</ele>
        <time>2019-02-20T13:36:41.000Z</time>
      </trkpt>
      <trkpt lat="46.00947" lon="6.58223">
        <ele>2010.8000488281</ele>
        <time>2019-02-20T13:36:42.000Z</time>
      </trkpt>
      <trkpt lat="46.00951" lon="6.58224">
        <ele>2010.8000488281</ele>
        <time>2019-02-20T13:36:43.000Z</time>
      </trkpt>
      <trkpt lat="46.00954" lon="6.58226">
        <ele>2010.8000488281</ele>
        <time>2019-02-20T13:36:44.000Z</time>
      </trkpt>
      <trkpt lat="46.00957" lon="6.58228">
        <ele>2010.5999755859</ele>
        <time>2019-02-20T13:36:45.000Z</time>
      </trkpt>
      <trkpt lat="46.00959" lon="6.58229">
        <ele>2010.4000244141</ele>
        <time>2019-02-20T13:36:46.000Z</time>
      </trkpt>
      <trkpt lat="46.00961" lon="6.5823">
        <ele>2009.5999755859</ele>
        <time>2019-02-20T13:36:48.000Z</time>
      </trkpt>
      <trkpt lat="46.00966" lon="6.58232">
        <ele>2007.8000488281</ele>
        <time>2019-02-20T13:36:52.000Z</time>
      </trkpt>
      <trkpt lat="46.00972" lon="6.58233">
        <ele>2007.5999755859</ele>
        <time>2019-02-20T13:36:53.000Z</time>
      </trkpt>
      <trkpt lat="46.00978" lon="6.58233">
        <ele>2007.4000244141</ele>
        <time>2019-02-20T13:36:54.000Z</time>
      </trkpt>
      <trkpt lat="46.00984" lon="6.58232">
        <ele>2007.4000244141</ele>
        <time>2019-02-20T13:36:55.000Z</time>
      </trkpt>
      <trkpt lat="46.0099" lon="6.58231">
        <ele>2007.000398986</ele>
        <time>2019-02-20T13:36:56.000Z</time>
      </trkpt>
      <trkpt lat="46.00995" lon="6.58227">
        <ele>2006.5999755859</ele>
        <time>2019-02-20T13:36:57.000Z</time>
      </trkpt>
      <trkpt lat="46.00998" lon="6.58221">
        <ele>2006</ele>
        <time>2019-02-20T13:36:58.000Z</time>
      </trkpt>
      <trkpt lat="46.01" lon="6.58216">
        <ele>2004.8000488281</ele>
        <time>2019-02-20T13:36:59.000Z</time>
      </trkpt>
      <trkpt lat="46.01001" lon="6.58211">
        <ele>2003</ele>
        <time>2019-02-20T13:37:00.000Z</time>
      </trkpt>
      <trkpt lat="46.01002" lon="6.58205">
        <ele>2002</ele>
        <time>2019-02-20T13:37:01.000Z</time>
      </trkpt>
      <trkpt lat="46.01004" lon="6.58199">
        <ele>2001</ele>
        <time>2019-02-20T13:37:02.000Z</time>
      </trkpt>
      <trkpt lat="46.01005" lon="6.58193">
        <ele>1999.5999755859</ele>
        <time>2019-02-20T13:37:03.000Z</time>
      </trkpt>
      <trkpt lat="46.01006" lon="6.58187">
        <ele>1998.1999511719</ele>
        <time>2019-02-20T13:37:04.000Z</time>
      </trkpt>
      <trkpt lat="46.01007" lon="6.5818">
        <ele>1996.5999755859</ele>
        <time>2019-02-20T13:37:05.000Z</time>
      </trkpt>
      <trkpt lat="46.01009" lon="6.58173">
        <ele>1995.8000488281</ele>
        <time>2019-02-20T13:37:06.000Z</time>
      </trkpt>
      <trkpt lat="46.0101" lon="6.58167">
        <ele>1994.5999755859</ele>
        <time>2019-02-20T13:37:07.000Z</time>
      </trkpt>
      <trkpt lat="46.01011" lon="6.58161">
        <ele>1993.5999755859</ele>
        <time>2019-02-20T13:37:08.000Z</time>
      </trkpt>
      <trkpt lat="46.01011" lon="6.58155">
        <ele>1992.5999755859</ele>
        <time>2019-02-20T13:37:09.000Z</time>
      </trkpt>
      <trkpt lat="46.01012" lon="6.58149">
        <ele>1991.5999755859</ele>
        <time>2019-02-20T13:37:10.000Z</time>
      </trkpt>
      <trkpt lat="46.01014" lon="6.58143">
        <ele>1990.8000488281</ele>
        <time>2019-02-20T13:37:11.000Z</time>
      </trkpt>
      <trkpt lat="46.01016" lon="6.58137">
        <ele>1990</ele>
        <time>2019-02-20T13:37:12.000Z</time>
      </trkpt>
      <trkpt lat="46.01017" lon="6.5813">
        <ele>1989.1999511719</ele>
        <time>2019-02-20T13:37:13.000Z</time>
      </trkpt>
      <trkpt lat="46.0102" lon="6.58123">
        <ele>1988.4000244141</ele>
        <time>2019-02-20T13:37:14.000Z</time>
      </trkpt>
      <trkpt lat="46.01023" lon="6.58118">
        <ele>1988</ele>
        <time>2019-02-20T13:37:15.000Z</time>
      </trkpt>
      <trkpt lat="46.01028" lon="6.58116">
        <ele>1987.1999511719</ele>
        <time>2019-02-20T13:37:16.000Z</time>
      </trkpt>
      <trkpt lat="46.01035" lon="6.58114">
        <ele>1986.5999755859</ele>
        <time>2019-02-20T13:37:17.000Z</time>
      </trkpt>
      <trkpt lat="46.01041" lon="6.58114">
        <ele>1985.8000488281</ele>
        <time>2019-02-20T13:37:18.000Z</time>
      </trkpt>
      <trkpt lat="46.01048" lon="6.58112">
        <ele>1985</ele>
        <time>2019-02-20T13:37:19.000Z</time>
      </trkpt>
      <trkpt lat="46.01055" lon="6.58109">
        <ele>1983.8000488281</ele>
        <time>2019-02-20T13:37:20.000Z</time>
      </trkpt>
      <trkpt lat="46.01062" lon="6.58107">
        <ele>1982.5999755859</ele>
        <time>2019-02-20T13:37:21.000Z</time>
      </trkpt>
      <trkpt lat="46.01067" lon="6.58109">
        <ele>1981.1999511719</ele>
        <time>2019-02-20T13:37:22.000Z</time>
      </trkpt>
      <trkpt lat="46.01068" lon="6.58111">
        <ele>1979.5999755859</ele>
        <time>2019-02-20T13:37:23.000Z</time>
      </trkpt>
      <trkpt lat="46.01068" lon="6.58113">
        <ele>1970</ele>
        <time>2019-02-20T13:37:42.000Z</time>
      </trkpt>
      <trkpt lat="46.01069" lon="6.58113">
        <ele>1970.4000244141</ele>
        <time>2019-02-20T13:38:08.000Z</time>
      </trkpt>
      <trkpt lat="46.01071" lon="6.58112">
        <ele>1970.4000244141</ele>
        <time>2019-02-20T13:38:10.000Z</time>
      </trkpt>
      <trkpt lat="46.01073" lon="6.58109">
        <ele>1969.8000488281</ele>
        <time>2019-02-20T13:38:54.000Z</time>
      </trkpt>
      <trkpt lat="46.01074" lon="6.58108">
        <ele>1969</ele>
        <time>2019-02-20T13:39:09.000Z</time>
      </trkpt>
      <trkpt lat="46.01078" lon="6.58107">
        <ele>1968.5999755859</ele>
        <time>2019-02-20T13:39:11.000Z</time>
      </trkpt>
      <trkpt lat="46.01082" lon="6.58107">
        <ele>1968.5999755859</ele>
        <time>2019-02-20T13:39:12.000Z</time>
      </trkpt>
      <trkpt lat="46.01084" lon="6.58106">
        <ele>1968.5999755859</ele>
        <time>2019-02-20T13:39:13.000Z</time>
      </trkpt>
      <trkpt lat="46.01087" lon="6.58104">
        <ele>1968.5999755859</ele>
        <time>2019-02-20T13:39:15.000Z</time>
      </trkpt>
      <trkpt lat="46.0109" lon="6.58102">
        <ele>1967.8000488281</ele>
        <time>2019-02-20T13:39:17.000Z</time>
      </trkpt>
      <trkpt lat="46.01092" lon="6.58102">
        <ele>1967</ele>
        <time>2019-02-20T13:39:18.000Z</time>
      </trkpt>
      <trkpt lat="46.01095" lon="6.58105">
        <ele>1966.4000244141</ele>
        <time>2019-02-20T13:39:19.000Z</time>
      </trkpt>
      <trkpt lat="46.01098" lon="6.5811">
        <ele>1965.5999755859</ele>
        <time>2019-02-20T13:39:20.000Z</time>
      </trkpt>
      <trkpt lat="46.011" lon="6.58112">
        <ele>1965.1999511719</ele>
        <time>2019-02-20T13:39:21.000Z</time>
      </trkpt>
      <trkpt lat="46.01105" lon="6.58111">
        <ele>1964.4000244141</ele>
        <time>2019-02-20T13:39:22.000Z</time>
      </trkpt>
      <trkpt lat="46.01111" lon="6.58107">
        <ele>1963.5999755859</ele>
        <time>2019-02-20T13:39:23.000Z</time>
      </trkpt>
      <trkpt lat="46.01114" lon="6.581">
        <ele>1962.5999755859</ele>
        <time>2019-02-20T13:39:24.000Z</time>
      </trkpt>
      <trkpt lat="46.01117" lon="6.58091">
        <ele>1961.5999755859</ele>
        <time>2019-02-20T13:39:25.000Z</time>
      </trkpt>
      <trkpt lat="46.0112" lon="6.58083">
        <ele>1960.4000244141</ele>
        <time>2019-02-20T13:39:26.000Z</time>
      </trkpt>
      <trkpt lat="46.01126" lon="6.5808">
        <ele>1958.5999755859</ele>
        <time>2019-02-20T13:39:27.000Z</time>
      </trkpt>
      <trkpt lat="46.01135" lon="6.58082">
        <ele>1957.4000244141</ele>
        <time>2019-02-20T13:39:28.000Z</time>
      </trkpt>
      <trkpt lat="46.01143" lon="6.58086">
        <ele>1955.4020192225</ele>
        <time>2019-02-20T13:39:29.000Z</time>
      </trkpt>
      <trkpt lat="46.01151" lon="6.58088">
        <ele>1953.5999755859</ele>
        <time>2019-02-20T13:39:30.000Z</time>
      </trkpt>
      <trkpt lat="46.01158" lon="6.58089">
        <ele>1952</ele>
        <time>2019-02-20T13:39:31.000Z</time>
      </trkpt>
      <trkpt lat="46.01163" lon="6.58092">
        <ele>1950.8000488281</ele>
        <time>2019-02-20T13:39:32.000Z</time>
      </trkpt>
      <trkpt lat="46.01168" lon="6.58095">
        <ele>1948.5999755859</ele>
        <time>2019-02-20T13:39:33.000Z</time>
      </trkpt>
      <trkpt lat="46.01173" lon="6.58095">
        <ele>1947.4000244141</ele>
        <time>2019-02-20T13:39:34.000Z</time>
      </trkpt>
      <trkpt lat="46.01179" lon="6.58093">
        <ele>1946</ele>
        <time>2019-02-20T13:39:35.000Z</time>
      </trkpt>
      <trkpt lat="46.01184" lon="6.58092">
        <ele>1945.1999511719</ele>
        <time>2019-02-20T13:39:36.000Z</time>
      </trkpt>
      <trkpt lat="46.01189" lon="6.58091">
        <ele>1944</ele>
        <time>2019-02-20T13:39:37.000Z</time>
      </trkpt>
      <trkpt lat="46.01187" lon="6.58089">
        <ele>1941.4000244141</ele>
        <time>2019-02-20T13:39:40.000Z</time>
      </trkpt>
      <trkpt lat="46.01185" lon="6.5809">
        <ele>1936.5999755859</ele>
        <time>2019-02-20T13:39:51.000Z</time>
      </trkpt>
      <trkpt lat="46.01183" lon="6.5809">
        <ele>1937.200349882</ele>
        <time>2019-02-20T13:40:20.000Z</time>
      </trkpt>
      <trkpt lat="46.01182" lon="6.58085">
        <ele>1937.1999511719</ele>
        <time>2019-02-20T13:40:22.000Z</time>
      </trkpt>
      <trkpt lat="46.01181" lon="6.58081">
        <ele>1937.4000244141</ele>
        <time>2019-02-20T13:40:23.000Z</time>
      </trkpt>
      <trkpt lat="46.01181" lon="6.58075">
        <ele>1937.4000244141</ele>
        <time>2019-02-20T13:40:24.000Z</time>
      </trkpt>
      <trkpt lat="46.01182" lon="6.58067">
        <ele>1937.4000244141</ele>
        <time>2019-02-20T13:40:25.000Z</time>
      </trkpt>
      <trkpt lat="46.01182" lon="6.58058">
        <ele>1937</ele>
        <time>2019-02-20T13:40:26.000Z</time>
      </trkpt>
      <trkpt lat="46.01183" lon="6.58051">
        <ele>1936.5999755859</ele>
        <time>2019-02-20T13:40:27.000Z</time>
      </trkpt>
      <trkpt lat="46.01184" lon="6.58046">
        <ele>1935.8000488281</ele>
        <time>2019-02-20T13:40:28.000Z</time>
      </trkpt>
      <trkpt lat="46.01186" lon="6.58043">
        <ele>1935.5999755859</ele>
        <time>2019-02-20T13:40:29.000Z</time>
      </trkpt>
      <trkpt lat="46.01187" lon="6.5804">
        <ele>1935.1999511719</ele>
        <time>2019-02-20T13:40:30.000Z</time>
      </trkpt>
      <trkpt lat="46.01189" lon="6.58037">
        <ele>1934.5999755859</ele>
        <time>2019-02-20T13:40:31.000Z</time>
      </trkpt>
      <trkpt lat="46.01191" lon="6.58034">
        <ele>1933.8000488281</ele>
        <time>2019-02-20T13:40:32.000Z</time>
      </trkpt>
      <trkpt lat="46.01194" lon="6.5803">
        <ele>1933</ele>
        <time>2019-02-20T13:40:33.000Z</time>
      </trkpt>
      <trkpt lat="46.01197" lon="6.58027">
        <ele>1933.1999511719</ele>
        <time>2019-02-20T13:40:34.000Z</time>
      </trkpt>
      <trkpt lat="46.012" lon="6.58024">
        <ele>1933.4000244141</ele>
        <time>2019-02-20T13:40:35.000Z</time>
      </trkpt>
      <trkpt lat="46.01204" lon="6.5802">
        <ele>1933.1999511719</ele>
        <time>2019-02-20T13:40:36.000Z</time>
      </trkpt>
      <trkpt lat="46.01208" lon="6.58017">
        <ele>1932.8000488281</ele>
        <time>2019-02-20T13:40:37.000Z</time>
      </trkpt>
      <trkpt lat="46.01214" lon="6.58014">
        <ele>1932.4000244141</ele>
        <time>2019-02-20T13:40:38.000Z</time>
      </trkpt>
      <trkpt lat="46.0122" lon="6.58012">
        <ele>1932.1999511719</ele>
        <time>2019-02-20T13:40:39.000Z</time>
      </trkpt>
      <trkpt lat="46.01228" lon="6.58012">
        <ele>1931.5999755859</ele>
        <time>2019-02-20T13:40:40.000Z</time>
      </trkpt>
      <trkpt lat="46.01234" lon="6.58013">
        <ele>1930.5999755859</ele>
        <time>2019-02-20T13:40:41.000Z</time>
      </trkpt>
      <trkpt lat="46.01239" lon="6.58016">
        <ele>1929.8000488281</ele>
        <time>2019-02-20T13:40:42.000Z</time>
      </trkpt>
      <trkpt lat="46.01244" lon="6.58016">
        <ele>1928.1999511719</ele>
        <time>2019-02-20T13:40:43.000Z</time>
      </trkpt>
      <trkpt lat="46.01249" lon="6.58014">
        <ele>1927.1999511719</ele>
        <time>2019-02-20T13:40:44.000Z</time>
      </trkpt>
      <trkpt lat="46.01255" lon="6.58013">
        <ele>1925.8000488281</ele>
        <time>2019-02-20T13:40:45.000Z</time>
      </trkpt>
      <trkpt lat="46.01261" lon="6.58013">
        <ele>1923.8000488281</ele>
        <time>2019-02-20T13:40:46.000Z</time>
      </trkpt>
      <trkpt lat="46.01269" lon="6.58014">
        <ele>1922.1999511719</ele>
        <time>2019-02-20T13:40:47.000Z</time>
      </trkpt>
      <trkpt lat="46.01276" lon="6.58018">
        <ele>1921.1999511719</ele>
        <time>2019-02-20T13:40:48.000Z</time>
      </trkpt>
      <trkpt lat="46.01285" lon="6.58022">
        <ele>1920.1999511719</ele>
        <time>2019-02-20T13:40:49.000Z</time>
      </trkpt>
      <trkpt lat="46.01292" lon="6.58026">
        <ele>1919.1999511719</ele>
        <time>2019-02-20T13:40:50.000Z</time>
      </trkpt>
      <trkpt lat="46.01297" lon="6.58029">
        <ele>1918.5999755859</ele>
        <time>2019-02-20T13:40:51.000Z</time>
      </trkpt>
      <trkpt lat="46.01301" lon="6.5803">
        <ele>1917</ele>
        <time>2019-02-20T13:40:52.000Z</time>
      </trkpt>
      <trkpt lat="46.01304" lon="6.58031">
        <ele>1915.8000488281</ele>
        <time>2019-02-20T13:40:53.000Z</time>
      </trkpt>
      <trkpt lat="46.01307" lon="6.58031">
        <ele>1914</ele>
        <time>2019-02-20T13:40:54.000Z</time>
      </trkpt>
      <trkpt lat="46.01309" lon="6.58031">
        <ele>1912.1999511719</ele>
        <time>2019-02-20T13:40:55.000Z</time>
      </trkpt>
      <trkpt lat="46.01312" lon="6.58032">
        <ele>1911</ele>
        <time>2019-02-20T13:40:56.000Z</time>
      </trkpt>
      <trkpt lat="46.01315" lon="6.58032">
        <ele>1910.1999511719</ele>
        <time>2019-02-20T13:40:57.000Z</time>
      </trkpt>
      <trkpt lat="46.01319" lon="6.58033">
        <ele>1909.8000488281</ele>
        <time>2019-02-20T13:40:58.000Z</time>
      </trkpt>
      <trkpt lat="46.01323" lon="6.58034">
        <ele>1909.4000244141</ele>
        <time>2019-02-20T13:40:59.000Z</time>
      </trkpt>
      <trkpt lat="46.01326" lon="6.58035">
        <ele>1909</ele>
        <time>2019-02-20T13:41:00.000Z</time>
      </trkpt>
      <trkpt lat="46.01331" lon="6.58036">
        <ele>1909.1999511719</ele>
        <time>2019-02-20T13:41:01.000Z</time>
      </trkpt>
      <trkpt lat="46.01335" lon="6.58037">
        <ele>1909</ele>
        <time>2019-02-20T13:41:02.000Z</time>
      </trkpt>
      <trkpt lat="46.0134" lon="6.58038">
        <ele>1908.4000244141</ele>
        <time>2019-02-20T13:41:03.000Z</time>
      </trkpt>
      <trkpt lat="46.01345" lon="6.58039">
        <ele>1908</ele>
        <time>2019-02-20T13:41:04.000Z</time>
      </trkpt>
      <trkpt lat="46.0135" lon="6.5804">
        <ele>1907.4000244141</ele>
        <time>2019-02-20T13:41:05.000Z</time>
      </trkpt>
      <trkpt lat="46.01355" lon="6.58039">
        <ele>1907</ele>
        <time>2019-02-20T13:41:06.000Z</time>
      </trkpt>
      <trkpt lat="46.0136" lon="6.58039">
        <ele>1906.4000244141</ele>
        <time>2019-02-20T13:41:07.000Z</time>
      </trkpt>
      <trkpt lat="46.01365" lon="6.5804">
        <ele>1906</ele>
        <time>2019-02-20T13:41:08.000Z</time>
      </trkpt>
      <trkpt lat="46.0137" lon="6.58041">
        <ele>1905.4000244141</ele>
        <time>2019-02-20T13:41:09.000Z</time>
      </trkpt>
      <trkpt lat="46.01376" lon="6.58043">
        <ele>1905</ele>
        <time>2019-02-20T13:41:10.000Z</time>
      </trkpt>
      <trkpt lat="46.01382" lon="6.58045">
        <ele>1904.4006228322</ele>
        <time>2019-02-20T13:41:11.000Z</time>
      </trkpt>
      <trkpt lat="46.0139" lon="6.58045">
        <ele>1904.1999511719</ele>
        <time>2019-02-20T13:41:12.000Z</time>
      </trkpt>
      <trkpt lat="46.01397" lon="6.58046">
        <ele>1903.5999755859</ele>
        <time>2019-02-20T13:41:13.000Z</time>
      </trkpt>
      <trkpt lat="46.01403" lon="6.58046">
        <ele>1903.1999511719</ele>
        <time>2019-02-20T13:41:14.000Z</time>
      </trkpt>
      <trkpt lat="46.01409" lon="6.58046">
        <ele>1902.5999755859</ele>
        <time>2019-02-20T13:41:15.000Z</time>
      </trkpt>
      <trkpt lat="46.01414" lon="6.58047">
        <ele>1901.8000488281</ele>
        <time>2019-02-20T13:41:16.000Z</time>
      </trkpt>
      <trkpt lat="46.01419" lon="6.58046">
        <ele>1900.8000488281</ele>
        <time>2019-02-20T13:41:17.000Z</time>
      </trkpt>
      <trkpt lat="46.01424" lon="6.58044">
        <ele>1899.5999755859</ele>
        <time>2019-02-20T13:41:18.000Z</time>
      </trkpt>
      <trkpt lat="46.0143" lon="6.58041">
        <ele>1898.5999755859</ele>
        <time>2019-02-20T13:41:19.000Z</time>
      </trkpt>
      <trkpt lat="46.01436" lon="6.58038">
        <ele>1898.1999511719</ele>
        <time>2019-02-20T13:41:20.000Z</time>
      </trkpt>
      <trkpt lat="46.01442" lon="6.58035">
        <ele>1897.5999755859</ele>
        <time>2019-02-20T13:41:21.000Z</time>
      </trkpt>
      <trkpt lat="46.01447" lon="6.58031">
        <ele>1897</ele>
        <time>2019-02-20T13:41:22.000Z</time>
      </trkpt>
      <trkpt lat="46.01453" lon="6.58028">
        <ele>1896.5999755859</ele>
        <time>2019-02-20T13:41:23.000Z</time>
      </trkpt>
      <trkpt lat="46.0146" lon="6.58026">
        <ele>1896</ele>
        <time>2019-02-20T13:41:24.000Z</time>
      </trkpt>
      <trkpt lat="46.01467" lon="6.58025">
        <ele>1895</ele>
        <time>2019-02-20T13:41:25.000Z</time>
      </trkpt>
      <trkpt lat="46.01473" lon="6.58026">
        <ele>1894</ele>
        <time>2019-02-20T13:41:26.000Z</time>
      </trkpt>
      <trkpt lat="46.0148" lon="6.58028">
        <ele>1893.4000244141</ele>
        <time>2019-02-20T13:41:27.000Z</time>
      </trkpt>
      <trkpt lat="46.01484" lon="6.58031">
        <ele>1891.4000244141</ele>
        <time>2019-02-20T13:41:28.000Z</time>
      </trkpt>
      <trkpt lat="46.01486" lon="6.58033">
        <ele>1890</ele>
        <time>2019-02-20T13:41:29.000Z</time>
      </trkpt>
      <trkpt lat="46.01489" lon="6.58034">
        <ele>1888.8000488281</ele>
        <time>2019-02-20T13:41:30.000Z</time>
      </trkpt>
      <trkpt lat="46.01491" lon="6.58034">
        <ele>1887.4000244141</ele>
        <time>2019-02-20T13:41:31.000Z</time>
      </trkpt>
      <trkpt lat="46.01494" lon="6.58035">
        <ele>1886.4000244141</ele>
        <time>2019-02-20T13:41:32.000Z</time>
      </trkpt>
      <trkpt lat="46.01497" lon="6.58036">
        <ele>1885.1999511719</ele>
        <time>2019-02-20T13:41:33.000Z</time>
      </trkpt>
      <trkpt lat="46.015" lon="6.58037">
        <ele>1884.5999755859</ele>
        <time>2019-02-20T13:41:34.000Z</time>
      </trkpt>
      <trkpt lat="46.01504" lon="6.58038">
        <ele>1884.4000244141</ele>
        <time>2019-02-20T13:41:35.000Z</time>
      </trkpt>
      <trkpt lat="46.01507" lon="6.58039">
        <ele>1884</ele>
        <time>2019-02-20T13:41:36.000Z</time>
      </trkpt>
      <trkpt lat="46.01511" lon="6.5804">
        <ele>1883.5999755859</ele>
        <time>2019-02-20T13:41:37.000Z</time>
      </trkpt>
      <trkpt lat="46.01513" lon="6.58041">
        <ele>1883.1999511719</ele>
        <time>2019-02-20T13:41:38.000Z</time>
      </trkpt>
      <trkpt lat="46.01515" lon="6.58043">
        <ele>1882.8000488281</ele>
        <time>2019-02-20T13:41:40.000Z</time>
      </trkpt>
      <trkpt lat="46.01515" lon="6.58046">
        <ele>1881</ele>
        <time>2019-02-20T13:42:00.000Z</time>
      </trkpt>
      <trkpt lat="46.01516" lon="6.58048">
        <ele>1880</ele>
        <time>2019-02-20T13:42:30.000Z</time>
      </trkpt>
      <trkpt lat="46.01519" lon="6.58049">
        <ele>1880</ele>
        <time>2019-02-20T13:42:32.000Z</time>
      </trkpt>
      <trkpt lat="46.01522" lon="6.5805">
        <ele>1880</ele>
        <time>2019-02-20T13:42:33.000Z</time>
      </trkpt>
      <trkpt lat="46.01525" lon="6.58051">
        <ele>1879.8000488281</ele>
        <time>2019-02-20T13:42:34.000Z</time>
      </trkpt>
      <trkpt lat="46.0153" lon="6.58053">
        <ele>1879.5999755859</ele>
        <time>2019-02-20T13:42:35.000Z</time>
      </trkpt>
      <trkpt lat="46.01535" lon="6.58055">
        <ele>1879.5999755859</ele>
        <time>2019-02-20T13:42:36.000Z</time>
      </trkpt>
      <trkpt lat="46.0154" lon="6.58057">
        <ele>1879.4000244141</ele>
        <time>2019-02-20T13:42:37.000Z</time>
      </trkpt>
      <trkpt lat="46.01545" lon="6.5806">
        <ele>1879.1999511719</ele>
        <time>2019-02-20T13:42:38.000Z</time>
      </trkpt>
      <trkpt lat="46.01551" lon="6.58062">
        <ele>1879.1999511719</ele>
        <time>2019-02-20T13:42:39.000Z</time>
      </trkpt>
      <trkpt lat="46.01557" lon="6.58066">
        <ele>1878.8000488281</ele>
        <time>2019-02-20T13:42:40.000Z</time>
      </trkpt>
      <trkpt lat="46.01562" lon="6.58071">
        <ele>1878.4000244141</ele>
        <time>2019-02-20T13:42:41.000Z</time>
      </trkpt>
      <trkpt lat="46.01568" lon="6.58076">
        <ele>1877.8000488281</ele>
        <time>2019-02-20T13:42:42.000Z</time>
      </trkpt>
      <trkpt lat="46.01573" lon="6.58081">
        <ele>1877.4000244141</ele>
        <time>2019-02-20T13:42:43.000Z</time>
      </trkpt>
      <trkpt lat="46.01577" lon="6.58085">
        <ele>1876.5999755859</ele>
        <time>2019-02-20T13:42:44.000Z</time>
      </trkpt>
      <trkpt lat="46.01581" lon="6.58088">
        <ele>1875.8000488281</ele>
        <time>2019-02-20T13:42:45.000Z</time>
      </trkpt>
      <trkpt lat="46.01583" lon="6.5809">
        <ele>1875.1999511719</ele>
        <time>2019-02-20T13:42:46.000Z</time>
      </trkpt>
      <trkpt lat="46.01587" lon="6.58089">
        <ele>1874.5999755859</ele>
        <time>2019-02-20T13:42:47.000Z</time>
      </trkpt>
      <trkpt lat="46.01591" lon="6.58087">
        <ele>1874.1999511719</ele>
        <time>2019-02-20T13:42:48.000Z</time>
      </trkpt>
      <trkpt lat="46.01597" lon="6.58084">
        <ele>1873.4000244141</ele>
        <time>2019-02-20T13:42:49.000Z</time>
      </trkpt>
      <trkpt lat="46.01603" lon="6.58083">
        <ele>1873.1999511719</ele>
        <time>2019-02-20T13:42:50.000Z</time>
      </trkpt>
      <trkpt lat="46.0161" lon="6.58083">
        <ele>1872.8000488281</ele>
        <time>2019-02-20T13:42:51.000Z</time>
      </trkpt>
      <trkpt lat="46.01617" lon="6.58084">
        <ele>1872.5999755859</ele>
        <time>2019-02-20T13:42:52.000Z</time>
      </trkpt>
      <trkpt lat="46.01623" lon="6.58085">
        <ele>1872.2003501579</ele>
        <time>2019-02-20T13:42:53.000Z</time>
      </trkpt>
      <trkpt lat="46.0163" lon="6.58087">
        <ele>1871.1999511719</ele>
        <time>2019-02-20T13:42:54.000Z</time>
      </trkpt>
      <trkpt lat="46.01636" lon="6.58088">
        <ele>1870.1999511719</ele>
        <time>2019-02-20T13:42:55.000Z</time>
      </trkpt>
      <trkpt lat="46.01642" lon="6.5809">
        <ele>1869.5999755859</ele>
        <time>2019-02-20T13:42:56.000Z</time>
      </trkpt>
      <trkpt lat="46.01648" lon="6.58092">
        <ele>1868.1999511719</ele>
        <time>2019-02-20T13:42:57.000Z</time>
      </trkpt>
      <trkpt lat="46.01653" lon="6.58091">
        <ele>1867.1999511719</ele>
        <time>2019-02-20T13:42:58.000Z</time>
      </trkpt>
      <trkpt lat="46.01658" lon="6.58091">
        <ele>1866.1999511719</ele>
        <time>2019-02-20T13:42:59.000Z</time>
      </trkpt>
      <trkpt lat="46.01663" lon="6.58092">
        <ele>1865.1999511719</ele>
        <time>2019-02-20T13:43:00.000Z</time>
      </trkpt>
      <trkpt lat="46.01666" lon="6.58091">
        <ele>1864</ele>
        <time>2019-02-20T13:43:01.000Z</time>
      </trkpt>
      <trkpt lat="46.01669" lon="6.58088">
        <ele>1863.1999511719</ele>
        <time>2019-02-20T13:43:02.000Z</time>
      </trkpt>
      <trkpt lat="46.01673" lon="6.58086">
        <ele>1862.8000488281</ele>
        <time>2019-02-20T13:43:03.000Z</time>
      </trkpt>
      <trkpt lat="46.01678" lon="6.58086">
        <ele>1861.8000488281</ele>
        <time>2019-02-20T13:43:04.000Z</time>
      </trkpt>
      <trkpt lat="46.01681" lon="6.58084">
        <ele>1861.1999511719</ele>
        <time>2019-02-20T13:43:05.000Z</time>
      </trkpt>
      <trkpt lat="46.01682" lon="6.5808">
        <ele>1860.8000488281</ele>
        <time>2019-02-20T13:43:06.000Z</time>
      </trkpt>
      <trkpt lat="46.0168" lon="6.58074">
        <ele>1859.8000488281</ele>
        <time>2019-02-20T13:43:07.000Z</time>
      </trkpt>
      <trkpt lat="46.01676" lon="6.58069">
        <ele>1858.4000244141</ele>
        <time>2019-02-20T13:43:08.000Z</time>
      </trkpt>
      <trkpt lat="46.01674" lon="6.58062">
        <ele>1857.1999511719</ele>
        <time>2019-02-20T13:43:09.000Z</time>
      </trkpt>
      <trkpt lat="46.01675" lon="6.58054">
        <ele>1856.5999755859</ele>
        <time>2019-02-20T13:43:10.000Z</time>
      </trkpt>
      <trkpt lat="46.0168" lon="6.58048">
        <ele>1855.5999755859</ele>
        <time>2019-02-20T13:43:11.000Z</time>
      </trkpt>
      <trkpt lat="46.01686" lon="6.58044">
        <ele>1854.4000244141</ele>
        <time>2019-02-20T13:43:12.000Z</time>
      </trkpt>
      <trkpt lat="46.01693" lon="6.58043">
        <ele>1853.4000244141</ele>
        <time>2019-02-20T13:43:13.000Z</time>
      </trkpt>
      <trkpt lat="46.01698" lon="6.58046">
        <ele>1852.1999511719</ele>
        <time>2019-02-20T13:43:14.000Z</time>
      </trkpt>
      <trkpt lat="46.01702" lon="6.58051">
        <ele>1851</ele>
        <time>2019-02-20T13:43:15.000Z</time>
      </trkpt>
      <trkpt lat="46.01706" lon="6.58056">
        <ele>1849.1999511719</ele>
        <time>2019-02-20T13:43:16.000Z</time>
      </trkpt>
      <trkpt lat="46.01709" lon="6.58058">
        <ele>1847</ele>
        <time>2019-02-20T13:43:17.000Z</time>
      </trkpt>
      <trkpt lat="46.0171" lon="6.58055">
        <ele>1842.5999755859</ele>
        <time>2019-02-20T13:43:19.000Z</time>
      </trkpt>
      <trkpt lat="46.01709" lon="6.58057">
        <ele>1838.5999755859</ele>
        <time>2019-02-20T13:43:22.000Z</time>
      </trkpt>
      <trkpt lat="46.01711" lon="6.58053">
        <ele>1834.4000244141</ele>
        <time>2019-02-20T13:43:35.000Z</time>
      </trkpt>
      <trkpt lat="46.01714" lon="6.58049">
        <ele>1834.5999755859</ele>
        <time>2019-02-20T13:43:36.000Z</time>
      </trkpt>
      <trkpt lat="46.01717" lon="6.58044">
        <ele>1834.5999755859</ele>
        <time>2019-02-20T13:43:37.000Z</time>
      </trkpt>
      <trkpt lat="46.0172" lon="6.58041">
        <ele>1834.5999755859</ele>
        <time>2019-02-20T13:43:38.000Z</time>
      </trkpt>
      <trkpt lat="46.01725" lon="6.58039">
        <ele>1834.4000244141</ele>
        <time>2019-02-20T13:43:39.000Z</time>
      </trkpt>
      <trkpt lat="46.01728" lon="6.58035">
        <ele>1834.4000244141</ele>
        <time>2019-02-20T13:43:40.000Z</time>
      </trkpt>
      <trkpt lat="46.01733" lon="6.58033">
        <ele>1834</ele>
        <time>2019-02-20T13:43:41.000Z</time>
      </trkpt>
      <trkpt lat="46.01738" lon="6.58032">
        <ele>1833.5999755859</ele>
        <time>2019-02-20T13:43:42.000Z</time>
      </trkpt>
      <trkpt lat="46.01744" lon="6.58033">
        <ele>1832.5999755859</ele>
        <time>2019-02-20T13:43:43.000Z</time>
      </trkpt>
      <trkpt lat="46.0175" lon="6.58038">
        <ele>1831.0015958224</ele>
        <time>2019-02-20T13:43:44.000Z</time>
      </trkpt>
      <trkpt lat="46.01755" lon="6.58041">
        <ele>1829.5999755859</ele>
        <time>2019-02-20T13:43:45.000Z</time>
      </trkpt>
      <trkpt lat="46.01759" lon="6.58041">
        <ele>1828.4000244141</ele>
        <time>2019-02-20T13:43:46.000Z</time>
      </trkpt>
      <trkpt lat="46.01761" lon="6.58038">
        <ele>1826.8000488281</ele>
        <time>2019-02-20T13:43:47.000Z</time>
      </trkpt>
      <trkpt lat="46.01762" lon="6.58034">
        <ele>1825.4000244141</ele>
        <time>2019-02-20T13:43:48.000Z</time>
      </trkpt>
      <trkpt lat="46.01761" lon="6.58029">
        <ele>1823.4000244141</ele>
        <time>2019-02-20T13:43:49.000Z</time>
      </trkpt>
      <trkpt lat="46.01759" lon="6.58025">
        <ele>1821.1999511719</ele>
        <time>2019-02-20T13:43:50.000Z</time>
      </trkpt>
      <trkpt lat="46.01761" lon="6.58026">
        <ele>1816.5999755859</ele>
        <time>2019-02-20T13:43:54.000Z</time>
      </trkpt>
      <trkpt lat="46.01763" lon="6.58027">
        <ele>1813.8000488281</ele>
        <time>2019-02-20T13:43:58.000Z</time>
      </trkpt>
      <trkpt lat="46.01763" lon="6.5803">
        <ele>1813</ele>
        <time>2019-02-20T13:44:00.000Z</time>
      </trkpt>
      <trkpt lat="46.01765" lon="6.5803">
        <ele>1813</ele>
        <time>2019-02-20T13:44:50.000Z</time>
      </trkpt>
      <trkpt lat="46.01767" lon="6.58031">
        <ele>1813.1999511719</ele>
        <time>2019-02-20T13:44:51.000Z</time>
      </trkpt>
      <trkpt lat="46.0177" lon="6.58031">
        <ele>1813.1999511719</ele>
        <time>2019-02-20T13:44:52.000Z</time>
      </trkpt>
      <trkpt lat="46.01774" lon="6.58032">
        <ele>1812.8000488281</ele>
        <time>2019-02-20T13:44:53.000Z</time>
      </trkpt>
      <trkpt lat="46.0178" lon="6.58035">
        <ele>1812.5999755859</ele>
        <time>2019-02-20T13:44:54.000Z</time>
      </trkpt>
      <trkpt lat="46.01785" lon="6.58038">
        <ele>1812.4000244141</ele>
        <time>2019-02-20T13:44:55.000Z</time>
      </trkpt>
      <trkpt lat="46.01792" lon="6.58042">
        <ele>1812.4000244141</ele>
        <time>2019-02-20T13:44:56.000Z</time>
      </trkpt>
      <trkpt lat="46.018" lon="6.58045">
        <ele>1812.1999511719</ele>
        <time>2019-02-20T13:44:57.000Z</time>
      </trkpt>
      <trkpt lat="46.01806" lon="6.58049">
        <ele>1811.8000488281</ele>
        <time>2019-02-20T13:44:58.000Z</time>
      </trkpt>
      <trkpt lat="46.0181" lon="6.58052">
        <ele>1811.1999511719</ele>
        <time>2019-02-20T13:44:59.000Z</time>
      </trkpt>
      <trkpt lat="46.01815" lon="6.58055">
        <ele>1810.5999755859</ele>
        <time>2019-02-20T13:45:00.000Z</time>
      </trkpt>
      <trkpt lat="46.0182" lon="6.58058">
        <ele>1809.5999755859</ele>
        <time>2019-02-20T13:45:01.000Z</time>
      </trkpt>
      <trkpt lat="46.01826" lon="6.58061">
        <ele>1808.8000488281</ele>
        <time>2019-02-20T13:45:02.000Z</time>
      </trkpt>
      <trkpt lat="46.01831" lon="6.58065">
        <ele>1807.1999511719</ele>
        <time>2019-02-20T13:45:03.000Z</time>
      </trkpt>
      <trkpt lat="46.01836" lon="6.58069">
        <ele>1806.1999511719</ele>
        <time>2019-02-20T13:45:04.000Z</time>
      </trkpt>
      <trkpt lat="46.0184" lon="6.58073">
        <ele>1805.1999511719</ele>
        <time>2019-02-20T13:45:05.000Z</time>
      </trkpt>
      <trkpt lat="46.01845" lon="6.58077">
        <ele>1804.5999755859</ele>
        <time>2019-02-20T13:45:06.000Z</time>
      </trkpt>
      <trkpt lat="46.01848" lon="6.58081">
        <ele>1803.8000488281</ele>
        <time>2019-02-20T13:45:07.000Z</time>
      </trkpt>
      <trkpt lat="46.01852" lon="6.58087">
        <ele>1802.5999755859</ele>
        <time>2019-02-20T13:45:08.000Z</time>
      </trkpt>
      <trkpt lat="46.01855" lon="6.58093">
        <ele>1801.5999755859</ele>
        <time>2019-02-20T13:45:09.000Z</time>
      </trkpt>
      <trkpt lat="46.01859" lon="6.58097">
        <ele>1801</ele>
        <time>2019-02-20T13:45:10.000Z</time>
      </trkpt>
      <trkpt lat="46.01865" lon="6.58099">
        <ele>1800.1999511719</ele>
        <time>2019-02-20T13:45:11.000Z</time>
      </trkpt>
      <trkpt lat="46.0187" lon="6.58099">
        <ele>1799.4000244141</ele>
        <time>2019-02-20T13:45:12.000Z</time>
      </trkpt>
      <trkpt lat="46.01872" lon="6.58098">
        <ele>1798.5999755859</ele>
        <time>2019-02-20T13:45:13.000Z</time>
      </trkpt>
      <trkpt lat="46.01874" lon="6.58096">
        <ele>1797.4000244141</ele>
        <time>2019-02-20T13:45:14.000Z</time>
      </trkpt>
      <trkpt lat="46.01877" lon="6.58093">
        <ele>1796.8000488281</ele>
        <time>2019-02-20T13:45:15.000Z</time>
      </trkpt>
      <trkpt lat="46.0188" lon="6.58091">
        <ele>1795.8000488281</ele>
        <time>2019-02-20T13:45:16.000Z</time>
      </trkpt>
      <trkpt lat="46.01884" lon="6.58088">
        <ele>1794.4000244141</ele>
        <time>2019-02-20T13:45:17.000Z</time>
      </trkpt>
      <trkpt lat="46.01888" lon="6.58085">
        <ele>1794.4000244141</ele>
        <time>2019-02-20T13:45:18.000Z</time>
      </trkpt>
      <trkpt lat="46.01894" lon="6.58082">
        <ele>1793.5999755859</ele>
        <time>2019-02-20T13:45:19.000Z</time>
      </trkpt>
      <trkpt lat="46.01899" lon="6.5808">
        <ele>1792.4000244141</ele>
        <time>2019-02-20T13:45:20.000Z</time>
      </trkpt>
      <trkpt lat="46.01904" lon="6.58078">
        <ele>1791.4000244141</ele>
        <time>2019-02-20T13:45:21.000Z</time>
      </trkpt>
      <trkpt lat="46.01909" lon="6.58077">
        <ele>1791</ele>
        <time>2019-02-20T13:45:22.000Z</time>
      </trkpt>
      <trkpt lat="46.01912" lon="6.58076">
        <ele>1790.4000244141</ele>
        <time>2019-02-20T13:45:23.000Z</time>
      </trkpt>
      <trkpt lat="46.01912" lon="6.58079">
        <ele>1784.1999511719</ele>
        <time>2019-02-20T13:45:35.000Z</time>
      </trkpt>
      <trkpt lat="46.01915" lon="6.58081">
        <ele>1784</ele>
        <time>2019-02-20T13:45:38.000Z</time>
      </trkpt>
      <trkpt lat="46.01917" lon="6.58083">
        <ele>1784</ele>
        <time>2019-02-20T13:45:39.000Z</time>
      </trkpt>
      <trkpt lat="46.01918" lon="6.58084">
        <ele>1784.1999511719</ele>
        <time>2019-02-20T13:45:40.000Z</time>
      </trkpt>
      <trkpt lat="46.01921" lon="6.58086">
        <ele>1784</ele>
        <time>2019-02-20T13:45:41.000Z</time>
      </trkpt>
      <trkpt lat="46.01923" lon="6.58087">
        <ele>1783.8000488281</ele>
        <time>2019-02-20T13:45:42.000Z</time>
      </trkpt>
      <trkpt lat="46.01925" lon="6.58089">
        <ele>1783.4000244141</ele>
        <time>2019-02-20T13:45:43.000Z</time>
      </trkpt>
      <trkpt lat="46.01927" lon="6.58089">
        <ele>1783.1999511719</ele>
        <time>2019-02-20T13:45:44.000Z</time>
      </trkpt>
      <trkpt lat="46.0193" lon="6.58091">
        <ele>1783</ele>
        <time>2019-02-20T13:45:45.000Z</time>
      </trkpt>
      <trkpt lat="46.01933" lon="6.58091">
        <ele>1783</ele>
        <time>2019-02-20T13:45:46.000Z</time>
      </trkpt>
      <trkpt lat="46.01936" lon="6.58092">
        <ele>1782.8000488281</ele>
        <time>2019-02-20T13:45:47.000Z</time>
      </trkpt>
      <trkpt lat="46.01938" lon="6.58094">
        <ele>1782.4000244141</ele>
        <time>2019-02-20T13:45:48.000Z</time>
      </trkpt>
      <trkpt lat="46.01941" lon="6.58096">
        <ele>1782.4000244141</ele>
        <time>2019-02-20T13:45:49.000Z</time>
      </trkpt>
      <trkpt lat="46.01943" lon="6.58098">
        <ele>1782.1999511719</ele>
        <time>2019-02-20T13:45:50.000Z</time>
      </trkpt>
      <trkpt lat="46.01943" lon="6.58101">
        <ele>1780.8000488281</ele>
        <time>2019-02-20T13:45:55.000Z</time>
      </trkpt>
      <trkpt lat="46.01945" lon="6.58102">
        <ele>1780.5999755859</ele>
        <time>2019-02-20T13:46:04.000Z</time>
      </trkpt>
      <trkpt lat="46.01947" lon="6.58105">
        <ele>1780.4000244141</ele>
        <time>2019-02-20T13:46:05.000Z</time>
      </trkpt>
      <trkpt lat="46.01949" lon="6.58108">
        <ele>1780.4000244141</ele>
        <time>2019-02-20T13:46:06.000Z</time>
      </trkpt>
      <trkpt lat="46.01949" lon="6.58113">
        <ele>1780.4000244141</ele>
        <time>2019-02-20T13:46:07.000Z</time>
      </trkpt>
      <trkpt lat="46.01951" lon="6.58119">
        <ele>1780.200349882</ele>
        <time>2019-02-20T13:46:08.000Z</time>
      </trkpt>
      <trkpt lat="46.01953" lon="6.58124">
        <ele>1780.1999511719</ele>
        <time>2019-02-20T13:46:09.000Z</time>
      </trkpt>
      <trkpt lat="46.01956" lon="6.58129">
        <ele>1780</ele>
        <time>2019-02-20T13:46:10.000Z</time>
      </trkpt>
      <trkpt lat="46.01957" lon="6.58135">
        <ele>1779.5999755859</ele>
        <time>2019-02-20T13:46:11.000Z</time>
      </trkpt>
      <trkpt lat="46.01958" lon="6.58141">
        <ele>1779.1999511719</ele>
        <time>2019-02-20T13:46:12.000Z</time>
      </trkpt>
      <trkpt lat="46.01957" lon="6.58146">
        <ele>1778.5999755859</ele>
        <time>2019-02-20T13:46:13.000Z</time>
      </trkpt>
      <trkpt lat="46.01955" lon="6.5815">
        <ele>1778.4000244141</ele>
        <time>2019-02-20T13:46:14.000Z</time>
      </trkpt>
      <trkpt lat="46.01952" lon="6.58153">
        <ele>1778</ele>
        <time>2019-02-20T13:46:15.000Z</time>
      </trkpt>
      <trkpt lat="46.01948" lon="6.58157">
        <ele>1777.4000244141</ele>
        <time>2019-02-20T13:46:16.000Z</time>
      </trkpt>
      <trkpt lat="46.01943" lon="6.58162">
        <ele>1777.000797177</ele>
        <time>2019-02-20T13:46:17.000Z</time>
      </trkpt>
      <trkpt lat="46.01937" lon="6.58167">
        <ele>1776.4000244141</ele>
        <time>2019-02-20T13:46:18.000Z</time>
      </trkpt>
      <trkpt lat="46.01933" lon="6.58172">
        <ele>1776.1999511719</ele>
        <time>2019-02-20T13:46:19.000Z</time>
      </trkpt>
      <trkpt lat="46.01929" lon="6.58177">
        <ele>1776</ele>
        <time>2019-02-20T13:46:20.000Z</time>
      </trkpt>
      <trkpt lat="46.01927" lon="6.58181">
        <ele>1775.4000244141</ele>
        <time>2019-02-20T13:46:21.000Z</time>
      </trkpt>
      <trkpt lat="46.01925" lon="6.58184">
        <ele>1775.1999511719</ele>
        <time>2019-02-20T13:46:22.000Z</time>
      </trkpt>
      <trkpt lat="46.01925" lon="6.58188">
        <ele>1774.5999755859</ele>
        <time>2019-02-20T13:46:23.000Z</time>
      </trkpt>
      <trkpt lat="46.01928" lon="6.58187">
        <ele>1773.4000244141</ele>
        <time>2019-02-20T13:46:26.000Z</time>
      </trkpt>
      <trkpt lat="46.01931" lon="6.58187">
        <ele>1770.4000244141</ele>
        <time>2019-02-20T13:46:45.000Z</time>
      </trkpt>
      <trkpt lat="46.01934" lon="6.58189">
        <ele>1770.4000244141</ele>
        <time>2019-02-20T13:46:47.000Z</time>
      </trkpt>
      <trkpt lat="46.01935" lon="6.58194">
        <ele>1770.5999755859</ele>
        <time>2019-02-20T13:46:49.000Z</time>
      </trkpt>
      <trkpt lat="46.01935" lon="6.58199">
        <ele>1770.5999755859</ele>
        <time>2019-02-20T13:46:50.000Z</time>
      </trkpt>
      <trkpt lat="46.01935" lon="6.58202">
        <ele>1769.8000488281</ele>
        <time>2019-02-20T13:46:52.000Z</time>
      </trkpt>
      <trkpt lat="46.01933" lon="6.58201">
        <ele>1764.4000244141</ele>
        <time>2019-02-20T13:47:01.000Z</time>
      </trkpt>
      <trkpt lat="46.01931" lon="6.582">
        <ele>1762.8000488281</ele>
        <time>2019-02-20T13:47:18.000Z</time>
      </trkpt>
      <trkpt lat="46.01933" lon="6.58197">
        <ele>1762.8000488281</ele>
        <time>2019-02-20T13:47:40.000Z</time>
      </trkpt>
      <trkpt lat="46.01935" lon="6.58196">
        <ele>1762.8000488281</ele>
        <time>2019-02-20T13:47:41.000Z</time>
      </trkpt>
      <trkpt lat="46.0194" lon="6.58198">
        <ele>1762.8000488281</ele>
        <time>2019-02-20T13:47:43.000Z</time>
      </trkpt>
      <trkpt lat="46.01942" lon="6.58199">
        <ele>1762.5999755859</ele>
        <time>2019-02-20T13:47:44.000Z</time>
      </trkpt>
      <trkpt lat="46.01946" lon="6.58204">
        <ele>1761.8000488281</ele>
        <time>2019-02-20T13:47:47.000Z</time>
      </trkpt>
      <trkpt lat="46.01945" lon="6.58209">
        <ele>1761.5999755859</ele>
        <time>2019-02-20T13:47:48.000Z</time>
      </trkpt>
      <trkpt lat="46.01943" lon="6.58217">
        <ele>1761.8000488281</ele>
        <time>2019-02-20T13:47:49.000Z</time>
      </trkpt>
      <trkpt lat="46.0194" lon="6.58223">
        <ele>1761.8000488281</ele>
        <time>2019-02-20T13:47:50.000Z</time>
      </trkpt>
      <trkpt lat="46.01937" lon="6.58232">
        <ele>1761.4000244141</ele>
        <time>2019-02-20T13:47:52.000Z</time>
      </trkpt>
      <trkpt lat="46.01937" lon="6.58237">
        <ele>1761</ele>
        <time>2019-02-20T13:47:54.000Z</time>
      </trkpt>
      <trkpt lat="46.01935" lon="6.58239">
        <ele>1760</ele>
        <time>2019-02-20T13:47:55.000Z</time>
      </trkpt>
      <trkpt lat="46.01935" lon="6.58242">
        <ele>1759.5999755859</ele>
        <time>2019-02-20T13:47:56.000Z</time>
      </trkpt>
      <trkpt lat="46.01935" lon="6.58244">
        <ele>1758.5999755859</ele>
        <time>2019-02-20T13:47:58.000Z</time>
      </trkpt>
      <trkpt lat="46.01937" lon="6.58251">
        <ele>1757.5999755859</ele>
        <time>2019-02-20T13:48:01.000Z</time>
      </trkpt>
      <trkpt lat="46.01938" lon="6.58254">
        <ele>1757.1999511719</ele>
        <time>2019-02-20T13:48:02.000Z</time>
      </trkpt>
      <trkpt lat="46.01938" lon="6.58257">
        <ele>1757</ele>
        <time>2019-02-20T13:48:03.000Z</time>
      </trkpt>
      <trkpt lat="46.01938" lon="6.58269">
        <ele>1755.5999755859</ele>
        <time>2019-02-20T13:48:07.000Z</time>
      </trkpt>
      <trkpt lat="46.01938" lon="6.58273">
        <ele>1755.1999511719</ele>
        <time>2019-02-20T13:48:08.000Z</time>
      </trkpt>
      <trkpt lat="46.01938" lon="6.58279">
        <ele>1754.8000488281</ele>
        <time>2019-02-20T13:48:09.000Z</time>
      </trkpt>
      <trkpt lat="46.01939" lon="6.58286">
        <ele>1754.5999755859</ele>
        <time>2019-02-20T13:48:10.000Z</time>
      </trkpt>
      <trkpt lat="46.01942" lon="6.58301">
        <ele>1753.8000488281</ele>
        <time>2019-02-20T13:48:12.000Z</time>
      </trkpt>
      <trkpt lat="46.01948" lon="6.58313">
        <ele>1753.8000488281</ele>
        <time>2019-02-20T13:48:14.000Z</time>
      </trkpt>
      <trkpt lat="46.01957" lon="6.58322">
        <ele>1752.8000488281</ele>
        <time>2019-02-20T13:48:16.000Z</time>
      </trkpt>
      <trkpt lat="46.01967" lon="6.58329">
        <ele>1752</ele>
        <time>2019-02-20T13:48:18.000Z</time>
      </trkpt>
      <trkpt lat="46.01971" lon="6.58327">
        <ele>1751.1999511719</ele>
        <time>2019-02-20T13:48:20.000Z</time>
      </trkpt>
      <trkpt lat="46.01971" lon="6.58324">
        <ele>1749.5999755859</ele>
        <time>2019-02-20T13:48:25.000Z</time>
      </trkpt>
      <trkpt lat="46.01971" lon="6.58321">
        <ele>1749.8000488281</ele>
        <time>2019-02-20T13:48:36.000Z</time>
      </trkpt>
      <trkpt lat="46.01974" lon="6.58322">
        <ele>1750</ele>
        <time>2019-02-20T13:48:39.000Z</time>
      </trkpt>
      <trkpt lat="46.01977" lon="6.58323">
        <ele>1750.1999511719</ele>
        <time>2019-02-20T13:48:40.000Z</time>
      </trkpt>
      <trkpt lat="46.01979" lon="6.58323">
        <ele>1750.4000244141</ele>
        <time>2019-02-20T13:48:41.000Z</time>
      </trkpt>
      <trkpt lat="46.01982" lon="6.58324">
        <ele>1750.1999511719</ele>
        <time>2019-02-20T13:48:42.000Z</time>
      </trkpt>
      <trkpt lat="46.0199" lon="6.58324">
        <ele>1749.5999755859</ele>
        <time>2019-02-20T13:48:44.000Z</time>
      </trkpt>
      <trkpt lat="46.01994" lon="6.58323">
        <ele>1749.5999755859</ele>
        <time>2019-02-20T13:48:45.000Z</time>
      </trkpt>
      <trkpt lat="46.01999" lon="6.58323">
        <ele>1749.5999755859</ele>
        <time>2019-02-20T13:48:46.000Z</time>
      </trkpt>
      <trkpt lat="46.02009" lon="6.58326">
        <ele>1748.8000488281</ele>
        <time>2019-02-20T13:48:48.000Z</time>
      </trkpt>
      <trkpt lat="46.02013" lon="6.58311">
        <ele>1746.4000244141</ele>
        <time>2019-02-20T13:48:52.000Z</time>
      </trkpt>
      <trkpt lat="46.02002" lon="6.58299">
        <ele>1744.4000244141</ele>
        <time>2019-02-20T13:48:55.000Z</time>
      </trkpt>
      <trkpt lat="46.01996" lon="6.58297">
        <ele>1743.5999755859</ele>
        <time>2019-02-20T13:48:56.000Z</time>
      </trkpt>
      <trkpt lat="46.01992" lon="6.58295">
        <ele>1742.8000488281</ele>
        <time>2019-02-20T13:48:57.000Z</time>
      </trkpt>
      <trkpt lat="46.01988" lon="6.58292">
        <ele>1742</ele>
        <time>2019-02-20T13:48:58.000Z</time>
      </trkpt>
      <trkpt lat="46.01985" lon="6.58289">
        <ele>1740.8000488281</ele>
        <time>2019-02-20T13:48:59.000Z</time>
      </trkpt>
      <trkpt lat="46.01985" lon="6.58286">
        <ele>1739.8000488281</ele>
        <time>2019-02-20T13:49:00.000Z</time>
      </trkpt>
      <trkpt lat="46.01984" lon="6.58282">
        <ele>1739.1999511719</ele>
        <time>2019-02-20T13:49:01.000Z</time>
      </trkpt>
      <trkpt lat="46.01981" lon="6.58273">
        <ele>1737.8000488281</ele>
        <time>2019-02-20T13:49:03.000Z</time>
      </trkpt>
      <trkpt lat="46.01979" lon="6.58266">
        <ele>1737.1999511719</ele>
        <time>2019-02-20T13:49:04.000Z</time>
      </trkpt>
      <trkpt lat="46.01978" lon="6.58258">
        <ele>1732.8000488281</ele>
        <time>2019-02-20T13:49:15.000Z</time>
      </trkpt>
      <trkpt lat="46.01985" lon="6.58248">
        <ele>1731.5999755859</ele>
        <time>2019-02-20T13:49:39.000Z</time>
      </trkpt>
      <trkpt lat="46.0199" lon="6.58255">
        <ele>1731.8000488281</ele>
        <time>2019-02-20T13:49:48.000Z</time>
      </trkpt>
      <trkpt lat="46.0199" lon="6.58258">
        <ele>1731.5999755859</ele>
        <time>2019-02-20T13:49:49.000Z</time>
      </trkpt>
      <trkpt lat="46.0199" lon="6.58262">
        <ele>1731.1999511719</ele>
        <time>2019-02-20T13:49:52.000Z</time>
      </trkpt>
      <trkpt lat="46.01992" lon="6.58264">
        <ele>1730.1999511719</ele>
        <time>2019-02-20T13:49:54.000Z</time>
      </trkpt>
      <trkpt lat="46.01994" lon="6.58265">
        <ele>1729</ele>
        <time>2019-02-20T13:50:06.000Z</time>
      </trkpt>
      <trkpt lat="46.01996" lon="6.58269">
        <ele>1728.8000488281</ele>
        <time>2019-02-20T13:50:07.000Z</time>
      </trkpt>
      <trkpt lat="46.01998" lon="6.58273">
        <ele>1728.8000488281</ele>
        <time>2019-02-20T13:50:08.000Z</time>
      </trkpt>
      <trkpt lat="46.02001" lon="6.58277">
        <ele>1728.8000488281</ele>
        <time>2019-02-20T13:50:09.000Z</time>
      </trkpt>
      <trkpt lat="46.02004" lon="6.58283">
        <ele>1728.8000488281</ele>
        <time>2019-02-20T13:50:10.000Z</time>
      </trkpt>
      <trkpt lat="46.02012" lon="6.58292">
        <ele>1728.5999755859</ele>
        <time>2019-02-20T13:50:12.000Z</time>
      </trkpt>
      <trkpt lat="46.02021" lon="6.58299">
        <ele>1727.8000488281</ele>
        <time>2019-02-20T13:50:14.000Z</time>
      </trkpt>
      <trkpt lat="46.02031" lon="6.58302">
        <ele>1726</ele>
        <time>2019-02-20T13:50:17.000Z</time>
      </trkpt>
      <trkpt lat="46.02037" lon="6.58308">
        <ele>1721.5999755859</ele>
        <time>2019-02-20T13:50:26.000Z</time>
      </trkpt>
      <trkpt lat="46.02039" lon="6.58306">
        <ele>1721.1999511719</ele>
        <time>2019-02-20T13:50:28.000Z</time>
      </trkpt>
      <trkpt lat="46.0204" lon="6.58305">
        <ele>1721.1999511719</ele>
        <time>2019-02-20T13:50:29.000Z</time>
      </trkpt>
      <trkpt lat="46.0205" lon="6.58311">
        <ele>1720.5999755859</ele>
        <time>2019-02-20T13:50:33.000Z</time>
      </trkpt>
      <trkpt lat="46.02058" lon="6.58318">
        <ele>1720.1999511719</ele>
        <time>2019-02-20T13:50:35.000Z</time>
      </trkpt>
      <trkpt lat="46.02068" lon="6.5833">
        <ele>1719.5999755859</ele>
        <time>2019-02-20T13:50:38.000Z</time>
      </trkpt>
      <trkpt lat="46.02076" lon="6.58341">
        <ele>1717.4000244141</ele>
        <time>2019-02-20T13:50:44.000Z</time>
      </trkpt>
      <trkpt lat="46.02082" lon="6.58355">
        <ele>1717</ele>
        <time>2019-02-20T13:50:47.000Z</time>
      </trkpt>
      <trkpt lat="46.02083" lon="6.58369">
        <ele>1716.5999755859</ele>
        <time>2019-02-20T13:50:49.000Z</time>
      </trkpt>
      <trkpt lat="46.02081" lon="6.58383">
        <ele>1715.8000488281</ele>
        <time>2019-02-20T13:50:51.000Z</time>
      </trkpt>
      <trkpt lat="46.02077" lon="6.58399">
        <ele>1715.1999511719</ele>
        <time>2019-02-20T13:50:53.000Z</time>
      </trkpt>
      <trkpt lat="46.02074" lon="6.58417">
        <ele>1714</ele>
        <time>2019-02-20T13:50:55.000Z</time>
      </trkpt>
      <trkpt lat="46.0207" lon="6.58429">
        <ele>1712.1999511719</ele>
        <time>2019-02-20T13:50:58.000Z</time>
      </trkpt>
      <trkpt lat="46.02071" lon="6.58434">
        <ele>1710.8000488281</ele>
        <time>2019-02-20T13:51:03.000Z</time>
      </trkpt>
      <trkpt lat="46.02074" lon="6.58437">
        <ele>1710.5999755859</ele>
        <time>2019-02-20T13:51:04.000Z</time>
      </trkpt>
      <trkpt lat="46.02076" lon="6.5844">
        <ele>1710</ele>
        <time>2019-02-20T13:51:05.000Z</time>
      </trkpt>
      <trkpt lat="46.0208" lon="6.58456">
        <ele>1709.5999755859</ele>
        <time>2019-02-20T13:51:08.000Z</time>
      </trkpt>
      <trkpt lat="46.02081" lon="6.58462">
        <ele>1709.4000244141</ele>
        <time>2019-02-20T13:51:09.000Z</time>
      </trkpt>
      <trkpt lat="46.02081" lon="6.58466">
        <ele>1709.1999511719</ele>
        <time>2019-02-20T13:51:10.000Z</time>
      </trkpt>
      <trkpt lat="46.02081" lon="6.58471">
        <ele>1709</ele>
        <time>2019-02-20T13:51:11.000Z</time>
      </trkpt>
      <trkpt lat="46.02081" lon="6.58476">
        <ele>1708.8000488281</ele>
        <time>2019-02-20T13:51:12.000Z</time>
      </trkpt>
      <trkpt lat="46.02078" lon="6.58486">
        <ele>1708.4000244141</ele>
        <time>2019-02-20T13:51:14.000Z</time>
      </trkpt>
      <trkpt lat="46.02078" lon="6.58491">
        <ele>1708</ele>
        <time>2019-02-20T13:51:15.000Z</time>
      </trkpt>
      <trkpt lat="46.02078" lon="6.58497">
        <ele>1707.5999755859</ele>
        <time>2019-02-20T13:51:16.000Z</time>
      </trkpt>
      <trkpt lat="46.02078" lon="6.58502">
        <ele>1707.4000244141</ele>
        <time>2019-02-20T13:51:17.000Z</time>
      </trkpt>
      <trkpt lat="46.02078" lon="6.58508">
        <ele>1707.1999511719</ele>
        <time>2019-02-20T13:51:18.000Z</time>
      </trkpt>
      <trkpt lat="46.02078" lon="6.58514">
        <ele>1706.8000488281</ele>
        <time>2019-02-20T13:51:19.000Z</time>
      </trkpt>
      <trkpt lat="46.02078" lon="6.58521">
        <ele>1706.5999755859</ele>
        <time>2019-02-20T13:51:20.000Z</time>
      </trkpt>
      <trkpt lat="46.02078" lon="6.58535">
        <ele>1706.1999511719</ele>
        <time>2019-02-20T13:51:22.000Z</time>
      </trkpt>
      <trkpt lat="46.02075" lon="6.58551">
        <ele>1705.5999755859</ele>
        <time>2019-02-20T13:51:24.000Z</time>
      </trkpt>
      <trkpt lat="46.02074" lon="6.58559">
        <ele>1705.4000244141</ele>
        <time>2019-02-20T13:51:25.000Z</time>
      </trkpt>
      <trkpt lat="46.02074" lon="6.58568">
        <ele>1705</ele>
        <time>2019-02-20T13:51:26.000Z</time>
      </trkpt>
      <trkpt lat="46.02075" lon="6.58576">
        <ele>1704.8000488281</ele>
        <time>2019-02-20T13:51:27.000Z</time>
      </trkpt>
      <trkpt lat="46.02076" lon="6.58583">
        <ele>1704.1999511719</ele>
        <time>2019-02-20T13:51:28.000Z</time>
      </trkpt>
      <trkpt lat="46.02076" lon="6.58589">
        <ele>1703.5999755859</ele>
        <time>2019-02-20T13:51:29.000Z</time>
      </trkpt>
      <trkpt lat="46.02076" lon="6.58592">
        <ele>1702.8000488281</ele>
        <time>2019-02-20T13:51:30.000Z</time>
      </trkpt>
      <trkpt lat="46.02074" lon="6.58591">
        <ele>1699.8000488281</ele>
        <time>2019-02-20T13:51:36.000Z</time>
      </trkpt>
      <trkpt lat="46.02071" lon="6.58589">
        <ele>1699.1999511719</ele>
        <time>2019-02-20T13:51:48.000Z</time>
      </trkpt>
      <trkpt lat="46.02069" lon="6.58588">
        <ele>1699.4000244141</ele>
        <time>2019-02-20T13:51:51.000Z</time>
      </trkpt>
      <trkpt lat="46.0207" lon="6.58591">
        <ele>1700</ele>
        <time>2019-02-20T13:52:14.000Z</time>
      </trkpt>
      <trkpt lat="46.02069" lon="6.58594">
        <ele>1700</ele>
        <time>2019-02-20T13:52:15.000Z</time>
      </trkpt>
      <trkpt lat="46.02067" lon="6.586">
        <ele>1699.8000488281</ele>
        <time>2019-02-20T13:52:16.000Z</time>
      </trkpt>
      <trkpt lat="46.02064" lon="6.58607">
        <ele>1699.5999755859</ele>
        <time>2019-02-20T13:52:17.000Z</time>
      </trkpt>
      <trkpt lat="46.02062" lon="6.58613">
        <ele>1699.5999755859</ele>
        <time>2019-02-20T13:52:18.000Z</time>
      </trkpt>
      <trkpt lat="46.0206" lon="6.58619">
        <ele>1699.5999755859</ele>
        <time>2019-02-20T13:52:19.000Z</time>
      </trkpt>
      <trkpt lat="46.0206" lon="6.58628">
        <ele>1699.5999755859</ele>
        <time>2019-02-20T13:52:20.000Z</time>
      </trkpt>
      <trkpt lat="46.02059" lon="6.58636">
        <ele>1699</ele>
        <time>2019-02-20T13:52:21.000Z</time>
      </trkpt>
      <trkpt lat="46.0206" lon="6.58646">
        <ele>1698.4000244141</ele>
        <time>2019-02-20T13:52:22.000Z</time>
      </trkpt>
      <trkpt lat="46.02061" lon="6.58665">
        <ele>1697.1999511719</ele>
        <time>2019-02-20T13:52:24.000Z</time>
      </trkpt>
      <trkpt lat="46.02069" lon="6.58676">
        <ele>1696.4000244141</ele>
        <time>2019-02-20T13:52:26.000Z</time>
      </trkpt>
      <trkpt lat="46.02077" lon="6.58684">
        <ele>1694.1999511719</ele>
        <time>2019-02-20T13:52:28.000Z</time>
      </trkpt>
      <trkpt lat="46.02084" lon="6.58699">
        <ele>1691.4000244141</ele>
        <time>2019-02-20T13:52:31.000Z</time>
      </trkpt>
      <trkpt lat="46.02095" lon="6.58703">
        <ele>1689.4000244141</ele>
        <time>2019-02-20T13:52:33.000Z</time>
      </trkpt>
      <trkpt lat="46.021" lon="6.58702">
        <ele>1689</ele>
        <time>2019-02-20T13:52:34.000Z</time>
      </trkpt>
      <trkpt lat="46.02108" lon="6.587">
        <ele>1687.5999755859</ele>
        <time>2019-02-20T13:52:37.000Z</time>
      </trkpt>
      <trkpt lat="46.0211" lon="6.58701">
        <ele>1686.8000488281</ele>
        <time>2019-02-20T13:52:38.000Z</time>
      </trkpt>
      <trkpt lat="46.02113" lon="6.587">
        <ele>1684.5999755859</ele>
        <time>2019-02-20T13:52:41.000Z</time>
      </trkpt>
      <trkpt lat="46.0211" lon="6.58701">
        <ele>1683.4000244141</ele>
        <time>2019-02-20T13:52:44.000Z</time>
      </trkpt>
      <trkpt lat="46.02108" lon="6.587">
        <ele>1682.1999511719</ele>
        <time>2019-02-20T13:52:47.000Z</time>
      </trkpt>
      <trkpt lat="46.02105" lon="6.58696">
        <ele>1681.8000488281</ele>
        <time>2019-02-20T13:52:49.000Z</time>
      </trkpt>
      <trkpt lat="46.02104" lon="6.58693">
        <ele>1681.5999755859</ele>
        <time>2019-02-20T13:52:50.000Z</time>
      </trkpt>
      <trkpt lat="46.02102" lon="6.58687">
        <ele>1681.8000488281</ele>
        <time>2019-02-20T13:52:51.000Z</time>
      </trkpt>
      <trkpt lat="46.021" lon="6.58681">
        <ele>1681.8000488281</ele>
        <time>2019-02-20T13:52:52.000Z</time>
      </trkpt>
      <trkpt lat="46.021" lon="6.58674">
        <ele>1682</ele>
        <time>2019-02-20T13:52:53.000Z</time>
      </trkpt>
      <trkpt lat="46.02102" lon="6.58668">
        <ele>1681.8000488281</ele>
        <time>2019-02-20T13:52:54.000Z</time>
      </trkpt>
      <trkpt lat="46.02106" lon="6.58662">
        <ele>1681.8000488281</ele>
        <time>2019-02-20T13:52:55.000Z</time>
      </trkpt>
      <trkpt lat="46.02111" lon="6.58658">
        <ele>1681.5999755859</ele>
        <time>2019-02-20T13:52:56.000Z</time>
      </trkpt>
      <trkpt lat="46.02115" lon="6.58656">
        <ele>1680.5999755859</ele>
        <time>2019-02-20T13:52:57.000Z</time>
      </trkpt>
      <trkpt lat="46.02118" lon="6.58654">
        <ele>1679.8000488281</ele>
        <time>2019-02-20T13:52:58.000Z</time>
      </trkpt>
      <trkpt lat="46.02118" lon="6.58657">
        <ele>1671.8000488281</ele>
        <time>2019-02-20T13:53:16.000Z</time>
      </trkpt>
      <trkpt lat="46.02119" lon="6.58652">
        <ele>1671.8000488281</ele>
        <time>2019-02-20T13:53:20.000Z</time>
      </trkpt>
      <trkpt lat="46.02123" lon="6.58648">
        <ele>1672</ele>
        <time>2019-02-20T13:53:21.000Z</time>
      </trkpt>
      <trkpt lat="46.02127" lon="6.58643">
        <ele>1672</ele>
        <time>2019-02-20T13:53:22.000Z</time>
      </trkpt>
      <trkpt lat="46.0213" lon="6.58639">
        <ele>1671.5999755859</ele>
        <time>2019-02-20T13:53:23.000Z</time>
      </trkpt>
      <trkpt lat="46.02132" lon="6.58635">
        <ele>1671.8000488281</ele>
        <time>2019-02-20T13:53:24.000Z</time>
      </trkpt>
      <trkpt lat="46.02135" lon="6.58633">
        <ele>1671.5999755859</ele>
        <time>2019-02-20T13:53:25.000Z</time>
      </trkpt>
      <trkpt lat="46.02138" lon="6.5863">
        <ele>1671.4000244141</ele>
        <time>2019-02-20T13:53:26.000Z</time>
      </trkpt>
      <trkpt lat="46.02141" lon="6.58629">
        <ele>1671.1999511719</ele>
        <time>2019-02-20T13:53:27.000Z</time>
      </trkpt>
      <trkpt lat="46.02144" lon="6.58628">
        <ele>1671</ele>
        <time>2019-02-20T13:53:28.000Z</time>
      </trkpt>
      <trkpt lat="46.02147" lon="6.58626">
        <ele>1670.4000244141</ele>
        <time>2019-02-20T13:53:29.000Z</time>
      </trkpt>
      <trkpt lat="46.02151" lon="6.58624">
        <ele>1670</ele>
        <time>2019-02-20T13:53:30.000Z</time>
      </trkpt>
      <trkpt lat="46.02154" lon="6.58622">
        <ele>1669.5999755859</ele>
        <time>2019-02-20T13:53:31.000Z</time>
      </trkpt>
      <trkpt lat="46.02157" lon="6.5862">
        <ele>1669.4000244141</ele>
        <time>2019-02-20T13:53:32.000Z</time>
      </trkpt>
      <trkpt lat="46.02161" lon="6.58618">
        <ele>1669.1999511719</ele>
        <time>2019-02-20T13:53:33.000Z</time>
      </trkpt>
      <trkpt lat="46.02164" lon="6.58615">
        <ele>1668.8000488281</ele>
        <time>2019-02-20T13:53:34.000Z</time>
      </trkpt>
      <trkpt lat="46.02168" lon="6.58612">
        <ele>1668.5999755859</ele>
        <time>2019-02-20T13:53:35.000Z</time>
      </trkpt>
      <trkpt lat="46.0217" lon="6.58609">
        <ele>1668.5999755859</ele>
        <time>2019-02-20T13:53:36.000Z</time>
      </trkpt>
      <trkpt lat="46.02173" lon="6.58606">
        <ele>1668.1999511719</ele>
        <time>2019-02-20T13:53:37.000Z</time>
      </trkpt>
      <trkpt lat="46.02175" lon="6.58603">
        <ele>1668</ele>
        <time>2019-02-20T13:53:38.000Z</time>
      </trkpt>
      <trkpt lat="46.02178" lon="6.586">
        <ele>1667.5999755859</ele>
        <time>2019-02-20T13:53:39.000Z</time>
      </trkpt>
      <trkpt lat="46.02182" lon="6.58596">
        <ele>1667.5999755859</ele>
        <time>2019-02-20T13:53:40.000Z</time>
      </trkpt>
      <trkpt lat="46.02186" lon="6.58593">
        <ele>1667.1999511719</ele>
        <time>2019-02-20T13:53:41.000Z</time>
      </trkpt>
      <trkpt lat="46.0219" lon="6.5859">
        <ele>1667</ele>
        <time>2019-02-20T13:53:42.000Z</time>
      </trkpt>
      <trkpt lat="46.02193" lon="6.58588">
        <ele>1667</ele>
        <time>2019-02-20T13:53:43.000Z</time>
      </trkpt>
      <trkpt lat="46.02196" lon="6.58585">
        <ele>1666.8000488281</ele>
        <time>2019-02-20T13:53:44.000Z</time>
      </trkpt>
      <trkpt lat="46.02198" lon="6.58582">
        <ele>1666.1999511719</ele>
        <time>2019-02-20T13:53:45.000Z</time>
      </trkpt>
      <trkpt lat="46.02201" lon="6.5858">
        <ele>1665.4000244141</ele>
        <time>2019-02-20T13:53:46.000Z</time>
      </trkpt>
      <trkpt lat="46.02204" lon="6.58578">
        <ele>1664.8000488281</ele>
        <time>2019-02-20T13:53:47.000Z</time>
      </trkpt>
      <trkpt lat="46.02207" lon="6.58577">
        <ele>1664.5999755859</ele>
        <time>2019-02-20T13:53:48.000Z</time>
      </trkpt>
      <trkpt lat="46.02209" lon="6.58575">
        <ele>1664.5999755859</ele>
        <time>2019-02-20T13:53:49.000Z</time>
      </trkpt>
      <trkpt lat="46.02212" lon="6.58572">
        <ele>1664.4000244141</ele>
        <time>2019-02-20T13:53:50.000Z</time>
      </trkpt>
      <trkpt lat="46.02214" lon="6.58569">
        <ele>1664</ele>
        <time>2019-02-20T13:53:51.000Z</time>
      </trkpt>
      <trkpt lat="46.02217" lon="6.58566">
        <ele>1663.8000488281</ele>
        <time>2019-02-20T13:53:52.000Z</time>
      </trkpt>
      <trkpt lat="46.02219" lon="6.58562">
        <ele>1663.1999511719</ele>
        <time>2019-02-20T13:53:53.000Z</time>
      </trkpt>
      <trkpt lat="46.0222" lon="6.58557">
        <ele>1663</ele>
        <time>2019-02-20T13:53:54.000Z</time>
      </trkpt>
      <trkpt lat="46.02221" lon="6.58551">
        <ele>1662.8000488281</ele>
        <time>2019-02-20T13:53:55.000Z</time>
      </trkpt>
      <trkpt lat="46.02222" lon="6.58544">
        <ele>1662.6001751398</ele>
        <time>2019-02-20T13:53:56.000Z</time>
      </trkpt>
      <trkpt lat="46.02224" lon="6.58538">
        <ele>1662.1999511719</ele>
        <time>2019-02-20T13:53:57.000Z</time>
      </trkpt>
      <trkpt lat="46.02225" lon="6.58531">
        <ele>1662</ele>
        <time>2019-02-20T13:53:58.000Z</time>
      </trkpt>
      <trkpt lat="46.02228" lon="6.58524">
        <ele>1661.8000488281</ele>
        <time>2019-02-20T13:53:59.000Z</time>
      </trkpt>
      <trkpt lat="46.0223" lon="6.58518">
        <ele>1661.5999755859</ele>
        <time>2019-02-20T13:54:00.000Z</time>
      </trkpt>
      <trkpt lat="46.02233" lon="6.58513">
        <ele>1660.5999755859</ele>
        <time>2019-02-20T13:54:01.000Z</time>
      </trkpt>
      <trkpt lat="46.02234" lon="6.58508">
        <ele>1659.8000488281</ele>
        <time>2019-02-20T13:54:02.000Z</time>
      </trkpt>
      <trkpt lat="46.02236" lon="6.58504">
        <ele>1659</ele>
        <time>2019-02-20T13:54:03.000Z</time>
      </trkpt>
      <trkpt lat="46.02237" lon="6.58499">
        <ele>1658.8000488281</ele>
        <time>2019-02-20T13:54:04.000Z</time>
      </trkpt>
      <trkpt lat="46.02239" lon="6.58494">
        <ele>1658.1999511719</ele>
        <time>2019-02-20T13:54:05.000Z</time>
      </trkpt>
      <trkpt lat="46.02239" lon="6.58488">
        <ele>1657.5999755859</ele>
        <time>2019-02-20T13:54:06.000Z</time>
      </trkpt>
      <trkpt lat="46.02239" lon="6.58483">
        <ele>1656.8000488281</ele>
        <time>2019-02-20T13:54:07.000Z</time>
      </trkpt>
      <trkpt lat="46.02238" lon="6.58478">
        <ele>1656.4000244141</ele>
        <time>2019-02-20T13:54:08.000Z</time>
      </trkpt>
      <trkpt lat="46.02237" lon="6.58472">
        <ele>1656.1999511719</ele>
        <time>2019-02-20T13:54:09.000Z</time>
      </trkpt>
      <trkpt lat="46.02235" lon="6.58466">
        <ele>1655.8000488281</ele>
        <time>2019-02-20T13:54:10.000Z</time>
      </trkpt>
      <trkpt lat="46.02233" lon="6.5846">
        <ele>1655.1999511719</ele>
        <time>2019-02-20T13:54:11.000Z</time>
      </trkpt>
      <trkpt lat="46.02232" lon="6.58453">
        <ele>1654.5999755859</ele>
        <time>2019-02-20T13:54:12.000Z</time>
      </trkpt>
      <trkpt lat="46.02232" lon="6.58445">
        <ele>1654.8000488281</ele>
        <time>2019-02-20T13:54:13.000Z</time>
      </trkpt>
      <trkpt lat="46.02232" lon="6.58439">
        <ele>1654.5999755859</ele>
        <time>2019-02-20T13:54:14.000Z</time>
      </trkpt>
      <trkpt lat="46.02231" lon="6.58432">
        <ele>1654.1999511719</ele>
        <time>2019-02-20T13:54:15.000Z</time>
      </trkpt>
      <trkpt lat="46.0223" lon="6.58427">
        <ele>1653.8000488281</ele>
        <time>2019-02-20T13:54:16.000Z</time>
      </trkpt>
      <trkpt lat="46.0223" lon="6.58422">
        <ele>1653.1999511719</ele>
        <time>2019-02-20T13:54:17.000Z</time>
      </trkpt>
      <trkpt lat="46.02229" lon="6.58416">
        <ele>1652.8000488281</ele>
        <time>2019-02-20T13:54:18.000Z</time>
      </trkpt>
      <trkpt lat="46.02228" lon="6.5841">
        <ele>1652.8000488281</ele>
        <time>2019-02-20T13:54:19.000Z</time>
      </trkpt>
      <trkpt lat="46.02227" lon="6.58404">
        <ele>1652</ele>
        <time>2019-02-20T13:54:20.000Z</time>
      </trkpt>
      <trkpt lat="46.02225" lon="6.58398">
        <ele>1651.8000488281</ele>
        <time>2019-02-20T13:54:21.000Z</time>
      </trkpt>
      <trkpt lat="46.02223" lon="6.58392">
        <ele>1651.1999511719</ele>
        <time>2019-02-20T13:54:22.000Z</time>
      </trkpt>
      <trkpt lat="46.02222" lon="6.58387">
        <ele>1651</ele>
        <time>2019-02-20T13:54:23.000Z</time>
      </trkpt>
      <trkpt lat="46.02222" lon="6.58379">
        <ele>1650.1999511719</ele>
        <time>2019-02-20T13:54:24.000Z</time>
      </trkpt>
      <trkpt lat="46.02221" lon="6.58371">
        <ele>1649.5999755859</ele>
        <time>2019-02-20T13:54:25.000Z</time>
      </trkpt>
      <trkpt lat="46.0222" lon="6.58364">
        <ele>1649.1999511719</ele>
        <time>2019-02-20T13:54:26.000Z</time>
      </trkpt>
      <trkpt lat="46.02219" lon="6.58356">
        <ele>1648.4000244141</ele>
        <time>2019-02-20T13:54:27.000Z</time>
      </trkpt>
      <trkpt lat="46.02219" lon="6.5835">
        <ele>1647.8000488281</ele>
        <time>2019-02-20T13:54:28.000Z</time>
      </trkpt>
      <trkpt lat="46.0222" lon="6.58352">
        <ele>1645.4000244141</ele>
        <time>2019-02-20T13:54:31.000Z</time>
      </trkpt>
      <trkpt lat="46.02221" lon="6.58356">
        <ele>1641.1999511719</ele>
        <time>2019-02-20T13:54:38.000Z</time>
      </trkpt>
      <trkpt lat="46.02219" lon="6.58357">
        <ele>1639.8000488281</ele>
        <time>2019-02-20T13:54:50.000Z</time>
      </trkpt>
      <trkpt lat="46.02217" lon="6.58355">
        <ele>1640</ele>
        <time>2019-02-20T13:54:51.000Z</time>
      </trkpt>
      <trkpt lat="46.02215" lon="6.58353">
        <ele>1640</ele>
        <time>2019-02-20T13:54:52.000Z</time>
      </trkpt>
      <trkpt lat="46.02213" lon="6.58348">
        <ele>1640</ele>
        <time>2019-02-20T13:54:53.000Z</time>
      </trkpt>
      <trkpt lat="46.02211" lon="6.58342">
        <ele>1640</ele>
        <time>2019-02-20T13:54:54.000Z</time>
      </trkpt>
      <trkpt lat="46.02208" lon="6.58334">
        <ele>1640.1999511719</ele>
        <time>2019-02-20T13:54:55.000Z</time>
      </trkpt>
      <trkpt lat="46.02207" lon="6.58326">
        <ele>1639.8000488281</ele>
        <time>2019-02-20T13:54:56.000Z</time>
      </trkpt>
      <trkpt lat="46.02206" lon="6.58317">
        <ele>1639.5999755859</ele>
        <time>2019-02-20T13:54:57.000Z</time>
      </trkpt>
      <trkpt lat="46.02207" lon="6.58308">
        <ele>1639</ele>
        <time>2019-02-20T13:54:58.000Z</time>
      </trkpt>
      <trkpt lat="46.02207" lon="6.58299">
        <ele>1639</ele>
        <time>2019-02-20T13:54:59.000Z</time>
      </trkpt>
      <trkpt lat="46.02207" lon="6.58289">
        <ele>1638.4000244141</ele>
        <time>2019-02-20T13:55:00.000Z</time>
      </trkpt>
      <trkpt lat="46.02206" lon="6.5828">
        <ele>1637.4000244141</ele>
        <time>2019-02-20T13:55:01.000Z</time>
      </trkpt>
      <trkpt lat="46.02206" lon="6.58273">
        <ele>1637.1999511719</ele>
        <time>2019-02-20T13:55:02.000Z</time>
      </trkpt>
      <trkpt lat="46.02205" lon="6.58267">
        <ele>1636</ele>
        <time>2019-02-20T13:55:03.000Z</time>
      </trkpt>
      <trkpt lat="46.02205" lon="6.5826">
        <ele>1635.1999511719</ele>
        <time>2019-02-20T13:55:04.000Z</time>
      </trkpt>
      <trkpt lat="46.02206" lon="6.58253">
        <ele>1634.1999511719</ele>
        <time>2019-02-20T13:55:05.000Z</time>
      </trkpt>
      <trkpt lat="46.0221" lon="6.58248">
        <ele>1633</ele>
        <time>2019-02-20T13:55:06.000Z</time>
      </trkpt>
      <trkpt lat="46.02213" lon="6.58241">
        <ele>1632.1999511719</ele>
        <time>2019-02-20T13:55:07.000Z</time>
      </trkpt>
      <trkpt lat="46.02214" lon="6.58235">
        <ele>1631</ele>
        <time>2019-02-20T13:55:08.000Z</time>
      </trkpt>
      <trkpt lat="46.02215" lon="6.58229">
        <ele>1630.1999511719</ele>
        <time>2019-02-20T13:55:09.000Z</time>
      </trkpt>
      <trkpt lat="46.02215" lon="6.58224">
        <ele>1629.4000244141</ele>
        <time>2019-02-20T13:55:10.000Z</time>
      </trkpt>
      <trkpt lat="46.02213" lon="6.58219">
        <ele>1628.5999755859</ele>
        <time>2019-02-20T13:55:11.000Z</time>
      </trkpt>
      <trkpt lat="46.02211" lon="6.58215">
        <ele>1627.8000488281</ele>
        <time>2019-02-20T13:55:12.000Z</time>
      </trkpt>
      <trkpt lat="46.02208" lon="6.58211">
        <ele>1627</ele>
        <time>2019-02-20T13:55:13.000Z</time>
      </trkpt>
      <trkpt lat="46.02204" lon="6.58208">
        <ele>1626.5999755859</ele>
        <time>2019-02-20T13:55:14.000Z</time>
      </trkpt>
      <trkpt lat="46.022" lon="6.58206">
        <ele>1625.5999755859</ele>
        <time>2019-02-20T13:55:15.000Z</time>
      </trkpt>
      <trkpt lat="46.02196" lon="6.58203">
        <ele>1625</ele>
        <time>2019-02-20T13:55:16.000Z</time>
      </trkpt>
      <trkpt lat="46.02194" lon="6.58198">
        <ele>1623.8000488281</ele>
        <time>2019-02-20T13:55:17.000Z</time>
      </trkpt>
      <trkpt lat="46.02192" lon="6.58192">
        <ele>1623.1999511719</ele>
        <time>2019-02-20T13:55:18.000Z</time>
      </trkpt>
      <trkpt lat="46.02188" lon="6.58179">
        <ele>1621.1999511719</ele>
        <time>2019-02-20T13:55:20.000Z</time>
      </trkpt>
      <trkpt lat="46.02189" lon="6.5816">
        <ele>1619.4000244141</ele>
        <time>2019-02-20T13:55:23.000Z</time>
      </trkpt>
      <trkpt lat="46.02197" lon="6.58154">
        <ele>1617.4000244141</ele>
        <time>2019-02-20T13:55:26.000Z</time>
      </trkpt>
      <trkpt lat="46.022" lon="6.58151">
        <ele>1615</ele>
        <time>2019-02-20T13:55:29.000Z</time>
      </trkpt>
      <trkpt lat="46.02203" lon="6.5815">
        <ele>1613.1999511719</ele>
        <time>2019-02-20T13:55:31.000Z</time>
      </trkpt>
      <trkpt lat="46.02205" lon="6.5815">
        <ele>1611.1999511719</ele>
        <time>2019-02-20T13:55:40.000Z</time>
      </trkpt>
      <trkpt lat="46.02206" lon="6.58147">
        <ele>1612</ele>
        <time>2019-02-20T13:56:10.000Z</time>
      </trkpt>
      <trkpt lat="46.02208" lon="6.58144">
        <ele>1611.8000488281</ele>
        <time>2019-02-20T13:56:11.000Z</time>
      </trkpt>
      <trkpt lat="46.02211" lon="6.5814">
        <ele>1611.8000488281</ele>
        <time>2019-02-20T13:56:12.000Z</time>
      </trkpt>
      <trkpt lat="46.02215" lon="6.58136">
        <ele>1611.8000488281</ele>
        <time>2019-02-20T13:56:13.000Z</time>
      </trkpt>
      <trkpt lat="46.02218" lon="6.58131">
        <ele>1611.9996015332</ele>
        <time>2019-02-20T13:56:14.000Z</time>
      </trkpt>
      <trkpt lat="46.0222" lon="6.58127">
        <ele>1612.4000244141</ele>
        <time>2019-02-20T13:56:15.000Z</time>
      </trkpt>
      <trkpt lat="46.02223" lon="6.58122">
        <ele>1612.1999511719</ele>
        <time>2019-02-20T13:56:16.000Z</time>
      </trkpt>
      <trkpt lat="46.02226" lon="6.58117">
        <ele>1611.8000488281</ele>
        <time>2019-02-20T13:56:17.000Z</time>
      </trkpt>
      <trkpt lat="46.02232" lon="6.581">
        <ele>1610.4000244141</ele>
        <time>2019-02-20T13:56:20.000Z</time>
      </trkpt>
      <trkpt lat="46.02242" lon="6.58089">
        <ele>1609</ele>
        <time>2019-02-20T13:56:23.000Z</time>
      </trkpt>
      <trkpt lat="46.02252" lon="6.58081">
        <ele>1608</ele>
        <time>2019-02-20T13:56:25.000Z</time>
      </trkpt>
      <trkpt lat="46.02256" lon="6.58078">
        <ele>1607.4000244141</ele>
        <time>2019-02-20T13:56:26.000Z</time>
      </trkpt>
      <trkpt lat="46.02259" lon="6.58073">
        <ele>1606.8000488281</ele>
        <time>2019-02-20T13:56:27.000Z</time>
      </trkpt>
      <trkpt lat="46.02263" lon="6.58062">
        <ele>1605.6001751398</ele>
        <time>2019-02-20T13:56:29.000Z</time>
      </trkpt>
      <trkpt lat="46.02262" lon="6.58057">
        <ele>1605.1999511719</ele>
        <time>2019-02-20T13:56:30.000Z</time>
      </trkpt>
      <trkpt lat="46.02263" lon="6.58052">
        <ele>1604.1999511719</ele>
        <time>2019-02-20T13:56:31.000Z</time>
      </trkpt>
      <trkpt lat="46.02265" lon="6.58046">
        <ele>1604.1999511719</ele>
        <time>2019-02-20T13:56:32.000Z</time>
      </trkpt>
      <trkpt lat="46.02265" lon="6.5804">
        <ele>1603.4000244141</ele>
        <time>2019-02-20T13:56:33.000Z</time>
      </trkpt>
      <trkpt lat="46.02266" lon="6.58034">
        <ele>1603</ele>
        <time>2019-02-20T13:56:34.000Z</time>
      </trkpt>
      <trkpt lat="46.02266" lon="6.58018">
        <ele>1601.4000244141</ele>
        <time>2019-02-20T13:56:37.000Z</time>
      </trkpt>
      <trkpt lat="46.02266" lon="6.58003">
        <ele>1599.4000244141</ele>
        <time>2019-02-20T13:56:40.000Z</time>
      </trkpt>
      <trkpt lat="46.02263" lon="6.57996">
        <ele>1597.5999755859</ele>
        <time>2019-02-20T13:56:42.000Z</time>
      </trkpt>
      <trkpt lat="46.02261" lon="6.57998">
        <ele>1595.4000244141</ele>
        <time>2019-02-20T13:56:44.000Z</time>
      </trkpt>
      <trkpt lat="46.0226" lon="6.58001">
        <ele>1591.4000244141</ele>
        <time>2019-02-20T13:56:50.000Z</time>
      </trkpt>
      <trkpt lat="46.02262" lon="6.58">
        <ele>1591</ele>
        <time>2019-02-20T13:57:18.000Z</time>
      </trkpt>
      <trkpt lat="46.02261" lon="6.57997">
        <ele>1590.4000244141</ele>
        <time>2019-02-20T13:57:36.000Z</time>
      </trkpt>
      <trkpt lat="46.0226" lon="6.57995">
        <ele>1590.4000244141</ele>
        <time>2019-02-20T13:57:37.000Z</time>
      </trkpt>
      <trkpt lat="46.02258" lon="6.57991">
        <ele>1590.1999511719</ele>
        <time>2019-02-20T13:57:38.000Z</time>
      </trkpt>
      <trkpt lat="46.02256" lon="6.57985">
        <ele>1590.1999511719</ele>
        <time>2019-02-20T13:57:39.000Z</time>
      </trkpt>
      <trkpt lat="46.02255" lon="6.57979">
        <ele>1590.1999511719</ele>
        <time>2019-02-20T13:57:40.000Z</time>
      </trkpt>
      <trkpt lat="46.02254" lon="6.57973">
        <ele>1590</ele>
        <time>2019-02-20T13:57:41.000Z</time>
      </trkpt>
      <trkpt lat="46.02253" lon="6.57966">
        <ele>1589.8000488281</ele>
        <time>2019-02-20T13:57:42.000Z</time>
      </trkpt>
      <trkpt lat="46.02251" lon="6.57959">
        <ele>1589.4000244141</ele>
        <time>2019-02-20T13:57:43.000Z</time>
      </trkpt>
      <trkpt lat="46.02248" lon="6.57953">
        <ele>1589.1999511719</ele>
        <time>2019-02-20T13:57:44.000Z</time>
      </trkpt>
      <trkpt lat="46.02246" lon="6.57946">
        <ele>1588.5999755859</ele>
        <time>2019-02-20T13:57:45.000Z</time>
      </trkpt>
      <trkpt lat="46.02243" lon="6.57941">
        <ele>1588</ele>
        <time>2019-02-20T13:57:46.000Z</time>
      </trkpt>
      <trkpt lat="46.0224" lon="6.57935">
        <ele>1588.1999511719</ele>
        <time>2019-02-20T13:57:47.000Z</time>
      </trkpt>
      <trkpt lat="46.02237" lon="6.5793">
        <ele>1587.5999755859</ele>
        <time>2019-02-20T13:57:48.000Z</time>
      </trkpt>
      <trkpt lat="46.02235" lon="6.57915">
        <ele>1586.4000244141</ele>
        <time>2019-02-20T13:57:50.000Z</time>
      </trkpt>
      <trkpt lat="46.02237" lon="6.57915">
        <ele>1585.5999755859</ele>
        <time>2019-02-20T13:57:51.000Z</time>
      </trkpt>
      <trkpt lat="46.02239" lon="6.57917">
        <ele>1584.5999755859</ele>
        <time>2019-02-20T13:57:52.000Z</time>
      </trkpt>
      <trkpt lat="46.02249" lon="6.57922">
        <ele>1581.5999755859</ele>
        <time>2019-02-20T13:57:56.000Z</time>
      </trkpt>
      <trkpt lat="46.0226" lon="6.57927">
        <ele>1580.1999511719</ele>
        <time>2019-02-20T13:57:59.000Z</time>
      </trkpt>
      <trkpt lat="46.0227" lon="6.57934">
        <ele>1579</ele>
        <time>2019-02-20T13:58:01.000Z</time>
      </trkpt>
      <trkpt lat="46.02276" lon="6.57938">
        <ele>1578.5999755859</ele>
        <time>2019-02-20T13:58:02.000Z</time>
      </trkpt>
      <trkpt lat="46.02283" lon="6.57942">
        <ele>1577.8000488281</ele>
        <time>2019-02-20T13:58:03.000Z</time>
      </trkpt>
      <trkpt lat="46.02288" lon="6.57948">
        <ele>1576.8000488281</ele>
        <time>2019-02-20T13:58:04.000Z</time>
      </trkpt>
      <trkpt lat="46.02295" lon="6.57952">
        <ele>1575.4000244141</ele>
        <time>2019-02-20T13:58:06.000Z</time>
      </trkpt>
      <trkpt lat="46.02294" lon="6.57955">
        <ele>1573.4000244141</ele>
        <time>2019-02-20T13:58:08.000Z</time>
      </trkpt>
      <trkpt lat="46.02292" lon="6.57957">
        <ele>1571.5999755859</ele>
        <time>2019-02-20T13:58:10.000Z</time>
      </trkpt>
      <trkpt lat="46.02291" lon="6.57959">
        <ele>1567.5999755859</ele>
        <time>2019-02-20T13:58:20.000Z</time>
      </trkpt>
      <trkpt lat="46.02289" lon="6.57959">
        <ele>1567.8000488281</ele>
        <time>2019-02-20T13:58:35.000Z</time>
      </trkpt>
      <trkpt lat="46.02287" lon="6.5796">
        <ele>1568</ele>
        <time>2019-02-20T13:58:48.000Z</time>
      </trkpt>
      <trkpt lat="46.02285" lon="6.57958">
        <ele>1567.8000488281</ele>
        <time>2019-02-20T13:59:05.000Z</time>
      </trkpt>
      <trkpt lat="46.02284" lon="6.57955">
        <ele>1567.8000488281</ele>
        <time>2019-02-20T13:59:07.000Z</time>
      </trkpt>
      <trkpt lat="46.02283" lon="6.57952">
        <ele>1567.5999755859</ele>
        <time>2019-02-20T13:59:08.000Z</time>
      </trkpt>
      <trkpt lat="46.02282" lon="6.57949">
        <ele>1567</ele>
        <time>2019-02-20T13:59:16.000Z</time>
      </trkpt>
      <trkpt lat="46.02282" lon="6.57945">
        <ele>1567</ele>
        <time>2019-02-20T13:59:17.000Z</time>
      </trkpt>
      <trkpt lat="46.02284" lon="6.57939">
        <ele>1566.5999755859</ele>
        <time>2019-02-20T13:59:18.000Z</time>
      </trkpt>
      <trkpt lat="46.02286" lon="6.57934">
        <ele>1566.4000244141</ele>
        <time>2019-02-20T13:59:19.000Z</time>
      </trkpt>
      <trkpt lat="46.02289" lon="6.5793">
        <ele>1566.1999511719</ele>
        <time>2019-02-20T13:59:20.000Z</time>
      </trkpt>
      <trkpt lat="46.02292" lon="6.57925">
        <ele>1566.1999511719</ele>
        <time>2019-02-20T13:59:21.000Z</time>
      </trkpt>
      <trkpt lat="46.02295" lon="6.57921">
        <ele>1565.8000488281</ele>
        <time>2019-02-20T13:59:22.000Z</time>
      </trkpt>
      <trkpt lat="46.02299" lon="6.57917">
        <ele>1565.4000244141</ele>
        <time>2019-02-20T13:59:23.000Z</time>
      </trkpt>
      <trkpt lat="46.02302" lon="6.57914">
        <ele>1564.5999755859</ele>
        <time>2019-02-20T13:59:24.000Z</time>
      </trkpt>
      <trkpt lat="46.02304" lon="6.57911">
        <ele>1564</ele>
        <time>2019-02-20T13:59:25.000Z</time>
      </trkpt>
      <trkpt lat="46.02309" lon="6.57909">
        <ele>1562.8000488281</ele>
        <time>2019-02-20T13:59:26.000Z</time>
      </trkpt>
      <trkpt lat="46.02312" lon="6.57908">
        <ele>1561.4000244141</ele>
        <time>2019-02-20T13:59:27.000Z</time>
      </trkpt>
      <trkpt lat="46.02317" lon="6.57901">
        <ele>1558.1999511719</ele>
        <time>2019-02-20T13:59:29.000Z</time>
      </trkpt>
      <trkpt lat="46.0232" lon="6.57897">
        <ele>1557</ele>
        <time>2019-02-20T13:59:30.000Z</time>
      </trkpt>
      <trkpt lat="46.02323" lon="6.57893">
        <ele>1555.1999511719</ele>
        <time>2019-02-20T13:59:31.000Z</time>
      </trkpt>
      <trkpt lat="46.02325" lon="6.57889">
        <ele>1553.5999755859</ele>
        <time>2019-02-20T13:59:32.000Z</time>
      </trkpt>
      <trkpt lat="46.02326" lon="6.57885">
        <ele>1552</ele>
        <time>2019-02-20T13:59:33.000Z</time>
      </trkpt>
      <trkpt lat="46.02324" lon="6.57892">
        <ele>1541.8000488281</ele>
        <time>2019-02-20T13:59:39.000Z</time>
      </trkpt>
      <trkpt lat="46.02323" lon="6.57896">
        <ele>1537</ele>
        <time>2019-02-20T13:59:49.000Z</time>
      </trkpt>
      <trkpt lat="46.02322" lon="6.57897">
        <ele>1537</ele>
        <time>2019-02-20T14:00:01.000Z</time>
      </trkpt>
      <trkpt lat="46.02321" lon="6.579">
        <ele>1536.4000244141</ele>
        <time>2019-02-20T14:00:22.000Z</time>
      </trkpt>
      <trkpt lat="46.02324" lon="6.57897">
        <ele>1536.1999511719</ele>
        <time>2019-02-20T14:00:25.000Z</time>
      </trkpt>
      <trkpt lat="46.02328" lon="6.57896">
        <ele>1536.1999511719</ele>
        <time>2019-02-20T14:00:26.000Z</time>
      </trkpt>
      <trkpt lat="46.02332" lon="6.57896">
        <ele>1536.4000244141</ele>
        <time>2019-02-20T14:00:27.000Z</time>
      </trkpt>
      <trkpt lat="46.02335" lon="6.57894">
        <ele>1536.1999511719</ele>
        <time>2019-02-20T14:00:28.000Z</time>
      </trkpt>
      <trkpt lat="46.02337" lon="6.57889">
        <ele>1536.1999511719</ele>
        <time>2019-02-20T14:00:29.000Z</time>
      </trkpt>
      <trkpt lat="46.02339" lon="6.57883">
        <ele>1536</ele>
        <time>2019-02-20T14:00:30.000Z</time>
      </trkpt>
      <trkpt lat="46.02341" lon="6.57877">
        <ele>1535.8000488281</ele>
        <time>2019-02-20T14:00:31.000Z</time>
      </trkpt>
      <trkpt lat="46.02344" lon="6.5787">
        <ele>1535</ele>
        <time>2019-02-20T14:00:32.000Z</time>
      </trkpt>
      <trkpt lat="46.02348" lon="6.57865">
        <ele>1534</ele>
        <time>2019-02-20T14:00:33.000Z</time>
      </trkpt>
      <trkpt lat="46.02349" lon="6.57859">
        <ele>1533</ele>
        <time>2019-02-20T14:00:34.000Z</time>
      </trkpt>
      <trkpt lat="46.02352" lon="6.57852">
        <ele>1531.5999755859</ele>
        <time>2019-02-20T14:00:35.000Z</time>
      </trkpt>
      <trkpt lat="46.02362" lon="6.57853">
        <ele>1528.1999511719</ele>
        <time>2019-02-20T14:00:37.000Z</time>
      </trkpt>
      <trkpt lat="46.02367" lon="6.57855">
        <ele>1526.1999511719</ele>
        <time>2019-02-20T14:00:38.000Z</time>
      </trkpt>
      <trkpt lat="46.0237" lon="6.57855">
        <ele>1524.4000244141</ele>
        <time>2019-02-20T14:00:39.000Z</time>
      </trkpt>
      <trkpt lat="46.02371" lon="6.57851">
        <ele>1522.5999755859</ele>
        <time>2019-02-20T14:00:40.000Z</time>
      </trkpt>
      <trkpt lat="46.02373" lon="6.57846">
        <ele>1519.8000488281</ele>
        <time>2019-02-20T14:00:41.000Z</time>
      </trkpt>
      <trkpt lat="46.02374" lon="6.57841">
        <ele>1517.5999755859</ele>
        <time>2019-02-20T14:00:42.000Z</time>
      </trkpt>
      <trkpt lat="46.02376" lon="6.57836">
        <ele>1515.1999511719</ele>
        <time>2019-02-20T14:00:43.000Z</time>
      </trkpt>
      <trkpt lat="46.02379" lon="6.57832">
        <ele>1513.4018196686</ele>
        <time>2019-02-20T14:00:44.000Z</time>
      </trkpt>
      <trkpt lat="46.02382" lon="6.5783">
        <ele>1512</ele>
        <time>2019-02-20T14:00:45.000Z</time>
      </trkpt>
      <trkpt lat="46.02385" lon="6.57826">
        <ele>1510.5999755859</ele>
        <time>2019-02-20T14:00:46.000Z</time>
      </trkpt>
      <trkpt lat="46.02388" lon="6.57822">
        <ele>1508.5999755859</ele>
        <time>2019-02-20T14:00:47.000Z</time>
      </trkpt>
      <trkpt lat="46.0239" lon="6.57819">
        <ele>1507.1999511719</ele>
        <time>2019-02-20T14:00:48.000Z</time>
      </trkpt>
      <trkpt lat="46.02391" lon="6.57812">
        <ele>1505.4000244141</ele>
        <time>2019-02-20T14:00:49.000Z</time>
      </trkpt>
      <trkpt lat="46.02394" lon="6.57808">
        <ele>1503</ele>
        <time>2019-02-20T14:00:50.000Z</time>
      </trkpt>
      <trkpt lat="46.02396" lon="6.57805">
        <ele>1501.1999511719</ele>
        <time>2019-02-20T14:00:51.000Z</time>
      </trkpt>
      <trkpt lat="46.02398" lon="6.578">
        <ele>1499.1999511719</ele>
        <time>2019-02-20T14:00:52.000Z</time>
      </trkpt>
      <trkpt lat="46.02402" lon="6.57798">
        <ele>1497.8000488281</ele>
        <time>2019-02-20T14:00:53.000Z</time>
      </trkpt>
      <trkpt lat="46.02405" lon="6.578">
        <ele>1495.5999755859</ele>
        <time>2019-02-20T14:00:54.000Z</time>
      </trkpt>
      <trkpt lat="46.02408" lon="6.57803">
        <ele>1493.4000244141</ele>
        <time>2019-02-20T14:00:55.000Z</time>
      </trkpt>
      <trkpt lat="46.02409" lon="6.57805">
        <ele>1489.1999511719</ele>
        <time>2019-02-20T14:00:57.000Z</time>
      </trkpt>
      <trkpt lat="46.0241" lon="6.57807">
        <ele>1476.4000244141</ele>
        <time>2019-02-20T14:01:31.000Z</time>
      </trkpt>
      <trkpt lat="46.02413" lon="6.57808">
        <ele>1477.8000488281</ele>
        <time>2019-02-20T14:01:51.000Z</time>
      </trkpt>
      <trkpt lat="46.02417" lon="6.57807">
        <ele>1478</ele>
        <time>2019-02-20T14:01:52.000Z</time>
      </trkpt>
      <trkpt lat="46.0242" lon="6.57807">
        <ele>1478.1999511719</ele>
        <time>2019-02-20T14:01:53.000Z</time>
      </trkpt>
      <trkpt lat="46.02423" lon="6.57806">
        <ele>1478.1999511719</ele>
        <time>2019-02-20T14:01:54.000Z</time>
      </trkpt>
      <trkpt lat="46.02427" lon="6.57805">
        <ele>1478.1999511719</ele>
        <time>2019-02-20T14:01:55.000Z</time>
      </trkpt>
      <trkpt lat="46.0243" lon="6.57801">
        <ele>1478</ele>
        <time>2019-02-20T14:01:56.000Z</time>
      </trkpt>
      <trkpt lat="46.02431" lon="6.57796">
        <ele>1477.4000244141</ele>
        <time>2019-02-20T14:01:57.000Z</time>
      </trkpt>
      <trkpt lat="46.02433" lon="6.5779">
        <ele>1476.8000488281</ele>
        <time>2019-02-20T14:01:58.000Z</time>
      </trkpt>
      <trkpt lat="46.02434" lon="6.57785">
        <ele>1476.1999511719</ele>
        <time>2019-02-20T14:01:59.000Z</time>
      </trkpt>
      <trkpt lat="46.02437" lon="6.57781">
        <ele>1475.4000244141</ele>
        <time>2019-02-20T14:02:00.000Z</time>
      </trkpt>
      <trkpt lat="46.0244" lon="6.57777">
        <ele>1475</ele>
        <time>2019-02-20T14:02:01.000Z</time>
      </trkpt>
      <trkpt lat="46.02442" lon="6.57773">
        <ele>1473</ele>
        <time>2019-02-20T14:02:02.000Z</time>
      </trkpt>
      <trkpt lat="46.02444" lon="6.57769">
        <ele>1471.8000488281</ele>
        <time>2019-02-20T14:02:03.000Z</time>
      </trkpt>
      <trkpt lat="46.02447" lon="6.57764">
        <ele>1470</ele>
        <time>2019-02-20T14:02:04.000Z</time>
      </trkpt>
      <trkpt lat="46.0245" lon="6.5776">
        <ele>1468</ele>
        <time>2019-02-20T14:02:05.000Z</time>
      </trkpt>
      <trkpt lat="46.02455" lon="6.57759">
        <ele>1466.1999511719</ele>
        <time>2019-02-20T14:02:06.000Z</time>
      </trkpt>
      <trkpt lat="46.0246" lon="6.57761">
        <ele>1464.1999511719</ele>
        <time>2019-02-20T14:02:07.000Z</time>
      </trkpt>
      <trkpt lat="46.02464" lon="6.57759">
        <ele>1462</ele>
        <time>2019-02-20T14:02:08.000Z</time>
      </trkpt>
      <trkpt lat="46.02474" lon="6.57761">
        <ele>1453.5999755859</ele>
        <time>2019-02-20T14:02:12.000Z</time>
      </trkpt>
      <trkpt lat="46.02478" lon="6.57766">
        <ele>1441</ele>
        <time>2019-02-20T14:02:28.000Z</time>
      </trkpt>
      <trkpt lat="46.02476" lon="6.57766">
        <ele>1440.5999755859</ele>
        <time>2019-02-20T14:02:46.000Z</time>
      </trkpt>
      <trkpt lat="46.02473" lon="6.57766">
        <ele>1440.8000488281</ele>
        <time>2019-02-20T14:02:48.000Z</time>
      </trkpt>
      <trkpt lat="46.02475" lon="6.57768">
        <ele>1441.1999511719</ele>
        <time>2019-02-20T14:02:57.000Z</time>
      </trkpt>
      <trkpt lat="46.02477" lon="6.57768">
        <ele>1440.5999755859</ele>
        <time>2019-02-20T14:03:06.000Z</time>
      </trkpt>
      <trkpt lat="46.0248" lon="6.57766">
        <ele>1440.5999755859</ele>
        <time>2019-02-20T14:03:07.000Z</time>
      </trkpt>
      <trkpt lat="46.02485" lon="6.57762">
        <ele>1440.5999755859</ele>
        <time>2019-02-20T14:03:08.000Z</time>
      </trkpt>
      <trkpt lat="46.0249" lon="6.57756">
        <ele>1440.4000244141</ele>
        <time>2019-02-20T14:03:09.000Z</time>
      </trkpt>
      <trkpt lat="46.02494" lon="6.57749">
        <ele>1440.4000244141</ele>
        <time>2019-02-20T14:03:10.000Z</time>
      </trkpt>
      <trkpt lat="46.02497" lon="6.57739">
        <ele>1440.4000244141</ele>
        <time>2019-02-20T14:03:11.000Z</time>
      </trkpt>
      <trkpt lat="46.02501" lon="6.57728">
        <ele>1440</ele>
        <time>2019-02-20T14:03:12.000Z</time>
      </trkpt>
      <trkpt lat="46.02506" lon="6.57719">
        <ele>1439.4000244141</ele>
        <time>2019-02-20T14:03:13.000Z</time>
      </trkpt>
      <trkpt lat="46.02512" lon="6.57711">
        <ele>1438.4000244141</ele>
        <time>2019-02-20T14:03:14.000Z</time>
      </trkpt>
      <trkpt lat="46.02517" lon="6.57703">
        <ele>1437.4000244141</ele>
        <time>2019-02-20T14:03:15.000Z</time>
      </trkpt>
      <trkpt lat="46.02523" lon="6.57694">
        <ele>1435.5999755859</ele>
        <time>2019-02-20T14:03:16.000Z</time>
      </trkpt>
      <trkpt lat="46.02528" lon="6.57686">
        <ele>1434.8008466784</ele>
        <time>2019-02-20T14:03:17.000Z</time>
      </trkpt>
      <trkpt lat="46.02533" lon="6.57679">
        <ele>1431.1999511719</ele>
        <time>2019-02-20T14:03:18.000Z</time>
      </trkpt>
      <trkpt lat="46.0254" lon="6.57673">
        <ele>1427.8000488281</ele>
        <time>2019-02-20T14:03:19.000Z</time>
      </trkpt>
      <trkpt lat="46.02553" lon="6.57665">
        <ele>1423</ele>
        <time>2019-02-20T14:03:21.000Z</time>
      </trkpt>
      <trkpt lat="46.02557" lon="6.57659">
        <ele>1420</ele>
        <time>2019-02-20T14:03:22.000Z</time>
      </trkpt>
      <trkpt lat="46.02562" lon="6.57654">
        <ele>1417</ele>
        <time>2019-02-20T14:03:23.000Z</time>
      </trkpt>
      <trkpt lat="46.02573" lon="6.57638">
        <ele>1412.8000488281</ele>
        <time>2019-02-20T14:03:25.000Z</time>
      </trkpt>
      <trkpt lat="46.02579" lon="6.5763">
        <ele>1411</ele>
        <time>2019-02-20T14:03:26.000Z</time>
      </trkpt>
      <trkpt lat="46.02585" lon="6.57623">
        <ele>1408.1999511719</ele>
        <time>2019-02-20T14:03:27.000Z</time>
      </trkpt>
      <trkpt lat="46.02591" lon="6.57616">
        <ele>1406.4000244141</ele>
        <time>2019-02-20T14:03:28.000Z</time>
      </trkpt>
      <trkpt lat="46.02602" lon="6.57605">
        <ele>1400.8000488281</ele>
        <time>2019-02-20T14:03:30.000Z</time>
      </trkpt>
      <trkpt lat="46.02607" lon="6.57599">
        <ele>1399.4000244141</ele>
        <time>2019-02-20T14:03:31.000Z</time>
      </trkpt>
      <trkpt lat="46.02613" lon="6.57591">
        <ele>1396.5999755859</ele>
        <time>2019-02-20T14:03:32.000Z</time>
      </trkpt>
      <trkpt lat="46.0262" lon="6.57585">
        <ele>1395</ele>
        <time>2019-02-20T14:03:33.000Z</time>
      </trkpt>
      <trkpt lat="46.02628" lon="6.57579">
        <ele>1392.1999511719</ele>
        <time>2019-02-20T14:03:34.000Z</time>
      </trkpt>
      <trkpt lat="46.02635" lon="6.57572">
        <ele>1390.4000244141</ele>
        <time>2019-02-20T14:03:35.000Z</time>
      </trkpt>
      <trkpt lat="46.02642" lon="6.57565">
        <ele>1387.5999755859</ele>
        <time>2019-02-20T14:03:36.000Z</time>
      </trkpt>
      <trkpt lat="46.0265" lon="6.5756">
        <ele>1385.8000488281</ele>
        <time>2019-02-20T14:03:37.000Z</time>
      </trkpt>
      <trkpt lat="46.02656" lon="6.57553">
        <ele>1384</ele>
        <time>2019-02-20T14:03:38.000Z</time>
      </trkpt>
      <trkpt lat="46.02662" lon="6.57545">
        <ele>1381.4000244141</ele>
        <time>2019-02-20T14:03:39.000Z</time>
      </trkpt>
      <trkpt lat="46.02669" lon="6.57539">
        <ele>1379.4000244141</ele>
        <time>2019-02-20T14:03:40.000Z</time>
      </trkpt>
      <trkpt lat="46.02675" lon="6.57533">
        <ele>1377.1999511719</ele>
        <time>2019-02-20T14:03:41.000Z</time>
      </trkpt>
      <trkpt lat="46.02681" lon="6.57527">
        <ele>1375</ele>
        <time>2019-02-20T14:03:42.000Z</time>
      </trkpt>
      <trkpt lat="46.02688" lon="6.57522">
        <ele>1373.1999511719</ele>
        <time>2019-02-20T14:03:43.000Z</time>
      </trkpt>
      <trkpt lat="46.02694" lon="6.57516">
        <ele>1370.8000488281</ele>
        <time>2019-02-20T14:03:44.000Z</time>
      </trkpt>
      <trkpt lat="46.02701" lon="6.57511">
        <ele>1369.8000488281</ele>
        <time>2019-02-20T14:03:45.000Z</time>
      </trkpt>
      <trkpt lat="46.02707" lon="6.57506">
        <ele>1368.5999755859</ele>
        <time>2019-02-20T14:03:46.000Z</time>
      </trkpt>
      <trkpt lat="46.02714" lon="6.57501">
        <ele>1366.5999755859</ele>
        <time>2019-02-20T14:03:47.000Z</time>
      </trkpt>
      <trkpt lat="46.0272" lon="6.57495">
        <ele>1364.4000244141</ele>
        <time>2019-02-20T14:03:48.000Z</time>
      </trkpt>
      <trkpt lat="46.02727" lon="6.57488">
        <ele>1363.4000244141</ele>
        <time>2019-02-20T14:03:49.000Z</time>
      </trkpt>
      <trkpt lat="46.02734" lon="6.5748">
        <ele>1361</ele>
        <time>2019-02-20T14:03:50.000Z</time>
      </trkpt>
      <trkpt lat="46.02739" lon="6.57471">
        <ele>1359.4000244141</ele>
        <time>2019-02-20T14:03:51.000Z</time>
      </trkpt>
      <trkpt lat="46.02742" lon="6.57462">
        <ele>1358.4000244141</ele>
        <time>2019-02-20T14:03:52.000Z</time>
      </trkpt>
      <trkpt lat="46.02743" lon="6.57453">
        <ele>1356</ele>
        <time>2019-02-20T14:03:53.000Z</time>
      </trkpt>
      <trkpt lat="46.02741" lon="6.57445">
        <ele>1354.8000488281</ele>
        <time>2019-02-20T14:03:54.000Z</time>
      </trkpt>
      <trkpt lat="46.0274" lon="6.57439">
        <ele>1353.1999511719</ele>
        <time>2019-02-20T14:03:55.000Z</time>
      </trkpt>
      <trkpt lat="46.0274" lon="6.57432">
        <ele>1351.4000244141</ele>
        <time>2019-02-20T14:03:56.000Z</time>
      </trkpt>
      <trkpt lat="46.0274" lon="6.57425">
        <ele>1349.8000488281</ele>
        <time>2019-02-20T14:03:57.000Z</time>
      </trkpt>
      <trkpt lat="46.02743" lon="6.57419">
        <ele>1348.1999511719</ele>
        <time>2019-02-20T14:03:58.000Z</time>
      </trkpt>
      <trkpt lat="46.02747" lon="6.57413">
        <ele>1346.8000488281</ele>
        <time>2019-02-20T14:03:59.000Z</time>
      </trkpt>
      <trkpt lat="46.02749" lon="6.57406">
        <ele>1345.5999755859</ele>
        <time>2019-02-20T14:04:00.000Z</time>
      </trkpt>
      <trkpt lat="46.02752" lon="6.57399">
        <ele>1344.4000244141</ele>
        <time>2019-02-20T14:04:01.000Z</time>
      </trkpt>
      <trkpt lat="46.02756" lon="6.57394">
        <ele>1343.4000244141</ele>
        <time>2019-02-20T14:04:02.000Z</time>
      </trkpt>
      <trkpt lat="46.0276" lon="6.57388">
        <ele>1342.5999755859</ele>
        <time>2019-02-20T14:04:03.000Z</time>
      </trkpt>
      <trkpt lat="46.02762" lon="6.57385">
        <ele>1341.8000488281</ele>
        <time>2019-02-20T14:04:04.000Z</time>
      </trkpt>
      <trkpt lat="46.02762" lon="6.57388">
        <ele>1339.1999511719</ele>
        <time>2019-02-20T14:04:07.000Z</time>
      </trkpt>
      <trkpt lat="46.02762" lon="6.57384">
        <ele>1334.8000488281</ele>
        <time>2019-02-20T14:04:13.000Z</time>
      </trkpt>
      <trkpt lat="46.02765" lon="6.5738">
        <ele>1334.600374296</ele>
        <time>2019-02-20T14:04:14.000Z</time>
      </trkpt>
      <trkpt lat="46.02769" lon="6.57375">
        <ele>1334.4000244141</ele>
        <time>2019-02-20T14:04:15.000Z</time>
      </trkpt>
      <trkpt lat="46.02772" lon="6.5737">
        <ele>1334.1999511719</ele>
        <time>2019-02-20T14:04:16.000Z</time>
      </trkpt>
      <trkpt lat="46.02774" lon="6.57362">
        <ele>1334.1999511719</ele>
        <time>2019-02-20T14:04:17.000Z</time>
      </trkpt>
      <trkpt lat="46.02776" lon="6.57355">
        <ele>1333.8000488281</ele>
        <time>2019-02-20T14:04:18.000Z</time>
      </trkpt>
      <trkpt lat="46.02778" lon="6.57351">
        <ele>1333.5999755859</ele>
        <time>2019-02-20T14:04:19.000Z</time>
      </trkpt>
      <trkpt lat="46.0278" lon="6.57347">
        <ele>1330.1999511719</ele>
        <time>2019-02-20T14:04:24.000Z</time>
      </trkpt>
      <trkpt lat="46.02783" lon="6.57347">
        <ele>1329.4000244141</ele>
        <time>2019-02-20T14:04:25.000Z</time>
      </trkpt>
      <trkpt lat="46.02783" lon="6.57343">
        <ele>1328.1999511719</ele>
        <time>2019-02-20T14:04:27.000Z</time>
      </trkpt>
      <trkpt lat="46.0278" lon="6.57341">
        <ele>1327.4000244141</ele>
        <time>2019-02-20T14:04:28.000Z</time>
      </trkpt>
      <trkpt lat="46.02778" lon="6.57339">
        <ele>1327.1999511719</ele>
        <time>2019-02-20T14:04:29.000Z</time>
      </trkpt>
      <trkpt lat="46.02776" lon="6.57339">
        <ele>1325.8000488281</ele>
        <time>2019-02-20T14:04:31.000Z</time>
      </trkpt>
      <trkpt lat="46.02777" lon="6.57338">
        <ele>1323.5999755859</ele>
        <time>2019-02-20T14:04:35.000Z</time>
      </trkpt>
      <trkpt lat="46.0278" lon="6.57336">
        <ele>1319.5999755859</ele>
        <time>2019-02-20T14:04:50.000Z</time>
      </trkpt>
      <trkpt lat="46.02783" lon="6.57334">
        <ele>1319.8000488281</ele>
        <time>2019-02-20T14:04:52.000Z</time>
      </trkpt>
      <trkpt lat="46.02784" lon="6.57332">
        <ele>1319.5999755859</ele>
        <time>2019-02-20T14:04:54.000Z</time>
      </trkpt>
      <trkpt lat="46.02783" lon="6.57332">
        <ele>1317.8000488281</ele>
        <time>2019-02-20T14:05:25.000Z</time>
      </trkpt>
      <trkpt lat="46.02784" lon="6.57329">
        <ele>1318.8000488281</ele>
        <time>2019-02-20T14:05:46.000Z</time>
      </trkpt>
      <trkpt lat="46.02787" lon="6.57327">
        <ele>1318.4000244141</ele>
        <time>2019-02-20T14:05:48.000Z</time>
      </trkpt>
      <trkpt lat="46.02789" lon="6.57324">
        <ele>1317.8002482603</ele>
        <time>2019-02-20T14:05:50.000Z</time>
      </trkpt>
      <trkpt lat="46.0279" lon="6.57322">
        <ele>1317.5999755859</ele>
        <time>2019-02-20T14:05:53.000Z</time>
      </trkpt>
      <trkpt lat="46.02788" lon="6.5732">
        <ele>1317.4000244141</ele>
        <time>2019-02-20T14:05:56.000Z</time>
      </trkpt>
      <trkpt lat="46.02786" lon="6.5732">
        <ele>1317</ele>
        <time>2019-02-20T14:05:58.000Z</time>
      </trkpt>
      <trkpt lat="46.02784" lon="6.57321">
        <ele>1316.8000488281</ele>
        <time>2019-02-20T14:06:00.000Z</time>
      </trkpt>
      <trkpt lat="46.02782" lon="6.57321">
        <ele>1316.5999755859</ele>
        <time>2019-02-20T14:06:02.000Z</time>
      </trkpt>
      <trkpt lat="46.0278" lon="6.57322">
        <ele>1316.8000488281</ele>
        <time>2019-02-20T14:06:05.000Z</time>
      </trkpt>
      <trkpt lat="46.0278" lon="6.57324">
        <ele>1318</ele>
        <time>2019-02-20T14:06:21.000Z</time>
      </trkpt>
      <trkpt lat="46.02781" lon="6.57323">
        <ele>1317.8000488281</ele>
        <time>2019-02-20T14:06:29.000Z</time>
      </trkpt>
      <trkpt lat="46.02783" lon="6.5732">
        <ele>1318</ele>
        <time>2019-02-20T14:06:39.000Z</time>
      </trkpt>
      <trkpt lat="46.02785" lon="6.57321">
        <ele>1317.4000244141</ele>
        <time>2019-02-20T14:07:04.000Z</time>
      </trkpt>
      <trkpt lat="46.02784" lon="6.57323">
        <ele>1317.1999511719</ele>
        <time>2019-02-20T14:07:12.000Z</time>
      </trkpt>
      <trkpt lat="46.02782" lon="6.57325">
        <ele>1317.5999755859</ele>
        <time>2019-02-20T14:07:37.000Z</time>
      </trkpt>
      <trkpt lat="46.02781" lon="6.57326">
        <ele>1315.8000488281</ele>
        <time>2019-02-20T14:07:56.000Z</time>
      </trkpt>
      <trkpt lat="46.02782" lon="6.57324">
        <ele>1316</ele>
        <time>2019-02-20T14:08:00.000Z</time>
      </trkpt>
      <trkpt lat="46.02781" lon="6.57327">
        <ele>1316</ele>
        <time>2019-02-20T14:08:19.000Z</time>
      </trkpt>
      <trkpt lat="46.02782" lon="6.5733">
        <ele>1317</ele>
        <time>2019-02-20T14:08:39.000Z</time>
      </trkpt>
      <trkpt lat="46.02782" lon="6.57333">
        <ele>1317</ele>
        <time>2019-02-20T14:08:41.000Z</time>
      </trkpt>
      <trkpt lat="46.02782" lon="6.5733">
        <ele>1316.7992516512</ele>
        <time>2019-02-20T14:08:51.000Z</time>
      </trkpt>
      <trkpt lat="46.02782" lon="6.57326">
        <ele>1316.5999755859</ele>
        <time>2019-02-20T14:08:53.000Z</time>
      </trkpt>
      <trkpt lat="46.02782" lon="6.57324">
        <ele>1317</ele>
        <time>2019-02-20T14:08:56.000Z</time>
      </trkpt>
      <trkpt lat="46.02783" lon="6.57321">
        <ele>1317</ele>
        <time>2019-02-20T14:09:08.000Z</time>
      </trkpt>
      <trkpt lat="46.02781" lon="6.57323">
        <ele>1317.4000244141</ele>
        <time>2019-02-20T14:09:18.000Z</time>
      </trkpt>
      <trkpt lat="46.02783" lon="6.57323">
        <ele>1317.4000244141</ele>
        <time>2019-02-20T14:09:26.000Z</time>
      </trkpt>
      <trkpt lat="46.02783" lon="6.5732">
        <ele>1317.1999511719</ele>
        <time>2019-02-20T14:09:30.000Z</time>
      </trkpt>
      <trkpt lat="46.02784" lon="6.57322">
        <ele>1315.8000488281</ele>
        <time>2019-02-20T14:09:38.000Z</time>
      </trkpt>
    </trkseg>
  </trk>
</gpx>